<?xml version="1.0" encoding="UTF-8" standalone="no" ?>
<gpx xmlns="http://www.topografix.com/GPX/1/1" xmlns:xsi="http://www.w3.org/2001/XMLSchema-instance" xsi:schemaLocation="http://www.topografix.com/GPX/1/1 http://www.topografix.com/GPX/1/1/gpx.xsd" version="1.1" creator="VisuGPX - https://www.visugpx.com">
  <metadata>
    <name>Gaillon Vallée Bance Rouvray Auteuil </name>
  </metadata>
  <trk>
    <name><![CDATA[Saint-Aubin Vallée Bance Rouvray Auteuil avec David et Johnny]]></name>
    <trkseg>
      <trkpt lat="49.14967" lon="1.34909">
        <ele>25</ele>
        <time>2021-04-11T06:35:23.000Z</time>
      </trkpt>
      <trkpt lat="49.14965" lon="1.34899">
        <ele>25</ele>
        <time>2021-04-11T06:35:25.000Z</time>
      </trkpt>
      <trkpt lat="49.14955" lon="1.34894">
        <ele>25.200000762939</ele>
        <time>2021-04-11T06:35:28.000Z</time>
      </trkpt>
      <trkpt lat="49.14951" lon="1.34893">
        <ele>25.200000762939</ele>
        <time>2021-04-11T06:35:29.000Z</time>
      </trkpt>
      <trkpt lat="49.14928" lon="1.34886">
        <ele>25.39999961853</ele>
        <time>2021-04-11T06:35:35.000Z</time>
      </trkpt>
      <trkpt lat="49.14924" lon="1.34885">
        <ele>25.39999961853</ele>
        <time>2021-04-11T06:35:36.000Z</time>
      </trkpt>
      <trkpt lat="49.14888" lon="1.34877">
        <ele>26.200000762939</ele>
        <time>2021-04-11T06:35:46.000Z</time>
      </trkpt>
      <trkpt lat="49.1487" lon="1.34877">
        <ele>26.39999961853</ele>
        <time>2021-04-11T06:35:51.000Z</time>
      </trkpt>
      <trkpt lat="49.14859" lon="1.34875">
        <ele>26.60000038147</ele>
        <time>2021-04-11T06:35:54.000Z</time>
      </trkpt>
      <trkpt lat="49.1484" lon="1.34863">
        <ele>26.799999237061</ele>
        <time>2021-04-11T06:36:00.000Z</time>
      </trkpt>
      <trkpt lat="49.14821" lon="1.34841">
        <ele>27.39999961853</ele>
        <time>2021-04-11T06:36:07.000Z</time>
      </trkpt>
      <trkpt lat="49.14806" lon="1.34828">
        <ele>28.200000762939</ele>
        <time>2021-04-11T06:36:12.000Z</time>
      </trkpt>
      <trkpt lat="49.14797" lon="1.3482">
        <ele>28.200000762939</ele>
        <time>2021-04-11T06:36:16.000Z</time>
      </trkpt>
      <trkpt lat="49.14786" lon="1.34809">
        <ele>29</ele>
        <time>2021-04-11T06:36:23.000Z</time>
      </trkpt>
      <trkpt lat="49.14783" lon="1.34807">
        <ele>29.60000038147</ele>
        <time>2021-04-11T06:36:25.000Z</time>
      </trkpt>
      <trkpt lat="49.14777" lon="1.34806">
        <ele>30.799999237061</ele>
        <time>2021-04-11T06:36:29.000Z</time>
      </trkpt>
      <trkpt lat="49.14771" lon="1.34807">
        <ele>32</ele>
        <time>2021-04-11T06:36:33.000Z</time>
      </trkpt>
      <trkpt lat="49.14768" lon="1.34808">
        <ele>32.400001525879</ele>
        <time>2021-04-11T06:36:35.000Z</time>
      </trkpt>
      <trkpt lat="49.14766" lon="1.34809">
        <ele>33.200000762939</ele>
        <time>2021-04-11T06:36:37.000Z</time>
      </trkpt>
      <trkpt lat="49.14761" lon="1.34811">
        <ele>34.200000762939</ele>
        <time>2021-04-11T06:36:41.000Z</time>
      </trkpt>
      <trkpt lat="49.14759" lon="1.34812">
        <ele>34.599998474121</ele>
        <time>2021-04-11T06:36:42.000Z</time>
      </trkpt>
      <trkpt lat="49.14756" lon="1.34814">
        <ele>35.400001525879</ele>
        <time>2021-04-11T06:36:45.000Z</time>
      </trkpt>
      <trkpt lat="49.14753" lon="1.34816">
        <ele>36</ele>
        <time>2021-04-11T06:36:48.000Z</time>
      </trkpt>
      <trkpt lat="49.14751" lon="1.34816">
        <ele>36.400001525879</ele>
        <time>2021-04-11T06:36:50.000Z</time>
      </trkpt>
      <trkpt lat="49.14746" lon="1.34819">
        <ele>37.400001525879</ele>
        <time>2021-04-11T06:36:54.000Z</time>
      </trkpt>
      <trkpt lat="49.14745" lon="1.34821">
        <ele>37.799999237061</ele>
        <time>2021-04-11T06:36:55.000Z</time>
      </trkpt>
      <trkpt lat="49.14742" lon="1.34823">
        <ele>38.400001525879</ele>
        <time>2021-04-11T06:36:58.000Z</time>
      </trkpt>
      <trkpt lat="49.14737" lon="1.34827">
        <ele>39.400001525879</ele>
        <time>2021-04-11T06:37:02.000Z</time>
      </trkpt>
      <trkpt lat="49.14735" lon="1.34828">
        <ele>39.599998474121</ele>
        <time>2021-04-11T06:37:03.000Z</time>
      </trkpt>
      <trkpt lat="49.14731" lon="1.34832">
        <ele>41</ele>
        <time>2021-04-11T06:37:06.000Z</time>
      </trkpt>
      <trkpt lat="49.14726" lon="1.34835">
        <ele>41.799999237061</ele>
        <time>2021-04-11T06:37:09.000Z</time>
      </trkpt>
      <trkpt lat="49.14725" lon="1.34835">
        <ele>42</ele>
        <time>2021-04-11T06:37:10.000Z</time>
      </trkpt>
      <trkpt lat="49.14718" lon="1.3484">
        <ele>43.200000762939</ele>
        <time>2021-04-11T06:37:15.000Z</time>
      </trkpt>
      <trkpt lat="49.14716" lon="1.34841">
        <ele>43.400001525879</ele>
        <time>2021-04-11T06:37:16.000Z</time>
      </trkpt>
      <trkpt lat="49.1471" lon="1.34844">
        <ele>44.200000762939</ele>
        <time>2021-04-11T06:37:21.000Z</time>
      </trkpt>
      <trkpt lat="49.14709" lon="1.34843">
        <ele>44.400001525879</ele>
        <time>2021-04-11T06:37:22.000Z</time>
      </trkpt>
      <trkpt lat="49.14705" lon="1.34842">
        <ele>45</ele>
        <time>2021-04-11T06:37:25.000Z</time>
      </trkpt>
      <trkpt lat="49.14704" lon="1.34841">
        <ele>45.200000762939</ele>
        <time>2021-04-11T06:37:26.000Z</time>
      </trkpt>
      <trkpt lat="49.14693" lon="1.34841">
        <ele>46</ele>
        <time>2021-04-11T06:37:31.000Z</time>
      </trkpt>
      <trkpt lat="49.14687" lon="1.34841">
        <ele>46.200000762939</ele>
        <time>2021-04-11T06:37:34.000Z</time>
      </trkpt>
      <trkpt lat="49.14679" lon="1.34839">
        <ele>46.400001525879</ele>
        <time>2021-04-11T06:37:37.000Z</time>
      </trkpt>
      <trkpt lat="49.14661" lon="1.34838">
        <ele>47</ele>
        <time>2021-04-11T06:37:43.000Z</time>
      </trkpt>
      <trkpt lat="49.14642" lon="1.34833">
        <ele>47</ele>
        <time>2021-04-11T06:37:48.000Z</time>
      </trkpt>
      <trkpt lat="49.14623" lon="1.34834">
        <ele>46.599998474121</ele>
        <time>2021-04-11T06:37:53.000Z</time>
      </trkpt>
      <trkpt lat="49.14599" lon="1.34834">
        <ele>45.400001525879</ele>
        <time>2021-04-11T06:37:59.000Z</time>
      </trkpt>
      <trkpt lat="49.14591" lon="1.34835">
        <ele>45.200000762939</ele>
        <time>2021-04-11T06:38:01.000Z</time>
      </trkpt>
      <trkpt lat="49.14578" lon="1.34837">
        <ele>44.799999237061</ele>
        <time>2021-04-11T06:38:04.000Z</time>
      </trkpt>
      <trkpt lat="49.14546" lon="1.34841">
        <ele>44.200000762939</ele>
        <time>2021-04-11T06:38:11.000Z</time>
      </trkpt>
      <trkpt lat="49.14542" lon="1.34842">
        <ele>44.200000762939</ele>
        <time>2021-04-11T06:38:12.000Z</time>
      </trkpt>
      <trkpt lat="49.14525" lon="1.34847">
        <ele>44.200000762939</ele>
        <time>2021-04-11T06:38:16.000Z</time>
      </trkpt>
      <trkpt lat="49.1452" lon="1.34848">
        <ele>44.200000762939</ele>
        <time>2021-04-11T06:38:17.000Z</time>
      </trkpt>
      <trkpt lat="49.14494" lon="1.34858">
        <ele>44</ele>
        <time>2021-04-11T06:38:23.000Z</time>
      </trkpt>
      <trkpt lat="49.14474" lon="1.34869">
        <ele>44</ele>
        <time>2021-04-11T06:38:28.000Z</time>
      </trkpt>
      <trkpt lat="49.14442" lon="1.34883">
        <ele>43.799999237061</ele>
        <time>2021-04-11T06:38:35.000Z</time>
      </trkpt>
      <trkpt lat="49.14418" lon="1.34901">
        <ele>43.799999237061</ele>
        <time>2021-04-11T06:38:41.000Z</time>
      </trkpt>
      <trkpt lat="49.14414" lon="1.34906">
        <ele>43.799999237061</ele>
        <time>2021-04-11T06:38:42.000Z</time>
      </trkpt>
      <trkpt lat="49.14404" lon="1.34918">
        <ele>43.799999237061</ele>
        <time>2021-04-11T06:38:45.000Z</time>
      </trkpt>
      <trkpt lat="49.14395" lon="1.34925">
        <ele>43.599998474121</ele>
        <time>2021-04-11T06:38:47.000Z</time>
      </trkpt>
      <trkpt lat="49.14386" lon="1.3493">
        <ele>43.200000762939</ele>
        <time>2021-04-11T06:38:49.000Z</time>
      </trkpt>
      <trkpt lat="49.1438" lon="1.34931">
        <ele>42.799999237061</ele>
        <time>2021-04-11T06:38:50.000Z</time>
      </trkpt>
      <trkpt lat="49.14375" lon="1.34932">
        <ele>42.599998474121</ele>
        <time>2021-04-11T06:38:51.000Z</time>
      </trkpt>
      <trkpt lat="49.14358" lon="1.34932">
        <ele>42.200000762939</ele>
        <time>2021-04-11T06:38:54.000Z</time>
      </trkpt>
      <trkpt lat="49.14336" lon="1.34934">
        <ele>42</ele>
        <time>2021-04-11T06:38:59.000Z</time>
      </trkpt>
      <trkpt lat="49.14318" lon="1.34927">
        <ele>42</ele>
        <time>2021-04-11T06:39:05.000Z</time>
      </trkpt>
      <trkpt lat="49.14306" lon="1.34926">
        <ele>42</ele>
        <time>2021-04-11T06:39:09.000Z</time>
      </trkpt>
      <trkpt lat="49.14302" lon="1.3494">
        <ele>42.200000762939</ele>
        <time>2021-04-11T06:39:13.000Z</time>
      </trkpt>
      <trkpt lat="49.14292" lon="1.34975">
        <ele>43.799999237061</ele>
        <time>2021-04-11T06:39:22.000Z</time>
      </trkpt>
      <trkpt lat="49.1428" lon="1.34994">
        <ele>44.599998474121</ele>
        <time>2021-04-11T06:39:28.000Z</time>
      </trkpt>
      <trkpt lat="49.14266" lon="1.35007">
        <ele>45.799999237061</ele>
        <time>2021-04-11T06:39:34.000Z</time>
      </trkpt>
      <trkpt lat="49.14262" lon="1.3501">
        <ele>46</ele>
        <time>2021-04-11T06:39:36.000Z</time>
      </trkpt>
      <trkpt lat="49.14253" lon="1.35012">
        <ele>46.799999237061</ele>
        <time>2021-04-11T06:39:40.000Z</time>
      </trkpt>
      <trkpt lat="49.14251" lon="1.35014">
        <ele>47</ele>
        <time>2021-04-11T06:39:41.000Z</time>
      </trkpt>
      <trkpt lat="49.14243" lon="1.35028">
        <ele>48</ele>
        <time>2021-04-11T06:39:46.000Z</time>
      </trkpt>
      <trkpt lat="49.14239" lon="1.35046">
        <ele>48.200000762939</ele>
        <time>2021-04-11T06:39:50.000Z</time>
      </trkpt>
      <trkpt lat="49.14229" lon="1.35065">
        <ele>48</ele>
        <time>2021-04-11T06:39:56.000Z</time>
      </trkpt>
      <trkpt lat="49.1422" lon="1.35082">
        <ele>48</ele>
        <time>2021-04-11T06:40:01.000Z</time>
      </trkpt>
      <trkpt lat="49.14219" lon="1.35085">
        <ele>48</ele>
        <time>2021-04-11T06:40:02.000Z</time>
      </trkpt>
      <trkpt lat="49.14205" lon="1.35106">
        <ele>48.200000762939</ele>
        <time>2021-04-11T06:40:09.000Z</time>
      </trkpt>
      <trkpt lat="49.14193" lon="1.35127">
        <ele>48.599998474121</ele>
        <time>2021-04-11T06:40:15.000Z</time>
      </trkpt>
      <trkpt lat="49.14186" lon="1.35139">
        <ele>48.799999237061</ele>
        <time>2021-04-11T06:40:19.000Z</time>
      </trkpt>
      <trkpt lat="49.14185" lon="1.35141">
        <ele>48.799999237061</ele>
        <time>2021-04-11T06:40:20.000Z</time>
      </trkpt>
      <trkpt lat="49.14177" lon="1.35151">
        <ele>49.599998474121</ele>
        <time>2021-04-11T06:40:24.000Z</time>
      </trkpt>
      <trkpt lat="49.14174" lon="1.35158">
        <ele>50</ele>
        <time>2021-04-11T06:40:26.000Z</time>
      </trkpt>
      <trkpt lat="49.1417" lon="1.35171">
        <ele>50.400001525879</ele>
        <time>2021-04-11T06:40:30.000Z</time>
      </trkpt>
      <trkpt lat="49.14165" lon="1.35184">
        <ele>51</ele>
        <time>2021-04-11T06:40:33.000Z</time>
      </trkpt>
      <trkpt lat="49.14159" lon="1.35194">
        <ele>51.200000762939</ele>
        <time>2021-04-11T06:40:35.000Z</time>
      </trkpt>
      <trkpt lat="49.14156" lon="1.35198">
        <ele>51.400001525879</ele>
        <time>2021-04-11T06:40:36.000Z</time>
      </trkpt>
      <trkpt lat="49.14149" lon="1.35213">
        <ele>52</ele>
        <time>2021-04-11T06:40:39.000Z</time>
      </trkpt>
      <trkpt lat="49.14148" lon="1.35217">
        <ele>52</ele>
        <time>2021-04-11T06:40:40.000Z</time>
      </trkpt>
      <trkpt lat="49.14137" lon="1.35237">
        <ele>52.599998474121</ele>
        <time>2021-04-11T06:40:45.000Z</time>
      </trkpt>
      <trkpt lat="49.14128" lon="1.35254">
        <ele>53.200000762939</ele>
        <time>2021-04-11T06:40:49.000Z</time>
      </trkpt>
      <trkpt lat="49.14127" lon="1.35257">
        <ele>53.400001525879</ele>
        <time>2021-04-11T06:40:50.000Z</time>
      </trkpt>
      <trkpt lat="49.14125" lon="1.35263">
        <ele>53.799999237061</ele>
        <time>2021-04-11T06:40:52.000Z</time>
      </trkpt>
      <trkpt lat="49.14122" lon="1.35275">
        <ele>54.200000762939</ele>
        <time>2021-04-11T06:40:55.000Z</time>
      </trkpt>
      <trkpt lat="49.14117" lon="1.35297">
        <ele>54.799999237061</ele>
        <time>2021-04-11T06:41:00.000Z</time>
      </trkpt>
      <trkpt lat="49.14112" lon="1.3531">
        <ele>55.200000762939</ele>
        <time>2021-04-11T06:41:03.000Z</time>
      </trkpt>
      <trkpt lat="49.14111" lon="1.35318">
        <ele>55.400001525879</ele>
        <time>2021-04-11T06:41:05.000Z</time>
      </trkpt>
      <trkpt lat="49.14107" lon="1.35342">
        <ele>56</ele>
        <time>2021-04-11T06:41:11.000Z</time>
      </trkpt>
      <trkpt lat="49.14106" lon="1.35346">
        <ele>56.200000762939</ele>
        <time>2021-04-11T06:41:12.000Z</time>
      </trkpt>
      <trkpt lat="49.14102" lon="1.35367">
        <ele>57</ele>
        <time>2021-04-11T06:41:17.000Z</time>
      </trkpt>
      <trkpt lat="49.14101" lon="1.35371">
        <ele>57.200000762939</ele>
        <time>2021-04-11T06:41:18.000Z</time>
      </trkpt>
      <trkpt lat="49.14097" lon="1.3539">
        <ele>58</ele>
        <time>2021-04-11T06:41:23.000Z</time>
      </trkpt>
      <trkpt lat="49.14096" lon="1.35395">
        <ele>58.200000762939</ele>
        <time>2021-04-11T06:41:24.000Z</time>
      </trkpt>
      <trkpt lat="49.14092" lon="1.35416">
        <ele>59</ele>
        <time>2021-04-11T06:41:29.000Z</time>
      </trkpt>
      <trkpt lat="49.14087" lon="1.35441">
        <ele>59.799999237061</ele>
        <time>2021-04-11T06:41:35.000Z</time>
      </trkpt>
      <trkpt lat="49.14087" lon="1.35445">
        <ele>60</ele>
        <time>2021-04-11T06:41:36.000Z</time>
      </trkpt>
      <trkpt lat="49.14084" lon="1.35459">
        <ele>60.599998474121</ele>
        <time>2021-04-11T06:41:41.000Z</time>
      </trkpt>
      <trkpt lat="49.14084" lon="1.35462">
        <ele>60.799999237061</ele>
        <time>2021-04-11T06:41:42.000Z</time>
      </trkpt>
      <trkpt lat="49.14083" lon="1.35479">
        <ele>61.200000762939</ele>
        <time>2021-04-11T06:41:46.000Z</time>
      </trkpt>
      <trkpt lat="49.14082" lon="1.35492">
        <ele>61.400001525879</ele>
        <time>2021-04-11T06:41:49.000Z</time>
      </trkpt>
      <trkpt lat="49.14083" lon="1.355">
        <ele>61.599998474121</ele>
        <time>2021-04-11T06:41:51.000Z</time>
      </trkpt>
      <trkpt lat="49.14082" lon="1.35504">
        <ele>61.799999237061</ele>
        <time>2021-04-11T06:41:52.000Z</time>
      </trkpt>
      <trkpt lat="49.1408" lon="1.3551">
        <ele>62</ele>
        <time>2021-04-11T06:41:54.000Z</time>
      </trkpt>
      <trkpt lat="49.14079" lon="1.35514">
        <ele>62.200000762939</ele>
        <time>2021-04-11T06:41:55.000Z</time>
      </trkpt>
      <trkpt lat="49.14077" lon="1.35533">
        <ele>63</ele>
        <time>2021-04-11T06:42:00.000Z</time>
      </trkpt>
      <trkpt lat="49.14078" lon="1.35536">
        <ele>63.200000762939</ele>
        <time>2021-04-11T06:42:01.000Z</time>
      </trkpt>
      <trkpt lat="49.14079" lon="1.35544">
        <ele>63.599998474121</ele>
        <time>2021-04-11T06:42:03.000Z</time>
      </trkpt>
      <trkpt lat="49.14077" lon="1.35555">
        <ele>63.799999237061</ele>
        <time>2021-04-11T06:42:06.000Z</time>
      </trkpt>
      <trkpt lat="49.14074" lon="1.35561">
        <ele>64.199996948242</ele>
        <time>2021-04-11T06:42:08.000Z</time>
      </trkpt>
      <trkpt lat="49.14071" lon="1.35572">
        <ele>64.800003051758</ele>
        <time>2021-04-11T06:42:11.000Z</time>
      </trkpt>
      <trkpt lat="49.1407" lon="1.35575">
        <ele>65</ele>
        <time>2021-04-11T06:42:12.000Z</time>
      </trkpt>
      <trkpt lat="49.1407" lon="1.35586">
        <ele>65.199996948242</ele>
        <time>2021-04-11T06:42:15.000Z</time>
      </trkpt>
      <trkpt lat="49.14069" lon="1.35591">
        <ele>65.400001525879</ele>
        <time>2021-04-11T06:42:17.000Z</time>
      </trkpt>
      <trkpt lat="49.1407" lon="1.35595">
        <ele>65.599998474121</ele>
        <time>2021-04-11T06:42:19.000Z</time>
      </trkpt>
      <trkpt lat="49.1407" lon="1.35597">
        <ele>65.800003051758</ele>
        <time>2021-04-11T06:42:20.000Z</time>
      </trkpt>
      <trkpt lat="49.14069" lon="1.35599">
        <ele>66</ele>
        <time>2021-04-11T06:42:21.000Z</time>
      </trkpt>
      <trkpt lat="49.14068" lon="1.356">
        <ele>66.400001525879</ele>
        <time>2021-04-11T06:42:22.000Z</time>
      </trkpt>
      <trkpt lat="49.14067" lon="1.35601">
        <ele>66.599998474121</ele>
        <time>2021-04-11T06:42:23.000Z</time>
      </trkpt>
      <trkpt lat="49.14065" lon="1.35604">
        <ele>67.199996948242</ele>
        <time>2021-04-11T06:42:25.000Z</time>
      </trkpt>
      <trkpt lat="49.14064" lon="1.3561">
        <ele>68.199996948242</ele>
        <time>2021-04-11T06:42:28.000Z</time>
      </trkpt>
      <trkpt lat="49.14063" lon="1.35612">
        <ele>68.599998474121</ele>
        <time>2021-04-11T06:42:29.000Z</time>
      </trkpt>
      <trkpt lat="49.14061" lon="1.35615">
        <ele>68.800003051758</ele>
        <time>2021-04-11T06:42:30.000Z</time>
      </trkpt>
      <trkpt lat="49.14057" lon="1.35626">
        <ele>69.400001525879</ele>
        <time>2021-04-11T06:42:34.000Z</time>
      </trkpt>
      <trkpt lat="49.14056" lon="1.35627">
        <ele>69.599998474121</ele>
        <time>2021-04-11T06:42:35.000Z</time>
      </trkpt>
      <trkpt lat="49.14054" lon="1.35632">
        <ele>69.800003051758</ele>
        <time>2021-04-11T06:42:37.000Z</time>
      </trkpt>
      <trkpt lat="49.1405" lon="1.3564">
        <ele>70.400001525879</ele>
        <time>2021-04-11T06:42:40.000Z</time>
      </trkpt>
      <trkpt lat="49.14048" lon="1.35641">
        <ele>70.599998474121</ele>
        <time>2021-04-11T06:42:41.000Z</time>
      </trkpt>
      <trkpt lat="49.14041" lon="1.35643">
        <ele>71.199996948242</ele>
        <time>2021-04-11T06:42:44.000Z</time>
      </trkpt>
      <trkpt lat="49.14039" lon="1.35644">
        <ele>71.400001525879</ele>
        <time>2021-04-11T06:42:45.000Z</time>
      </trkpt>
      <trkpt lat="49.14034" lon="1.35648">
        <ele>71.400001525879</ele>
        <time>2021-04-11T06:42:47.000Z</time>
      </trkpt>
      <trkpt lat="49.14033" lon="1.35651">
        <ele>71.599998474121</ele>
        <time>2021-04-11T06:42:48.000Z</time>
      </trkpt>
      <trkpt lat="49.14027" lon="1.35668">
        <ele>71.599998474121</ele>
        <time>2021-04-11T06:42:53.000Z</time>
      </trkpt>
      <trkpt lat="49.14025" lon="1.35675">
        <ele>71.599998474121</ele>
        <time>2021-04-11T06:42:55.000Z</time>
      </trkpt>
      <trkpt lat="49.14022" lon="1.35685">
        <ele>71.800003051758</ele>
        <time>2021-04-11T06:42:58.000Z</time>
      </trkpt>
      <trkpt lat="49.14018" lon="1.35696">
        <ele>71.800003051758</ele>
        <time>2021-04-11T06:43:01.000Z</time>
      </trkpt>
      <trkpt lat="49.14012" lon="1.35706">
        <ele>72.199996948242</ele>
        <time>2021-04-11T06:43:04.000Z</time>
      </trkpt>
      <trkpt lat="49.14006" lon="1.35716">
        <ele>72.400001525879</ele>
        <time>2021-04-11T06:43:07.000Z</time>
      </trkpt>
      <trkpt lat="49.14" lon="1.35725">
        <ele>72.599998474121</ele>
        <time>2021-04-11T06:43:10.000Z</time>
      </trkpt>
      <trkpt lat="49.13991" lon="1.3574">
        <ele>72.599998474121</ele>
        <time>2021-04-11T06:43:16.000Z</time>
      </trkpt>
      <trkpt lat="49.13985" lon="1.35756">
        <ele>73.400001525879</ele>
        <time>2021-04-11T06:43:22.000Z</time>
      </trkpt>
      <trkpt lat="49.13982" lon="1.35758">
        <ele>73.599998474121</ele>
        <time>2021-04-11T06:43:23.000Z</time>
      </trkpt>
      <trkpt lat="49.13979" lon="1.35762">
        <ele>74.199996948242</ele>
        <time>2021-04-11T06:43:25.000Z</time>
      </trkpt>
      <trkpt lat="49.13977" lon="1.35765">
        <ele>74.400001525879</ele>
        <time>2021-04-11T06:43:26.000Z</time>
      </trkpt>
      <trkpt lat="49.13969" lon="1.35777">
        <ele>75.800003051758</ele>
        <time>2021-04-11T06:43:30.000Z</time>
      </trkpt>
      <trkpt lat="49.13967" lon="1.35782">
        <ele>76.400001525879</ele>
        <time>2021-04-11T06:43:32.000Z</time>
      </trkpt>
      <trkpt lat="49.13962" lon="1.35791">
        <ele>76.599998474121</ele>
        <time>2021-04-11T06:43:35.000Z</time>
      </trkpt>
      <trkpt lat="49.13956" lon="1.35802">
        <ele>77</ele>
        <time>2021-04-11T06:43:39.000Z</time>
      </trkpt>
      <trkpt lat="49.13955" lon="1.35804">
        <ele>77.199996948242</ele>
        <time>2021-04-11T06:43:40.000Z</time>
      </trkpt>
      <trkpt lat="49.13955" lon="1.35809">
        <ele>77.599998474121</ele>
        <time>2021-04-11T06:43:43.000Z</time>
      </trkpt>
      <trkpt lat="49.13954" lon="1.35813">
        <ele>78.599998474121</ele>
        <time>2021-04-11T06:43:55.000Z</time>
      </trkpt>
      <trkpt lat="49.13952" lon="1.35817">
        <ele>78.599998474121</ele>
        <time>2021-04-11T06:44:00.000Z</time>
      </trkpt>
      <trkpt lat="49.1395" lon="1.35823">
        <ele>78.599998474121</ele>
        <time>2021-04-11T06:44:06.000Z</time>
      </trkpt>
      <trkpt lat="49.13949" lon="1.35824">
        <ele>78.599998474121</ele>
        <time>2021-04-11T06:44:07.000Z</time>
      </trkpt>
      <trkpt lat="49.13941" lon="1.35839">
        <ele>79</ele>
        <time>2021-04-11T06:44:15.000Z</time>
      </trkpt>
      <trkpt lat="49.13935" lon="1.3585">
        <ele>79.599998474121</ele>
        <time>2021-04-11T06:44:19.000Z</time>
      </trkpt>
      <trkpt lat="49.13933" lon="1.35856">
        <ele>79.800003051758</ele>
        <time>2021-04-11T06:44:21.000Z</time>
      </trkpt>
      <trkpt lat="49.1393" lon="1.35863">
        <ele>80.199996948242</ele>
        <time>2021-04-11T06:44:24.000Z</time>
      </trkpt>
      <trkpt lat="49.13928" lon="1.35871">
        <ele>80.599998474121</ele>
        <time>2021-04-11T06:44:27.000Z</time>
      </trkpt>
      <trkpt lat="49.13927" lon="1.35873">
        <ele>80.400001525879</ele>
        <time>2021-04-11T06:44:28.000Z</time>
      </trkpt>
      <trkpt lat="49.1392" lon="1.35891">
        <ele>81</ele>
        <time>2021-04-11T06:44:33.000Z</time>
      </trkpt>
      <trkpt lat="49.13915" lon="1.35902">
        <ele>81.800003051758</ele>
        <time>2021-04-11T06:44:36.000Z</time>
      </trkpt>
      <trkpt lat="49.13911" lon="1.35911">
        <ele>82.199996948242</ele>
        <time>2021-04-11T06:44:38.000Z</time>
      </trkpt>
      <trkpt lat="49.13909" lon="1.35915">
        <ele>82.199996948242</ele>
        <time>2021-04-11T06:44:39.000Z</time>
      </trkpt>
      <trkpt lat="49.13903" lon="1.35927">
        <ele>82.800003051758</ele>
        <time>2021-04-11T06:44:42.000Z</time>
      </trkpt>
      <trkpt lat="49.13899" lon="1.35936">
        <ele>82.800003051758</ele>
        <time>2021-04-11T06:44:44.000Z</time>
      </trkpt>
      <trkpt lat="49.13895" lon="1.35952">
        <ele>83</ele>
        <time>2021-04-11T06:44:48.000Z</time>
      </trkpt>
      <trkpt lat="49.1389" lon="1.3597">
        <ele>83.599998474121</ele>
        <time>2021-04-11T06:44:54.000Z</time>
      </trkpt>
      <trkpt lat="49.13888" lon="1.35974">
        <ele>83.800003051758</ele>
        <time>2021-04-11T06:44:56.000Z</time>
      </trkpt>
      <trkpt lat="49.13887" lon="1.35976">
        <ele>84.599998474121</ele>
        <time>2021-04-11T06:44:59.000Z</time>
      </trkpt>
      <trkpt lat="49.13884" lon="1.35978">
        <ele>86.599998474121</ele>
        <time>2021-04-11T06:45:08.000Z</time>
      </trkpt>
      <trkpt lat="49.13882" lon="1.35977">
        <ele>86.599998474121</ele>
        <time>2021-04-11T06:45:09.000Z</time>
      </trkpt>
      <trkpt lat="49.13879" lon="1.35975">
        <ele>86.800003051758</ele>
        <time>2021-04-11T06:45:11.000Z</time>
      </trkpt>
      <trkpt lat="49.13868" lon="1.35965">
        <ele>86.599998474121</ele>
        <time>2021-04-11T06:45:17.000Z</time>
      </trkpt>
      <trkpt lat="49.13854" lon="1.35951">
        <ele>85.599998474121</ele>
        <time>2021-04-11T06:45:22.000Z</time>
      </trkpt>
      <trkpt lat="49.1384" lon="1.35938">
        <ele>84.400001525879</ele>
        <time>2021-04-11T06:45:27.000Z</time>
      </trkpt>
      <trkpt lat="49.13827" lon="1.35923">
        <ele>84</ele>
        <time>2021-04-11T06:45:33.000Z</time>
      </trkpt>
      <trkpt lat="49.13826" lon="1.35915">
        <ele>84</ele>
        <time>2021-04-11T06:45:35.000Z</time>
      </trkpt>
      <trkpt lat="49.13826" lon="1.3591">
        <ele>84</ele>
        <time>2021-04-11T06:45:37.000Z</time>
      </trkpt>
      <trkpt lat="49.13825" lon="1.35897">
        <ele>84.599998474121</ele>
        <time>2021-04-11T06:45:41.000Z</time>
      </trkpt>
      <trkpt lat="49.13824" lon="1.35894">
        <ele>84.800003051758</ele>
        <time>2021-04-11T06:45:42.000Z</time>
      </trkpt>
      <trkpt lat="49.13823" lon="1.35892">
        <ele>84.800003051758</ele>
        <time>2021-04-11T06:45:43.000Z</time>
      </trkpt>
      <trkpt lat="49.1382" lon="1.35882">
        <ele>85.599998474121</ele>
        <time>2021-04-11T06:45:46.000Z</time>
      </trkpt>
      <trkpt lat="49.13818" lon="1.35879">
        <ele>85.800003051758</ele>
        <time>2021-04-11T06:45:47.000Z</time>
      </trkpt>
      <trkpt lat="49.13814" lon="1.3587">
        <ele>86.800003051758</ele>
        <time>2021-04-11T06:45:50.000Z</time>
      </trkpt>
      <trkpt lat="49.13808" lon="1.35863">
        <ele>87.400001525879</ele>
        <time>2021-04-11T06:45:53.000Z</time>
      </trkpt>
      <trkpt lat="49.13803" lon="1.35858">
        <ele>87.800003051758</ele>
        <time>2021-04-11T06:45:55.000Z</time>
      </trkpt>
      <trkpt lat="49.13795" lon="1.3585">
        <ele>89</ele>
        <time>2021-04-11T06:45:59.000Z</time>
      </trkpt>
      <trkpt lat="49.13789" lon="1.3584">
        <ele>90.199996948242</ele>
        <time>2021-04-11T06:46:03.000Z</time>
      </trkpt>
      <trkpt lat="49.13786" lon="1.35834">
        <ele>90.599998474121</ele>
        <time>2021-04-11T06:46:05.000Z</time>
      </trkpt>
      <trkpt lat="49.13782" lon="1.35826">
        <ele>91.199996948242</ele>
        <time>2021-04-11T06:46:08.000Z</time>
      </trkpt>
      <trkpt lat="49.13777" lon="1.35818">
        <ele>92</ele>
        <time>2021-04-11T06:46:11.000Z</time>
      </trkpt>
      <trkpt lat="49.13775" lon="1.35816">
        <ele>92.400001525879</ele>
        <time>2021-04-11T06:46:12.000Z</time>
      </trkpt>
      <trkpt lat="49.13767" lon="1.35807">
        <ele>93.400001525879</ele>
        <time>2021-04-11T06:46:17.000Z</time>
      </trkpt>
      <trkpt lat="49.13766" lon="1.35804">
        <ele>93.599998474121</ele>
        <time>2021-04-11T06:46:18.000Z</time>
      </trkpt>
      <trkpt lat="49.13763" lon="1.35791">
        <ele>94.400001525879</ele>
        <time>2021-04-11T06:46:22.000Z</time>
      </trkpt>
      <trkpt lat="49.13763" lon="1.35788">
        <ele>94.599998474121</ele>
        <time>2021-04-11T06:46:23.000Z</time>
      </trkpt>
      <trkpt lat="49.13761" lon="1.35775">
        <ele>95.599998474121</ele>
        <time>2021-04-11T06:46:27.000Z</time>
      </trkpt>
      <trkpt lat="49.13759" lon="1.35772">
        <ele>95.800003051758</ele>
        <time>2021-04-11T06:46:28.000Z</time>
      </trkpt>
      <trkpt lat="49.13752" lon="1.35773">
        <ele>96.400001525879</ele>
        <time>2021-04-11T06:46:31.000Z</time>
      </trkpt>
      <trkpt lat="49.13747" lon="1.35775">
        <ele>96.800003051758</ele>
        <time>2021-04-11T06:46:33.000Z</time>
      </trkpt>
      <trkpt lat="49.13745" lon="1.35775">
        <ele>97</ele>
        <time>2021-04-11T06:46:34.000Z</time>
      </trkpt>
      <trkpt lat="49.13741" lon="1.35776">
        <ele>97.199996948242</ele>
        <time>2021-04-11T06:46:36.000Z</time>
      </trkpt>
      <trkpt lat="49.13731" lon="1.35778">
        <ele>97.400001525879</ele>
        <time>2021-04-11T06:46:42.000Z</time>
      </trkpt>
      <trkpt lat="49.13728" lon="1.35777">
        <ele>97.599998474121</ele>
        <time>2021-04-11T06:46:44.000Z</time>
      </trkpt>
      <trkpt lat="49.13721" lon="1.35775">
        <ele>97.599998474121</ele>
        <time>2021-04-11T06:46:47.000Z</time>
      </trkpt>
      <trkpt lat="49.13718" lon="1.35773">
        <ele>97.800003051758</ele>
        <time>2021-04-11T06:46:49.000Z</time>
      </trkpt>
      <trkpt lat="49.13709" lon="1.35767">
        <ele>98.199996948242</ele>
        <time>2021-04-11T06:46:54.000Z</time>
      </trkpt>
      <trkpt lat="49.13699" lon="1.35765">
        <ele>99.400001525879</ele>
        <time>2021-04-11T06:47:00.000Z</time>
      </trkpt>
      <trkpt lat="49.13698" lon="1.35765">
        <ele>99.599998474121</ele>
        <time>2021-04-11T06:47:01.000Z</time>
      </trkpt>
      <trkpt lat="49.13695" lon="1.35764">
        <ele>100.19999694824</ele>
        <time>2021-04-11T06:47:03.000Z</time>
      </trkpt>
      <trkpt lat="49.1369" lon="1.35764">
        <ele>101</ele>
        <time>2021-04-11T06:47:06.000Z</time>
      </trkpt>
      <trkpt lat="49.13688" lon="1.35764">
        <ele>101.19999694824</ele>
        <time>2021-04-11T06:47:07.000Z</time>
      </trkpt>
      <trkpt lat="49.13678" lon="1.35763">
        <ele>102.40000152588</ele>
        <time>2021-04-11T06:47:12.000Z</time>
      </trkpt>
      <trkpt lat="49.13665" lon="1.35762">
        <ele>103.40000152588</ele>
        <time>2021-04-11T06:47:19.000Z</time>
      </trkpt>
      <trkpt lat="49.13655" lon="1.35759">
        <ele>104.40000152588</ele>
        <time>2021-04-11T06:47:24.000Z</time>
      </trkpt>
      <trkpt lat="49.13651" lon="1.35758">
        <ele>104.59999847412</ele>
        <time>2021-04-11T06:47:26.000Z</time>
      </trkpt>
      <trkpt lat="49.13644" lon="1.35754">
        <ele>105.40000152588</ele>
        <time>2021-04-11T06:47:30.000Z</time>
      </trkpt>
      <trkpt lat="49.13641" lon="1.35752">
        <ele>105.40000152588</ele>
        <time>2021-04-11T06:47:32.000Z</time>
      </trkpt>
      <trkpt lat="49.13635" lon="1.35747">
        <ele>106.19999694824</ele>
        <time>2021-04-11T06:47:37.000Z</time>
      </trkpt>
      <trkpt lat="49.13633" lon="1.35746">
        <ele>106.40000152588</ele>
        <time>2021-04-11T06:47:38.000Z</time>
      </trkpt>
      <trkpt lat="49.13628" lon="1.3574">
        <ele>107.59999847412</ele>
        <time>2021-04-11T06:47:42.000Z</time>
      </trkpt>
      <trkpt lat="49.13627" lon="1.35739">
        <ele>108</ele>
        <time>2021-04-11T06:47:43.000Z</time>
      </trkpt>
      <trkpt lat="49.13622" lon="1.35733">
        <ele>108.80000305176</ele>
        <time>2021-04-11T06:47:47.000Z</time>
      </trkpt>
      <trkpt lat="49.13619" lon="1.35729">
        <ele>109.19999694824</ele>
        <time>2021-04-11T06:47:49.000Z</time>
      </trkpt>
      <trkpt lat="49.13615" lon="1.35723">
        <ele>109.80000305176</ele>
        <time>2021-04-11T06:47:52.000Z</time>
      </trkpt>
      <trkpt lat="49.13611" lon="1.35715">
        <ele>111</ele>
        <time>2021-04-11T06:47:56.000Z</time>
      </trkpt>
      <trkpt lat="49.1361" lon="1.35713">
        <ele>111.19999694824</ele>
        <time>2021-04-11T06:47:57.000Z</time>
      </trkpt>
      <trkpt lat="49.13605" lon="1.35705">
        <ele>112</ele>
        <time>2021-04-11T06:48:01.000Z</time>
      </trkpt>
      <trkpt lat="49.13603" lon="1.357">
        <ele>112.19999694824</ele>
        <time>2021-04-11T06:48:03.000Z</time>
      </trkpt>
      <trkpt lat="49.136" lon="1.35691">
        <ele>113</ele>
        <time>2021-04-11T06:48:07.000Z</time>
      </trkpt>
      <trkpt lat="49.13597" lon="1.35681">
        <ele>113.59999847412</ele>
        <time>2021-04-11T06:48:11.000Z</time>
      </trkpt>
      <trkpt lat="49.13595" lon="1.35676">
        <ele>113.80000305176</ele>
        <time>2021-04-11T06:48:13.000Z</time>
      </trkpt>
      <trkpt lat="49.13592" lon="1.35665">
        <ele>114.59999847412</ele>
        <time>2021-04-11T06:48:17.000Z</time>
      </trkpt>
      <trkpt lat="49.1359" lon="1.35659">
        <ele>115</ele>
        <time>2021-04-11T06:48:19.000Z</time>
      </trkpt>
      <trkpt lat="49.13587" lon="1.35643">
        <ele>116</ele>
        <time>2021-04-11T06:48:24.000Z</time>
      </trkpt>
      <trkpt lat="49.13586" lon="1.35639">
        <ele>116.19999694824</ele>
        <time>2021-04-11T06:48:25.000Z</time>
      </trkpt>
      <trkpt lat="49.13584" lon="1.35626">
        <ele>116.80000305176</ele>
        <time>2021-04-11T06:48:29.000Z</time>
      </trkpt>
      <trkpt lat="49.13582" lon="1.35611">
        <ele>117.19999694824</ele>
        <time>2021-04-11T06:48:33.000Z</time>
      </trkpt>
      <trkpt lat="49.13581" lon="1.35607">
        <ele>117.40000152588</ele>
        <time>2021-04-11T06:48:34.000Z</time>
      </trkpt>
      <trkpt lat="49.13577" lon="1.35585">
        <ele>118.40000152588</ele>
        <time>2021-04-11T06:48:40.000Z</time>
      </trkpt>
      <trkpt lat="49.13569" lon="1.35568">
        <ele>119</ele>
        <time>2021-04-11T06:48:46.000Z</time>
      </trkpt>
      <trkpt lat="49.13564" lon="1.35559">
        <ele>119.59999847412</ele>
        <time>2021-04-11T06:48:49.000Z</time>
      </trkpt>
      <trkpt lat="49.13562" lon="1.3555">
        <ele>120</ele>
        <time>2021-04-11T06:48:52.000Z</time>
      </trkpt>
      <trkpt lat="49.13559" lon="1.35542">
        <ele>120.59999847412</ele>
        <time>2021-04-11T06:48:55.000Z</time>
      </trkpt>
      <trkpt lat="49.13557" lon="1.35532">
        <ele>121</ele>
        <time>2021-04-11T06:48:58.000Z</time>
      </trkpt>
      <trkpt lat="49.13557" lon="1.35524">
        <ele>121.40000152588</ele>
        <time>2021-04-11T06:49:02.000Z</time>
      </trkpt>
      <trkpt lat="49.13556" lon="1.3552">
        <ele>121.59999847412</ele>
        <time>2021-04-11T06:49:14.000Z</time>
      </trkpt>
      <trkpt lat="49.13556" lon="1.35518">
        <ele>121.59999847412</ele>
        <time>2021-04-11T06:49:16.000Z</time>
      </trkpt>
      <trkpt lat="49.13557" lon="1.35517">
        <ele>121.59999847412</ele>
        <time>2021-04-11T06:49:17.000Z</time>
      </trkpt>
      <trkpt lat="49.13561" lon="1.35519">
        <ele>121.59999847412</ele>
        <time>2021-04-11T06:49:20.000Z</time>
      </trkpt>
      <trkpt lat="49.13565" lon="1.35521">
        <ele>121.59999847412</ele>
        <time>2021-04-11T06:49:22.000Z</time>
      </trkpt>
      <trkpt lat="49.13574" lon="1.35528">
        <ele>121.40000152588</ele>
        <time>2021-04-11T06:49:26.000Z</time>
      </trkpt>
      <trkpt lat="49.13592" lon="1.35542">
        <ele>120.80000305176</ele>
        <time>2021-04-11T06:49:32.000Z</time>
      </trkpt>
      <trkpt lat="49.13598" lon="1.35545">
        <ele>120.40000152588</ele>
        <time>2021-04-11T06:49:34.000Z</time>
      </trkpt>
      <trkpt lat="49.13606" lon="1.35552">
        <ele>119.59999847412</ele>
        <time>2021-04-11T06:49:37.000Z</time>
      </trkpt>
      <trkpt lat="49.13612" lon="1.35561">
        <ele>119.19999694824</ele>
        <time>2021-04-11T06:49:39.000Z</time>
      </trkpt>
      <trkpt lat="49.13624" lon="1.35576">
        <ele>118.59999847412</ele>
        <time>2021-04-11T06:49:42.000Z</time>
      </trkpt>
      <trkpt lat="49.13632" lon="1.35586">
        <ele>118.40000152588</ele>
        <time>2021-04-11T06:49:45.000Z</time>
      </trkpt>
      <trkpt lat="49.13633" lon="1.35585">
        <ele>118</ele>
        <time>2021-04-11T06:49:46.000Z</time>
      </trkpt>
      <trkpt lat="49.13636" lon="1.35578">
        <ele>117.40000152588</ele>
        <time>2021-04-11T06:49:48.000Z</time>
      </trkpt>
      <trkpt lat="49.13638" lon="1.35575">
        <ele>116.59999847412</ele>
        <time>2021-04-11T06:49:49.000Z</time>
      </trkpt>
      <trkpt lat="49.13642" lon="1.35565">
        <ele>115.40000152588</ele>
        <time>2021-04-11T06:49:52.000Z</time>
      </trkpt>
      <trkpt lat="49.13643" lon="1.35561">
        <ele>115.19999694824</ele>
        <time>2021-04-11T06:49:53.000Z</time>
      </trkpt>
      <trkpt lat="49.13644" lon="1.35549">
        <ele>114.80000305176</ele>
        <time>2021-04-11T06:49:57.000Z</time>
      </trkpt>
      <trkpt lat="49.13644" lon="1.35547">
        <ele>114.80000305176</ele>
        <time>2021-04-11T06:49:58.000Z</time>
      </trkpt>
      <trkpt lat="49.13646" lon="1.35541">
        <ele>114.80000305176</ele>
        <time>2021-04-11T06:50:01.000Z</time>
      </trkpt>
      <trkpt lat="49.13649" lon="1.35537">
        <ele>115</ele>
        <time>2021-04-11T06:50:03.000Z</time>
      </trkpt>
      <trkpt lat="49.13652" lon="1.35525">
        <ele>115.59999847412</ele>
        <time>2021-04-11T06:50:07.000Z</time>
      </trkpt>
      <trkpt lat="49.13657" lon="1.35509">
        <ele>116</ele>
        <time>2021-04-11T06:50:12.000Z</time>
      </trkpt>
      <trkpt lat="49.13661" lon="1.35494">
        <ele>116.19999694824</ele>
        <time>2021-04-11T06:50:16.000Z</time>
      </trkpt>
      <trkpt lat="49.13663" lon="1.35485">
        <ele>116.40000152588</ele>
        <time>2021-04-11T06:50:18.000Z</time>
      </trkpt>
      <trkpt lat="49.1367" lon="1.35456">
        <ele>116.59999847412</ele>
        <time>2021-04-11T06:50:24.000Z</time>
      </trkpt>
      <trkpt lat="49.13675" lon="1.35436">
        <ele>117.19999694824</ele>
        <time>2021-04-11T06:50:28.000Z</time>
      </trkpt>
      <trkpt lat="49.13682" lon="1.35414">
        <ele>117.19999694824</ele>
        <time>2021-04-11T06:50:32.000Z</time>
      </trkpt>
      <trkpt lat="49.13683" lon="1.35408">
        <ele>117.19999694824</ele>
        <time>2021-04-11T06:50:33.000Z</time>
      </trkpt>
      <trkpt lat="49.13693" lon="1.35368">
        <ele>117.19999694824</ele>
        <time>2021-04-11T06:50:39.000Z</time>
      </trkpt>
      <trkpt lat="49.13699" lon="1.35322">
        <ele>117</ele>
        <time>2021-04-11T06:50:44.000Z</time>
      </trkpt>
      <trkpt lat="49.137" lon="1.35312">
        <ele>116.80000305176</ele>
        <time>2021-04-11T06:50:45.000Z</time>
      </trkpt>
      <trkpt lat="49.13699" lon="1.3529">
        <ele>116</ele>
        <time>2021-04-11T06:50:47.000Z</time>
      </trkpt>
      <trkpt lat="49.13699" lon="1.35278">
        <ele>115.80000305176</ele>
        <time>2021-04-11T06:50:48.000Z</time>
      </trkpt>
      <trkpt lat="49.13701" lon="1.35251">
        <ele>114.59999847412</ele>
        <time>2021-04-11T06:50:50.000Z</time>
      </trkpt>
      <trkpt lat="49.13702" lon="1.35222">
        <ele>113.59999847412</ele>
        <time>2021-04-11T06:50:52.000Z</time>
      </trkpt>
      <trkpt lat="49.13702" lon="1.35206">
        <ele>113.19999694824</ele>
        <time>2021-04-11T06:50:53.000Z</time>
      </trkpt>
      <trkpt lat="49.13702" lon="1.35159">
        <ele>112.19999694824</ele>
        <time>2021-04-11T06:50:56.000Z</time>
      </trkpt>
      <trkpt lat="49.13702" lon="1.35144">
        <ele>111.80000305176</ele>
        <time>2021-04-11T06:50:57.000Z</time>
      </trkpt>
      <trkpt lat="49.13703" lon="1.3513">
        <ele>111</ele>
        <time>2021-04-11T06:50:58.000Z</time>
      </trkpt>
      <trkpt lat="49.13704" lon="1.35111">
        <ele>109.19999694824</ele>
        <time>2021-04-11T06:51:00.000Z</time>
      </trkpt>
      <trkpt lat="49.13703" lon="1.35103">
        <ele>107.19999694824</ele>
        <time>2021-04-11T06:51:02.000Z</time>
      </trkpt>
      <trkpt lat="49.13702" lon="1.351">
        <ele>105.80000305176</ele>
        <time>2021-04-11T06:51:03.000Z</time>
      </trkpt>
      <trkpt lat="49.137" lon="1.35098">
        <ele>104.80000305176</ele>
        <time>2021-04-11T06:51:04.000Z</time>
      </trkpt>
      <trkpt lat="49.13698" lon="1.35097">
        <ele>103.59999847412</ele>
        <time>2021-04-11T06:51:05.000Z</time>
      </trkpt>
      <trkpt lat="49.13695" lon="1.35097">
        <ele>102.59999847412</ele>
        <time>2021-04-11T06:51:06.000Z</time>
      </trkpt>
      <trkpt lat="49.13693" lon="1.35096">
        <ele>101.80000305176</ele>
        <time>2021-04-11T06:51:07.000Z</time>
      </trkpt>
      <trkpt lat="49.1369" lon="1.35095">
        <ele>101.40000152588</ele>
        <time>2021-04-11T06:51:08.000Z</time>
      </trkpt>
      <trkpt lat="49.1368" lon="1.35091">
        <ele>100.19999694824</ele>
        <time>2021-04-11T06:51:11.000Z</time>
      </trkpt>
      <trkpt lat="49.13674" lon="1.35089">
        <ele>99.800003051758</ele>
        <time>2021-04-11T06:51:13.000Z</time>
      </trkpt>
      <trkpt lat="49.1366" lon="1.35087">
        <ele>99.199996948242</ele>
        <time>2021-04-11T06:51:18.000Z</time>
      </trkpt>
      <trkpt lat="49.13654" lon="1.35088">
        <ele>99.199996948242</ele>
        <time>2021-04-11T06:51:20.000Z</time>
      </trkpt>
      <trkpt lat="49.13648" lon="1.35085">
        <ele>99.199996948242</ele>
        <time>2021-04-11T06:51:22.000Z</time>
      </trkpt>
      <trkpt lat="49.13633" lon="1.35085">
        <ele>99.199996948242</ele>
        <time>2021-04-11T06:51:26.000Z</time>
      </trkpt>
      <trkpt lat="49.13625" lon="1.35084">
        <ele>99.199996948242</ele>
        <time>2021-04-11T06:51:28.000Z</time>
      </trkpt>
      <trkpt lat="49.13593" lon="1.35081">
        <ele>99.800003051758</ele>
        <time>2021-04-11T06:51:36.000Z</time>
      </trkpt>
      <trkpt lat="49.13569" lon="1.35091">
        <ele>100.80000305176</ele>
        <time>2021-04-11T06:51:43.000Z</time>
      </trkpt>
      <trkpt lat="49.13561" lon="1.35097">
        <ele>101</ele>
        <time>2021-04-11T06:51:46.000Z</time>
      </trkpt>
      <trkpt lat="49.13552" lon="1.35107">
        <ele>101.80000305176</ele>
        <time>2021-04-11T06:51:50.000Z</time>
      </trkpt>
      <trkpt lat="49.1355" lon="1.35109">
        <ele>102.19999694824</ele>
        <time>2021-04-11T06:51:51.000Z</time>
      </trkpt>
      <trkpt lat="49.13543" lon="1.3512">
        <ele>103.19999694824</ele>
        <time>2021-04-11T06:51:55.000Z</time>
      </trkpt>
      <trkpt lat="49.13541" lon="1.35122">
        <ele>103.40000152588</ele>
        <time>2021-04-11T06:51:56.000Z</time>
      </trkpt>
      <trkpt lat="49.13535" lon="1.35134">
        <ele>104.40000152588</ele>
        <time>2021-04-11T06:52:00.000Z</time>
      </trkpt>
      <trkpt lat="49.13528" lon="1.35144">
        <ele>105.19999694824</ele>
        <time>2021-04-11T06:52:04.000Z</time>
      </trkpt>
      <trkpt lat="49.13525" lon="1.35148">
        <ele>105.40000152588</ele>
        <time>2021-04-11T06:52:06.000Z</time>
      </trkpt>
      <trkpt lat="49.13517" lon="1.35159">
        <ele>106.19999694824</ele>
        <time>2021-04-11T06:52:10.000Z</time>
      </trkpt>
      <trkpt lat="49.13512" lon="1.35164">
        <ele>106.59999847412</ele>
        <time>2021-04-11T06:52:12.000Z</time>
      </trkpt>
      <trkpt lat="49.13502" lon="1.35172">
        <ele>107.59999847412</ele>
        <time>2021-04-11T06:52:16.000Z</time>
      </trkpt>
      <trkpt lat="49.135" lon="1.35173">
        <ele>107.59999847412</ele>
        <time>2021-04-11T06:52:17.000Z</time>
      </trkpt>
      <trkpt lat="49.13499" lon="1.35175">
        <ele>108</ele>
        <time>2021-04-11T06:52:18.000Z</time>
      </trkpt>
      <trkpt lat="49.13501" lon="1.35179">
        <ele>108.19999694824</ele>
        <time>2021-04-11T06:52:20.000Z</time>
      </trkpt>
      <trkpt lat="49.13506" lon="1.3518">
        <ele>108.80000305176</ele>
        <time>2021-04-11T06:52:23.000Z</time>
      </trkpt>
      <trkpt lat="49.13508" lon="1.35181">
        <ele>109</ele>
        <time>2021-04-11T06:52:25.000Z</time>
      </trkpt>
      <trkpt lat="49.13512" lon="1.35192">
        <ele>109.59999847412</ele>
        <time>2021-04-11T06:52:31.000Z</time>
      </trkpt>
      <trkpt lat="49.13512" lon="1.35194">
        <ele>109.80000305176</ele>
        <time>2021-04-11T06:52:32.000Z</time>
      </trkpt>
      <trkpt lat="49.13512" lon="1.35198">
        <ele>110.19999694824</ele>
        <time>2021-04-11T06:52:34.000Z</time>
      </trkpt>
      <trkpt lat="49.13513" lon="1.35204">
        <ele>111</ele>
        <time>2021-04-11T06:52:37.000Z</time>
      </trkpt>
      <trkpt lat="49.13513" lon="1.35208">
        <ele>112</ele>
        <time>2021-04-11T06:52:39.000Z</time>
      </trkpt>
      <trkpt lat="49.13516" lon="1.35214">
        <ele>113.40000152588</ele>
        <time>2021-04-11T06:52:42.000Z</time>
      </trkpt>
      <trkpt lat="49.13516" lon="1.35216">
        <ele>113.59999847412</ele>
        <time>2021-04-11T06:52:43.000Z</time>
      </trkpt>
      <trkpt lat="49.13517" lon="1.3522">
        <ele>114.19999694824</ele>
        <time>2021-04-11T06:52:45.000Z</time>
      </trkpt>
      <trkpt lat="49.13517" lon="1.35222">
        <ele>114.59999847412</ele>
        <time>2021-04-11T06:52:46.000Z</time>
      </trkpt>
      <trkpt lat="49.13519" lon="1.35228">
        <ele>115.19999694824</ele>
        <time>2021-04-11T06:52:49.000Z</time>
      </trkpt>
      <trkpt lat="49.1352" lon="1.35232">
        <ele>115.59999847412</ele>
        <time>2021-04-11T06:52:51.000Z</time>
      </trkpt>
      <trkpt lat="49.13523" lon="1.35244">
        <ele>116.40000152588</ele>
        <time>2021-04-11T06:52:56.000Z</time>
      </trkpt>
      <trkpt lat="49.13523" lon="1.35246">
        <ele>116.59999847412</ele>
        <time>2021-04-11T06:52:57.000Z</time>
      </trkpt>
      <trkpt lat="49.13528" lon="1.35262">
        <ele>117.80000305176</ele>
        <time>2021-04-11T06:53:03.000Z</time>
      </trkpt>
      <trkpt lat="49.13532" lon="1.35272">
        <ele>119</ele>
        <time>2021-04-11T06:53:08.000Z</time>
      </trkpt>
      <trkpt lat="49.13534" lon="1.35277">
        <ele>119.40000152588</ele>
        <time>2021-04-11T06:53:10.000Z</time>
      </trkpt>
      <trkpt lat="49.13535" lon="1.35286">
        <ele>120</ele>
        <time>2021-04-11T06:53:13.000Z</time>
      </trkpt>
      <trkpt lat="49.13535" lon="1.35294">
        <ele>120.19999694824</ele>
        <time>2021-04-11T06:53:16.000Z</time>
      </trkpt>
      <trkpt lat="49.13536" lon="1.35303">
        <ele>120.80000305176</ele>
        <time>2021-04-11T06:53:19.000Z</time>
      </trkpt>
      <trkpt lat="49.13537" lon="1.3531">
        <ele>121.19999694824</ele>
        <time>2021-04-11T06:53:21.000Z</time>
      </trkpt>
      <trkpt lat="49.13538" lon="1.35331">
        <ele>122.40000152588</ele>
        <time>2021-04-11T06:53:27.000Z</time>
      </trkpt>
      <trkpt lat="49.13541" lon="1.35356">
        <ele>123</ele>
        <time>2021-04-11T06:53:33.000Z</time>
      </trkpt>
      <trkpt lat="49.13543" lon="1.35367">
        <ele>123.59999847412</ele>
        <time>2021-04-11T06:53:36.000Z</time>
      </trkpt>
      <trkpt lat="49.13544" lon="1.35375">
        <ele>123.80000305176</ele>
        <time>2021-04-11T06:53:38.000Z</time>
      </trkpt>
      <trkpt lat="49.1355" lon="1.354">
        <ele>123.80000305176</ele>
        <time>2021-04-11T06:53:44.000Z</time>
      </trkpt>
      <trkpt lat="49.13551" lon="1.35425">
        <ele>123.80000305176</ele>
        <time>2021-04-11T06:53:49.000Z</time>
      </trkpt>
      <trkpt lat="49.13544" lon="1.35452">
        <ele>123.19999694824</ele>
        <time>2021-04-11T06:53:55.000Z</time>
      </trkpt>
      <trkpt lat="49.13535" lon="1.35472">
        <ele>122.59999847412</ele>
        <time>2021-04-11T06:54:00.000Z</time>
      </trkpt>
      <trkpt lat="49.13528" lon="1.35478">
        <ele>122.40000152588</ele>
        <time>2021-04-11T06:54:03.000Z</time>
      </trkpt>
      <trkpt lat="49.13525" lon="1.35478">
        <ele>122.40000152588</ele>
        <time>2021-04-11T06:54:04.000Z</time>
      </trkpt>
      <trkpt lat="49.13513" lon="1.35471">
        <ele>122.19999694824</ele>
        <time>2021-04-11T06:54:10.000Z</time>
      </trkpt>
      <trkpt lat="49.13496" lon="1.35465">
        <ele>122.40000152588</ele>
        <time>2021-04-11T06:54:16.000Z</time>
      </trkpt>
      <trkpt lat="49.13476" lon="1.35458">
        <ele>122.80000305176</ele>
        <time>2021-04-11T06:54:22.000Z</time>
      </trkpt>
      <trkpt lat="49.13454" lon="1.3545">
        <ele>123.40000152588</ele>
        <time>2021-04-11T06:54:29.000Z</time>
      </trkpt>
      <trkpt lat="49.1345" lon="1.3545">
        <ele>123.59999847412</ele>
        <time>2021-04-11T06:54:31.000Z</time>
      </trkpt>
      <trkpt lat="49.13449" lon="1.35452">
        <ele>123.80000305176</ele>
        <time>2021-04-11T06:54:32.000Z</time>
      </trkpt>
      <trkpt lat="49.13455" lon="1.35462">
        <ele>124</ele>
        <time>2021-04-11T06:54:36.000Z</time>
      </trkpt>
      <trkpt lat="49.1346" lon="1.3548">
        <ele>124.19999694824</ele>
        <time>2021-04-11T06:54:41.000Z</time>
      </trkpt>
      <trkpt lat="49.13451" lon="1.35499">
        <ele>124.19999694824</ele>
        <time>2021-04-11T06:54:46.000Z</time>
      </trkpt>
      <trkpt lat="49.1345" lon="1.35511">
        <ele>123.80000305176</ele>
        <time>2021-04-11T06:54:49.000Z</time>
      </trkpt>
      <trkpt lat="49.13452" lon="1.35515">
        <ele>123.80000305176</ele>
        <time>2021-04-11T06:54:50.000Z</time>
      </trkpt>
      <trkpt lat="49.13462" lon="1.35521">
        <ele>123.40000152588</ele>
        <time>2021-04-11T06:54:54.000Z</time>
      </trkpt>
      <trkpt lat="49.1347" lon="1.35521">
        <ele>123.40000152588</ele>
        <time>2021-04-11T06:54:57.000Z</time>
      </trkpt>
      <trkpt lat="49.13475" lon="1.35523">
        <ele>123.40000152588</ele>
        <time>2021-04-11T06:54:59.000Z</time>
      </trkpt>
      <trkpt lat="49.13488" lon="1.35531">
        <ele>123</ele>
        <time>2021-04-11T06:55:04.000Z</time>
      </trkpt>
      <trkpt lat="49.13494" lon="1.35543">
        <ele>122.80000305176</ele>
        <time>2021-04-11T06:55:08.000Z</time>
      </trkpt>
      <trkpt lat="49.13495" lon="1.3556">
        <ele>122.80000305176</ele>
        <time>2021-04-11T06:55:13.000Z</time>
      </trkpt>
      <trkpt lat="49.13496" lon="1.35577">
        <ele>122.59999847412</ele>
        <time>2021-04-11T06:55:18.000Z</time>
      </trkpt>
      <trkpt lat="49.13501" lon="1.3561">
        <ele>122.40000152588</ele>
        <time>2021-04-11T06:55:25.000Z</time>
      </trkpt>
      <trkpt lat="49.13501" lon="1.35621">
        <ele>122</ele>
        <time>2021-04-11T06:55:27.000Z</time>
      </trkpt>
      <trkpt lat="49.13504" lon="1.35641">
        <ele>121.80000305176</ele>
        <time>2021-04-11T06:55:30.000Z</time>
      </trkpt>
      <trkpt lat="49.13511" lon="1.35684">
        <ele>121</ele>
        <time>2021-04-11T06:55:36.000Z</time>
      </trkpt>
      <trkpt lat="49.13514" lon="1.35699">
        <ele>120.80000305176</ele>
        <time>2021-04-11T06:55:38.000Z</time>
      </trkpt>
      <trkpt lat="49.13519" lon="1.35726">
        <ele>120</ele>
        <time>2021-04-11T06:55:41.000Z</time>
      </trkpt>
      <trkpt lat="49.1352" lon="1.35735">
        <ele>119.80000305176</ele>
        <time>2021-04-11T06:55:42.000Z</time>
      </trkpt>
      <trkpt lat="49.13527" lon="1.3579">
        <ele>118.80000305176</ele>
        <time>2021-04-11T06:55:47.000Z</time>
      </trkpt>
      <trkpt lat="49.1353" lon="1.3582">
        <ele>117.59999847412</ele>
        <time>2021-04-11T06:55:50.000Z</time>
      </trkpt>
      <trkpt lat="49.13531" lon="1.35827">
        <ele>117</ele>
        <time>2021-04-11T06:55:51.000Z</time>
      </trkpt>
      <trkpt lat="49.13534" lon="1.35841">
        <ele>116.40000152588</ele>
        <time>2021-04-11T06:55:53.000Z</time>
      </trkpt>
      <trkpt lat="49.13535" lon="1.35855">
        <ele>115</ele>
        <time>2021-04-11T06:55:55.000Z</time>
      </trkpt>
      <trkpt lat="49.13537" lon="1.3587">
        <ele>112.40000152588</ele>
        <time>2021-04-11T06:55:57.000Z</time>
      </trkpt>
      <trkpt lat="49.1354" lon="1.35887">
        <ele>111</ele>
        <time>2021-04-11T06:55:59.000Z</time>
      </trkpt>
      <trkpt lat="49.13542" lon="1.35895">
        <ele>109.80000305176</ele>
        <time>2021-04-11T06:56:00.000Z</time>
      </trkpt>
      <trkpt lat="49.13542" lon="1.35901">
        <ele>109</ele>
        <time>2021-04-11T06:56:01.000Z</time>
      </trkpt>
      <trkpt lat="49.13541" lon="1.35905">
        <ele>107.80000305176</ele>
        <time>2021-04-11T06:56:02.000Z</time>
      </trkpt>
      <trkpt lat="49.1354" lon="1.35907">
        <ele>106.59999847412</ele>
        <time>2021-04-11T06:56:03.000Z</time>
      </trkpt>
      <trkpt lat="49.13539" lon="1.35908">
        <ele>105.19999694824</ele>
        <time>2021-04-11T06:56:04.000Z</time>
      </trkpt>
      <trkpt lat="49.13537" lon="1.35909">
        <ele>103.80000305176</ele>
        <time>2021-04-11T06:56:05.000Z</time>
      </trkpt>
      <trkpt lat="49.13536" lon="1.3591">
        <ele>102.19999694824</ele>
        <time>2021-04-11T06:56:06.000Z</time>
      </trkpt>
      <trkpt lat="49.13534" lon="1.3591">
        <ele>100.80000305176</ele>
        <time>2021-04-11T06:56:07.000Z</time>
      </trkpt>
      <trkpt lat="49.13532" lon="1.35911">
        <ele>99.599998474121</ele>
        <time>2021-04-11T06:56:08.000Z</time>
      </trkpt>
      <trkpt lat="49.13528" lon="1.35912">
        <ele>98.199996948242</ele>
        <time>2021-04-11T06:56:10.000Z</time>
      </trkpt>
      <trkpt lat="49.13523" lon="1.35914">
        <ele>97.800003051758</ele>
        <time>2021-04-11T06:56:12.000Z</time>
      </trkpt>
      <trkpt lat="49.13513" lon="1.35917">
        <ele>97.800003051758</ele>
        <time>2021-04-11T06:56:17.000Z</time>
      </trkpt>
      <trkpt lat="49.13503" lon="1.35918">
        <ele>97.800003051758</ele>
        <time>2021-04-11T06:56:21.000Z</time>
      </trkpt>
      <trkpt lat="49.13488" lon="1.35915">
        <ele>98.599998474121</ele>
        <time>2021-04-11T06:56:27.000Z</time>
      </trkpt>
      <trkpt lat="49.13476" lon="1.35913">
        <ele>99.199996948242</ele>
        <time>2021-04-11T06:56:32.000Z</time>
      </trkpt>
      <trkpt lat="49.13473" lon="1.35913">
        <ele>99.400001525879</ele>
        <time>2021-04-11T06:56:33.000Z</time>
      </trkpt>
      <trkpt lat="49.13462" lon="1.35912">
        <ele>100.19999694824</ele>
        <time>2021-04-11T06:56:38.000Z</time>
      </trkpt>
      <trkpt lat="49.13458" lon="1.35911">
        <ele>100.59999847412</ele>
        <time>2021-04-11T06:56:40.000Z</time>
      </trkpt>
      <trkpt lat="49.13451" lon="1.3591">
        <ele>101</ele>
        <time>2021-04-11T06:56:43.000Z</time>
      </trkpt>
      <trkpt lat="49.13437" lon="1.35909">
        <ele>101.59999847412</ele>
        <time>2021-04-11T06:56:49.000Z</time>
      </trkpt>
      <trkpt lat="49.13427" lon="1.35907">
        <ele>102.40000152588</ele>
        <time>2021-04-11T06:56:54.000Z</time>
      </trkpt>
      <trkpt lat="49.13422" lon="1.35906">
        <ele>102.80000305176</ele>
        <time>2021-04-11T06:56:56.000Z</time>
      </trkpt>
      <trkpt lat="49.13415" lon="1.35904">
        <ele>103.40000152588</ele>
        <time>2021-04-11T06:56:59.000Z</time>
      </trkpt>
      <trkpt lat="49.13409" lon="1.35902">
        <ele>103.80000305176</ele>
        <time>2021-04-11T06:57:02.000Z</time>
      </trkpt>
      <trkpt lat="49.13402" lon="1.35899">
        <ele>104.19999694824</ele>
        <time>2021-04-11T06:57:05.000Z</time>
      </trkpt>
      <trkpt lat="49.13391" lon="1.35892">
        <ele>104.80000305176</ele>
        <time>2021-04-11T06:57:10.000Z</time>
      </trkpt>
      <trkpt lat="49.13389" lon="1.35891">
        <ele>104.80000305176</ele>
        <time>2021-04-11T06:57:11.000Z</time>
      </trkpt>
      <trkpt lat="49.13383" lon="1.35881">
        <ele>105.59999847412</ele>
        <time>2021-04-11T06:57:17.000Z</time>
      </trkpt>
      <trkpt lat="49.13385" lon="1.35875">
        <ele>105.80000305176</ele>
        <time>2021-04-11T06:57:21.000Z</time>
      </trkpt>
      <trkpt lat="49.13385" lon="1.35871">
        <ele>106</ele>
        <time>2021-04-11T06:57:23.000Z</time>
      </trkpt>
      <trkpt lat="49.13385" lon="1.35869">
        <ele>106.19999694824</ele>
        <time>2021-04-11T06:57:24.000Z</time>
      </trkpt>
      <trkpt lat="49.13384" lon="1.35864">
        <ele>106.80000305176</ele>
        <time>2021-04-11T06:57:27.000Z</time>
      </trkpt>
      <trkpt lat="49.13383" lon="1.35858">
        <ele>107.40000152588</ele>
        <time>2021-04-11T06:57:30.000Z</time>
      </trkpt>
      <trkpt lat="49.13383" lon="1.35856">
        <ele>107.80000305176</ele>
        <time>2021-04-11T06:57:31.000Z</time>
      </trkpt>
      <trkpt lat="49.13382" lon="1.35854">
        <ele>108.19999694824</ele>
        <time>2021-04-11T06:57:32.000Z</time>
      </trkpt>
      <trkpt lat="49.1338" lon="1.35848">
        <ele>109.19999694824</ele>
        <time>2021-04-11T06:57:35.000Z</time>
      </trkpt>
      <trkpt lat="49.13378" lon="1.35844">
        <ele>110</ele>
        <time>2021-04-11T06:57:37.000Z</time>
      </trkpt>
      <trkpt lat="49.13377" lon="1.35842">
        <ele>110.40000152588</ele>
        <time>2021-04-11T06:57:38.000Z</time>
      </trkpt>
      <trkpt lat="49.13375" lon="1.35836">
        <ele>111.59999847412</ele>
        <time>2021-04-11T06:57:41.000Z</time>
      </trkpt>
      <trkpt lat="49.13374" lon="1.35832">
        <ele>112.19999694824</ele>
        <time>2021-04-11T06:57:43.000Z</time>
      </trkpt>
      <trkpt lat="49.13373" lon="1.35827">
        <ele>112.80000305176</ele>
        <time>2021-04-11T06:57:45.000Z</time>
      </trkpt>
      <trkpt lat="49.13369" lon="1.35819">
        <ele>113.80000305176</ele>
        <time>2021-04-11T06:57:49.000Z</time>
      </trkpt>
      <trkpt lat="49.13366" lon="1.35814">
        <ele>115</ele>
        <time>2021-04-11T06:57:52.000Z</time>
      </trkpt>
      <trkpt lat="49.13366" lon="1.35812">
        <ele>115.19999694824</ele>
        <time>2021-04-11T06:57:53.000Z</time>
      </trkpt>
      <trkpt lat="49.13364" lon="1.35806">
        <ele>115.80000305176</ele>
        <time>2021-04-11T06:57:56.000Z</time>
      </trkpt>
      <trkpt lat="49.13364" lon="1.35804">
        <ele>116.19999694824</ele>
        <time>2021-04-11T06:57:57.000Z</time>
      </trkpt>
      <trkpt lat="49.13364" lon="1.358">
        <ele>116.40000152588</ele>
        <time>2021-04-11T06:57:59.000Z</time>
      </trkpt>
      <trkpt lat="49.13365" lon="1.35793">
        <ele>117</ele>
        <time>2021-04-11T06:58:02.000Z</time>
      </trkpt>
      <trkpt lat="49.13366" lon="1.35787">
        <ele>117.19999694824</ele>
        <time>2021-04-11T06:58:04.000Z</time>
      </trkpt>
      <trkpt lat="49.13366" lon="1.35785">
        <ele>117.40000152588</ele>
        <time>2021-04-11T06:58:05.000Z</time>
      </trkpt>
      <trkpt lat="49.13365" lon="1.35778">
        <ele>118</ele>
        <time>2021-04-11T06:58:08.000Z</time>
      </trkpt>
      <trkpt lat="49.13365" lon="1.35773">
        <ele>118.19999694824</ele>
        <time>2021-04-11T06:58:10.000Z</time>
      </trkpt>
      <trkpt lat="49.13365" lon="1.35764">
        <ele>118.59999847412</ele>
        <time>2021-04-11T06:58:13.000Z</time>
      </trkpt>
      <trkpt lat="49.13366" lon="1.35755">
        <ele>119.40000152588</ele>
        <time>2021-04-11T06:58:16.000Z</time>
      </trkpt>
      <trkpt lat="49.13366" lon="1.35749">
        <ele>119.80000305176</ele>
        <time>2021-04-11T06:58:18.000Z</time>
      </trkpt>
      <trkpt lat="49.13367" lon="1.35733">
        <ele>120.40000152588</ele>
        <time>2021-04-11T06:58:23.000Z</time>
      </trkpt>
      <trkpt lat="49.13368" lon="1.35729">
        <ele>120.40000152588</ele>
        <time>2021-04-11T06:58:24.000Z</time>
      </trkpt>
      <trkpt lat="49.13368" lon="1.35726">
        <ele>120.59999847412</ele>
        <time>2021-04-11T06:58:25.000Z</time>
      </trkpt>
      <trkpt lat="49.1337" lon="1.35708">
        <ele>121</ele>
        <time>2021-04-11T06:58:30.000Z</time>
      </trkpt>
      <trkpt lat="49.13371" lon="1.35691">
        <ele>121.19999694824</ele>
        <time>2021-04-11T06:58:34.000Z</time>
      </trkpt>
      <trkpt lat="49.13373" lon="1.35673">
        <ele>121.40000152588</ele>
        <time>2021-04-11T06:58:39.000Z</time>
      </trkpt>
      <trkpt lat="49.13373" lon="1.35669">
        <ele>121.40000152588</ele>
        <time>2021-04-11T06:58:40.000Z</time>
      </trkpt>
      <trkpt lat="49.13372" lon="1.35666">
        <ele>121.59999847412</ele>
        <time>2021-04-11T06:58:41.000Z</time>
      </trkpt>
      <trkpt lat="49.13372" lon="1.35659">
        <ele>121.80000305176</ele>
        <time>2021-04-11T06:58:44.000Z</time>
      </trkpt>
      <trkpt lat="49.13378" lon="1.35645">
        <ele>122.19999694824</ele>
        <time>2021-04-11T06:58:49.000Z</time>
      </trkpt>
      <trkpt lat="49.13379" lon="1.35642">
        <ele>122.19999694824</ele>
        <time>2021-04-11T06:58:50.000Z</time>
      </trkpt>
      <trkpt lat="49.13379" lon="1.35638">
        <ele>122.19999694824</ele>
        <time>2021-04-11T06:58:54.000Z</time>
      </trkpt>
      <trkpt lat="49.13374" lon="1.35644">
        <ele>122.40000152588</ele>
        <time>2021-04-11T06:59:00.000Z</time>
      </trkpt>
      <trkpt lat="49.13373" lon="1.35646">
        <ele>122.40000152588</ele>
        <time>2021-04-11T06:59:01.000Z</time>
      </trkpt>
      <trkpt lat="49.13366" lon="1.3565">
        <ele>122.40000152588</ele>
        <time>2021-04-11T06:59:05.000Z</time>
      </trkpt>
      <trkpt lat="49.13348" lon="1.35656">
        <ele>122.19999694824</ele>
        <time>2021-04-11T06:59:12.000Z</time>
      </trkpt>
      <trkpt lat="49.13333" lon="1.35654">
        <ele>122</ele>
        <time>2021-04-11T06:59:18.000Z</time>
      </trkpt>
      <trkpt lat="49.13321" lon="1.3565">
        <ele>122</ele>
        <time>2021-04-11T06:59:23.000Z</time>
      </trkpt>
      <trkpt lat="49.13302" lon="1.3564">
        <ele>122</ele>
        <time>2021-04-11T06:59:30.000Z</time>
      </trkpt>
      <trkpt lat="49.13283" lon="1.35625">
        <ele>122.19999694824</ele>
        <time>2021-04-11T06:59:37.000Z</time>
      </trkpt>
      <trkpt lat="49.13262" lon="1.35611">
        <ele>122.40000152588</ele>
        <time>2021-04-11T06:59:44.000Z</time>
      </trkpt>
      <trkpt lat="49.13259" lon="1.3561">
        <ele>122.40000152588</ele>
        <time>2021-04-11T06:59:45.000Z</time>
      </trkpt>
      <trkpt lat="49.13243" lon="1.35605">
        <ele>122.80000305176</ele>
        <time>2021-04-11T06:59:50.000Z</time>
      </trkpt>
      <trkpt lat="49.13228" lon="1.35595">
        <ele>123</ele>
        <time>2021-04-11T06:59:55.000Z</time>
      </trkpt>
      <trkpt lat="49.13213" lon="1.35584">
        <ele>123.19999694824</ele>
        <time>2021-04-11T07:00:01.000Z</time>
      </trkpt>
      <trkpt lat="49.13211" lon="1.35583">
        <ele>123.19999694824</ele>
        <time>2021-04-11T07:00:02.000Z</time>
      </trkpt>
      <trkpt lat="49.13206" lon="1.35587">
        <ele>123.40000152588</ele>
        <time>2021-04-11T07:00:05.000Z</time>
      </trkpt>
      <trkpt lat="49.13204" lon="1.35588">
        <ele>123.40000152588</ele>
        <time>2021-04-11T07:00:06.000Z</time>
      </trkpt>
      <trkpt lat="49.13201" lon="1.35597">
        <ele>123.40000152588</ele>
        <time>2021-04-11T07:00:11.000Z</time>
      </trkpt>
      <trkpt lat="49.132" lon="1.35608">
        <ele>123.19999694824</ele>
        <time>2021-04-11T07:00:16.000Z</time>
      </trkpt>
      <trkpt lat="49.13195" lon="1.35621">
        <ele>123</ele>
        <time>2021-04-11T07:00:21.000Z</time>
      </trkpt>
      <trkpt lat="49.13188" lon="1.35638">
        <ele>123</ele>
        <time>2021-04-11T07:00:26.000Z</time>
      </trkpt>
      <trkpt lat="49.1319" lon="1.35666">
        <ele>122.59999847412</ele>
        <time>2021-04-11T07:00:31.000Z</time>
      </trkpt>
      <trkpt lat="49.13188" lon="1.35685">
        <ele>122.40000152588</ele>
        <time>2021-04-11T07:00:34.000Z</time>
      </trkpt>
      <trkpt lat="49.13188" lon="1.35698">
        <ele>122</ele>
        <time>2021-04-11T07:00:36.000Z</time>
      </trkpt>
      <trkpt lat="49.13185" lon="1.35715">
        <ele>121</ele>
        <time>2021-04-11T07:00:40.000Z</time>
      </trkpt>
      <trkpt lat="49.13181" lon="1.3573">
        <ele>120</ele>
        <time>2021-04-11T07:00:44.000Z</time>
      </trkpt>
      <trkpt lat="49.13175" lon="1.35751">
        <ele>118.80000305176</ele>
        <time>2021-04-11T07:00:47.000Z</time>
      </trkpt>
      <trkpt lat="49.13173" lon="1.35758">
        <ele>118.59999847412</ele>
        <time>2021-04-11T07:00:48.000Z</time>
      </trkpt>
      <trkpt lat="49.13167" lon="1.3577">
        <ele>118</ele>
        <time>2021-04-11T07:00:51.000Z</time>
      </trkpt>
      <trkpt lat="49.13166" lon="1.35772">
        <ele>117.59999847412</ele>
        <time>2021-04-11T07:00:52.000Z</time>
      </trkpt>
      <trkpt lat="49.13164" lon="1.35775">
        <ele>115.80000305176</ele>
        <time>2021-04-11T07:00:55.000Z</time>
      </trkpt>
      <trkpt lat="49.13163" lon="1.35782">
        <ele>114.19999694824</ele>
        <time>2021-04-11T07:02:01.000Z</time>
      </trkpt>
      <trkpt lat="49.13153" lon="1.35781">
        <ele>114.40000152588</ele>
        <time>2021-04-11T07:02:07.000Z</time>
      </trkpt>
      <trkpt lat="49.13139" lon="1.35782">
        <ele>114.59999847412</ele>
        <time>2021-04-11T07:02:13.000Z</time>
      </trkpt>
      <trkpt lat="49.13124" lon="1.35783">
        <ele>115</ele>
        <time>2021-04-11T07:02:19.000Z</time>
      </trkpt>
      <trkpt lat="49.13119" lon="1.35783">
        <ele>115.19999694824</ele>
        <time>2021-04-11T07:02:21.000Z</time>
      </trkpt>
      <trkpt lat="49.13117" lon="1.35787">
        <ele>115.59999847412</ele>
        <time>2021-04-11T07:02:23.000Z</time>
      </trkpt>
      <trkpt lat="49.13118" lon="1.358">
        <ele>116.19999694824</ele>
        <time>2021-04-11T07:02:28.000Z</time>
      </trkpt>
      <trkpt lat="49.13118" lon="1.35803">
        <ele>116.40000152588</ele>
        <time>2021-04-11T07:02:29.000Z</time>
      </trkpt>
      <trkpt lat="49.13118" lon="1.35805">
        <ele>116.59999847412</ele>
        <time>2021-04-11T07:02:30.000Z</time>
      </trkpt>
      <trkpt lat="49.13118" lon="1.35816">
        <ele>117.40000152588</ele>
        <time>2021-04-11T07:02:34.000Z</time>
      </trkpt>
      <trkpt lat="49.13118" lon="1.35818">
        <ele>117.59999847412</ele>
        <time>2021-04-11T07:02:35.000Z</time>
      </trkpt>
      <trkpt lat="49.13118" lon="1.35826">
        <ele>118.19999694824</ele>
        <time>2021-04-11T07:02:38.000Z</time>
      </trkpt>
      <trkpt lat="49.13118" lon="1.35829">
        <ele>118.59999847412</ele>
        <time>2021-04-11T07:02:39.000Z</time>
      </trkpt>
      <trkpt lat="49.13119" lon="1.3584">
        <ele>119.59999847412</ele>
        <time>2021-04-11T07:02:43.000Z</time>
      </trkpt>
      <trkpt lat="49.13119" lon="1.35846">
        <ele>120.40000152588</ele>
        <time>2021-04-11T07:02:45.000Z</time>
      </trkpt>
      <trkpt lat="49.13119" lon="1.35849">
        <ele>120.80000305176</ele>
        <time>2021-04-11T07:02:46.000Z</time>
      </trkpt>
      <trkpt lat="49.13121" lon="1.35862">
        <ele>122</ele>
        <time>2021-04-11T07:02:50.000Z</time>
      </trkpt>
      <trkpt lat="49.13121" lon="1.35865">
        <ele>122.19999694824</ele>
        <time>2021-04-11T07:02:51.000Z</time>
      </trkpt>
      <trkpt lat="49.13124" lon="1.3588">
        <ele>123.19999694824</ele>
        <time>2021-04-11T07:02:55.000Z</time>
      </trkpt>
      <trkpt lat="49.13126" lon="1.35887">
        <ele>123.59999847412</ele>
        <time>2021-04-11T07:02:57.000Z</time>
      </trkpt>
      <trkpt lat="49.13132" lon="1.35915">
        <ele>123.59999847412</ele>
        <time>2021-04-11T07:03:03.000Z</time>
      </trkpt>
      <trkpt lat="49.13137" lon="1.35946">
        <ele>123.59999847412</ele>
        <time>2021-04-11T07:03:09.000Z</time>
      </trkpt>
      <trkpt lat="49.1314" lon="1.35972">
        <ele>123.59999847412</ele>
        <time>2021-04-11T07:03:14.000Z</time>
      </trkpt>
      <trkpt lat="49.13149" lon="1.36012">
        <ele>123.59999847412</ele>
        <time>2021-04-11T07:03:21.000Z</time>
      </trkpt>
      <trkpt lat="49.13155" lon="1.36039">
        <ele>123.80000305176</ele>
        <time>2021-04-11T07:03:26.000Z</time>
      </trkpt>
      <trkpt lat="49.13163" lon="1.36074">
        <ele>123.80000305176</ele>
        <time>2021-04-11T07:03:32.000Z</time>
      </trkpt>
      <trkpt lat="49.1317" lon="1.36111">
        <ele>123.80000305176</ele>
        <time>2021-04-11T07:03:39.000Z</time>
      </trkpt>
      <trkpt lat="49.13177" lon="1.36147">
        <ele>124</ele>
        <time>2021-04-11T07:03:45.000Z</time>
      </trkpt>
      <trkpt lat="49.13183" lon="1.36174">
        <ele>124.19999694824</ele>
        <time>2021-04-11T07:03:50.000Z</time>
      </trkpt>
      <trkpt lat="49.13185" lon="1.36184">
        <ele>124.40000152588</ele>
        <time>2021-04-11T07:03:52.000Z</time>
      </trkpt>
      <trkpt lat="49.1319" lon="1.36207">
        <ele>124.80000305176</ele>
        <time>2021-04-11T07:03:56.000Z</time>
      </trkpt>
      <trkpt lat="49.13199" lon="1.36235">
        <ele>125.40000152588</ele>
        <time>2021-04-11T07:04:01.000Z</time>
      </trkpt>
      <trkpt lat="49.13201" lon="1.36239">
        <ele>125.40000152588</ele>
        <time>2021-04-11T07:04:02.000Z</time>
      </trkpt>
      <trkpt lat="49.13207" lon="1.36253">
        <ele>125.59999847412</ele>
        <time>2021-04-11T07:04:05.000Z</time>
      </trkpt>
      <trkpt lat="49.13212" lon="1.36286">
        <ele>126.19999694824</ele>
        <time>2021-04-11T07:04:11.000Z</time>
      </trkpt>
      <trkpt lat="49.13215" lon="1.36303">
        <ele>126.59999847412</ele>
        <time>2021-04-11T07:04:14.000Z</time>
      </trkpt>
      <trkpt lat="49.13219" lon="1.36327">
        <ele>127</ele>
        <time>2021-04-11T07:04:18.000Z</time>
      </trkpt>
      <trkpt lat="49.13226" lon="1.36357">
        <ele>127.40000152588</ele>
        <time>2021-04-11T07:04:23.000Z</time>
      </trkpt>
      <trkpt lat="49.13228" lon="1.36373">
        <ele>127.59999847412</ele>
        <time>2021-04-11T07:04:26.000Z</time>
      </trkpt>
      <trkpt lat="49.13229" lon="1.36383">
        <ele>127.80000305176</ele>
        <time>2021-04-11T07:04:28.000Z</time>
      </trkpt>
      <trkpt lat="49.13232" lon="1.36403">
        <ele>127.80000305176</ele>
        <time>2021-04-11T07:04:32.000Z</time>
      </trkpt>
      <trkpt lat="49.13236" lon="1.36424">
        <ele>128</ele>
        <time>2021-04-11T07:04:36.000Z</time>
      </trkpt>
      <trkpt lat="49.13243" lon="1.36452">
        <ele>128</ele>
        <time>2021-04-11T07:04:41.000Z</time>
      </trkpt>
      <trkpt lat="49.13249" lon="1.36476">
        <ele>128.19999694824</ele>
        <time>2021-04-11T07:04:46.000Z</time>
      </trkpt>
      <trkpt lat="49.13257" lon="1.36508">
        <ele>128.19999694824</ele>
        <time>2021-04-11T07:04:52.000Z</time>
      </trkpt>
      <trkpt lat="49.1326" lon="1.36534">
        <ele>128.19999694824</ele>
        <time>2021-04-11T07:04:57.000Z</time>
      </trkpt>
      <trkpt lat="49.13267" lon="1.36563">
        <ele>128.19999694824</ele>
        <time>2021-04-11T07:05:02.000Z</time>
      </trkpt>
      <trkpt lat="49.13269" lon="1.36572">
        <ele>128.39999389648</ele>
        <time>2021-04-11T07:05:04.000Z</time>
      </trkpt>
      <trkpt lat="49.1327" lon="1.3658">
        <ele>128.19999694824</ele>
        <time>2021-04-11T07:05:06.000Z</time>
      </trkpt>
      <trkpt lat="49.13271" lon="1.36584">
        <ele>128.19999694824</ele>
        <time>2021-04-11T07:05:07.000Z</time>
      </trkpt>
      <trkpt lat="49.13278" lon="1.36592">
        <ele>128.19999694824</ele>
        <time>2021-04-11T07:05:10.000Z</time>
      </trkpt>
      <trkpt lat="49.13281" lon="1.366">
        <ele>128.39999389648</ele>
        <time>2021-04-11T07:05:13.000Z</time>
      </trkpt>
      <trkpt lat="49.13277" lon="1.36603">
        <ele>128.39999389648</ele>
        <time>2021-04-11T07:05:18.000Z</time>
      </trkpt>
      <trkpt lat="49.13276" lon="1.36603">
        <ele>128.39999389648</ele>
        <time>2021-04-11T07:05:19.000Z</time>
      </trkpt>
      <trkpt lat="49.13273" lon="1.36602">
        <ele>128.39999389648</ele>
        <time>2021-04-11T07:05:21.000Z</time>
      </trkpt>
      <trkpt lat="49.1327" lon="1.36601">
        <ele>128.60000610352</ele>
        <time>2021-04-11T07:05:23.000Z</time>
      </trkpt>
      <trkpt lat="49.13261" lon="1.366">
        <ele>128.60000610352</ele>
        <time>2021-04-11T07:05:27.000Z</time>
      </trkpt>
      <trkpt lat="49.13254" lon="1.36596">
        <ele>128.60000610352</ele>
        <time>2021-04-11T07:05:30.000Z</time>
      </trkpt>
      <trkpt lat="49.13249" lon="1.36594">
        <ele>128.60000610352</ele>
        <time>2021-04-11T07:05:32.000Z</time>
      </trkpt>
      <trkpt lat="49.13233" lon="1.36587">
        <ele>128.80000305176</ele>
        <time>2021-04-11T07:05:38.000Z</time>
      </trkpt>
      <trkpt lat="49.13218" lon="1.36576">
        <ele>128.80000305176</ele>
        <time>2021-04-11T07:05:43.000Z</time>
      </trkpt>
      <trkpt lat="49.13198" lon="1.36563">
        <ele>128.80000305176</ele>
        <time>2021-04-11T07:05:49.000Z</time>
      </trkpt>
      <trkpt lat="49.13171" lon="1.36541">
        <ele>129</ele>
        <time>2021-04-11T07:05:56.000Z</time>
      </trkpt>
      <trkpt lat="49.13155" lon="1.36523">
        <ele>129</ele>
        <time>2021-04-11T07:06:01.000Z</time>
      </trkpt>
      <trkpt lat="49.13136" lon="1.36502">
        <ele>129.19999694824</ele>
        <time>2021-04-11T07:06:07.000Z</time>
      </trkpt>
      <trkpt lat="49.13127" lon="1.36511">
        <ele>129.19999694824</ele>
        <time>2021-04-11T07:06:11.000Z</time>
      </trkpt>
      <trkpt lat="49.13116" lon="1.36521">
        <ele>129.19999694824</ele>
        <time>2021-04-11T07:06:15.000Z</time>
      </trkpt>
      <trkpt lat="49.13112" lon="1.36525">
        <ele>129.19999694824</ele>
        <time>2021-04-11T07:06:17.000Z</time>
      </trkpt>
      <trkpt lat="49.13109" lon="1.36526">
        <ele>129.39999389648</ele>
        <time>2021-04-11T07:06:20.000Z</time>
      </trkpt>
      <trkpt lat="49.13107" lon="1.3653">
        <ele>129.19999694824</ele>
        <time>2021-04-11T07:06:32.000Z</time>
      </trkpt>
      <trkpt lat="49.131" lon="1.36538">
        <ele>129.19999694824</ele>
        <time>2021-04-11T07:06:36.000Z</time>
      </trkpt>
      <trkpt lat="49.13084" lon="1.36558">
        <ele>128.80000305176</ele>
        <time>2021-04-11T07:06:42.000Z</time>
      </trkpt>
      <trkpt lat="49.13073" lon="1.36575">
        <ele>128.19999694824</ele>
        <time>2021-04-11T07:06:46.000Z</time>
      </trkpt>
      <trkpt lat="49.13071" lon="1.3658">
        <ele>128</ele>
        <time>2021-04-11T07:06:47.000Z</time>
      </trkpt>
      <trkpt lat="49.13067" lon="1.36585">
        <ele>128</ele>
        <time>2021-04-11T07:06:48.000Z</time>
      </trkpt>
      <trkpt lat="49.13064" lon="1.36589">
        <ele>127.80000305176</ele>
        <time>2021-04-11T07:06:49.000Z</time>
      </trkpt>
      <trkpt lat="49.13054" lon="1.366">
        <ele>127.59999847412</ele>
        <time>2021-04-11T07:06:52.000Z</time>
      </trkpt>
      <trkpt lat="49.13047" lon="1.36611">
        <ele>127.59999847412</ele>
        <time>2021-04-11T07:06:54.000Z</time>
      </trkpt>
      <trkpt lat="49.1304" lon="1.3663">
        <ele>127.40000152588</ele>
        <time>2021-04-11T07:06:57.000Z</time>
      </trkpt>
      <trkpt lat="49.13042" lon="1.36656">
        <ele>127.40000152588</ele>
        <time>2021-04-11T07:07:01.000Z</time>
      </trkpt>
      <trkpt lat="49.13045" lon="1.36668">
        <ele>127.40000152588</ele>
        <time>2021-04-11T07:07:03.000Z</time>
      </trkpt>
      <trkpt lat="49.13054" lon="1.36691">
        <ele>127.59999847412</ele>
        <time>2021-04-11T07:07:07.000Z</time>
      </trkpt>
      <trkpt lat="49.13075" lon="1.36737">
        <ele>127.59999847412</ele>
        <time>2021-04-11T07:07:15.000Z</time>
      </trkpt>
      <trkpt lat="49.13098" lon="1.36789">
        <ele>127.80000305176</ele>
        <time>2021-04-11T07:07:24.000Z</time>
      </trkpt>
      <trkpt lat="49.13098" lon="1.36815">
        <ele>127.80000305176</ele>
        <time>2021-04-11T07:07:28.000Z</time>
      </trkpt>
      <trkpt lat="49.13097" lon="1.36822">
        <ele>127.80000305176</ele>
        <time>2021-04-11T07:07:29.000Z</time>
      </trkpt>
      <trkpt lat="49.13083" lon="1.36876">
        <ele>128</ele>
        <time>2021-04-11T07:07:37.000Z</time>
      </trkpt>
      <trkpt lat="49.13068" lon="1.36934">
        <ele>128.19999694824</ele>
        <time>2021-04-11T07:07:45.000Z</time>
      </trkpt>
      <trkpt lat="49.13057" lon="1.36969">
        <ele>128.19999694824</ele>
        <time>2021-04-11T07:07:50.000Z</time>
      </trkpt>
      <trkpt lat="49.13054" lon="1.36974">
        <ele>128.19999694824</ele>
        <time>2021-04-11T07:07:51.000Z</time>
      </trkpt>
      <trkpt lat="49.13041" lon="1.36978">
        <ele>128.19999694824</ele>
        <time>2021-04-11T07:07:54.000Z</time>
      </trkpt>
      <trkpt lat="49.13032" lon="1.36971">
        <ele>128.19999694824</ele>
        <time>2021-04-11T07:07:56.000Z</time>
      </trkpt>
      <trkpt lat="49.13013" lon="1.36957">
        <ele>128.19999694824</ele>
        <time>2021-04-11T07:08:00.000Z</time>
      </trkpt>
      <trkpt lat="49.12971" lon="1.36923">
        <ele>128</ele>
        <time>2021-04-11T07:08:09.000Z</time>
      </trkpt>
      <trkpt lat="49.12932" lon="1.36892">
        <ele>128</ele>
        <time>2021-04-11T07:08:17.000Z</time>
      </trkpt>
      <trkpt lat="49.12892" lon="1.36861">
        <ele>128.19999694824</ele>
        <time>2021-04-11T07:08:26.000Z</time>
      </trkpt>
      <trkpt lat="49.12873" lon="1.36851">
        <ele>128.19999694824</ele>
        <time>2021-04-11T07:08:30.000Z</time>
      </trkpt>
      <trkpt lat="49.12864" lon="1.3685">
        <ele>128.19999694824</ele>
        <time>2021-04-11T07:08:32.000Z</time>
      </trkpt>
      <trkpt lat="49.12854" lon="1.3685">
        <ele>128.19999694824</ele>
        <time>2021-04-11T07:08:34.000Z</time>
      </trkpt>
      <trkpt lat="49.1283" lon="1.36852">
        <ele>128</ele>
        <time>2021-04-11T07:08:39.000Z</time>
      </trkpt>
      <trkpt lat="49.12806" lon="1.36852">
        <ele>128</ele>
        <time>2021-04-11T07:08:44.000Z</time>
      </trkpt>
      <trkpt lat="49.12796" lon="1.3685">
        <ele>128</ele>
        <time>2021-04-11T07:08:46.000Z</time>
      </trkpt>
      <trkpt lat="49.12787" lon="1.3685">
        <ele>128</ele>
        <time>2021-04-11T07:08:48.000Z</time>
      </trkpt>
      <trkpt lat="49.12762" lon="1.36851">
        <ele>128</ele>
        <time>2021-04-11T07:08:53.000Z</time>
      </trkpt>
      <trkpt lat="49.12733" lon="1.36853">
        <ele>128.19999694824</ele>
        <time>2021-04-11T07:08:59.000Z</time>
      </trkpt>
      <trkpt lat="49.12725" lon="1.36856">
        <ele>128.39999389648</ele>
        <time>2021-04-11T07:09:01.000Z</time>
      </trkpt>
      <trkpt lat="49.12711" lon="1.36855">
        <ele>128.39999389648</ele>
        <time>2021-04-11T07:09:05.000Z</time>
      </trkpt>
      <trkpt lat="49.12675" lon="1.36865">
        <ele>128.19999694824</ele>
        <time>2021-04-11T07:09:14.000Z</time>
      </trkpt>
      <trkpt lat="49.12671" lon="1.36866">
        <ele>128.19999694824</ele>
        <time>2021-04-11T07:09:15.000Z</time>
      </trkpt>
      <trkpt lat="49.12662" lon="1.36867">
        <ele>128.19999694824</ele>
        <time>2021-04-11T07:09:17.000Z</time>
      </trkpt>
      <trkpt lat="49.12655" lon="1.36869">
        <ele>128.19999694824</ele>
        <time>2021-04-11T07:09:19.000Z</time>
      </trkpt>
      <trkpt lat="49.12624" lon="1.36876">
        <ele>128</ele>
        <time>2021-04-11T07:09:27.000Z</time>
      </trkpt>
      <trkpt lat="49.1261" lon="1.36881">
        <ele>128</ele>
        <time>2021-04-11T07:09:30.000Z</time>
      </trkpt>
      <trkpt lat="49.12596" lon="1.36884">
        <ele>128</ele>
        <time>2021-04-11T07:09:33.000Z</time>
      </trkpt>
      <trkpt lat="49.12557" lon="1.36892">
        <ele>127.59999847412</ele>
        <time>2021-04-11T07:09:41.000Z</time>
      </trkpt>
      <trkpt lat="49.12532" lon="1.36898">
        <ele>127.59999847412</ele>
        <time>2021-04-11T07:09:46.000Z</time>
      </trkpt>
      <trkpt lat="49.12518" lon="1.36901">
        <ele>127.59999847412</ele>
        <time>2021-04-11T07:09:49.000Z</time>
      </trkpt>
      <trkpt lat="49.12481" lon="1.36909">
        <ele>127.40000152588</ele>
        <time>2021-04-11T07:09:57.000Z</time>
      </trkpt>
      <trkpt lat="49.12467" lon="1.36911">
        <ele>127.59999847412</ele>
        <time>2021-04-11T07:10:00.000Z</time>
      </trkpt>
      <trkpt lat="49.12458" lon="1.36912">
        <ele>127.59999847412</ele>
        <time>2021-04-11T07:10:02.000Z</time>
      </trkpt>
      <trkpt lat="49.12453" lon="1.36913">
        <ele>127.59999847412</ele>
        <time>2021-04-11T07:10:03.000Z</time>
      </trkpt>
      <trkpt lat="49.12423" lon="1.36921">
        <ele>127.59999847412</ele>
        <time>2021-04-11T07:10:10.000Z</time>
      </trkpt>
      <trkpt lat="49.12387" lon="1.36929">
        <ele>127.40000152588</ele>
        <time>2021-04-11T07:10:18.000Z</time>
      </trkpt>
      <trkpt lat="49.12352" lon="1.36936">
        <ele>127.40000152588</ele>
        <time>2021-04-11T07:10:26.000Z</time>
      </trkpt>
      <trkpt lat="49.12312" lon="1.36944">
        <ele>127.40000152588</ele>
        <time>2021-04-11T07:10:35.000Z</time>
      </trkpt>
      <trkpt lat="49.12308" lon="1.36945">
        <ele>127.40000152588</ele>
        <time>2021-04-11T07:10:36.000Z</time>
      </trkpt>
      <trkpt lat="49.12276" lon="1.36952">
        <ele>127.40000152588</ele>
        <time>2021-04-11T07:10:44.000Z</time>
      </trkpt>
      <trkpt lat="49.12242" lon="1.36959">
        <ele>127.40000152588</ele>
        <time>2021-04-11T07:10:53.000Z</time>
      </trkpt>
      <trkpt lat="49.12212" lon="1.36966">
        <ele>127.19999694824</ele>
        <time>2021-04-11T07:11:01.000Z</time>
      </trkpt>
      <trkpt lat="49.12175" lon="1.36975">
        <ele>127</ele>
        <time>2021-04-11T07:11:11.000Z</time>
      </trkpt>
      <trkpt lat="49.12137" lon="1.36983">
        <ele>126.59999847412</ele>
        <time>2021-04-11T07:11:21.000Z</time>
      </trkpt>
      <trkpt lat="49.12121" lon="1.36986">
        <ele>126.59999847412</ele>
        <time>2021-04-11T07:11:25.000Z</time>
      </trkpt>
      <trkpt lat="49.12093" lon="1.36993">
        <ele>126.59999847412</ele>
        <time>2021-04-11T07:11:32.000Z</time>
      </trkpt>
      <trkpt lat="49.12058" lon="1.37001">
        <ele>126.40000152588</ele>
        <time>2021-04-11T07:11:41.000Z</time>
      </trkpt>
      <trkpt lat="49.12025" lon="1.37008">
        <ele>126.19999694824</ele>
        <time>2021-04-11T07:11:49.000Z</time>
      </trkpt>
      <trkpt lat="49.11986" lon="1.37016">
        <ele>126</ele>
        <time>2021-04-11T07:11:58.000Z</time>
      </trkpt>
      <trkpt lat="49.11948" lon="1.37022">
        <ele>125.80000305176</ele>
        <time>2021-04-11T07:12:07.000Z</time>
      </trkpt>
      <trkpt lat="49.11912" lon="1.37023">
        <ele>125.80000305176</ele>
        <time>2021-04-11T07:12:16.000Z</time>
      </trkpt>
      <trkpt lat="49.11892" lon="1.37016">
        <ele>126</ele>
        <time>2021-04-11T07:12:21.000Z</time>
      </trkpt>
      <trkpt lat="49.11889" lon="1.37019">
        <ele>125.80000305176</ele>
        <time>2021-04-11T07:12:22.000Z</time>
      </trkpt>
      <trkpt lat="49.11886" lon="1.37037">
        <ele>126</ele>
        <time>2021-04-11T07:12:25.000Z</time>
      </trkpt>
      <trkpt lat="49.11884" lon="1.37057">
        <ele>125.80000305176</ele>
        <time>2021-04-11T07:12:28.000Z</time>
      </trkpt>
      <trkpt lat="49.11883" lon="1.37064">
        <ele>125.80000305176</ele>
        <time>2021-04-11T07:12:29.000Z</time>
      </trkpt>
      <trkpt lat="49.11881" lon="1.37077">
        <ele>125.59999847412</ele>
        <time>2021-04-11T07:12:31.000Z</time>
      </trkpt>
      <trkpt lat="49.11874" lon="1.37095">
        <ele>125.59999847412</ele>
        <time>2021-04-11T07:12:34.000Z</time>
      </trkpt>
      <trkpt lat="49.11868" lon="1.37106">
        <ele>125.59999847412</ele>
        <time>2021-04-11T07:12:36.000Z</time>
      </trkpt>
      <trkpt lat="49.11843" lon="1.37143">
        <ele>125.59999847412</ele>
        <time>2021-04-11T07:12:43.000Z</time>
      </trkpt>
      <trkpt lat="49.1181" lon="1.37191">
        <ele>125.59999847412</ele>
        <time>2021-04-11T07:12:52.000Z</time>
      </trkpt>
      <trkpt lat="49.11781" lon="1.37238">
        <ele>125.59999847412</ele>
        <time>2021-04-11T07:13:01.000Z</time>
      </trkpt>
      <trkpt lat="49.11765" lon="1.37252">
        <ele>125.80000305176</ele>
        <time>2021-04-11T07:13:06.000Z</time>
      </trkpt>
      <trkpt lat="49.11754" lon="1.37242">
        <ele>126</ele>
        <time>2021-04-11T07:13:09.000Z</time>
      </trkpt>
      <trkpt lat="49.1175" lon="1.37238">
        <ele>126</ele>
        <time>2021-04-11T07:13:10.000Z</time>
      </trkpt>
      <trkpt lat="49.1173" lon="1.37215">
        <ele>125.80000305176</ele>
        <time>2021-04-11T07:13:16.000Z</time>
      </trkpt>
      <trkpt lat="49.11716" lon="1.37197">
        <ele>125.80000305176</ele>
        <time>2021-04-11T07:13:22.000Z</time>
      </trkpt>
      <trkpt lat="49.11703" lon="1.37179">
        <ele>125.59999847412</ele>
        <time>2021-04-11T07:13:28.000Z</time>
      </trkpt>
      <trkpt lat="49.11694" lon="1.37167">
        <ele>125.59999847412</ele>
        <time>2021-04-11T07:13:33.000Z</time>
      </trkpt>
      <trkpt lat="49.11693" lon="1.37165">
        <ele>125.59999847412</ele>
        <time>2021-04-11T07:13:34.000Z</time>
      </trkpt>
      <trkpt lat="49.11687" lon="1.37156">
        <ele>125.40000152588</ele>
        <time>2021-04-11T07:13:37.000Z</time>
      </trkpt>
      <trkpt lat="49.11677" lon="1.37137">
        <ele>125.19999694824</ele>
        <time>2021-04-11T07:13:43.000Z</time>
      </trkpt>
      <trkpt lat="49.11668" lon="1.37115">
        <ele>124.80000305176</ele>
        <time>2021-04-11T07:13:48.000Z</time>
      </trkpt>
      <trkpt lat="49.11667" lon="1.37111">
        <ele>124.80000305176</ele>
        <time>2021-04-11T07:13:49.000Z</time>
      </trkpt>
      <trkpt lat="49.11662" lon="1.37089">
        <ele>124.59999847412</ele>
        <time>2021-04-11T07:13:54.000Z</time>
      </trkpt>
      <trkpt lat="49.11652" lon="1.37053">
        <ele>124.19999694824</ele>
        <time>2021-04-11T07:14:01.000Z</time>
      </trkpt>
      <trkpt lat="49.11642" lon="1.37009">
        <ele>124.40000152588</ele>
        <time>2021-04-11T07:14:08.000Z</time>
      </trkpt>
      <trkpt lat="49.1163" lon="1.36962">
        <ele>123.80000305176</ele>
        <time>2021-04-11T07:14:15.000Z</time>
      </trkpt>
      <trkpt lat="49.11628" lon="1.36955">
        <ele>123.80000305176</ele>
        <time>2021-04-11T07:14:16.000Z</time>
      </trkpt>
      <trkpt lat="49.11607" lon="1.36904">
        <ele>122.80000305176</ele>
        <time>2021-04-11T07:14:24.000Z</time>
      </trkpt>
      <trkpt lat="49.11588" lon="1.3686">
        <ele>121.59999847412</ele>
        <time>2021-04-11T07:14:31.000Z</time>
      </trkpt>
      <trkpt lat="49.11582" lon="1.36846">
        <ele>121.59999847412</ele>
        <time>2021-04-11T07:14:33.000Z</time>
      </trkpt>
      <trkpt lat="49.11547" lon="1.3678">
        <ele>121.19999694824</ele>
        <time>2021-04-11T07:14:43.000Z</time>
      </trkpt>
      <trkpt lat="49.11533" lon="1.36756">
        <ele>120.80000305176</ele>
        <time>2021-04-11T07:14:47.000Z</time>
      </trkpt>
      <trkpt lat="49.11518" lon="1.36736">
        <ele>120.59999847412</ele>
        <time>2021-04-11T07:14:51.000Z</time>
      </trkpt>
      <trkpt lat="49.11482" lon="1.36695">
        <ele>120.59999847412</ele>
        <time>2021-04-11T07:15:01.000Z</time>
      </trkpt>
      <trkpt lat="49.11449" lon="1.3666">
        <ele>120.59999847412</ele>
        <time>2021-04-11T07:15:11.000Z</time>
      </trkpt>
      <trkpt lat="49.11426" lon="1.36636">
        <ele>120.59999847412</ele>
        <time>2021-04-11T07:15:19.000Z</time>
      </trkpt>
      <trkpt lat="49.11416" lon="1.36616">
        <ele>120.59999847412</ele>
        <time>2021-04-11T07:15:25.000Z</time>
      </trkpt>
      <trkpt lat="49.11414" lon="1.36614">
        <ele>120.59999847412</ele>
        <time>2021-04-11T07:15:29.000Z</time>
      </trkpt>
      <trkpt lat="49.11413" lon="1.36614">
        <ele>118.59999847412</ele>
        <time>2021-04-11T07:16:07.000Z</time>
      </trkpt>
      <trkpt lat="49.11409" lon="1.36611">
        <ele>118.59999847412</ele>
        <time>2021-04-11T07:16:09.000Z</time>
      </trkpt>
      <trkpt lat="49.11398" lon="1.36599">
        <ele>118.59999847412</ele>
        <time>2021-04-11T07:16:14.000Z</time>
      </trkpt>
      <trkpt lat="49.11369" lon="1.3657">
        <ele>117.59999847412</ele>
        <time>2021-04-11T07:16:24.000Z</time>
      </trkpt>
      <trkpt lat="49.11344" lon="1.36543">
        <ele>116.59999847412</ele>
        <time>2021-04-11T07:16:32.000Z</time>
      </trkpt>
      <trkpt lat="49.11341" lon="1.36539">
        <ele>116.40000152588</ele>
        <time>2021-04-11T07:16:33.000Z</time>
      </trkpt>
      <trkpt lat="49.11312" lon="1.36499">
        <ele>115.40000152588</ele>
        <time>2021-04-11T07:16:43.000Z</time>
      </trkpt>
      <trkpt lat="49.11289" lon="1.36464">
        <ele>114.40000152588</ele>
        <time>2021-04-11T07:16:51.000Z</time>
      </trkpt>
      <trkpt lat="49.11277" lon="1.36447">
        <ele>114.19999694824</ele>
        <time>2021-04-11T07:16:55.000Z</time>
      </trkpt>
      <trkpt lat="49.11248" lon="1.36407">
        <ele>113.80000305176</ele>
        <time>2021-04-11T07:17:04.000Z</time>
      </trkpt>
      <trkpt lat="49.1121" lon="1.3635">
        <ele>113.59999847412</ele>
        <time>2021-04-11T07:17:16.000Z</time>
      </trkpt>
      <trkpt lat="49.11181" lon="1.36302">
        <ele>113.19999694824</ele>
        <time>2021-04-11T07:17:25.000Z</time>
      </trkpt>
      <trkpt lat="49.11158" lon="1.36261">
        <ele>113.19999694824</ele>
        <time>2021-04-11T07:17:32.000Z</time>
      </trkpt>
      <trkpt lat="49.11149" lon="1.36244">
        <ele>113.19999694824</ele>
        <time>2021-04-11T07:17:35.000Z</time>
      </trkpt>
      <trkpt lat="49.11141" lon="1.36226">
        <ele>113</ele>
        <time>2021-04-11T07:17:38.000Z</time>
      </trkpt>
      <trkpt lat="49.11135" lon="1.36215">
        <ele>113</ele>
        <time>2021-04-11T07:17:40.000Z</time>
      </trkpt>
      <trkpt lat="49.11132" lon="1.36209">
        <ele>112.80000305176</ele>
        <time>2021-04-11T07:17:41.000Z</time>
      </trkpt>
      <trkpt lat="49.11124" lon="1.36191">
        <ele>112.59999847412</ele>
        <time>2021-04-11T07:17:44.000Z</time>
      </trkpt>
      <trkpt lat="49.11118" lon="1.36179">
        <ele>112.40000152588</ele>
        <time>2021-04-11T07:17:46.000Z</time>
      </trkpt>
      <trkpt lat="49.11105" lon="1.36152">
        <ele>112.40000152588</ele>
        <time>2021-04-11T07:17:50.000Z</time>
      </trkpt>
      <trkpt lat="49.11072" lon="1.36095">
        <ele>112.40000152588</ele>
        <time>2021-04-11T07:17:59.000Z</time>
      </trkpt>
      <trkpt lat="49.11033" lon="1.36046">
        <ele>112.40000152588</ele>
        <time>2021-04-11T07:18:08.000Z</time>
      </trkpt>
      <trkpt lat="49.10995" lon="1.36007">
        <ele>112.59999847412</ele>
        <time>2021-04-11T07:18:16.000Z</time>
      </trkpt>
      <trkpt lat="49.10945" lon="1.35965">
        <ele>112.59999847412</ele>
        <time>2021-04-11T07:18:25.000Z</time>
      </trkpt>
      <trkpt lat="49.10894" lon="1.35928">
        <ele>112.19999694824</ele>
        <time>2021-04-11T07:18:34.000Z</time>
      </trkpt>
      <trkpt lat="49.10888" lon="1.35924">
        <ele>111.80000305176</ele>
        <time>2021-04-11T07:18:35.000Z</time>
      </trkpt>
      <trkpt lat="49.10841" lon="1.3589">
        <ele>111.40000152588</ele>
        <time>2021-04-11T07:18:43.000Z</time>
      </trkpt>
      <trkpt lat="49.10793" lon="1.35857">
        <ele>111.19999694824</ele>
        <time>2021-04-11T07:18:51.000Z</time>
      </trkpt>
      <trkpt lat="49.10769" lon="1.35842">
        <ele>111</ele>
        <time>2021-04-11T07:18:55.000Z</time>
      </trkpt>
      <trkpt lat="49.10757" lon="1.35836">
        <ele>111</ele>
        <time>2021-04-11T07:18:57.000Z</time>
      </trkpt>
      <trkpt lat="49.10703" lon="1.35805">
        <ele>110.40000152588</ele>
        <time>2021-04-11T07:19:06.000Z</time>
      </trkpt>
      <trkpt lat="49.10686" lon="1.35796">
        <ele>110.19999694824</ele>
        <time>2021-04-11T07:19:09.000Z</time>
      </trkpt>
      <trkpt lat="49.10668" lon="1.35784">
        <ele>110</ele>
        <time>2021-04-11T07:19:12.000Z</time>
      </trkpt>
      <trkpt lat="49.10635" lon="1.35756">
        <ele>109.59999847412</ele>
        <time>2021-04-11T07:19:18.000Z</time>
      </trkpt>
      <trkpt lat="49.10595" lon="1.35708">
        <ele>109.40000152588</ele>
        <time>2021-04-11T07:19:26.000Z</time>
      </trkpt>
      <trkpt lat="49.10562" lon="1.35646">
        <ele>109.59999847412</ele>
        <time>2021-04-11T07:19:34.000Z</time>
      </trkpt>
      <trkpt lat="49.10531" lon="1.35569">
        <ele>109.80000305176</ele>
        <time>2021-04-11T07:19:43.000Z</time>
      </trkpt>
      <trkpt lat="49.10528" lon="1.3556">
        <ele>109.80000305176</ele>
        <time>2021-04-11T07:19:44.000Z</time>
      </trkpt>
      <trkpt lat="49.10498" lon="1.35481">
        <ele>110</ele>
        <time>2021-04-11T07:19:53.000Z</time>
      </trkpt>
      <trkpt lat="49.10491" lon="1.35463">
        <ele>110</ele>
        <time>2021-04-11T07:19:55.000Z</time>
      </trkpt>
      <trkpt lat="49.10463" lon="1.35393">
        <ele>110</ele>
        <time>2021-04-11T07:20:03.000Z</time>
      </trkpt>
      <trkpt lat="49.10447" lon="1.35348">
        <ele>110</ele>
        <time>2021-04-11T07:20:08.000Z</time>
      </trkpt>
      <trkpt lat="49.10419" lon="1.35277">
        <ele>109.80000305176</ele>
        <time>2021-04-11T07:20:16.000Z</time>
      </trkpt>
      <trkpt lat="49.10411" lon="1.35261">
        <ele>109.80000305176</ele>
        <time>2021-04-11T07:20:18.000Z</time>
      </trkpt>
      <trkpt lat="49.10386" lon="1.35221">
        <ele>109.59999847412</ele>
        <time>2021-04-11T07:20:23.000Z</time>
      </trkpt>
      <trkpt lat="49.1035" lon="1.35187">
        <ele>109.59999847412</ele>
        <time>2021-04-11T07:20:29.000Z</time>
      </trkpt>
      <trkpt lat="49.10337" lon="1.35179">
        <ele>109.59999847412</ele>
        <time>2021-04-11T07:20:31.000Z</time>
      </trkpt>
      <trkpt lat="49.10324" lon="1.35173">
        <ele>109.40000152588</ele>
        <time>2021-04-11T07:20:33.000Z</time>
      </trkpt>
      <trkpt lat="49.10318" lon="1.35169">
        <ele>109.40000152588</ele>
        <time>2021-04-11T07:20:34.000Z</time>
      </trkpt>
      <trkpt lat="49.10273" lon="1.3514">
        <ele>109</ele>
        <time>2021-04-11T07:20:41.000Z</time>
      </trkpt>
      <trkpt lat="49.10218" lon="1.35104">
        <ele>108.40000152588</ele>
        <time>2021-04-11T07:20:50.000Z</time>
      </trkpt>
      <trkpt lat="49.10185" lon="1.35067">
        <ele>108.19999694824</ele>
        <time>2021-04-11T07:20:57.000Z</time>
      </trkpt>
      <trkpt lat="49.10172" lon="1.35049">
        <ele>107.80000305176</ele>
        <time>2021-04-11T07:21:00.000Z</time>
      </trkpt>
      <trkpt lat="49.10146" lon="1.35011">
        <ele>107.59999847412</ele>
        <time>2021-04-11T07:21:06.000Z</time>
      </trkpt>
      <trkpt lat="49.10108" lon="1.34958">
        <ele>107</ele>
        <time>2021-04-11T07:21:14.000Z</time>
      </trkpt>
      <trkpt lat="49.10098" lon="1.34944">
        <ele>106.80000305176</ele>
        <time>2021-04-11T07:21:16.000Z</time>
      </trkpt>
      <trkpt lat="49.10072" lon="1.34903">
        <ele>106.59999847412</ele>
        <time>2021-04-11T07:21:21.000Z</time>
      </trkpt>
      <trkpt lat="49.10038" lon="1.34845">
        <ele>106.19999694824</ele>
        <time>2021-04-11T07:21:27.000Z</time>
      </trkpt>
      <trkpt lat="49.10023" lon="1.34817">
        <ele>105.80000305176</ele>
        <time>2021-04-11T07:21:30.000Z</time>
      </trkpt>
      <trkpt lat="49.1002" lon="1.348">
        <ele>105.59999847412</ele>
        <time>2021-04-11T07:21:32.000Z</time>
      </trkpt>
      <trkpt lat="49.1003" lon="1.34781">
        <ele>105.40000152588</ele>
        <time>2021-04-11T07:21:35.000Z</time>
      </trkpt>
      <trkpt lat="49.10035" lon="1.34778">
        <ele>105.40000152588</ele>
        <time>2021-04-11T07:21:36.000Z</time>
      </trkpt>
      <trkpt lat="49.1007" lon="1.34753">
        <ele>105.40000152588</ele>
        <time>2021-04-11T07:21:43.000Z</time>
      </trkpt>
      <trkpt lat="49.10107" lon="1.34715">
        <ele>105.40000152588</ele>
        <time>2021-04-11T07:21:51.000Z</time>
      </trkpt>
      <trkpt lat="49.10139" lon="1.34679">
        <ele>105.80000305176</ele>
        <time>2021-04-11T07:21:58.000Z</time>
      </trkpt>
      <trkpt lat="49.10176" lon="1.34638">
        <ele>106</ele>
        <time>2021-04-11T07:22:06.000Z</time>
      </trkpt>
      <trkpt lat="49.10209" lon="1.34599">
        <ele>106</ele>
        <time>2021-04-11T07:22:13.000Z</time>
      </trkpt>
      <trkpt lat="49.10248" lon="1.34553">
        <ele>106.40000152588</ele>
        <time>2021-04-11T07:22:21.000Z</time>
      </trkpt>
      <trkpt lat="49.10267" lon="1.34528">
        <ele>106.59999847412</ele>
        <time>2021-04-11T07:22:25.000Z</time>
      </trkpt>
      <trkpt lat="49.10275" lon="1.34514">
        <ele>106.59999847412</ele>
        <time>2021-04-11T07:22:27.000Z</time>
      </trkpt>
      <trkpt lat="49.10287" lon="1.34499">
        <ele>106.59999847412</ele>
        <time>2021-04-11T07:22:30.000Z</time>
      </trkpt>
      <trkpt lat="49.10289" lon="1.34494">
        <ele>106.59999847412</ele>
        <time>2021-04-11T07:22:31.000Z</time>
      </trkpt>
      <trkpt lat="49.10285" lon="1.34486">
        <ele>106.80000305176</ele>
        <time>2021-04-11T07:22:34.000Z</time>
      </trkpt>
      <trkpt lat="49.10281" lon="1.34486">
        <ele>106.80000305176</ele>
        <time>2021-04-11T07:22:36.000Z</time>
      </trkpt>
      <trkpt lat="49.10278" lon="1.34486">
        <ele>106.80000305176</ele>
        <time>2021-04-11T07:22:37.000Z</time>
      </trkpt>
      <trkpt lat="49.10275" lon="1.34486">
        <ele>107</ele>
        <time>2021-04-11T07:22:38.000Z</time>
      </trkpt>
      <trkpt lat="49.10258" lon="1.34486">
        <ele>107.19999694824</ele>
        <time>2021-04-11T07:22:43.000Z</time>
      </trkpt>
      <trkpt lat="49.10242" lon="1.3449">
        <ele>107.40000152588</ele>
        <time>2021-04-11T07:22:48.000Z</time>
      </trkpt>
      <trkpt lat="49.10216" lon="1.34494">
        <ele>107.59999847412</ele>
        <time>2021-04-11T07:22:56.000Z</time>
      </trkpt>
      <trkpt lat="49.10208" lon="1.34494">
        <ele>107.59999847412</ele>
        <time>2021-04-11T07:22:58.000Z</time>
      </trkpt>
      <trkpt lat="49.10198" lon="1.34491">
        <ele>107.80000305176</ele>
        <time>2021-04-11T07:23:01.000Z</time>
      </trkpt>
      <trkpt lat="49.10179" lon="1.34491">
        <ele>108</ele>
        <time>2021-04-11T07:23:06.000Z</time>
      </trkpt>
      <trkpt lat="49.10158" lon="1.34492">
        <ele>108</ele>
        <time>2021-04-11T07:23:11.000Z</time>
      </trkpt>
      <trkpt lat="49.10141" lon="1.34494">
        <ele>108.19999694824</ele>
        <time>2021-04-11T07:23:16.000Z</time>
      </trkpt>
      <trkpt lat="49.10116" lon="1.34497">
        <ele>108.19999694824</ele>
        <time>2021-04-11T07:23:23.000Z</time>
      </trkpt>
      <trkpt lat="49.10097" lon="1.34495">
        <ele>108.19999694824</ele>
        <time>2021-04-11T07:23:28.000Z</time>
      </trkpt>
      <trkpt lat="49.10086" lon="1.34494">
        <ele>108.19999694824</ele>
        <time>2021-04-11T07:23:31.000Z</time>
      </trkpt>
      <trkpt lat="49.10076" lon="1.34495">
        <ele>108.40000152588</ele>
        <time>2021-04-11T07:23:34.000Z</time>
      </trkpt>
      <trkpt lat="49.10055" lon="1.34498">
        <ele>108.40000152588</ele>
        <time>2021-04-11T07:23:39.000Z</time>
      </trkpt>
      <trkpt lat="49.1002" lon="1.34503">
        <ele>108.59999847412</ele>
        <time>2021-04-11T07:23:46.000Z</time>
      </trkpt>
      <trkpt lat="49.10006" lon="1.34505">
        <ele>108.40000152588</ele>
        <time>2021-04-11T07:23:49.000Z</time>
      </trkpt>
      <trkpt lat="49.09991" lon="1.34506">
        <ele>108.59999847412</ele>
        <time>2021-04-11T07:23:52.000Z</time>
      </trkpt>
      <trkpt lat="49.09954" lon="1.34508">
        <ele>108.59999847412</ele>
        <time>2021-04-11T07:24:00.000Z</time>
      </trkpt>
      <trkpt lat="49.09923" lon="1.34516">
        <ele>108.80000305176</ele>
        <time>2021-04-11T07:24:07.000Z</time>
      </trkpt>
      <trkpt lat="49.09895" lon="1.34523">
        <ele>108.80000305176</ele>
        <time>2021-04-11T07:24:13.000Z</time>
      </trkpt>
      <trkpt lat="49.09875" lon="1.34521">
        <ele>108.80000305176</ele>
        <time>2021-04-11T07:24:17.000Z</time>
      </trkpt>
      <trkpt lat="49.0987" lon="1.3452">
        <ele>108.80000305176</ele>
        <time>2021-04-11T07:24:18.000Z</time>
      </trkpt>
      <trkpt lat="49.09864" lon="1.34518">
        <ele>109</ele>
        <time>2021-04-11T07:24:19.000Z</time>
      </trkpt>
      <trkpt lat="49.09845" lon="1.34502">
        <ele>109.19999694824</ele>
        <time>2021-04-11T07:24:23.000Z</time>
      </trkpt>
      <trkpt lat="49.09841" lon="1.34497">
        <ele>109.19999694824</ele>
        <time>2021-04-11T07:24:24.000Z</time>
      </trkpt>
      <trkpt lat="49.09823" lon="1.3447">
        <ele>109.40000152588</ele>
        <time>2021-04-11T07:24:29.000Z</time>
      </trkpt>
      <trkpt lat="49.09806" lon="1.34443">
        <ele>109.19999694824</ele>
        <time>2021-04-11T07:24:35.000Z</time>
      </trkpt>
      <trkpt lat="49.09789" lon="1.34417">
        <ele>109.19999694824</ele>
        <time>2021-04-11T07:24:41.000Z</time>
      </trkpt>
      <trkpt lat="49.09765" lon="1.34379">
        <ele>108.19999694824</ele>
        <time>2021-04-11T07:24:48.000Z</time>
      </trkpt>
      <trkpt lat="49.09749" lon="1.3435">
        <ele>107.59999847412</ele>
        <time>2021-04-11T07:24:53.000Z</time>
      </trkpt>
      <trkpt lat="49.09735" lon="1.34327">
        <ele>105.59999847412</ele>
        <time>2021-04-11T07:24:57.000Z</time>
      </trkpt>
      <trkpt lat="49.09732" lon="1.34321">
        <ele>104.19999694824</ele>
        <time>2021-04-11T07:24:58.000Z</time>
      </trkpt>
      <trkpt lat="49.09726" lon="1.3431">
        <ele>103</ele>
        <time>2021-04-11T07:25:00.000Z</time>
      </trkpt>
      <trkpt lat="49.09711" lon="1.34287">
        <ele>102.40000152588</ele>
        <time>2021-04-11T07:25:04.000Z</time>
      </trkpt>
      <trkpt lat="49.09708" lon="1.34281">
        <ele>102.19999694824</ele>
        <time>2021-04-11T07:25:05.000Z</time>
      </trkpt>
      <trkpt lat="49.09695" lon="1.34257">
        <ele>102</ele>
        <time>2021-04-11T07:25:09.000Z</time>
      </trkpt>
      <trkpt lat="49.09686" lon="1.34239">
        <ele>101.80000305176</ele>
        <time>2021-04-11T07:25:12.000Z</time>
      </trkpt>
      <trkpt lat="49.09668" lon="1.34203">
        <ele>101.59999847412</ele>
        <time>2021-04-11T07:25:18.000Z</time>
      </trkpt>
      <trkpt lat="49.09663" lon="1.3419">
        <ele>101.59999847412</ele>
        <time>2021-04-11T07:25:20.000Z</time>
      </trkpt>
      <trkpt lat="49.09636" lon="1.34116">
        <ele>101.19999694824</ele>
        <time>2021-04-11T07:25:31.000Z</time>
      </trkpt>
      <trkpt lat="49.09607" lon="1.3404">
        <ele>101.40000152588</ele>
        <time>2021-04-11T07:25:42.000Z</time>
      </trkpt>
      <trkpt lat="49.09601" lon="1.34026">
        <ele>101.40000152588</ele>
        <time>2021-04-11T07:25:44.000Z</time>
      </trkpt>
      <trkpt lat="49.09576" lon="1.33966">
        <ele>101.40000152588</ele>
        <time>2021-04-11T07:25:53.000Z</time>
      </trkpt>
      <trkpt lat="49.09546" lon="1.33897">
        <ele>101.80000305176</ele>
        <time>2021-04-11T07:26:03.000Z</time>
      </trkpt>
      <trkpt lat="49.09515" lon="1.33833">
        <ele>101.80000305176</ele>
        <time>2021-04-11T07:26:12.000Z</time>
      </trkpt>
      <trkpt lat="49.09502" lon="1.33815">
        <ele>101.80000305176</ele>
        <time>2021-04-11T07:26:15.000Z</time>
      </trkpt>
      <trkpt lat="49.09493" lon="1.33813">
        <ele>101.80000305176</ele>
        <time>2021-04-11T07:26:17.000Z</time>
      </trkpt>
      <trkpt lat="49.09479" lon="1.33821">
        <ele>102</ele>
        <time>2021-04-11T07:26:20.000Z</time>
      </trkpt>
      <trkpt lat="49.0946" lon="1.33832">
        <ele>102.19999694824</ele>
        <time>2021-04-11T07:26:24.000Z</time>
      </trkpt>
      <trkpt lat="49.09426" lon="1.33852">
        <ele>102.19999694824</ele>
        <time>2021-04-11T07:26:31.000Z</time>
      </trkpt>
      <trkpt lat="49.09395" lon="1.33882">
        <ele>102.40000152588</ele>
        <time>2021-04-11T07:26:38.000Z</time>
      </trkpt>
      <trkpt lat="49.0936" lon="1.3392">
        <ele>102.59999847412</ele>
        <time>2021-04-11T07:26:46.000Z</time>
      </trkpt>
      <trkpt lat="49.09351" lon="1.33929">
        <ele>102.59999847412</ele>
        <time>2021-04-11T07:26:48.000Z</time>
      </trkpt>
      <trkpt lat="49.09328" lon="1.33954">
        <ele>102.59999847412</ele>
        <time>2021-04-11T07:26:53.000Z</time>
      </trkpt>
      <trkpt lat="49.09289" lon="1.33994">
        <ele>102</ele>
        <time>2021-04-11T07:27:01.000Z</time>
      </trkpt>
      <trkpt lat="49.0925" lon="1.34037">
        <ele>101.19999694824</ele>
        <time>2021-04-11T07:27:09.000Z</time>
      </trkpt>
      <trkpt lat="49.09241" lon="1.34048">
        <ele>100.80000305176</ele>
        <time>2021-04-11T07:27:11.000Z</time>
      </trkpt>
      <trkpt lat="49.09211" lon="1.34079">
        <ele>100</ele>
        <time>2021-04-11T07:27:17.000Z</time>
      </trkpt>
      <trkpt lat="49.09201" lon="1.3409">
        <ele>99.599998474121</ele>
        <time>2021-04-11T07:27:19.000Z</time>
      </trkpt>
      <trkpt lat="49.09171" lon="1.34119">
        <ele>98.599998474121</ele>
        <time>2021-04-11T07:27:25.000Z</time>
      </trkpt>
      <trkpt lat="49.09136" lon="1.34149">
        <ele>98</ele>
        <time>2021-04-11T07:27:32.000Z</time>
      </trkpt>
      <trkpt lat="49.09131" lon="1.34154">
        <ele>98</ele>
        <time>2021-04-11T07:27:33.000Z</time>
      </trkpt>
      <trkpt lat="49.09107" lon="1.34176">
        <ele>97.800003051758</ele>
        <time>2021-04-11T07:27:38.000Z</time>
      </trkpt>
      <trkpt lat="49.09062" lon="1.34213">
        <ele>97.400001525879</ele>
        <time>2021-04-11T07:27:47.000Z</time>
      </trkpt>
      <trkpt lat="49.09023" lon="1.34247">
        <ele>97.199996948242</ele>
        <time>2021-04-11T07:27:55.000Z</time>
      </trkpt>
      <trkpt lat="49.08976" lon="1.34279">
        <ele>97.199996948242</ele>
        <time>2021-04-11T07:28:04.000Z</time>
      </trkpt>
      <trkpt lat="49.08931" lon="1.34306">
        <ele>97.599998474121</ele>
        <time>2021-04-11T07:28:12.000Z</time>
      </trkpt>
      <trkpt lat="49.08906" lon="1.34322">
        <ele>97.599998474121</ele>
        <time>2021-04-11T07:28:16.000Z</time>
      </trkpt>
      <trkpt lat="49.089" lon="1.34324">
        <ele>97.599998474121</ele>
        <time>2021-04-11T07:28:17.000Z</time>
      </trkpt>
      <trkpt lat="49.08882" lon="1.34333">
        <ele>97.800003051758</ele>
        <time>2021-04-11T07:28:20.000Z</time>
      </trkpt>
      <trkpt lat="49.08843" lon="1.3436">
        <ele>97.800003051758</ele>
        <time>2021-04-11T07:28:27.000Z</time>
      </trkpt>
      <trkpt lat="49.08837" lon="1.34363">
        <ele>97.800003051758</ele>
        <time>2021-04-11T07:28:28.000Z</time>
      </trkpt>
      <trkpt lat="49.08821" lon="1.34375">
        <ele>98</ele>
        <time>2021-04-11T07:28:31.000Z</time>
      </trkpt>
      <trkpt lat="49.08778" lon="1.34408">
        <ele>98.400001525879</ele>
        <time>2021-04-11T07:28:39.000Z</time>
      </trkpt>
      <trkpt lat="49.08752" lon="1.3443">
        <ele>98.599998474121</ele>
        <time>2021-04-11T07:28:44.000Z</time>
      </trkpt>
      <trkpt lat="49.08737" lon="1.34442">
        <ele>98.599998474121</ele>
        <time>2021-04-11T07:28:47.000Z</time>
      </trkpt>
      <trkpt lat="49.08698" lon="1.34483">
        <ele>99</ele>
        <time>2021-04-11T07:28:55.000Z</time>
      </trkpt>
      <trkpt lat="49.08684" lon="1.34499">
        <ele>99</ele>
        <time>2021-04-11T07:28:58.000Z</time>
      </trkpt>
      <trkpt lat="49.08671" lon="1.34518">
        <ele>99</ele>
        <time>2021-04-11T07:29:01.000Z</time>
      </trkpt>
      <trkpt lat="49.0863" lon="1.34568">
        <ele>99.400001525879</ele>
        <time>2021-04-11T07:29:10.000Z</time>
      </trkpt>
      <trkpt lat="49.08626" lon="1.34573">
        <ele>99.599998474121</ele>
        <time>2021-04-11T07:29:11.000Z</time>
      </trkpt>
      <trkpt lat="49.08595" lon="1.3461">
        <ele>99.599998474121</ele>
        <time>2021-04-11T07:29:18.000Z</time>
      </trkpt>
      <trkpt lat="49.08569" lon="1.34641">
        <ele>99.599998474121</ele>
        <time>2021-04-11T07:29:25.000Z</time>
      </trkpt>
      <trkpt lat="49.08566" lon="1.34645">
        <ele>99.400001525879</ele>
        <time>2021-04-11T07:29:28.000Z</time>
      </trkpt>
      <trkpt lat="49.08566" lon="1.34645">
        <ele>99.400001525879</ele>
        <time>2021-04-11T07:29:29.000Z</time>
      </trkpt>
      <trkpt lat="49.08566" lon="1.34648">
        <ele>99.400001525879</ele>
        <time>2021-04-11T07:29:44.000Z</time>
      </trkpt>
      <trkpt lat="49.08566" lon="1.34654">
        <ele>99.199996948242</ele>
        <time>2021-04-11T07:29:47.000Z</time>
      </trkpt>
      <trkpt lat="49.08567" lon="1.34655">
        <ele>99.199996948242</ele>
        <time>2021-04-11T07:29:48.000Z</time>
      </trkpt>
      <trkpt lat="49.0857" lon="1.34662">
        <ele>99.199996948242</ele>
        <time>2021-04-11T07:29:52.000Z</time>
      </trkpt>
      <trkpt lat="49.08572" lon="1.34666">
        <ele>99.199996948242</ele>
        <time>2021-04-11T07:29:54.000Z</time>
      </trkpt>
      <trkpt lat="49.08574" lon="1.34674">
        <ele>99.400001525879</ele>
        <time>2021-04-11T07:29:57.000Z</time>
      </trkpt>
      <trkpt lat="49.08585" lon="1.34696">
        <ele>99.599998474121</ele>
        <time>2021-04-11T07:30:04.000Z</time>
      </trkpt>
      <trkpt lat="49.08596" lon="1.34718">
        <ele>100</ele>
        <time>2021-04-11T07:30:09.000Z</time>
      </trkpt>
      <trkpt lat="49.08604" lon="1.34733">
        <ele>100</ele>
        <time>2021-04-11T07:30:12.000Z</time>
      </trkpt>
      <trkpt lat="49.08613" lon="1.34754">
        <ele>100.40000152588</ele>
        <time>2021-04-11T07:30:16.000Z</time>
      </trkpt>
      <trkpt lat="49.08624" lon="1.34789">
        <ele>101</ele>
        <time>2021-04-11T07:30:22.000Z</time>
      </trkpt>
      <trkpt lat="49.08626" lon="1.34795">
        <ele>101.19999694824</ele>
        <time>2021-04-11T07:30:23.000Z</time>
      </trkpt>
      <trkpt lat="49.08632" lon="1.34828">
        <ele>101.80000305176</ele>
        <time>2021-04-11T07:30:28.000Z</time>
      </trkpt>
      <trkpt lat="49.08633" lon="1.34834">
        <ele>102</ele>
        <time>2021-04-11T07:30:29.000Z</time>
      </trkpt>
      <trkpt lat="49.08637" lon="1.34865">
        <ele>102.59999847412</ele>
        <time>2021-04-11T07:30:34.000Z</time>
      </trkpt>
      <trkpt lat="49.0864" lon="1.3489">
        <ele>103</ele>
        <time>2021-04-11T07:30:38.000Z</time>
      </trkpt>
      <trkpt lat="49.08642" lon="1.34903">
        <ele>103.40000152588</ele>
        <time>2021-04-11T07:30:40.000Z</time>
      </trkpt>
      <trkpt lat="49.08644" lon="1.34925">
        <ele>103.59999847412</ele>
        <time>2021-04-11T07:30:43.000Z</time>
      </trkpt>
      <trkpt lat="49.08648" lon="1.34938">
        <ele>104</ele>
        <time>2021-04-11T07:30:45.000Z</time>
      </trkpt>
      <trkpt lat="49.08651" lon="1.34944">
        <ele>104.19999694824</ele>
        <time>2021-04-11T07:30:46.000Z</time>
      </trkpt>
      <trkpt lat="49.0866" lon="1.34951">
        <ele>104.40000152588</ele>
        <time>2021-04-11T07:30:49.000Z</time>
      </trkpt>
      <trkpt lat="49.08668" lon="1.34949">
        <ele>104.59999847412</ele>
        <time>2021-04-11T07:30:51.000Z</time>
      </trkpt>
      <trkpt lat="49.08672" lon="1.34948">
        <ele>104.59999847412</ele>
        <time>2021-04-11T07:30:52.000Z</time>
      </trkpt>
      <trkpt lat="49.08681" lon="1.34944">
        <ele>104.80000305176</ele>
        <time>2021-04-11T07:30:54.000Z</time>
      </trkpt>
      <trkpt lat="49.08698" lon="1.34932">
        <ele>105.19999694824</ele>
        <time>2021-04-11T07:30:59.000Z</time>
      </trkpt>
      <trkpt lat="49.08698" lon="1.34913">
        <ele>105.59999847412</ele>
        <time>2021-04-11T07:31:03.000Z</time>
      </trkpt>
      <trkpt lat="49.08698" lon="1.34905">
        <ele>106</ele>
        <time>2021-04-11T07:31:06.000Z</time>
      </trkpt>
      <trkpt lat="49.08699" lon="1.34901">
        <ele>105.80000305176</ele>
        <time>2021-04-11T07:31:07.000Z</time>
      </trkpt>
      <trkpt lat="49.08702" lon="1.34884">
        <ele>106.19999694824</ele>
        <time>2021-04-11T07:31:12.000Z</time>
      </trkpt>
      <trkpt lat="49.08703" lon="1.3488">
        <ele>106.19999694824</ele>
        <time>2021-04-11T07:31:13.000Z</time>
      </trkpt>
      <trkpt lat="49.08704" lon="1.34872">
        <ele>106.40000152588</ele>
        <time>2021-04-11T07:31:16.000Z</time>
      </trkpt>
      <trkpt lat="49.08702" lon="1.34876">
        <ele>106.40000152588</ele>
        <time>2021-04-11T07:31:19.000Z</time>
      </trkpt>
      <trkpt lat="49.08699" lon="1.34899">
        <ele>106.40000152588</ele>
        <time>2021-04-11T07:31:25.000Z</time>
      </trkpt>
      <trkpt lat="49.087" lon="1.34918">
        <ele>106.59999847412</ele>
        <time>2021-04-11T07:31:29.000Z</time>
      </trkpt>
      <trkpt lat="49.08703" lon="1.34937">
        <ele>106.59999847412</ele>
        <time>2021-04-11T07:31:33.000Z</time>
      </trkpt>
      <trkpt lat="49.08712" lon="1.34935">
        <ele>106.59999847412</ele>
        <time>2021-04-11T07:31:37.000Z</time>
      </trkpt>
      <trkpt lat="49.08733" lon="1.34931">
        <ele>106.59999847412</ele>
        <time>2021-04-11T07:31:43.000Z</time>
      </trkpt>
      <trkpt lat="49.0876" lon="1.34933">
        <ele>106.59999847412</ele>
        <time>2021-04-11T07:31:51.000Z</time>
      </trkpt>
      <trkpt lat="49.0879" lon="1.34935">
        <ele>106.59999847412</ele>
        <time>2021-04-11T07:32:00.000Z</time>
      </trkpt>
      <trkpt lat="49.0881" lon="1.34939">
        <ele>107</ele>
        <time>2021-04-11T07:32:06.000Z</time>
      </trkpt>
      <trkpt lat="49.0882" lon="1.3494">
        <ele>107</ele>
        <time>2021-04-11T07:32:10.000Z</time>
      </trkpt>
      <trkpt lat="49.08841" lon="1.3494">
        <ele>107</ele>
        <time>2021-04-11T07:32:17.000Z</time>
      </trkpt>
      <trkpt lat="49.08858" lon="1.34948">
        <ele>107.19999694824</ele>
        <time>2021-04-11T07:32:23.000Z</time>
      </trkpt>
      <trkpt lat="49.08864" lon="1.34954">
        <ele>107.19999694824</ele>
        <time>2021-04-11T07:32:25.000Z</time>
      </trkpt>
      <trkpt lat="49.08875" lon="1.34972">
        <ele>107.40000152588</ele>
        <time>2021-04-11T07:32:30.000Z</time>
      </trkpt>
      <trkpt lat="49.08895" lon="1.34991">
        <ele>107.40000152588</ele>
        <time>2021-04-11T07:32:37.000Z</time>
      </trkpt>
      <trkpt lat="49.08912" lon="1.34995">
        <ele>107.59999847412</ele>
        <time>2021-04-11T07:32:42.000Z</time>
      </trkpt>
      <trkpt lat="49.08925" lon="1.35001">
        <ele>107.40000152588</ele>
        <time>2021-04-11T07:32:46.000Z</time>
      </trkpt>
      <trkpt lat="49.08924" lon="1.35005">
        <ele>107.40000152588</ele>
        <time>2021-04-11T07:32:47.000Z</time>
      </trkpt>
      <trkpt lat="49.08916" lon="1.35016">
        <ele>107.40000152588</ele>
        <time>2021-04-11T07:32:50.000Z</time>
      </trkpt>
      <trkpt lat="49.0891" lon="1.35024">
        <ele>107.59999847412</ele>
        <time>2021-04-11T07:32:52.000Z</time>
      </trkpt>
      <trkpt lat="49.08894" lon="1.35041">
        <ele>107.59999847412</ele>
        <time>2021-04-11T07:32:57.000Z</time>
      </trkpt>
      <trkpt lat="49.08881" lon="1.35053">
        <ele>107.59999847412</ele>
        <time>2021-04-11T07:33:01.000Z</time>
      </trkpt>
      <trkpt lat="49.08877" lon="1.35054">
        <ele>107.59999847412</ele>
        <time>2021-04-11T07:33:02.000Z</time>
      </trkpt>
      <trkpt lat="49.08857" lon="1.35053">
        <ele>107.40000152588</ele>
        <time>2021-04-11T07:33:07.000Z</time>
      </trkpt>
      <trkpt lat="49.08837" lon="1.35045">
        <ele>107.19999694824</ele>
        <time>2021-04-11T07:33:13.000Z</time>
      </trkpt>
      <trkpt lat="49.08826" lon="1.35037">
        <ele>107</ele>
        <time>2021-04-11T07:33:18.000Z</time>
      </trkpt>
      <trkpt lat="49.08819" lon="1.35029">
        <ele>107</ele>
        <time>2021-04-11T07:33:23.000Z</time>
      </trkpt>
      <trkpt lat="49.08809" lon="1.35018">
        <ele>106.80000305176</ele>
        <time>2021-04-11T07:33:29.000Z</time>
      </trkpt>
      <trkpt lat="49.08795" lon="1.35006">
        <ele>107</ele>
        <time>2021-04-11T07:33:35.000Z</time>
      </trkpt>
      <trkpt lat="49.0878" lon="1.34989">
        <ele>107</ele>
        <time>2021-04-11T07:33:41.000Z</time>
      </trkpt>
      <trkpt lat="49.08771" lon="1.34982">
        <ele>107</ele>
        <time>2021-04-11T07:33:45.000Z</time>
      </trkpt>
      <trkpt lat="49.08754" lon="1.34974">
        <ele>107.19999694824</ele>
        <time>2021-04-11T07:33:50.000Z</time>
      </trkpt>
      <trkpt lat="49.08731" lon="1.34976">
        <ele>107</ele>
        <time>2021-04-11T07:33:56.000Z</time>
      </trkpt>
      <trkpt lat="49.08716" lon="1.34974">
        <ele>107.19999694824</ele>
        <time>2021-04-11T07:34:01.000Z</time>
      </trkpt>
      <trkpt lat="49.0871" lon="1.3497">
        <ele>107.40000152588</ele>
        <time>2021-04-11T07:34:03.000Z</time>
      </trkpt>
      <trkpt lat="49.08705" lon="1.34968">
        <ele>107.59999847412</ele>
        <time>2021-04-11T07:34:05.000Z</time>
      </trkpt>
      <trkpt lat="49.08704" lon="1.34969">
        <ele>107.59999847412</ele>
        <time>2021-04-11T07:34:06.000Z</time>
      </trkpt>
      <trkpt lat="49.08703" lon="1.34978">
        <ele>107.80000305176</ele>
        <time>2021-04-11T07:34:09.000Z</time>
      </trkpt>
      <trkpt lat="49.08703" lon="1.34982">
        <ele>107.80000305176</ele>
        <time>2021-04-11T07:34:10.000Z</time>
      </trkpt>
      <trkpt lat="49.08702" lon="1.35009">
        <ele>108</ele>
        <time>2021-04-11T07:34:16.000Z</time>
      </trkpt>
      <trkpt lat="49.08696" lon="1.35033">
        <ele>108</ele>
        <time>2021-04-11T07:34:21.000Z</time>
      </trkpt>
      <trkpt lat="49.08688" lon="1.35056">
        <ele>108.19999694824</ele>
        <time>2021-04-11T07:34:26.000Z</time>
      </trkpt>
      <trkpt lat="49.08686" lon="1.35061">
        <ele>108.40000152588</ele>
        <time>2021-04-11T07:34:27.000Z</time>
      </trkpt>
      <trkpt lat="49.08682" lon="1.35077">
        <ele>108.40000152588</ele>
        <time>2021-04-11T07:34:30.000Z</time>
      </trkpt>
      <trkpt lat="49.08668" lon="1.35109">
        <ele>108.59999847412</ele>
        <time>2021-04-11T07:34:36.000Z</time>
      </trkpt>
      <trkpt lat="49.08665" lon="1.35112">
        <ele>108.80000305176</ele>
        <time>2021-04-11T07:34:37.000Z</time>
      </trkpt>
      <trkpt lat="49.08659" lon="1.35113">
        <ele>108.80000305176</ele>
        <time>2021-04-11T07:34:39.000Z</time>
      </trkpt>
      <trkpt lat="49.08651" lon="1.35112">
        <ele>108.80000305176</ele>
        <time>2021-04-11T07:34:43.000Z</time>
      </trkpt>
      <trkpt lat="49.0864" lon="1.3511">
        <ele>108.80000305176</ele>
        <time>2021-04-11T07:34:47.000Z</time>
      </trkpt>
      <trkpt lat="49.08626" lon="1.35109">
        <ele>109.19999694824</ele>
        <time>2021-04-11T07:34:51.000Z</time>
      </trkpt>
      <trkpt lat="49.08623" lon="1.35106">
        <ele>109.19999694824</ele>
        <time>2021-04-11T07:34:52.000Z</time>
      </trkpt>
      <trkpt lat="49.08614" lon="1.35089">
        <ele>109.40000152588</ele>
        <time>2021-04-11T07:34:56.000Z</time>
      </trkpt>
      <trkpt lat="49.08613" lon="1.35084">
        <ele>109.59999847412</ele>
        <time>2021-04-11T07:34:57.000Z</time>
      </trkpt>
      <trkpt lat="49.08605" lon="1.35068">
        <ele>109.80000305176</ele>
        <time>2021-04-11T07:35:00.000Z</time>
      </trkpt>
      <trkpt lat="49.08601" lon="1.35065">
        <ele>109.80000305176</ele>
        <time>2021-04-11T07:35:01.000Z</time>
      </trkpt>
      <trkpt lat="49.08586" lon="1.35059">
        <ele>109.80000305176</ele>
        <time>2021-04-11T07:35:04.000Z</time>
      </trkpt>
      <trkpt lat="49.08581" lon="1.35058">
        <ele>109.80000305176</ele>
        <time>2021-04-11T07:35:05.000Z</time>
      </trkpt>
      <trkpt lat="49.08576" lon="1.35057">
        <ele>110</ele>
        <time>2021-04-11T07:35:06.000Z</time>
      </trkpt>
      <trkpt lat="49.08563" lon="1.35055">
        <ele>110.40000152588</ele>
        <time>2021-04-11T07:35:10.000Z</time>
      </trkpt>
      <trkpt lat="49.08562" lon="1.35055">
        <ele>110.40000152588</ele>
        <time>2021-04-11T07:35:12.000Z</time>
      </trkpt>
      <trkpt lat="49.08559" lon="1.35053">
        <ele>109</ele>
        <time>2021-04-11T07:35:49.000Z</time>
      </trkpt>
      <trkpt lat="49.08559" lon="1.35051">
        <ele>109</ele>
        <time>2021-04-11T07:35:50.000Z</time>
      </trkpt>
      <trkpt lat="49.08559" lon="1.35049">
        <ele>109</ele>
        <time>2021-04-11T07:35:51.000Z</time>
      </trkpt>
      <trkpt lat="49.08558" lon="1.35026">
        <ele>109</ele>
        <time>2021-04-11T07:35:56.000Z</time>
      </trkpt>
      <trkpt lat="49.08557" lon="1.35004">
        <ele>108.80000305176</ele>
        <time>2021-04-11T07:36:00.000Z</time>
      </trkpt>
      <trkpt lat="49.08556" lon="1.34967">
        <ele>108.80000305176</ele>
        <time>2021-04-11T07:36:06.000Z</time>
      </trkpt>
      <trkpt lat="49.08554" lon="1.34922">
        <ele>108.59999847412</ele>
        <time>2021-04-11T07:36:13.000Z</time>
      </trkpt>
      <trkpt lat="49.08553" lon="1.34885">
        <ele>109</ele>
        <time>2021-04-11T07:36:20.000Z</time>
      </trkpt>
      <trkpt lat="49.0855" lon="1.34853">
        <ele>109.59999847412</ele>
        <time>2021-04-11T07:36:26.000Z</time>
      </trkpt>
      <trkpt lat="49.08549" lon="1.34847">
        <ele>109.59999847412</ele>
        <time>2021-04-11T07:36:27.000Z</time>
      </trkpt>
      <trkpt lat="49.08549" lon="1.34824">
        <ele>110</ele>
        <time>2021-04-11T07:36:31.000Z</time>
      </trkpt>
      <trkpt lat="49.08549" lon="1.34798">
        <ele>110.59999847412</ele>
        <time>2021-04-11T07:36:36.000Z</time>
      </trkpt>
      <trkpt lat="49.08544" lon="1.34758">
        <ele>111.40000152588</ele>
        <time>2021-04-11T07:36:43.000Z</time>
      </trkpt>
      <trkpt lat="49.08542" lon="1.34729">
        <ele>111.59999847412</ele>
        <time>2021-04-11T07:36:48.000Z</time>
      </trkpt>
      <trkpt lat="49.08539" lon="1.34716">
        <ele>111.59999847412</ele>
        <time>2021-04-11T07:36:51.000Z</time>
      </trkpt>
      <trkpt lat="49.08537" lon="1.34714">
        <ele>111.80000305176</ele>
        <time>2021-04-11T07:36:52.000Z</time>
      </trkpt>
      <trkpt lat="49.08528" lon="1.34717">
        <ele>111.80000305176</ele>
        <time>2021-04-11T07:36:56.000Z</time>
      </trkpt>
      <trkpt lat="49.08525" lon="1.34718">
        <ele>111.80000305176</ele>
        <time>2021-04-11T07:36:57.000Z</time>
      </trkpt>
      <trkpt lat="49.08508" lon="1.34727">
        <ele>112.19999694824</ele>
        <time>2021-04-11T07:37:02.000Z</time>
      </trkpt>
      <trkpt lat="49.08504" lon="1.34729">
        <ele>112.19999694824</ele>
        <time>2021-04-11T07:37:03.000Z</time>
      </trkpt>
      <trkpt lat="49.08486" lon="1.34736">
        <ele>112.40000152588</ele>
        <time>2021-04-11T07:37:07.000Z</time>
      </trkpt>
      <trkpt lat="49.08467" lon="1.34747">
        <ele>112.40000152588</ele>
        <time>2021-04-11T07:37:12.000Z</time>
      </trkpt>
      <trkpt lat="49.08463" lon="1.34753">
        <ele>112.40000152588</ele>
        <time>2021-04-11T07:37:14.000Z</time>
      </trkpt>
      <trkpt lat="49.08459" lon="1.34759">
        <ele>112.40000152588</ele>
        <time>2021-04-11T07:37:16.000Z</time>
      </trkpt>
      <trkpt lat="49.08442" lon="1.34767">
        <ele>112.40000152588</ele>
        <time>2021-04-11T07:37:21.000Z</time>
      </trkpt>
      <trkpt lat="49.08428" lon="1.34762">
        <ele>112.19999694824</ele>
        <time>2021-04-11T07:37:25.000Z</time>
      </trkpt>
      <trkpt lat="49.08425" lon="1.3476">
        <ele>112</ele>
        <time>2021-04-11T07:37:26.000Z</time>
      </trkpt>
      <trkpt lat="49.08415" lon="1.34755">
        <ele>111.80000305176</ele>
        <time>2021-04-11T07:37:30.000Z</time>
      </trkpt>
      <trkpt lat="49.08402" lon="1.34755">
        <ele>111.59999847412</ele>
        <time>2021-04-11T07:37:36.000Z</time>
      </trkpt>
      <trkpt lat="49.08388" lon="1.3477">
        <ele>111.59999847412</ele>
        <time>2021-04-11T07:37:42.000Z</time>
      </trkpt>
      <trkpt lat="49.08376" lon="1.34785">
        <ele>112.40000152588</ele>
        <time>2021-04-11T07:37:48.000Z</time>
      </trkpt>
      <trkpt lat="49.08374" lon="1.34788">
        <ele>112.40000152588</ele>
        <time>2021-04-11T07:37:49.000Z</time>
      </trkpt>
      <trkpt lat="49.08363" lon="1.34803">
        <ele>112.80000305176</ele>
        <time>2021-04-11T07:37:55.000Z</time>
      </trkpt>
      <trkpt lat="49.08351" lon="1.3482">
        <ele>113.19999694824</ele>
        <time>2021-04-11T07:38:01.000Z</time>
      </trkpt>
      <trkpt lat="49.08347" lon="1.34827">
        <ele>113.40000152588</ele>
        <time>2021-04-11T07:38:04.000Z</time>
      </trkpt>
      <trkpt lat="49.0834" lon="1.3484">
        <ele>113.59999847412</ele>
        <time>2021-04-11T07:38:09.000Z</time>
      </trkpt>
      <trkpt lat="49.08332" lon="1.34854">
        <ele>113.80000305176</ele>
        <time>2021-04-11T07:38:14.000Z</time>
      </trkpt>
      <trkpt lat="49.08324" lon="1.34868">
        <ele>113.80000305176</ele>
        <time>2021-04-11T07:38:19.000Z</time>
      </trkpt>
      <trkpt lat="49.08313" lon="1.34884">
        <ele>113.59999847412</ele>
        <time>2021-04-11T07:38:25.000Z</time>
      </trkpt>
      <trkpt lat="49.08312" lon="1.34886">
        <ele>113.59999847412</ele>
        <time>2021-04-11T07:38:26.000Z</time>
      </trkpt>
      <trkpt lat="49.083" lon="1.34897">
        <ele>113.59999847412</ele>
        <time>2021-04-11T07:38:32.000Z</time>
      </trkpt>
      <trkpt lat="49.08286" lon="1.34908">
        <ele>113.59999847412</ele>
        <time>2021-04-11T07:38:37.000Z</time>
      </trkpt>
      <trkpt lat="49.08266" lon="1.34924">
        <ele>113.80000305176</ele>
        <time>2021-04-11T07:38:45.000Z</time>
      </trkpt>
      <trkpt lat="49.08249" lon="1.34939">
        <ele>114</ele>
        <time>2021-04-11T07:38:52.000Z</time>
      </trkpt>
      <trkpt lat="49.08235" lon="1.34953">
        <ele>114</ele>
        <time>2021-04-11T07:38:57.000Z</time>
      </trkpt>
      <trkpt lat="49.0822" lon="1.34973">
        <ele>114</ele>
        <time>2021-04-11T07:39:04.000Z</time>
      </trkpt>
      <trkpt lat="49.08207" lon="1.34989">
        <ele>113.80000305176</ele>
        <time>2021-04-11T07:39:10.000Z</time>
      </trkpt>
      <trkpt lat="49.08192" lon="1.34996">
        <ele>113.80000305176</ele>
        <time>2021-04-11T07:39:15.000Z</time>
      </trkpt>
      <trkpt lat="49.08176" lon="1.35004">
        <ele>113.80000305176</ele>
        <time>2021-04-11T07:39:20.000Z</time>
      </trkpt>
      <trkpt lat="49.08153" lon="1.35014">
        <ele>114</ele>
        <time>2021-04-11T07:39:27.000Z</time>
      </trkpt>
      <trkpt lat="49.08142" lon="1.35013">
        <ele>114</ele>
        <time>2021-04-11T07:39:30.000Z</time>
      </trkpt>
      <trkpt lat="49.08138" lon="1.35014">
        <ele>113.80000305176</ele>
        <time>2021-04-11T07:39:31.000Z</time>
      </trkpt>
      <trkpt lat="49.08125" lon="1.3502">
        <ele>113.80000305176</ele>
        <time>2021-04-11T07:39:37.000Z</time>
      </trkpt>
      <trkpt lat="49.08122" lon="1.35023">
        <ele>114</ele>
        <time>2021-04-11T07:39:39.000Z</time>
      </trkpt>
      <trkpt lat="49.08121" lon="1.35029">
        <ele>114</ele>
        <time>2021-04-11T07:39:42.000Z</time>
      </trkpt>
      <trkpt lat="49.0812" lon="1.35031">
        <ele>114.19999694824</ele>
        <time>2021-04-11T07:39:45.000Z</time>
      </trkpt>
      <trkpt lat="49.08118" lon="1.35036">
        <ele>114.59999847412</ele>
        <time>2021-04-11T07:40:09.000Z</time>
      </trkpt>
      <trkpt lat="49.08116" lon="1.3504">
        <ele>114.59999847412</ele>
        <time>2021-04-11T07:40:10.000Z</time>
      </trkpt>
      <trkpt lat="49.08115" lon="1.35042">
        <ele>114.59999847412</ele>
        <time>2021-04-11T07:40:11.000Z</time>
      </trkpt>
      <trkpt lat="49.08109" lon="1.35044">
        <ele>114.59999847412</ele>
        <time>2021-04-11T07:40:13.000Z</time>
      </trkpt>
      <trkpt lat="49.081" lon="1.35034">
        <ele>114.59999847412</ele>
        <time>2021-04-11T07:40:16.000Z</time>
      </trkpt>
      <trkpt lat="49.08094" lon="1.35015">
        <ele>114.59999847412</ele>
        <time>2021-04-11T07:40:19.000Z</time>
      </trkpt>
      <trkpt lat="49.0809" lon="1.35004">
        <ele>114.59999847412</ele>
        <time>2021-04-11T07:40:21.000Z</time>
      </trkpt>
      <trkpt lat="49.08076" lon="1.34987">
        <ele>114.19999694824</ele>
        <time>2021-04-11T07:40:25.000Z</time>
      </trkpt>
      <trkpt lat="49.08068" lon="1.34981">
        <ele>114.19999694824</ele>
        <time>2021-04-11T07:40:27.000Z</time>
      </trkpt>
      <trkpt lat="49.08049" lon="1.34971">
        <ele>113.59999847412</ele>
        <time>2021-04-11T07:40:31.000Z</time>
      </trkpt>
      <trkpt lat="49.08022" lon="1.34952">
        <ele>112.59999847412</ele>
        <time>2021-04-11T07:40:37.000Z</time>
      </trkpt>
      <trkpt lat="49.08018" lon="1.34949">
        <ele>112.59999847412</ele>
        <time>2021-04-11T07:40:38.000Z</time>
      </trkpt>
      <trkpt lat="49.08009" lon="1.3494">
        <ele>112.40000152588</ele>
        <time>2021-04-11T07:40:40.000Z</time>
      </trkpt>
      <trkpt lat="49.07999" lon="1.34933">
        <ele>112.19999694824</ele>
        <time>2021-04-11T07:40:42.000Z</time>
      </trkpt>
      <trkpt lat="49.07984" lon="1.34926">
        <ele>111.40000152588</ele>
        <time>2021-04-11T07:40:45.000Z</time>
      </trkpt>
      <trkpt lat="49.07967" lon="1.34916">
        <ele>111</ele>
        <time>2021-04-11T07:40:49.000Z</time>
      </trkpt>
      <trkpt lat="49.07948" lon="1.34894">
        <ele>110.80000305176</ele>
        <time>2021-04-11T07:40:54.000Z</time>
      </trkpt>
      <trkpt lat="49.07944" lon="1.3489">
        <ele>110.59999847412</ele>
        <time>2021-04-11T07:40:55.000Z</time>
      </trkpt>
      <trkpt lat="49.07934" lon="1.34875">
        <ele>110.59999847412</ele>
        <time>2021-04-11T07:40:58.000Z</time>
      </trkpt>
      <trkpt lat="49.07917" lon="1.34855">
        <ele>110.59999847412</ele>
        <time>2021-04-11T07:41:02.000Z</time>
      </trkpt>
      <trkpt lat="49.07908" lon="1.34848">
        <ele>110.59999847412</ele>
        <time>2021-04-11T07:41:04.000Z</time>
      </trkpt>
      <trkpt lat="49.07882" lon="1.34838">
        <ele>110.80000305176</ele>
        <time>2021-04-11T07:41:09.000Z</time>
      </trkpt>
      <trkpt lat="49.07851" lon="1.34831">
        <ele>111.59999847412</ele>
        <time>2021-04-11T07:41:15.000Z</time>
      </trkpt>
      <trkpt lat="49.07832" lon="1.34821">
        <ele>112</ele>
        <time>2021-04-11T07:41:20.000Z</time>
      </trkpt>
      <trkpt lat="49.07833" lon="1.34809">
        <ele>112.40000152588</ele>
        <time>2021-04-11T07:41:23.000Z</time>
      </trkpt>
      <trkpt lat="49.07836" lon="1.34806">
        <ele>112.40000152588</ele>
        <time>2021-04-11T07:41:24.000Z</time>
      </trkpt>
      <trkpt lat="49.07846" lon="1.34791">
        <ele>112.80000305176</ele>
        <time>2021-04-11T07:41:28.000Z</time>
      </trkpt>
      <trkpt lat="49.07849" lon="1.34787">
        <ele>112.80000305176</ele>
        <time>2021-04-11T07:41:29.000Z</time>
      </trkpt>
      <trkpt lat="49.07855" lon="1.34778">
        <ele>113</ele>
        <time>2021-04-11T07:41:31.000Z</time>
      </trkpt>
      <trkpt lat="49.07862" lon="1.3477">
        <ele>113</ele>
        <time>2021-04-11T07:41:33.000Z</time>
      </trkpt>
      <trkpt lat="49.07871" lon="1.34758">
        <ele>113.40000152588</ele>
        <time>2021-04-11T07:41:36.000Z</time>
      </trkpt>
      <trkpt lat="49.07877" lon="1.34753">
        <ele>113.59999847412</ele>
        <time>2021-04-11T07:41:38.000Z</time>
      </trkpt>
      <trkpt lat="49.07888" lon="1.34751">
        <ele>114.19999694824</ele>
        <time>2021-04-11T07:41:42.000Z</time>
      </trkpt>
      <trkpt lat="49.07894" lon="1.34752">
        <ele>114.40000152588</ele>
        <time>2021-04-11T07:41:44.000Z</time>
      </trkpt>
      <trkpt lat="49.079" lon="1.34754">
        <ele>114.59999847412</ele>
        <time>2021-04-11T07:41:46.000Z</time>
      </trkpt>
      <trkpt lat="49.07914" lon="1.34748">
        <ele>115.19999694824</ele>
        <time>2021-04-11T07:41:50.000Z</time>
      </trkpt>
      <trkpt lat="49.07926" lon="1.3474">
        <ele>115.40000152588</ele>
        <time>2021-04-11T07:41:53.000Z</time>
      </trkpt>
      <trkpt lat="49.07934" lon="1.34736">
        <ele>115.80000305176</ele>
        <time>2021-04-11T07:41:55.000Z</time>
      </trkpt>
      <trkpt lat="49.07964" lon="1.34722">
        <ele>116.19999694824</ele>
        <time>2021-04-11T07:42:02.000Z</time>
      </trkpt>
      <trkpt lat="49.07981" lon="1.34725">
        <ele>116.59999847412</ele>
        <time>2021-04-11T07:42:06.000Z</time>
      </trkpt>
      <trkpt lat="49.07985" lon="1.34727">
        <ele>116.59999847412</ele>
        <time>2021-04-11T07:42:07.000Z</time>
      </trkpt>
      <trkpt lat="49.08004" lon="1.34735">
        <ele>117.40000152588</ele>
        <time>2021-04-11T07:42:12.000Z</time>
      </trkpt>
      <trkpt lat="49.08013" lon="1.34737">
        <ele>117.59999847412</ele>
        <time>2021-04-11T07:42:14.000Z</time>
      </trkpt>
      <trkpt lat="49.08028" lon="1.34733">
        <ele>117.59999847412</ele>
        <time>2021-04-11T07:42:17.000Z</time>
      </trkpt>
      <trkpt lat="49.08054" lon="1.34722">
        <ele>118.19999694824</ele>
        <time>2021-04-11T07:42:22.000Z</time>
      </trkpt>
      <trkpt lat="49.08059" lon="1.3472">
        <ele>118.40000152588</ele>
        <time>2021-04-11T07:42:23.000Z</time>
      </trkpt>
      <trkpt lat="49.0807" lon="1.34715">
        <ele>118.59999847412</ele>
        <time>2021-04-11T07:42:25.000Z</time>
      </trkpt>
      <trkpt lat="49.08075" lon="1.34711">
        <ele>118.80000305176</ele>
        <time>2021-04-11T07:42:26.000Z</time>
      </trkpt>
      <trkpt lat="49.0808" lon="1.34707">
        <ele>118.80000305176</ele>
        <time>2021-04-11T07:42:27.000Z</time>
      </trkpt>
      <trkpt lat="49.081" lon="1.34695">
        <ele>119.19999694824</ele>
        <time>2021-04-11T07:42:31.000Z</time>
      </trkpt>
      <trkpt lat="49.08105" lon="1.34693">
        <ele>119.19999694824</ele>
        <time>2021-04-11T07:42:32.000Z</time>
      </trkpt>
      <trkpt lat="49.08116" lon="1.3469">
        <ele>119.40000152588</ele>
        <time>2021-04-11T07:42:34.000Z</time>
      </trkpt>
      <trkpt lat="49.08124" lon="1.34687">
        <ele>119.59999847412</ele>
        <time>2021-04-11T07:42:36.000Z</time>
      </trkpt>
      <trkpt lat="49.08133" lon="1.34684">
        <ele>119.80000305176</ele>
        <time>2021-04-11T07:42:38.000Z</time>
      </trkpt>
      <trkpt lat="49.08148" lon="1.3468">
        <ele>120.19999694824</ele>
        <time>2021-04-11T07:42:41.000Z</time>
      </trkpt>
      <trkpt lat="49.08158" lon="1.34677">
        <ele>120.19999694824</ele>
        <time>2021-04-11T07:42:43.000Z</time>
      </trkpt>
      <trkpt lat="49.0817" lon="1.34667">
        <ele>120.59999847412</ele>
        <time>2021-04-11T07:42:46.000Z</time>
      </trkpt>
      <trkpt lat="49.0818" lon="1.34661">
        <ele>121.19999694824</ele>
        <time>2021-04-11T07:42:48.000Z</time>
      </trkpt>
      <trkpt lat="49.08184" lon="1.34658">
        <ele>121.19999694824</ele>
        <time>2021-04-11T07:42:49.000Z</time>
      </trkpt>
      <trkpt lat="49.08189" lon="1.34655">
        <ele>121.19999694824</ele>
        <time>2021-04-11T07:42:50.000Z</time>
      </trkpt>
      <trkpt lat="49.08194" lon="1.34652">
        <ele>121.19999694824</ele>
        <time>2021-04-11T07:42:51.000Z</time>
      </trkpt>
      <trkpt lat="49.08213" lon="1.34645">
        <ele>121.80000305176</ele>
        <time>2021-04-11T07:42:55.000Z</time>
      </trkpt>
      <trkpt lat="49.08224" lon="1.34642">
        <ele>121.80000305176</ele>
        <time>2021-04-11T07:42:57.000Z</time>
      </trkpt>
      <trkpt lat="49.08243" lon="1.34642">
        <ele>122</ele>
        <time>2021-04-11T07:43:00.000Z</time>
      </trkpt>
      <trkpt lat="49.08256" lon="1.34644">
        <ele>122.19999694824</ele>
        <time>2021-04-11T07:43:02.000Z</time>
      </trkpt>
      <trkpt lat="49.08275" lon="1.34646">
        <ele>122.19999694824</ele>
        <time>2021-04-11T07:43:05.000Z</time>
      </trkpt>
      <trkpt lat="49.08301" lon="1.34646">
        <ele>122.19999694824</ele>
        <time>2021-04-11T07:43:10.000Z</time>
      </trkpt>
      <trkpt lat="49.08321" lon="1.34642">
        <ele>122.40000152588</ele>
        <time>2021-04-11T07:43:14.000Z</time>
      </trkpt>
      <trkpt lat="49.08339" lon="1.3464">
        <ele>122.59999847412</ele>
        <time>2021-04-11T07:43:20.000Z</time>
      </trkpt>
      <trkpt lat="49.08351" lon="1.34634">
        <ele>122.59999847412</ele>
        <time>2021-04-11T07:43:25.000Z</time>
      </trkpt>
      <trkpt lat="49.08352" lon="1.34633">
        <ele>122.59999847412</ele>
        <time>2021-04-11T07:43:27.000Z</time>
      </trkpt>
      <trkpt lat="49.08354" lon="1.3463">
        <ele>117.80000305176</ele>
        <time>2021-04-11T07:44:12.000Z</time>
      </trkpt>
      <trkpt lat="49.08354" lon="1.34628">
        <ele>117.80000305176</ele>
        <time>2021-04-11T07:44:13.000Z</time>
      </trkpt>
      <trkpt lat="49.0835" lon="1.34615">
        <ele>117.59999847412</ele>
        <time>2021-04-11T07:44:17.000Z</time>
      </trkpt>
      <trkpt lat="49.08344" lon="1.34592">
        <ele>116.80000305176</ele>
        <time>2021-04-11T07:44:21.000Z</time>
      </trkpt>
      <trkpt lat="49.08341" lon="1.34586">
        <ele>116.80000305176</ele>
        <time>2021-04-11T07:44:22.000Z</time>
      </trkpt>
      <trkpt lat="49.08332" lon="1.34567">
        <ele>116</ele>
        <time>2021-04-11T07:44:26.000Z</time>
      </trkpt>
      <trkpt lat="49.08329" lon="1.34563">
        <ele>115.80000305176</ele>
        <time>2021-04-11T07:44:27.000Z</time>
      </trkpt>
      <trkpt lat="49.08326" lon="1.34558">
        <ele>115.59999847412</ele>
        <time>2021-04-11T07:44:28.000Z</time>
      </trkpt>
      <trkpt lat="49.08322" lon="1.34549">
        <ele>115</ele>
        <time>2021-04-11T07:44:30.000Z</time>
      </trkpt>
      <trkpt lat="49.08317" lon="1.34543">
        <ele>114.80000305176</ele>
        <time>2021-04-11T07:44:32.000Z</time>
      </trkpt>
      <trkpt lat="49.08312" lon="1.34532">
        <ele>114.40000152588</ele>
        <time>2021-04-11T07:44:35.000Z</time>
      </trkpt>
      <trkpt lat="49.08307" lon="1.34522">
        <ele>114</ele>
        <time>2021-04-11T07:44:39.000Z</time>
      </trkpt>
      <trkpt lat="49.08305" lon="1.34513">
        <ele>113.80000305176</ele>
        <time>2021-04-11T07:44:41.000Z</time>
      </trkpt>
      <trkpt lat="49.08303" lon="1.34496">
        <ele>113.59999847412</ele>
        <time>2021-04-11T07:44:44.000Z</time>
      </trkpt>
      <trkpt lat="49.08304" lon="1.34483">
        <ele>113.40000152588</ele>
        <time>2021-04-11T07:44:46.000Z</time>
      </trkpt>
      <trkpt lat="49.08304" lon="1.34453">
        <ele>113</ele>
        <time>2021-04-11T07:44:50.000Z</time>
      </trkpt>
      <trkpt lat="49.08303" lon="1.34434">
        <ele>112.80000305176</ele>
        <time>2021-04-11T07:44:54.000Z</time>
      </trkpt>
      <trkpt lat="49.08302" lon="1.34428">
        <ele>112.80000305176</ele>
        <time>2021-04-11T07:44:56.000Z</time>
      </trkpt>
      <trkpt lat="49.083" lon="1.3442">
        <ele>112.59999847412</ele>
        <time>2021-04-11T07:44:58.000Z</time>
      </trkpt>
      <trkpt lat="49.08299" lon="1.34417">
        <ele>112.59999847412</ele>
        <time>2021-04-11T07:44:59.000Z</time>
      </trkpt>
      <trkpt lat="49.08295" lon="1.34402">
        <ele>112.59999847412</ele>
        <time>2021-04-11T07:45:03.000Z</time>
      </trkpt>
      <trkpt lat="49.08281" lon="1.34388">
        <ele>112</ele>
        <time>2021-04-11T07:45:08.000Z</time>
      </trkpt>
      <trkpt lat="49.08275" lon="1.34383">
        <ele>111.80000305176</ele>
        <time>2021-04-11T07:45:10.000Z</time>
      </trkpt>
      <trkpt lat="49.08266" lon="1.34372">
        <ele>111.19999694824</ele>
        <time>2021-04-11T07:45:13.000Z</time>
      </trkpt>
      <trkpt lat="49.08254" lon="1.34363">
        <ele>111</ele>
        <time>2021-04-11T07:45:16.000Z</time>
      </trkpt>
      <trkpt lat="49.08243" lon="1.34359">
        <ele>111</ele>
        <time>2021-04-11T07:45:18.000Z</time>
      </trkpt>
      <trkpt lat="49.08225" lon="1.34354">
        <ele>111</ele>
        <time>2021-04-11T07:45:21.000Z</time>
      </trkpt>
      <trkpt lat="49.08209" lon="1.34349">
        <ele>110.80000305176</ele>
        <time>2021-04-11T07:45:24.000Z</time>
      </trkpt>
      <trkpt lat="49.0819" lon="1.34345">
        <ele>110.40000152588</ele>
        <time>2021-04-11T07:45:29.000Z</time>
      </trkpt>
      <trkpt lat="49.08174" lon="1.34341">
        <ele>110.19999694824</ele>
        <time>2021-04-11T07:45:33.000Z</time>
      </trkpt>
      <trkpt lat="49.08168" lon="1.3434">
        <ele>110</ele>
        <time>2021-04-11T07:45:34.000Z</time>
      </trkpt>
      <trkpt lat="49.08158" lon="1.34339">
        <ele>110</ele>
        <time>2021-04-11T07:45:36.000Z</time>
      </trkpt>
      <trkpt lat="49.08153" lon="1.34337">
        <ele>110</ele>
        <time>2021-04-11T07:45:37.000Z</time>
      </trkpt>
      <trkpt lat="49.08143" lon="1.34337">
        <ele>110.19999694824</ele>
        <time>2021-04-11T07:45:39.000Z</time>
      </trkpt>
      <trkpt lat="49.08128" lon="1.34337">
        <ele>110</ele>
        <time>2021-04-11T07:45:42.000Z</time>
      </trkpt>
      <trkpt lat="49.08097" lon="1.34335">
        <ele>109.59999847412</ele>
        <time>2021-04-11T07:45:48.000Z</time>
      </trkpt>
      <trkpt lat="49.08082" lon="1.34331">
        <ele>109.19999694824</ele>
        <time>2021-04-11T07:45:51.000Z</time>
      </trkpt>
      <trkpt lat="49.08067" lon="1.34326">
        <ele>108.59999847412</ele>
        <time>2021-04-11T07:45:54.000Z</time>
      </trkpt>
      <trkpt lat="49.08057" lon="1.34322">
        <ele>108.40000152588</ele>
        <time>2021-04-11T07:45:56.000Z</time>
      </trkpt>
      <trkpt lat="49.08047" lon="1.34313">
        <ele>108.19999694824</ele>
        <time>2021-04-11T07:45:58.000Z</time>
      </trkpt>
      <trkpt lat="49.08038" lon="1.34302">
        <ele>107.80000305176</ele>
        <time>2021-04-11T07:46:00.000Z</time>
      </trkpt>
      <trkpt lat="49.08031" lon="1.34292">
        <ele>107.59999847412</ele>
        <time>2021-04-11T07:46:02.000Z</time>
      </trkpt>
      <trkpt lat="49.08028" lon="1.34286">
        <ele>107.80000305176</ele>
        <time>2021-04-11T07:46:03.000Z</time>
      </trkpt>
      <trkpt lat="49.08019" lon="1.34265">
        <ele>107.59999847412</ele>
        <time>2021-04-11T07:46:06.000Z</time>
      </trkpt>
      <trkpt lat="49.08015" lon="1.3425">
        <ele>107.40000152588</ele>
        <time>2021-04-11T07:46:08.000Z</time>
      </trkpt>
      <trkpt lat="49.08013" lon="1.34242">
        <ele>107.40000152588</ele>
        <time>2021-04-11T07:46:09.000Z</time>
      </trkpt>
      <trkpt lat="49.08011" lon="1.34218">
        <ele>107.40000152588</ele>
        <time>2021-04-11T07:46:12.000Z</time>
      </trkpt>
      <trkpt lat="49.08009" lon="1.34203">
        <ele>107.40000152588</ele>
        <time>2021-04-11T07:46:15.000Z</time>
      </trkpt>
      <trkpt lat="49.0801" lon="1.34202">
        <ele>107.59999847412</ele>
        <time>2021-04-11T07:46:16.000Z</time>
      </trkpt>
      <trkpt lat="49.08009" lon="1.34198">
        <ele>107.59999847412</ele>
        <time>2021-04-11T07:46:19.000Z</time>
      </trkpt>
      <trkpt lat="49.0801" lon="1.34193">
        <ele>107.80000305176</ele>
        <time>2021-04-11T07:46:27.000Z</time>
      </trkpt>
      <trkpt lat="49.08011" lon="1.34193">
        <ele>107.80000305176</ele>
        <time>2021-04-11T07:46:28.000Z</time>
      </trkpt>
      <trkpt lat="49.08011" lon="1.34193">
        <ele>107.80000305176</ele>
        <time>2021-04-11T07:46:32.000Z</time>
      </trkpt>
      <trkpt lat="49.08007" lon="1.34189">
        <ele>89.199996948242</ele>
        <time>2021-04-11T07:50:17.000Z</time>
      </trkpt>
      <trkpt lat="49.08006" lon="1.34187">
        <ele>89</ele>
        <time>2021-04-11T07:50:19.000Z</time>
      </trkpt>
      <trkpt lat="49.08004" lon="1.34187">
        <ele>88.599998474121</ele>
        <time>2021-04-11T07:50:21.000Z</time>
      </trkpt>
      <trkpt lat="49.08004" lon="1.34189">
        <ele>88.400001525879</ele>
        <time>2021-04-11T07:50:23.000Z</time>
      </trkpt>
      <trkpt lat="49.08006" lon="1.3419">
        <ele>88.199996948242</ele>
        <time>2021-04-11T07:50:25.000Z</time>
      </trkpt>
      <trkpt lat="49.08007" lon="1.3419">
        <ele>88</ele>
        <time>2021-04-11T07:50:26.000Z</time>
      </trkpt>
      <trkpt lat="49.0801" lon="1.34193">
        <ele>87.800003051758</ele>
        <time>2021-04-11T07:50:29.000Z</time>
      </trkpt>
      <trkpt lat="49.08011" lon="1.34194">
        <ele>87.599998474121</ele>
        <time>2021-04-11T07:50:30.000Z</time>
      </trkpt>
      <trkpt lat="49.08014" lon="1.34195">
        <ele>87.400001525879</ele>
        <time>2021-04-11T07:50:32.000Z</time>
      </trkpt>
      <trkpt lat="49.08018" lon="1.34199">
        <ele>86.800003051758</ele>
        <time>2021-04-11T07:50:36.000Z</time>
      </trkpt>
      <trkpt lat="49.08024" lon="1.34205">
        <ele>86.400001525879</ele>
        <time>2021-04-11T07:50:41.000Z</time>
      </trkpt>
      <trkpt lat="49.08027" lon="1.34208">
        <ele>86.199996948242</ele>
        <time>2021-04-11T07:50:44.000Z</time>
      </trkpt>
      <trkpt lat="49.08035" lon="1.34219">
        <ele>86.199996948242</ele>
        <time>2021-04-11T07:50:51.000Z</time>
      </trkpt>
      <trkpt lat="49.08044" lon="1.34225">
        <ele>85.400001525879</ele>
        <time>2021-04-11T07:50:57.000Z</time>
      </trkpt>
      <trkpt lat="49.08045" lon="1.34226">
        <ele>85.400001525879</ele>
        <time>2021-04-11T07:50:58.000Z</time>
      </trkpt>
      <trkpt lat="49.08053" lon="1.34233">
        <ele>84.400001525879</ele>
        <time>2021-04-11T07:51:04.000Z</time>
      </trkpt>
      <trkpt lat="49.08059" lon="1.3424">
        <ele>84</ele>
        <time>2021-04-11T07:51:09.000Z</time>
      </trkpt>
      <trkpt lat="49.08068" lon="1.34248">
        <ele>83.599998474121</ele>
        <time>2021-04-11T07:51:16.000Z</time>
      </trkpt>
      <trkpt lat="49.08069" lon="1.34249">
        <ele>83</ele>
        <time>2021-04-11T07:51:17.000Z</time>
      </trkpt>
      <trkpt lat="49.0807" lon="1.3425">
        <ele>80.800003051758</ele>
        <time>2021-04-11T07:51:18.000Z</time>
      </trkpt>
      <trkpt lat="49.08072" lon="1.34252">
        <ele>79.599998474121</ele>
        <time>2021-04-11T07:51:19.000Z</time>
      </trkpt>
      <trkpt lat="49.08076" lon="1.34256">
        <ele>78.400001525879</ele>
        <time>2021-04-11T07:51:22.000Z</time>
      </trkpt>
      <trkpt lat="49.08078" lon="1.34258">
        <ele>78.199996948242</ele>
        <time>2021-04-11T07:51:24.000Z</time>
      </trkpt>
      <trkpt lat="49.08087" lon="1.34263">
        <ele>77.800003051758</ele>
        <time>2021-04-11T07:51:30.000Z</time>
      </trkpt>
      <trkpt lat="49.08092" lon="1.34266">
        <ele>77.400001525879</ele>
        <time>2021-04-11T07:51:34.000Z</time>
      </trkpt>
      <trkpt lat="49.08097" lon="1.34267">
        <ele>77</ele>
        <time>2021-04-11T07:51:37.000Z</time>
      </trkpt>
      <trkpt lat="49.08108" lon="1.34268">
        <ele>76.599998474121</ele>
        <time>2021-04-11T07:51:43.000Z</time>
      </trkpt>
      <trkpt lat="49.08113" lon="1.3427">
        <ele>76.400001525879</ele>
        <time>2021-04-11T07:51:46.000Z</time>
      </trkpt>
      <trkpt lat="49.08123" lon="1.34269">
        <ele>75.800003051758</ele>
        <time>2021-04-11T07:51:52.000Z</time>
      </trkpt>
      <trkpt lat="49.08136" lon="1.34265">
        <ele>75.599998474121</ele>
        <time>2021-04-11T07:52:00.000Z</time>
      </trkpt>
      <trkpt lat="49.08148" lon="1.34261">
        <ele>75.400001525879</ele>
        <time>2021-04-11T07:52:09.000Z</time>
      </trkpt>
      <trkpt lat="49.08153" lon="1.34259">
        <ele>75.400001525879</ele>
        <time>2021-04-11T07:52:14.000Z</time>
      </trkpt>
      <trkpt lat="49.08155" lon="1.34258">
        <ele>75.400001525879</ele>
        <time>2021-04-11T07:52:16.000Z</time>
      </trkpt>
      <trkpt lat="49.08159" lon="1.34259">
        <ele>75</ele>
        <time>2021-04-11T07:52:20.000Z</time>
      </trkpt>
      <trkpt lat="49.08167" lon="1.34258">
        <ele>75</ele>
        <time>2021-04-11T07:52:28.000Z</time>
      </trkpt>
      <trkpt lat="49.08173" lon="1.34258">
        <ele>75.199996948242</ele>
        <time>2021-04-11T07:52:33.000Z</time>
      </trkpt>
      <trkpt lat="49.08177" lon="1.34259">
        <ele>75.599998474121</ele>
        <time>2021-04-11T07:52:37.000Z</time>
      </trkpt>
      <trkpt lat="49.08185" lon="1.34258">
        <ele>75.800003051758</ele>
        <time>2021-04-11T07:52:44.000Z</time>
      </trkpt>
      <trkpt lat="49.08186" lon="1.34258">
        <ele>76</ele>
        <time>2021-04-11T07:52:45.000Z</time>
      </trkpt>
      <trkpt lat="49.08193" lon="1.34254">
        <ele>76.400001525879</ele>
        <time>2021-04-11T07:52:51.000Z</time>
      </trkpt>
      <trkpt lat="49.08198" lon="1.34249">
        <ele>76.800003051758</ele>
        <time>2021-04-11T07:52:57.000Z</time>
      </trkpt>
      <trkpt lat="49.08198" lon="1.34248">
        <ele>76.800003051758</ele>
        <time>2021-04-11T07:52:58.000Z</time>
      </trkpt>
      <trkpt lat="49.082" lon="1.34245">
        <ele>77</ele>
        <time>2021-04-11T07:53:00.000Z</time>
      </trkpt>
      <trkpt lat="49.08204" lon="1.34239">
        <ele>77.400001525879</ele>
        <time>2021-04-11T07:53:05.000Z</time>
      </trkpt>
      <trkpt lat="49.08211" lon="1.34224">
        <ele>77.800003051758</ele>
        <time>2021-04-11T07:53:14.000Z</time>
      </trkpt>
      <trkpt lat="49.08212" lon="1.34222">
        <ele>78</ele>
        <time>2021-04-11T07:53:15.000Z</time>
      </trkpt>
      <trkpt lat="49.08216" lon="1.34209">
        <ele>78.199996948242</ele>
        <time>2021-04-11T07:53:21.000Z</time>
      </trkpt>
      <trkpt lat="49.0822" lon="1.34197">
        <ele>78.199996948242</ele>
        <time>2021-04-11T07:53:27.000Z</time>
      </trkpt>
      <trkpt lat="49.08226" lon="1.34179">
        <ele>78.800003051758</ele>
        <time>2021-04-11T07:53:34.000Z</time>
      </trkpt>
      <trkpt lat="49.08232" lon="1.34159">
        <ele>79.199996948242</ele>
        <time>2021-04-11T07:53:42.000Z</time>
      </trkpt>
      <trkpt lat="49.08238" lon="1.34145">
        <ele>79.400001525879</ele>
        <time>2021-04-11T07:53:49.000Z</time>
      </trkpt>
      <trkpt lat="49.08239" lon="1.34143">
        <ele>79.400001525879</ele>
        <time>2021-04-11T07:53:50.000Z</time>
      </trkpt>
      <trkpt lat="49.08241" lon="1.34141">
        <ele>79.599998474121</ele>
        <time>2021-04-11T07:53:52.000Z</time>
      </trkpt>
      <trkpt lat="49.08242" lon="1.34137">
        <ele>79.599998474121</ele>
        <time>2021-04-11T07:53:54.000Z</time>
      </trkpt>
      <trkpt lat="49.08243" lon="1.34136">
        <ele>79.599998474121</ele>
        <time>2021-04-11T07:53:55.000Z</time>
      </trkpt>
      <trkpt lat="49.08247" lon="1.34129">
        <ele>79.800003051758</ele>
        <time>2021-04-11T07:54:01.000Z</time>
      </trkpt>
      <trkpt lat="49.08257" lon="1.34116">
        <ele>80.400001525879</ele>
        <time>2021-04-11T07:54:09.000Z</time>
      </trkpt>
      <trkpt lat="49.08257" lon="1.34115">
        <ele>80.400001525879</ele>
        <time>2021-04-11T07:54:10.000Z</time>
      </trkpt>
      <trkpt lat="49.0826" lon="1.34113">
        <ele>80.400001525879</ele>
        <time>2021-04-11T07:54:12.000Z</time>
      </trkpt>
      <trkpt lat="49.08267" lon="1.34109">
        <ele>80.800003051758</ele>
        <time>2021-04-11T07:54:17.000Z</time>
      </trkpt>
      <trkpt lat="49.08271" lon="1.34109">
        <ele>81</ele>
        <time>2021-04-11T07:54:20.000Z</time>
      </trkpt>
      <trkpt lat="49.08275" lon="1.3411">
        <ele>81.199996948242</ele>
        <time>2021-04-11T07:54:23.000Z</time>
      </trkpt>
      <trkpt lat="49.08276" lon="1.3411">
        <ele>81.199996948242</ele>
        <time>2021-04-11T07:54:24.000Z</time>
      </trkpt>
      <trkpt lat="49.08284" lon="1.34111">
        <ele>81.400001525879</ele>
        <time>2021-04-11T07:54:28.000Z</time>
      </trkpt>
      <trkpt lat="49.08286" lon="1.3411">
        <ele>81.400001525879</ele>
        <time>2021-04-11T07:54:29.000Z</time>
      </trkpt>
      <trkpt lat="49.08296" lon="1.34106">
        <ele>81.800003051758</ele>
        <time>2021-04-11T07:54:34.000Z</time>
      </trkpt>
      <trkpt lat="49.08297" lon="1.34105">
        <ele>81.800003051758</ele>
        <time>2021-04-11T07:54:35.000Z</time>
      </trkpt>
      <trkpt lat="49.08299" lon="1.34104">
        <ele>82</ele>
        <time>2021-04-11T07:54:37.000Z</time>
      </trkpt>
      <trkpt lat="49.08305" lon="1.34102">
        <ele>82.400001525879</ele>
        <time>2021-04-11T07:54:40.000Z</time>
      </trkpt>
      <trkpt lat="49.08314" lon="1.341">
        <ele>82.800003051758</ele>
        <time>2021-04-11T07:54:45.000Z</time>
      </trkpt>
      <trkpt lat="49.08318" lon="1.34099">
        <ele>83</ele>
        <time>2021-04-11T07:54:47.000Z</time>
      </trkpt>
      <trkpt lat="49.08331" lon="1.34102">
        <ele>83.400001525879</ele>
        <time>2021-04-11T07:54:52.000Z</time>
      </trkpt>
      <trkpt lat="49.08333" lon="1.34103">
        <ele>83.800003051758</ele>
        <time>2021-04-11T07:54:53.000Z</time>
      </trkpt>
      <trkpt lat="49.08343" lon="1.34109">
        <ele>84</ele>
        <time>2021-04-11T07:54:58.000Z</time>
      </trkpt>
      <trkpt lat="49.08358" lon="1.34118">
        <ele>84.599998474121</ele>
        <time>2021-04-11T07:55:05.000Z</time>
      </trkpt>
      <trkpt lat="49.08375" lon="1.34129">
        <ele>85.599998474121</ele>
        <time>2021-04-11T07:55:11.000Z</time>
      </trkpt>
      <trkpt lat="49.08378" lon="1.34131">
        <ele>85.599998474121</ele>
        <time>2021-04-11T07:55:12.000Z</time>
      </trkpt>
      <trkpt lat="49.08393" lon="1.34143">
        <ele>86.400001525879</ele>
        <time>2021-04-11T07:55:17.000Z</time>
      </trkpt>
      <trkpt lat="49.08396" lon="1.34146">
        <ele>86.599998474121</ele>
        <time>2021-04-11T07:55:18.000Z</time>
      </trkpt>
      <trkpt lat="49.0841" lon="1.34154">
        <ele>87.400001525879</ele>
        <time>2021-04-11T07:55:23.000Z</time>
      </trkpt>
      <trkpt lat="49.08425" lon="1.34164">
        <ele>88.599998474121</ele>
        <time>2021-04-11T07:55:29.000Z</time>
      </trkpt>
      <trkpt lat="49.08427" lon="1.34165">
        <ele>88.800003051758</ele>
        <time>2021-04-11T07:55:30.000Z</time>
      </trkpt>
      <trkpt lat="49.08429" lon="1.34168">
        <ele>89.199996948242</ele>
        <time>2021-04-11T07:55:34.000Z</time>
      </trkpt>
      <trkpt lat="49.08433" lon="1.34173">
        <ele>97</ele>
        <time>2021-04-11T07:57:38.000Z</time>
      </trkpt>
      <trkpt lat="49.08433" lon="1.34174">
        <ele>97</ele>
        <time>2021-04-11T07:57:39.000Z</time>
      </trkpt>
      <trkpt lat="49.08435" lon="1.34179">
        <ele>97</ele>
        <time>2021-04-11T07:57:43.000Z</time>
      </trkpt>
      <trkpt lat="49.08435" lon="1.34181">
        <ele>97.199996948242</ele>
        <time>2021-04-11T07:57:44.000Z</time>
      </trkpt>
      <trkpt lat="49.08439" lon="1.34188">
        <ele>97</ele>
        <time>2021-04-11T07:57:47.000Z</time>
      </trkpt>
      <trkpt lat="49.08442" lon="1.34194">
        <ele>97</ele>
        <time>2021-04-11T07:57:49.000Z</time>
      </trkpt>
      <trkpt lat="49.08446" lon="1.34206">
        <ele>97.199996948242</ele>
        <time>2021-04-11T07:57:53.000Z</time>
      </trkpt>
      <trkpt lat="49.0845" lon="1.34231">
        <ele>97.199996948242</ele>
        <time>2021-04-11T07:58:00.000Z</time>
      </trkpt>
      <trkpt lat="49.08453" lon="1.34256">
        <ele>97.400001525879</ele>
        <time>2021-04-11T07:58:05.000Z</time>
      </trkpt>
      <trkpt lat="49.08457" lon="1.34288">
        <ele>97.800003051758</ele>
        <time>2021-04-11T07:58:11.000Z</time>
      </trkpt>
      <trkpt lat="49.08458" lon="1.34298">
        <ele>97.800003051758</ele>
        <time>2021-04-11T07:58:13.000Z</time>
      </trkpt>
      <trkpt lat="49.08459" lon="1.34325">
        <ele>98.199996948242</ele>
        <time>2021-04-11T07:58:18.000Z</time>
      </trkpt>
      <trkpt lat="49.08462" lon="1.34347">
        <ele>98.599998474121</ele>
        <time>2021-04-11T07:58:22.000Z</time>
      </trkpt>
      <trkpt lat="49.08465" lon="1.34363">
        <ele>98.599998474121</ele>
        <time>2021-04-11T07:58:25.000Z</time>
      </trkpt>
      <trkpt lat="49.08471" lon="1.344">
        <ele>98.800003051758</ele>
        <time>2021-04-11T07:58:32.000Z</time>
      </trkpt>
      <trkpt lat="49.08474" lon="1.34423">
        <ele>99</ele>
        <time>2021-04-11T07:58:36.000Z</time>
      </trkpt>
      <trkpt lat="49.08478" lon="1.3445">
        <ele>99.599998474121</ele>
        <time>2021-04-11T07:58:41.000Z</time>
      </trkpt>
      <trkpt lat="49.0848" lon="1.34466">
        <ele>99.800003051758</ele>
        <time>2021-04-11T07:58:44.000Z</time>
      </trkpt>
      <trkpt lat="49.08485" lon="1.34494">
        <ele>100</ele>
        <time>2021-04-11T07:58:49.000Z</time>
      </trkpt>
      <trkpt lat="49.08496" lon="1.34532">
        <ele>100.59999847412</ele>
        <time>2021-04-11T07:58:57.000Z</time>
      </trkpt>
      <trkpt lat="49.08509" lon="1.34565">
        <ele>101</ele>
        <time>2021-04-11T07:59:04.000Z</time>
      </trkpt>
      <trkpt lat="49.08517" lon="1.34586">
        <ele>101.40000152588</ele>
        <time>2021-04-11T07:59:08.000Z</time>
      </trkpt>
      <trkpt lat="49.08522" lon="1.34602">
        <ele>102</ele>
        <time>2021-04-11T07:59:11.000Z</time>
      </trkpt>
      <trkpt lat="49.08525" lon="1.34625">
        <ele>102.59999847412</ele>
        <time>2021-04-11T07:59:15.000Z</time>
      </trkpt>
      <trkpt lat="49.08526" lon="1.34648">
        <ele>102.59999847412</ele>
        <time>2021-04-11T07:59:20.000Z</time>
      </trkpt>
      <trkpt lat="49.08526" lon="1.3465">
        <ele>102.80000305176</ele>
        <time>2021-04-11T07:59:21.000Z</time>
      </trkpt>
      <trkpt lat="49.08526" lon="1.34654">
        <ele>103</ele>
        <time>2021-04-11T07:59:24.000Z</time>
      </trkpt>
      <trkpt lat="49.08526" lon="1.34655">
        <ele>103.19999694824</ele>
        <time>2021-04-11T07:59:25.000Z</time>
      </trkpt>
      <trkpt lat="49.08528" lon="1.34653">
        <ele>103.40000152588</ele>
        <time>2021-04-11T07:59:28.000Z</time>
      </trkpt>
      <trkpt lat="49.08528" lon="1.34651">
        <ele>103.40000152588</ele>
        <time>2021-04-11T07:59:30.000Z</time>
      </trkpt>
      <trkpt lat="49.08527" lon="1.3465">
        <ele>103.59999847412</ele>
        <time>2021-04-11T07:59:31.000Z</time>
      </trkpt>
      <trkpt lat="49.08522" lon="1.34647">
        <ele>103.59999847412</ele>
        <time>2021-04-11T07:59:34.000Z</time>
      </trkpt>
      <trkpt lat="49.08506" lon="1.34643">
        <ele>103.80000305176</ele>
        <time>2021-04-11T07:59:39.000Z</time>
      </trkpt>
      <trkpt lat="49.08492" lon="1.34633">
        <ele>103.40000152588</ele>
        <time>2021-04-11T07:59:43.000Z</time>
      </trkpt>
      <trkpt lat="49.08468" lon="1.34617">
        <ele>103.40000152588</ele>
        <time>2021-04-11T07:59:49.000Z</time>
      </trkpt>
      <trkpt lat="49.0846" lon="1.34612">
        <ele>103.40000152588</ele>
        <time>2021-04-11T07:59:51.000Z</time>
      </trkpt>
      <trkpt lat="49.08446" lon="1.34611">
        <ele>103.40000152588</ele>
        <time>2021-04-11T07:59:54.000Z</time>
      </trkpt>
      <trkpt lat="49.08435" lon="1.34613">
        <ele>103.40000152588</ele>
        <time>2021-04-11T07:59:56.000Z</time>
      </trkpt>
      <trkpt lat="49.08421" lon="1.34621">
        <ele>103.40000152588</ele>
        <time>2021-04-11T07:59:59.000Z</time>
      </trkpt>
      <trkpt lat="49.08407" lon="1.34639">
        <ele>103.59999847412</ele>
        <time>2021-04-11T08:00:03.000Z</time>
      </trkpt>
      <trkpt lat="49.08391" lon="1.34643">
        <ele>103.80000305176</ele>
        <time>2021-04-11T08:00:07.000Z</time>
      </trkpt>
      <trkpt lat="49.08387" lon="1.34643">
        <ele>103.80000305176</ele>
        <time>2021-04-11T08:00:08.000Z</time>
      </trkpt>
      <trkpt lat="49.08368" lon="1.34634">
        <ele>104</ele>
        <time>2021-04-11T08:00:14.000Z</time>
      </trkpt>
      <trkpt lat="49.08362" lon="1.34615">
        <ele>103.80000305176</ele>
        <time>2021-04-11T08:00:19.000Z</time>
      </trkpt>
      <trkpt lat="49.08355" lon="1.34594">
        <ele>104</ele>
        <time>2021-04-11T08:00:24.000Z</time>
      </trkpt>
      <trkpt lat="49.08352" lon="1.34583">
        <ele>104</ele>
        <time>2021-04-11T08:00:28.000Z</time>
      </trkpt>
      <trkpt lat="49.08352" lon="1.34582">
        <ele>104</ele>
        <time>2021-04-11T08:00:29.000Z</time>
      </trkpt>
      <trkpt lat="49.0835" lon="1.3458">
        <ele>103.80000305176</ele>
        <time>2021-04-11T08:00:44.000Z</time>
      </trkpt>
      <trkpt lat="49.08346" lon="1.34575">
        <ele>103.59999847412</ele>
        <time>2021-04-11T08:00:46.000Z</time>
      </trkpt>
      <trkpt lat="49.08331" lon="1.34557">
        <ele>103.19999694824</ele>
        <time>2021-04-11T08:00:52.000Z</time>
      </trkpt>
      <trkpt lat="49.08322" lon="1.3454">
        <ele>102.80000305176</ele>
        <time>2021-04-11T08:00:56.000Z</time>
      </trkpt>
      <trkpt lat="49.0832" lon="1.34535">
        <ele>102.80000305176</ele>
        <time>2021-04-11T08:00:57.000Z</time>
      </trkpt>
      <trkpt lat="49.08308" lon="1.34503">
        <ele>102</ele>
        <time>2021-04-11T08:01:03.000Z</time>
      </trkpt>
      <trkpt lat="49.08307" lon="1.34496">
        <ele>101.80000305176</ele>
        <time>2021-04-11T08:01:04.000Z</time>
      </trkpt>
      <trkpt lat="49.08306" lon="1.34459">
        <ele>101.59999847412</ele>
        <time>2021-04-11T08:01:09.000Z</time>
      </trkpt>
      <trkpt lat="49.08304" lon="1.34426">
        <ele>101.40000152588</ele>
        <time>2021-04-11T08:01:14.000Z</time>
      </trkpt>
      <trkpt lat="49.0829" lon="1.34395">
        <ele>101.40000152588</ele>
        <time>2021-04-11T08:01:20.000Z</time>
      </trkpt>
      <trkpt lat="49.08287" lon="1.3439">
        <ele>101.40000152588</ele>
        <time>2021-04-11T08:01:21.000Z</time>
      </trkpt>
      <trkpt lat="49.08275" lon="1.3438">
        <ele>101.19999694824</ele>
        <time>2021-04-11T08:01:25.000Z</time>
      </trkpt>
      <trkpt lat="49.08262" lon="1.34366">
        <ele>101</ele>
        <time>2021-04-11T08:01:29.000Z</time>
      </trkpt>
      <trkpt lat="49.08249" lon="1.34359">
        <ele>101</ele>
        <time>2021-04-11T08:01:32.000Z</time>
      </trkpt>
      <trkpt lat="49.08237" lon="1.34355">
        <ele>101</ele>
        <time>2021-04-11T08:01:34.000Z</time>
      </trkpt>
      <trkpt lat="49.08214" lon="1.34348">
        <ele>101</ele>
        <time>2021-04-11T08:01:38.000Z</time>
      </trkpt>
      <trkpt lat="49.08202" lon="1.34347">
        <ele>101</ele>
        <time>2021-04-11T08:01:40.000Z</time>
      </trkpt>
      <trkpt lat="49.0818" lon="1.34343">
        <ele>101</ele>
        <time>2021-04-11T08:01:44.000Z</time>
      </trkpt>
      <trkpt lat="49.08174" lon="1.34341">
        <ele>100.80000305176</ele>
        <time>2021-04-11T08:01:45.000Z</time>
      </trkpt>
      <trkpt lat="49.08149" lon="1.34337">
        <ele>100.80000305176</ele>
        <time>2021-04-11T08:01:49.000Z</time>
      </trkpt>
      <trkpt lat="49.08137" lon="1.34337">
        <ele>100.80000305176</ele>
        <time>2021-04-11T08:01:51.000Z</time>
      </trkpt>
      <trkpt lat="49.08111" lon="1.34338">
        <ele>100.80000305176</ele>
        <time>2021-04-11T08:01:55.000Z</time>
      </trkpt>
      <trkpt lat="49.08083" lon="1.34334">
        <ele>100.80000305176</ele>
        <time>2021-04-11T08:01:59.000Z</time>
      </trkpt>
      <trkpt lat="49.08076" lon="1.34332">
        <ele>100.80000305176</ele>
        <time>2021-04-11T08:02:00.000Z</time>
      </trkpt>
      <trkpt lat="49.0807" lon="1.3433">
        <ele>100.59999847412</ele>
        <time>2021-04-11T08:02:01.000Z</time>
      </trkpt>
      <trkpt lat="49.08058" lon="1.34326">
        <ele>100.59999847412</ele>
        <time>2021-04-11T08:02:03.000Z</time>
      </trkpt>
      <trkpt lat="49.08048" lon="1.34317">
        <ele>100.40000152588</ele>
        <time>2021-04-11T08:02:05.000Z</time>
      </trkpt>
      <trkpt lat="49.08033" lon="1.34302">
        <ele>100.19999694824</ele>
        <time>2021-04-11T08:02:08.000Z</time>
      </trkpt>
      <trkpt lat="49.08025" lon="1.34288">
        <ele>100.19999694824</ele>
        <time>2021-04-11T08:02:10.000Z</time>
      </trkpt>
      <trkpt lat="49.08022" lon="1.3428">
        <ele>100.19999694824</ele>
        <time>2021-04-11T08:02:11.000Z</time>
      </trkpt>
      <trkpt lat="49.08012" lon="1.34257">
        <ele>100.19999694824</ele>
        <time>2021-04-11T08:02:14.000Z</time>
      </trkpt>
      <trkpt lat="49.08008" lon="1.34222">
        <ele>100.40000152588</ele>
        <time>2021-04-11T08:02:18.000Z</time>
      </trkpt>
      <trkpt lat="49.08004" lon="1.34196">
        <ele>100.40000152588</ele>
        <time>2021-04-11T08:02:22.000Z</time>
      </trkpt>
      <trkpt lat="49.08001" lon="1.34188">
        <ele>100.40000152588</ele>
        <time>2021-04-11T08:02:26.000Z</time>
      </trkpt>
      <trkpt lat="49.08001" lon="1.34185">
        <ele>100.80000305176</ele>
        <time>2021-04-11T08:02:28.000Z</time>
      </trkpt>
      <trkpt lat="49.07997" lon="1.3418">
        <ele>95.800003051758</ele>
        <time>2021-04-11T08:03:32.000Z</time>
      </trkpt>
      <trkpt lat="49.07995" lon="1.34177">
        <ele>95.800003051758</ele>
        <time>2021-04-11T08:03:33.000Z</time>
      </trkpt>
      <trkpt lat="49.07985" lon="1.34162">
        <ele>95.199996948242</ele>
        <time>2021-04-11T08:03:37.000Z</time>
      </trkpt>
      <trkpt lat="49.07979" lon="1.34155">
        <ele>94.800003051758</ele>
        <time>2021-04-11T08:03:39.000Z</time>
      </trkpt>
      <trkpt lat="49.07967" lon="1.34139">
        <ele>94</ele>
        <time>2021-04-11T08:03:43.000Z</time>
      </trkpt>
      <trkpt lat="49.07962" lon="1.34131">
        <ele>93.599998474121</ele>
        <time>2021-04-11T08:03:45.000Z</time>
      </trkpt>
      <trkpt lat="49.07949" lon="1.34112">
        <ele>92.599998474121</ele>
        <time>2021-04-11T08:03:50.000Z</time>
      </trkpt>
      <trkpt lat="49.07943" lon="1.34101">
        <ele>92.199996948242</ele>
        <time>2021-04-11T08:03:53.000Z</time>
      </trkpt>
      <trkpt lat="49.07939" lon="1.34095">
        <ele>91.800003051758</ele>
        <time>2021-04-11T08:03:55.000Z</time>
      </trkpt>
      <trkpt lat="49.07929" lon="1.34079">
        <ele>91.400001525879</ele>
        <time>2021-04-11T08:04:01.000Z</time>
      </trkpt>
      <trkpt lat="49.07925" lon="1.34075">
        <ele>91</ele>
        <time>2021-04-11T08:04:03.000Z</time>
      </trkpt>
      <trkpt lat="49.07912" lon="1.34065">
        <ele>90</ele>
        <time>2021-04-11T08:04:09.000Z</time>
      </trkpt>
      <trkpt lat="49.07908" lon="1.34061">
        <ele>89.599998474121</ele>
        <time>2021-04-11T08:04:11.000Z</time>
      </trkpt>
      <trkpt lat="49.079" lon="1.34055">
        <ele>89</ele>
        <time>2021-04-11T08:04:15.000Z</time>
      </trkpt>
      <trkpt lat="49.07892" lon="1.3405">
        <ele>88.199996948242</ele>
        <time>2021-04-11T08:04:19.000Z</time>
      </trkpt>
      <trkpt lat="49.0789" lon="1.34049">
        <ele>87.800003051758</ele>
        <time>2021-04-11T08:04:20.000Z</time>
      </trkpt>
      <trkpt lat="49.07882" lon="1.34047">
        <ele>86.800003051758</ele>
        <time>2021-04-11T08:04:24.000Z</time>
      </trkpt>
      <trkpt lat="49.07873" lon="1.34044">
        <ele>85.800003051758</ele>
        <time>2021-04-11T08:04:28.000Z</time>
      </trkpt>
      <trkpt lat="49.07866" lon="1.34042">
        <ele>84.400001525879</ele>
        <time>2021-04-11T08:04:31.000Z</time>
      </trkpt>
      <trkpt lat="49.07859" lon="1.34041">
        <ele>83.199996948242</ele>
        <time>2021-04-11T08:04:34.000Z</time>
      </trkpt>
      <trkpt lat="49.07855" lon="1.34041">
        <ele>82.599998474121</ele>
        <time>2021-04-11T08:04:36.000Z</time>
      </trkpt>
      <trkpt lat="49.0785" lon="1.34041">
        <ele>82.199996948242</ele>
        <time>2021-04-11T08:04:38.000Z</time>
      </trkpt>
      <trkpt lat="49.07842" lon="1.34041">
        <ele>81.199996948242</ele>
        <time>2021-04-11T08:04:42.000Z</time>
      </trkpt>
      <trkpt lat="49.07833" lon="1.34043">
        <ele>80</ele>
        <time>2021-04-11T08:04:46.000Z</time>
      </trkpt>
      <trkpt lat="49.07825" lon="1.34045">
        <ele>78.800003051758</ele>
        <time>2021-04-11T08:04:50.000Z</time>
      </trkpt>
      <trkpt lat="49.07815" lon="1.3405">
        <ele>77.800003051758</ele>
        <time>2021-04-11T08:04:55.000Z</time>
      </trkpt>
      <trkpt lat="49.07813" lon="1.34051">
        <ele>77.599998474121</ele>
        <time>2021-04-11T08:04:56.000Z</time>
      </trkpt>
      <trkpt lat="49.07805" lon="1.34055">
        <ele>76.599998474121</ele>
        <time>2021-04-11T08:05:00.000Z</time>
      </trkpt>
      <trkpt lat="49.07794" lon="1.3406">
        <ele>76</ele>
        <time>2021-04-11T08:05:05.000Z</time>
      </trkpt>
      <trkpt lat="49.07792" lon="1.3406">
        <ele>75.800003051758</ele>
        <time>2021-04-11T08:05:06.000Z</time>
      </trkpt>
      <trkpt lat="49.07781" lon="1.34067">
        <ele>74.400001525879</ele>
        <time>2021-04-11T08:05:11.000Z</time>
      </trkpt>
      <trkpt lat="49.07778" lon="1.34069">
        <ele>74</ele>
        <time>2021-04-11T08:05:12.000Z</time>
      </trkpt>
      <trkpt lat="49.07774" lon="1.34071">
        <ele>73.400001525879</ele>
        <time>2021-04-11T08:05:14.000Z</time>
      </trkpt>
      <trkpt lat="49.07767" lon="1.34076">
        <ele>71.800003051758</ele>
        <time>2021-04-11T08:05:17.000Z</time>
      </trkpt>
      <trkpt lat="49.0776" lon="1.34082">
        <ele>70.400001525879</ele>
        <time>2021-04-11T08:05:20.000Z</time>
      </trkpt>
      <trkpt lat="49.07758" lon="1.34084">
        <ele>70</ele>
        <time>2021-04-11T08:05:21.000Z</time>
      </trkpt>
      <trkpt lat="49.07753" lon="1.34088">
        <ele>69</ele>
        <time>2021-04-11T08:05:23.000Z</time>
      </trkpt>
      <trkpt lat="49.07747" lon="1.34092">
        <ele>67.800003051758</ele>
        <time>2021-04-11T08:05:25.000Z</time>
      </trkpt>
      <trkpt lat="49.07738" lon="1.34099">
        <ele>66.599998474121</ele>
        <time>2021-04-11T08:05:28.000Z</time>
      </trkpt>
      <trkpt lat="49.07726" lon="1.34104">
        <ele>65.599998474121</ele>
        <time>2021-04-11T08:05:31.000Z</time>
      </trkpt>
      <trkpt lat="49.07714" lon="1.34106">
        <ele>64.400001525879</ele>
        <time>2021-04-11T08:05:34.000Z</time>
      </trkpt>
      <trkpt lat="49.07703" lon="1.34103">
        <ele>63.400001525879</ele>
        <time>2021-04-11T08:05:37.000Z</time>
      </trkpt>
      <trkpt lat="49.07696" lon="1.34099">
        <ele>62.599998474121</ele>
        <time>2021-04-11T08:05:39.000Z</time>
      </trkpt>
      <trkpt lat="49.07693" lon="1.34097">
        <ele>62.200000762939</ele>
        <time>2021-04-11T08:05:40.000Z</time>
      </trkpt>
      <trkpt lat="49.07686" lon="1.34091">
        <ele>61</ele>
        <time>2021-04-11T08:05:42.000Z</time>
      </trkpt>
      <trkpt lat="49.0768" lon="1.34084">
        <ele>59.799999237061</ele>
        <time>2021-04-11T08:05:44.000Z</time>
      </trkpt>
      <trkpt lat="49.07677" lon="1.34081">
        <ele>59.200000762939</ele>
        <time>2021-04-11T08:05:45.000Z</time>
      </trkpt>
      <trkpt lat="49.07675" lon="1.34077">
        <ele>58.200000762939</ele>
        <time>2021-04-11T08:05:46.000Z</time>
      </trkpt>
      <trkpt lat="49.07667" lon="1.34065">
        <ele>56.799999237061</ele>
        <time>2021-04-11T08:05:49.000Z</time>
      </trkpt>
      <trkpt lat="49.07657" lon="1.34051">
        <ele>56</ele>
        <time>2021-04-11T08:05:53.000Z</time>
      </trkpt>
      <trkpt lat="49.07654" lon="1.34048">
        <ele>55.799999237061</ele>
        <time>2021-04-11T08:05:54.000Z</time>
      </trkpt>
      <trkpt lat="49.07636" lon="1.34026">
        <ele>54.400001525879</ele>
        <time>2021-04-11T08:06:01.000Z</time>
      </trkpt>
      <trkpt lat="49.07633" lon="1.34023">
        <ele>54.200000762939</ele>
        <time>2021-04-11T08:06:02.000Z</time>
      </trkpt>
      <trkpt lat="49.07612" lon="1.34001">
        <ele>53.400001525879</ele>
        <time>2021-04-11T08:06:10.000Z</time>
      </trkpt>
      <trkpt lat="49.07609" lon="1.33999">
        <ele>53.200000762939</ele>
        <time>2021-04-11T08:06:11.000Z</time>
      </trkpt>
      <trkpt lat="49.07588" lon="1.33975">
        <ele>52.400001525879</ele>
        <time>2021-04-11T08:06:19.000Z</time>
      </trkpt>
      <trkpt lat="49.07586" lon="1.3397">
        <ele>52</ele>
        <time>2021-04-11T08:06:20.000Z</time>
      </trkpt>
      <trkpt lat="49.0758" lon="1.33948">
        <ele>51.200000762939</ele>
        <time>2021-04-11T08:06:25.000Z</time>
      </trkpt>
      <trkpt lat="49.07579" lon="1.33939">
        <ele>50.799999237061</ele>
        <time>2021-04-11T08:06:27.000Z</time>
      </trkpt>
      <trkpt lat="49.07573" lon="1.33918">
        <ele>49.599998474121</ele>
        <time>2021-04-11T08:06:32.000Z</time>
      </trkpt>
      <trkpt lat="49.0757" lon="1.3391">
        <ele>49</ele>
        <time>2021-04-11T08:06:34.000Z</time>
      </trkpt>
      <trkpt lat="49.07566" lon="1.33903">
        <ele>48.400001525879</ele>
        <time>2021-04-11T08:06:36.000Z</time>
      </trkpt>
      <trkpt lat="49.07557" lon="1.33893">
        <ele>47.400001525879</ele>
        <time>2021-04-11T08:06:40.000Z</time>
      </trkpt>
      <trkpt lat="49.07555" lon="1.3389">
        <ele>47</ele>
        <time>2021-04-11T08:06:41.000Z</time>
      </trkpt>
      <trkpt lat="49.07547" lon="1.33885">
        <ele>46</ele>
        <time>2021-04-11T08:06:44.000Z</time>
      </trkpt>
      <trkpt lat="49.07531" lon="1.33878">
        <ele>44.599998474121</ele>
        <time>2021-04-11T08:06:50.000Z</time>
      </trkpt>
      <trkpt lat="49.07522" lon="1.33873">
        <ele>43.400001525879</ele>
        <time>2021-04-11T08:06:53.000Z</time>
      </trkpt>
      <trkpt lat="49.07514" lon="1.33869">
        <ele>42.400001525879</ele>
        <time>2021-04-11T08:06:56.000Z</time>
      </trkpt>
      <trkpt lat="49.07505" lon="1.33864">
        <ele>41.200000762939</ele>
        <time>2021-04-11T08:06:59.000Z</time>
      </trkpt>
      <trkpt lat="49.07494" lon="1.33855">
        <ele>39.599998474121</ele>
        <time>2021-04-11T08:07:03.000Z</time>
      </trkpt>
      <trkpt lat="49.07484" lon="1.33846">
        <ele>38.400001525879</ele>
        <time>2021-04-11T08:07:07.000Z</time>
      </trkpt>
      <trkpt lat="49.07477" lon="1.33838">
        <ele>37.200000762939</ele>
        <time>2021-04-11T08:07:10.000Z</time>
      </trkpt>
      <trkpt lat="49.07469" lon="1.33827">
        <ele>36</ele>
        <time>2021-04-11T08:07:13.000Z</time>
      </trkpt>
      <trkpt lat="49.07466" lon="1.33824">
        <ele>35.599998474121</ele>
        <time>2021-04-11T08:07:14.000Z</time>
      </trkpt>
      <trkpt lat="49.07457" lon="1.33815">
        <ele>34.599998474121</ele>
        <time>2021-04-11T08:07:17.000Z</time>
      </trkpt>
      <trkpt lat="49.07443" lon="1.33804">
        <ele>33.799999237061</ele>
        <time>2021-04-11T08:07:22.000Z</time>
      </trkpt>
      <trkpt lat="49.07433" lon="1.33796">
        <ele>33.400001525879</ele>
        <time>2021-04-11T08:07:26.000Z</time>
      </trkpt>
      <trkpt lat="49.07425" lon="1.33791">
        <ele>32.599998474121</ele>
        <time>2021-04-11T08:07:29.000Z</time>
      </trkpt>
      <trkpt lat="49.07422" lon="1.33789">
        <ele>32.400001525879</ele>
        <time>2021-04-11T08:07:30.000Z</time>
      </trkpt>
      <trkpt lat="49.07416" lon="1.33787">
        <ele>32</ele>
        <time>2021-04-11T08:07:32.000Z</time>
      </trkpt>
      <trkpt lat="49.074" lon="1.33781">
        <ele>31</ele>
        <time>2021-04-11T08:07:37.000Z</time>
      </trkpt>
      <trkpt lat="49.07394" lon="1.33778">
        <ele>30.200000762939</ele>
        <time>2021-04-11T08:07:39.000Z</time>
      </trkpt>
      <trkpt lat="49.07378" lon="1.33766">
        <ele>28.799999237061</ele>
        <time>2021-04-11T08:07:44.000Z</time>
      </trkpt>
      <trkpt lat="49.07364" lon="1.33751">
        <ele>27.60000038147</ele>
        <time>2021-04-11T08:07:49.000Z</time>
      </trkpt>
      <trkpt lat="49.0735" lon="1.33735">
        <ele>26.799999237061</ele>
        <time>2021-04-11T08:07:54.000Z</time>
      </trkpt>
      <trkpt lat="49.0733" lon="1.33702">
        <ele>26.39999961853</ele>
        <time>2021-04-11T08:08:02.000Z</time>
      </trkpt>
      <trkpt lat="49.07312" lon="1.33668">
        <ele>26.60000038147</ele>
        <time>2021-04-11T08:08:10.000Z</time>
      </trkpt>
      <trkpt lat="49.0731" lon="1.33667">
        <ele>26.799999237061</ele>
        <time>2021-04-11T08:08:13.000Z</time>
      </trkpt>
      <trkpt lat="49.0731" lon="1.33684">
        <ele>26.799999237061</ele>
        <time>2021-04-11T08:08:17.000Z</time>
      </trkpt>
      <trkpt lat="49.07306" lon="1.33692">
        <ele>26.799999237061</ele>
        <time>2021-04-11T08:08:21.000Z</time>
      </trkpt>
      <trkpt lat="49.07311" lon="1.33689">
        <ele>26.39999961853</ele>
        <time>2021-04-11T08:08:25.000Z</time>
      </trkpt>
      <trkpt lat="49.07312" lon="1.33686">
        <ele>26.200000762939</ele>
        <time>2021-04-11T08:08:26.000Z</time>
      </trkpt>
      <trkpt lat="49.07314" lon="1.33673">
        <ele>25.799999237061</ele>
        <time>2021-04-11T08:08:30.000Z</time>
      </trkpt>
      <trkpt lat="49.07308" lon="1.33659">
        <ele>25.200000762939</ele>
        <time>2021-04-11T08:08:35.000Z</time>
      </trkpt>
      <trkpt lat="49.07294" lon="1.33635">
        <ele>25</ele>
        <time>2021-04-11T08:08:42.000Z</time>
      </trkpt>
      <trkpt lat="49.07277" lon="1.33608">
        <ele>25.200000762939</ele>
        <time>2021-04-11T08:08:50.000Z</time>
      </trkpt>
      <trkpt lat="49.07257" lon="1.3358">
        <ele>25.60000038147</ele>
        <time>2021-04-11T08:08:58.000Z</time>
      </trkpt>
      <trkpt lat="49.07246" lon="1.33566">
        <ele>25.799999237061</ele>
        <time>2021-04-11T08:09:02.000Z</time>
      </trkpt>
      <trkpt lat="49.07229" lon="1.33544">
        <ele>26.39999961853</ele>
        <time>2021-04-11T08:09:08.000Z</time>
      </trkpt>
      <trkpt lat="49.07223" lon="1.33536">
        <ele>26.39999961853</ele>
        <time>2021-04-11T08:09:10.000Z</time>
      </trkpt>
      <trkpt lat="49.07206" lon="1.33516">
        <ele>26.60000038147</ele>
        <time>2021-04-11T08:09:15.000Z</time>
      </trkpt>
      <trkpt lat="49.07203" lon="1.33513">
        <ele>26.60000038147</ele>
        <time>2021-04-11T08:09:16.000Z</time>
      </trkpt>
      <trkpt lat="49.07196" lon="1.33507">
        <ele>26.60000038147</ele>
        <time>2021-04-11T08:09:18.000Z</time>
      </trkpt>
      <trkpt lat="49.07181" lon="1.33493">
        <ele>26.799999237061</ele>
        <time>2021-04-11T08:09:22.000Z</time>
      </trkpt>
      <trkpt lat="49.07147" lon="1.33464">
        <ele>26.60000038147</ele>
        <time>2021-04-11T08:09:30.000Z</time>
      </trkpt>
      <trkpt lat="49.07143" lon="1.33461">
        <ele>26.60000038147</ele>
        <time>2021-04-11T08:09:31.000Z</time>
      </trkpt>
      <trkpt lat="49.07136" lon="1.33456">
        <ele>26.39999961853</ele>
        <time>2021-04-11T08:09:34.000Z</time>
      </trkpt>
      <trkpt lat="49.07135" lon="1.33456">
        <ele>26.39999961853</ele>
        <time>2021-04-11T08:09:35.000Z</time>
      </trkpt>
      <trkpt lat="49.07135" lon="1.33456">
        <ele>26.39999961853</ele>
        <time>2021-04-11T08:09:36.000Z</time>
      </trkpt>
      <trkpt lat="49.07134" lon="1.33456">
        <ele>26.200000762939</ele>
        <time>2021-04-11T08:09:46.000Z</time>
      </trkpt>
      <trkpt lat="49.07133" lon="1.33455">
        <ele>25.799999237061</ele>
        <time>2021-04-11T08:09:47.000Z</time>
      </trkpt>
      <trkpt lat="49.07117" lon="1.33445">
        <ele>24.799999237061</ele>
        <time>2021-04-11T08:09:52.000Z</time>
      </trkpt>
      <trkpt lat="49.07114" lon="1.33443">
        <ele>24.60000038147</ele>
        <time>2021-04-11T08:09:53.000Z</time>
      </trkpt>
      <trkpt lat="49.07087" lon="1.33426">
        <ele>23.60000038147</ele>
        <time>2021-04-11T08:10:00.000Z</time>
      </trkpt>
      <trkpt lat="49.07079" lon="1.33421">
        <ele>23</ele>
        <time>2021-04-11T08:10:02.000Z</time>
      </trkpt>
      <trkpt lat="49.07047" lon="1.33405">
        <ele>22.60000038147</ele>
        <time>2021-04-11T08:10:09.000Z</time>
      </trkpt>
      <trkpt lat="49.07011" lon="1.33385">
        <ele>22.60000038147</ele>
        <time>2021-04-11T08:10:17.000Z</time>
      </trkpt>
      <trkpt lat="49.06972" lon="1.33368">
        <ele>23.200000762939</ele>
        <time>2021-04-11T08:10:25.000Z</time>
      </trkpt>
      <trkpt lat="49.06962" lon="1.33364">
        <ele>23.39999961853</ele>
        <time>2021-04-11T08:10:27.000Z</time>
      </trkpt>
      <trkpt lat="49.06932" lon="1.33354">
        <ele>24</ele>
        <time>2021-04-11T08:10:33.000Z</time>
      </trkpt>
      <trkpt lat="49.06917" lon="1.33349">
        <ele>24</ele>
        <time>2021-04-11T08:10:36.000Z</time>
      </trkpt>
      <trkpt lat="49.06875" lon="1.3334">
        <ele>24.39999961853</ele>
        <time>2021-04-11T08:10:44.000Z</time>
      </trkpt>
      <trkpt lat="49.06838" lon="1.33333">
        <ele>25.39999961853</ele>
        <time>2021-04-11T08:10:51.000Z</time>
      </trkpt>
      <trkpt lat="49.06827" lon="1.33332">
        <ele>25.799999237061</ele>
        <time>2021-04-11T08:10:53.000Z</time>
      </trkpt>
      <trkpt lat="49.06796" lon="1.33337">
        <ele>26.200000762939</ele>
        <time>2021-04-11T08:10:59.000Z</time>
      </trkpt>
      <trkpt lat="49.06786" lon="1.33339">
        <ele>26.39999961853</ele>
        <time>2021-04-11T08:11:01.000Z</time>
      </trkpt>
      <trkpt lat="49.06748" lon="1.33353">
        <ele>26.60000038147</ele>
        <time>2021-04-11T08:11:09.000Z</time>
      </trkpt>
      <trkpt lat="49.06738" lon="1.33368">
        <ele>26.799999237061</ele>
        <time>2021-04-11T08:11:12.000Z</time>
      </trkpt>
      <trkpt lat="49.06735" lon="1.33375">
        <ele>26.799999237061</ele>
        <time>2021-04-11T08:11:13.000Z</time>
      </trkpt>
      <trkpt lat="49.06728" lon="1.33395">
        <ele>27</ele>
        <time>2021-04-11T08:11:16.000Z</time>
      </trkpt>
      <trkpt lat="49.06721" lon="1.33408">
        <ele>27.200000762939</ele>
        <time>2021-04-11T08:11:18.000Z</time>
      </trkpt>
      <trkpt lat="49.06717" lon="1.33414">
        <ele>27.200000762939</ele>
        <time>2021-04-11T08:11:19.000Z</time>
      </trkpt>
      <trkpt lat="49.06705" lon="1.33432">
        <ele>27.39999961853</ele>
        <time>2021-04-11T08:11:22.000Z</time>
      </trkpt>
      <trkpt lat="49.06686" lon="1.33459">
        <ele>28.39999961853</ele>
        <time>2021-04-11T08:11:27.000Z</time>
      </trkpt>
      <trkpt lat="49.06682" lon="1.33464">
        <ele>28.39999961853</ele>
        <time>2021-04-11T08:11:28.000Z</time>
      </trkpt>
      <trkpt lat="49.06656" lon="1.33499">
        <ele>29.200000762939</ele>
        <time>2021-04-11T08:11:34.000Z</time>
      </trkpt>
      <trkpt lat="49.06649" lon="1.33512">
        <ele>29.60000038147</ele>
        <time>2021-04-11T08:11:36.000Z</time>
      </trkpt>
      <trkpt lat="49.06639" lon="1.33531">
        <ele>30</ele>
        <time>2021-04-11T08:11:39.000Z</time>
      </trkpt>
      <trkpt lat="49.06633" lon="1.33545">
        <ele>30.200000762939</ele>
        <time>2021-04-11T08:11:41.000Z</time>
      </trkpt>
      <trkpt lat="49.06616" lon="1.3358">
        <ele>31</ele>
        <time>2021-04-11T08:11:46.000Z</time>
      </trkpt>
      <trkpt lat="49.0661" lon="1.33593">
        <ele>31.200000762939</ele>
        <time>2021-04-11T08:11:48.000Z</time>
      </trkpt>
      <trkpt lat="49.066" lon="1.33611">
        <ele>32</ele>
        <time>2021-04-11T08:11:51.000Z</time>
      </trkpt>
      <trkpt lat="49.06581" lon="1.33641">
        <ele>33.200000762939</ele>
        <time>2021-04-11T08:11:56.000Z</time>
      </trkpt>
      <trkpt lat="49.06578" lon="1.33647">
        <ele>33.200000762939</ele>
        <time>2021-04-11T08:11:57.000Z</time>
      </trkpt>
      <trkpt lat="49.06563" lon="1.33668">
        <ele>34.200000762939</ele>
        <time>2021-04-11T08:12:01.000Z</time>
      </trkpt>
      <trkpt lat="49.06551" lon="1.33682">
        <ele>34.799999237061</ele>
        <time>2021-04-11T08:12:04.000Z</time>
      </trkpt>
      <trkpt lat="49.06544" lon="1.33691">
        <ele>35.200000762939</ele>
        <time>2021-04-11T08:12:06.000Z</time>
      </trkpt>
      <trkpt lat="49.06525" lon="1.33713">
        <ele>36.200000762939</ele>
        <time>2021-04-11T08:12:11.000Z</time>
      </trkpt>
      <trkpt lat="49.06514" lon="1.3372">
        <ele>36.799999237061</ele>
        <time>2021-04-11T08:12:14.000Z</time>
      </trkpt>
      <trkpt lat="49.06511" lon="1.33718">
        <ele>37</ele>
        <time>2021-04-11T08:12:15.000Z</time>
      </trkpt>
      <trkpt lat="49.06507" lon="1.33714">
        <ele>37.200000762939</ele>
        <time>2021-04-11T08:12:16.000Z</time>
      </trkpt>
      <trkpt lat="49.06499" lon="1.33707">
        <ele>37.400001525879</ele>
        <time>2021-04-11T08:12:18.000Z</time>
      </trkpt>
      <trkpt lat="49.06487" lon="1.33696">
        <ele>37.799999237061</ele>
        <time>2021-04-11T08:12:21.000Z</time>
      </trkpt>
      <trkpt lat="49.06483" lon="1.33691">
        <ele>37.799999237061</ele>
        <time>2021-04-11T08:12:22.000Z</time>
      </trkpt>
      <trkpt lat="49.06479" lon="1.33686">
        <ele>38</ele>
        <time>2021-04-11T08:12:23.000Z</time>
      </trkpt>
      <trkpt lat="49.06461" lon="1.33665">
        <ele>38.799999237061</ele>
        <time>2021-04-11T08:12:27.000Z</time>
      </trkpt>
      <trkpt lat="49.06448" lon="1.33649">
        <ele>38.799999237061</ele>
        <time>2021-04-11T08:12:30.000Z</time>
      </trkpt>
      <trkpt lat="49.06432" lon="1.33634">
        <ele>39.200000762939</ele>
        <time>2021-04-11T08:12:33.000Z</time>
      </trkpt>
      <trkpt lat="49.06405" lon="1.33609">
        <ele>39.799999237061</ele>
        <time>2021-04-11T08:12:38.000Z</time>
      </trkpt>
      <trkpt lat="49.064" lon="1.33605">
        <ele>39.799999237061</ele>
        <time>2021-04-11T08:12:39.000Z</time>
      </trkpt>
      <trkpt lat="49.06378" lon="1.33588">
        <ele>40.799999237061</ele>
        <time>2021-04-11T08:12:44.000Z</time>
      </trkpt>
      <trkpt lat="49.06374" lon="1.33586">
        <ele>41</ele>
        <time>2021-04-11T08:12:45.000Z</time>
      </trkpt>
      <trkpt lat="49.0636" lon="1.33587">
        <ele>41.200000762939</ele>
        <time>2021-04-11T08:12:48.000Z</time>
      </trkpt>
      <trkpt lat="49.06341" lon="1.33591">
        <ele>41.599998474121</ele>
        <time>2021-04-11T08:12:51.000Z</time>
      </trkpt>
      <trkpt lat="49.06334" lon="1.3359">
        <ele>41.799999237061</ele>
        <time>2021-04-11T08:12:52.000Z</time>
      </trkpt>
      <trkpt lat="49.06312" lon="1.33581">
        <ele>42</ele>
        <time>2021-04-11T08:12:55.000Z</time>
      </trkpt>
      <trkpt lat="49.06304" lon="1.33575">
        <ele>42.200000762939</ele>
        <time>2021-04-11T08:12:56.000Z</time>
      </trkpt>
      <trkpt lat="49.06264" lon="1.33546">
        <ele>42.599998474121</ele>
        <time>2021-04-11T08:13:01.000Z</time>
      </trkpt>
      <trkpt lat="49.06255" lon="1.33542">
        <ele>42.599998474121</ele>
        <time>2021-04-11T08:13:02.000Z</time>
      </trkpt>
      <trkpt lat="49.06247" lon="1.33539">
        <ele>42.599998474121</ele>
        <time>2021-04-11T08:13:03.000Z</time>
      </trkpt>
      <trkpt lat="49.0622" lon="1.33531">
        <ele>43</ele>
        <time>2021-04-11T08:13:06.000Z</time>
      </trkpt>
      <trkpt lat="49.06185" lon="1.3353">
        <ele>43.400001525879</ele>
        <time>2021-04-11T08:13:10.000Z</time>
      </trkpt>
      <trkpt lat="49.06177" lon="1.33532">
        <ele>43.599998474121</ele>
        <time>2021-04-11T08:13:11.000Z</time>
      </trkpt>
      <trkpt lat="49.06143" lon="1.33536">
        <ele>44.599998474121</ele>
        <time>2021-04-11T08:13:15.000Z</time>
      </trkpt>
      <trkpt lat="49.06135" lon="1.33535">
        <ele>44.599998474121</ele>
        <time>2021-04-11T08:13:16.000Z</time>
      </trkpt>
      <trkpt lat="49.06117" lon="1.33528">
        <ele>45.200000762939</ele>
        <time>2021-04-11T08:13:19.000Z</time>
      </trkpt>
      <trkpt lat="49.06106" lon="1.33518">
        <ele>45.400001525879</ele>
        <time>2021-04-11T08:13:21.000Z</time>
      </trkpt>
      <trkpt lat="49.06101" lon="1.33513">
        <ele>45.799999237061</ele>
        <time>2021-04-11T08:13:22.000Z</time>
      </trkpt>
      <trkpt lat="49.06088" lon="1.33503">
        <ele>46.400001525879</ele>
        <time>2021-04-11T08:13:24.000Z</time>
      </trkpt>
      <trkpt lat="49.06069" lon="1.33488">
        <ele>47</ele>
        <time>2021-04-11T08:13:27.000Z</time>
      </trkpt>
      <trkpt lat="49.06052" lon="1.33474">
        <ele>47.799999237061</ele>
        <time>2021-04-11T08:13:30.000Z</time>
      </trkpt>
      <trkpt lat="49.06031" lon="1.33458">
        <ele>48.200000762939</ele>
        <time>2021-04-11T08:13:33.000Z</time>
      </trkpt>
      <trkpt lat="49.06011" lon="1.3344">
        <ele>48.799999237061</ele>
        <time>2021-04-11T08:13:36.000Z</time>
      </trkpt>
      <trkpt lat="49.05986" lon="1.3342">
        <ele>49.200000762939</ele>
        <time>2021-04-11T08:13:40.000Z</time>
      </trkpt>
      <trkpt lat="49.0598" lon="1.33415">
        <ele>49.400001525879</ele>
        <time>2021-04-11T08:13:41.000Z</time>
      </trkpt>
      <trkpt lat="49.05951" lon="1.33389">
        <ele>50</ele>
        <time>2021-04-11T08:13:46.000Z</time>
      </trkpt>
      <trkpt lat="49.05945" lon="1.33384">
        <ele>50</ele>
        <time>2021-04-11T08:13:47.000Z</time>
      </trkpt>
      <trkpt lat="49.05933" lon="1.33376">
        <ele>50.200000762939</ele>
        <time>2021-04-11T08:13:49.000Z</time>
      </trkpt>
      <trkpt lat="49.05927" lon="1.33374">
        <ele>50.400001525879</ele>
        <time>2021-04-11T08:13:50.000Z</time>
      </trkpt>
      <trkpt lat="49.05918" lon="1.33366">
        <ele>50.599998474121</ele>
        <time>2021-04-11T08:13:53.000Z</time>
      </trkpt>
      <trkpt lat="49.05918" lon="1.33363">
        <ele>50.799999237061</ele>
        <time>2021-04-11T08:13:56.000Z</time>
      </trkpt>
      <trkpt lat="49.05916" lon="1.33361">
        <ele>47.200000762939</ele>
        <time>2021-04-11T08:14:50.000Z</time>
      </trkpt>
      <trkpt lat="49.05915" lon="1.33354">
        <ele>46.599998474121</ele>
        <time>2021-04-11T08:14:53.000Z</time>
      </trkpt>
      <trkpt lat="49.05921" lon="1.33348">
        <ele>46.200000762939</ele>
        <time>2021-04-11T08:14:57.000Z</time>
      </trkpt>
      <trkpt lat="49.05924" lon="1.33344">
        <ele>46</ele>
        <time>2021-04-11T08:14:59.000Z</time>
      </trkpt>
      <trkpt lat="49.05926" lon="1.33343">
        <ele>45.799999237061</ele>
        <time>2021-04-11T08:15:00.000Z</time>
      </trkpt>
      <trkpt lat="49.05927" lon="1.33341">
        <ele>45.599998474121</ele>
        <time>2021-04-11T08:15:01.000Z</time>
      </trkpt>
      <trkpt lat="49.05936" lon="1.33338">
        <ele>45.400001525879</ele>
        <time>2021-04-11T08:15:05.000Z</time>
      </trkpt>
      <trkpt lat="49.0595" lon="1.33334">
        <ele>45.200000762939</ele>
        <time>2021-04-11T08:15:11.000Z</time>
      </trkpt>
      <trkpt lat="49.05953" lon="1.33333">
        <ele>45</ele>
        <time>2021-04-11T08:15:12.000Z</time>
      </trkpt>
      <trkpt lat="49.05972" lon="1.33325">
        <ele>45</ele>
        <time>2021-04-11T08:15:19.000Z</time>
      </trkpt>
      <trkpt lat="49.05996" lon="1.33303">
        <ele>45.200000762939</ele>
        <time>2021-04-11T08:15:27.000Z</time>
      </trkpt>
      <trkpt lat="49.06025" lon="1.3327">
        <ele>46.200000762939</ele>
        <time>2021-04-11T08:15:37.000Z</time>
      </trkpt>
      <trkpt lat="49.0603" lon="1.33262">
        <ele>46.400001525879</ele>
        <time>2021-04-11T08:15:39.000Z</time>
      </trkpt>
      <trkpt lat="49.06045" lon="1.33236">
        <ele>47</ele>
        <time>2021-04-11T08:15:45.000Z</time>
      </trkpt>
      <trkpt lat="49.06059" lon="1.33209">
        <ele>47.599998474121</ele>
        <time>2021-04-11T08:15:51.000Z</time>
      </trkpt>
      <trkpt lat="49.06076" lon="1.33168">
        <ele>48.200000762939</ele>
        <time>2021-04-11T08:15:59.000Z</time>
      </trkpt>
      <trkpt lat="49.06083" lon="1.33147">
        <ele>48.799999237061</ele>
        <time>2021-04-11T08:16:03.000Z</time>
      </trkpt>
      <trkpt lat="49.06087" lon="1.33137">
        <ele>48.799999237061</ele>
        <time>2021-04-11T08:16:05.000Z</time>
      </trkpt>
      <trkpt lat="49.06099" lon="1.33106">
        <ele>49</ele>
        <time>2021-04-11T08:16:11.000Z</time>
      </trkpt>
      <trkpt lat="49.06112" lon="1.33074">
        <ele>50</ele>
        <time>2021-04-11T08:16:17.000Z</time>
      </trkpt>
      <trkpt lat="49.06116" lon="1.33064">
        <ele>50.200000762939</ele>
        <time>2021-04-11T08:16:19.000Z</time>
      </trkpt>
      <trkpt lat="49.06135" lon="1.33013">
        <ele>51</ele>
        <time>2021-04-11T08:16:28.000Z</time>
      </trkpt>
      <trkpt lat="49.06153" lon="1.32968">
        <ele>51.400001525879</ele>
        <time>2021-04-11T08:16:36.000Z</time>
      </trkpt>
      <trkpt lat="49.0617" lon="1.32921">
        <ele>52</ele>
        <time>2021-04-11T08:16:44.000Z</time>
      </trkpt>
      <trkpt lat="49.06174" lon="1.32909">
        <ele>52.200000762939</ele>
        <time>2021-04-11T08:16:46.000Z</time>
      </trkpt>
      <trkpt lat="49.06185" lon="1.3288">
        <ele>52.799999237061</ele>
        <time>2021-04-11T08:16:51.000Z</time>
      </trkpt>
      <trkpt lat="49.06187" lon="1.32875">
        <ele>53</ele>
        <time>2021-04-11T08:16:52.000Z</time>
      </trkpt>
      <trkpt lat="49.06193" lon="1.32857">
        <ele>53.200000762939</ele>
        <time>2021-04-11T08:16:55.000Z</time>
      </trkpt>
      <trkpt lat="49.062" lon="1.32832">
        <ele>53.799999237061</ele>
        <time>2021-04-11T08:16:59.000Z</time>
      </trkpt>
      <trkpt lat="49.06209" lon="1.32801">
        <ele>54.200000762939</ele>
        <time>2021-04-11T08:17:04.000Z</time>
      </trkpt>
      <trkpt lat="49.06215" lon="1.32782">
        <ele>54.799999237061</ele>
        <time>2021-04-11T08:17:07.000Z</time>
      </trkpt>
      <trkpt lat="49.06222" lon="1.32756">
        <ele>55.599998474121</ele>
        <time>2021-04-11T08:17:11.000Z</time>
      </trkpt>
      <trkpt lat="49.0623" lon="1.32724">
        <ele>56</ele>
        <time>2021-04-11T08:17:16.000Z</time>
      </trkpt>
      <trkpt lat="49.0624" lon="1.32692">
        <ele>56.599998474121</ele>
        <time>2021-04-11T08:17:21.000Z</time>
      </trkpt>
      <trkpt lat="49.06245" lon="1.32673">
        <ele>57</ele>
        <time>2021-04-11T08:17:24.000Z</time>
      </trkpt>
      <trkpt lat="49.06247" lon="1.32667">
        <ele>57.200000762939</ele>
        <time>2021-04-11T08:17:25.000Z</time>
      </trkpt>
      <trkpt lat="49.06258" lon="1.32628">
        <ele>57.799999237061</ele>
        <time>2021-04-11T08:17:31.000Z</time>
      </trkpt>
      <trkpt lat="49.06259" lon="1.32621">
        <ele>58</ele>
        <time>2021-04-11T08:17:32.000Z</time>
      </trkpt>
      <trkpt lat="49.06261" lon="1.32614">
        <ele>58</ele>
        <time>2021-04-11T08:17:33.000Z</time>
      </trkpt>
      <trkpt lat="49.06277" lon="1.32558">
        <ele>58.599998474121</ele>
        <time>2021-04-11T08:17:41.000Z</time>
      </trkpt>
      <trkpt lat="49.06291" lon="1.32515">
        <ele>59</ele>
        <time>2021-04-11T08:17:47.000Z</time>
      </trkpt>
      <trkpt lat="49.06293" lon="1.32508">
        <ele>59</ele>
        <time>2021-04-11T08:17:48.000Z</time>
      </trkpt>
      <trkpt lat="49.06314" lon="1.32451">
        <ele>59.599998474121</ele>
        <time>2021-04-11T08:17:56.000Z</time>
      </trkpt>
      <trkpt lat="49.06329" lon="1.32411">
        <ele>60</ele>
        <time>2021-04-11T08:18:02.000Z</time>
      </trkpt>
      <trkpt lat="49.06334" lon="1.32397">
        <ele>60</ele>
        <time>2021-04-11T08:18:04.000Z</time>
      </trkpt>
      <trkpt lat="49.06349" lon="1.3236">
        <ele>60.400001525879</ele>
        <time>2021-04-11T08:18:10.000Z</time>
      </trkpt>
      <trkpt lat="49.06352" lon="1.32356">
        <ele>60.400001525879</ele>
        <time>2021-04-11T08:18:11.000Z</time>
      </trkpt>
      <trkpt lat="49.06363" lon="1.32343">
        <ele>60.599998474121</ele>
        <time>2021-04-11T08:18:16.000Z</time>
      </trkpt>
      <trkpt lat="49.06373" lon="1.3233">
        <ele>60.599998474121</ele>
        <time>2021-04-11T08:18:23.000Z</time>
      </trkpt>
      <trkpt lat="49.06382" lon="1.32317">
        <ele>61</ele>
        <time>2021-04-11T08:18:30.000Z</time>
      </trkpt>
      <trkpt lat="49.0639" lon="1.32306">
        <ele>61.200000762939</ele>
        <time>2021-04-11T08:18:36.000Z</time>
      </trkpt>
      <trkpt lat="49.06399" lon="1.32295">
        <ele>61.400001525879</ele>
        <time>2021-04-11T08:18:43.000Z</time>
      </trkpt>
      <trkpt lat="49.06404" lon="1.32289">
        <ele>61.400001525879</ele>
        <time>2021-04-11T08:18:47.000Z</time>
      </trkpt>
      <trkpt lat="49.06406" lon="1.32284">
        <ele>61.400001525879</ele>
        <time>2021-04-11T08:18:50.000Z</time>
      </trkpt>
      <trkpt lat="49.06413" lon="1.32273">
        <ele>61.599998474121</ele>
        <time>2021-04-11T08:18:57.000Z</time>
      </trkpt>
      <trkpt lat="49.06419" lon="1.32263">
        <ele>61.599998474121</ele>
        <time>2021-04-11T08:19:02.000Z</time>
      </trkpt>
      <trkpt lat="49.06425" lon="1.32254">
        <ele>61.799999237061</ele>
        <time>2021-04-11T08:19:08.000Z</time>
      </trkpt>
      <trkpt lat="49.06427" lon="1.32254">
        <ele>61.799999237061</ele>
        <time>2021-04-11T08:19:09.000Z</time>
      </trkpt>
      <trkpt lat="49.06429" lon="1.32261">
        <ele>62</ele>
        <time>2021-04-11T08:19:15.000Z</time>
      </trkpt>
      <trkpt lat="49.06427" lon="1.32271">
        <ele>62.200000762939</ele>
        <time>2021-04-11T08:19:22.000Z</time>
      </trkpt>
      <trkpt lat="49.06427" lon="1.32275">
        <ele>62.400001525879</ele>
        <time>2021-04-11T08:19:25.000Z</time>
      </trkpt>
      <trkpt lat="49.06426" lon="1.32282">
        <ele>62.599998474121</ele>
        <time>2021-04-11T08:19:30.000Z</time>
      </trkpt>
      <trkpt lat="49.06424" lon="1.32291">
        <ele>62.799999237061</ele>
        <time>2021-04-11T08:19:35.000Z</time>
      </trkpt>
      <trkpt lat="49.06423" lon="1.32307">
        <ele>63</ele>
        <time>2021-04-11T08:19:42.000Z</time>
      </trkpt>
      <trkpt lat="49.06422" lon="1.32322">
        <ele>63.200000762939</ele>
        <time>2021-04-11T08:19:49.000Z</time>
      </trkpt>
      <trkpt lat="49.0642" lon="1.32331">
        <ele>63.400001525879</ele>
        <time>2021-04-11T08:19:53.000Z</time>
      </trkpt>
      <trkpt lat="49.0642" lon="1.32341">
        <ele>63.599998474121</ele>
        <time>2021-04-11T08:19:56.000Z</time>
      </trkpt>
      <trkpt lat="49.06419" lon="1.32351">
        <ele>63.799999237061</ele>
        <time>2021-04-11T08:20:02.000Z</time>
      </trkpt>
      <trkpt lat="49.06417" lon="1.32372">
        <ele>64</ele>
        <time>2021-04-11T08:20:09.000Z</time>
      </trkpt>
      <trkpt lat="49.06413" lon="1.32395">
        <ele>64.400001525879</ele>
        <time>2021-04-11T08:20:18.000Z</time>
      </trkpt>
      <trkpt lat="49.06412" lon="1.32406">
        <ele>64.400001525879</ele>
        <time>2021-04-11T08:20:23.000Z</time>
      </trkpt>
      <trkpt lat="49.06412" lon="1.3241">
        <ele>64.400001525879</ele>
        <time>2021-04-11T08:20:25.000Z</time>
      </trkpt>
      <trkpt lat="49.06409" lon="1.32423">
        <ele>64.400001525879</ele>
        <time>2021-04-11T08:20:30.000Z</time>
      </trkpt>
      <trkpt lat="49.06408" lon="1.32441">
        <ele>64.599998474121</ele>
        <time>2021-04-11T08:20:37.000Z</time>
      </trkpt>
      <trkpt lat="49.06406" lon="1.32457">
        <ele>65</ele>
        <time>2021-04-11T08:20:44.000Z</time>
      </trkpt>
      <trkpt lat="49.06405" lon="1.32464">
        <ele>65.199996948242</ele>
        <time>2021-04-11T08:20:47.000Z</time>
      </trkpt>
      <trkpt lat="49.06404" lon="1.32474">
        <ele>65.599998474121</ele>
        <time>2021-04-11T08:20:51.000Z</time>
      </trkpt>
      <trkpt lat="49.06404" lon="1.32496">
        <ele>65.800003051758</ele>
        <time>2021-04-11T08:20:59.000Z</time>
      </trkpt>
      <trkpt lat="49.06404" lon="1.32499">
        <ele>65.800003051758</ele>
        <time>2021-04-11T08:21:00.000Z</time>
      </trkpt>
      <trkpt lat="49.06403" lon="1.32514">
        <ele>65.800003051758</ele>
        <time>2021-04-11T08:21:05.000Z</time>
      </trkpt>
      <trkpt lat="49.06402" lon="1.3253">
        <ele>66</ele>
        <time>2021-04-11T08:21:11.000Z</time>
      </trkpt>
      <trkpt lat="49.06406" lon="1.32531">
        <ele>66</ele>
        <time>2021-04-11T08:21:15.000Z</time>
      </trkpt>
      <trkpt lat="49.06408" lon="1.32527">
        <ele>66</ele>
        <time>2021-04-11T08:21:18.000Z</time>
      </trkpt>
      <trkpt lat="49.0641" lon="1.32519">
        <ele>66</ele>
        <time>2021-04-11T08:21:21.000Z</time>
      </trkpt>
      <trkpt lat="49.06415" lon="1.32507">
        <ele>66</ele>
        <time>2021-04-11T08:21:26.000Z</time>
      </trkpt>
      <trkpt lat="49.0642" lon="1.32487">
        <ele>66</ele>
        <time>2021-04-11T08:21:31.000Z</time>
      </trkpt>
      <trkpt lat="49.0643" lon="1.32457">
        <ele>66.199996948242</ele>
        <time>2021-04-11T08:21:38.000Z</time>
      </trkpt>
      <trkpt lat="49.06437" lon="1.32431">
        <ele>66.400001525879</ele>
        <time>2021-04-11T08:21:43.000Z</time>
      </trkpt>
      <trkpt lat="49.06445" lon="1.32412">
        <ele>66.800003051758</ele>
        <time>2021-04-11T08:21:47.000Z</time>
      </trkpt>
      <trkpt lat="49.06448" lon="1.32404">
        <ele>66.800003051758</ele>
        <time>2021-04-11T08:21:49.000Z</time>
      </trkpt>
      <trkpt lat="49.0645" lon="1.32398">
        <ele>67</ele>
        <time>2021-04-11T08:21:50.000Z</time>
      </trkpt>
      <trkpt lat="49.06451" lon="1.32391">
        <ele>67</ele>
        <time>2021-04-11T08:21:51.000Z</time>
      </trkpt>
      <trkpt lat="49.0646" lon="1.32363">
        <ele>67</ele>
        <time>2021-04-11T08:21:56.000Z</time>
      </trkpt>
      <trkpt lat="49.06473" lon="1.32339">
        <ele>67.199996948242</ele>
        <time>2021-04-11T08:22:01.000Z</time>
      </trkpt>
      <trkpt lat="49.06479" lon="1.32318">
        <ele>67.199996948242</ele>
        <time>2021-04-11T08:22:05.000Z</time>
      </trkpt>
      <trkpt lat="49.06489" lon="1.32293">
        <ele>67.599998474121</ele>
        <time>2021-04-11T08:22:10.000Z</time>
      </trkpt>
      <trkpt lat="49.06495" lon="1.32288">
        <ele>67.800003051758</ele>
        <time>2021-04-11T08:22:12.000Z</time>
      </trkpt>
      <trkpt lat="49.06498" lon="1.3228">
        <ele>67.800003051758</ele>
        <time>2021-04-11T08:22:14.000Z</time>
      </trkpt>
      <trkpt lat="49.065" lon="1.32278">
        <ele>68</ele>
        <time>2021-04-11T08:22:15.000Z</time>
      </trkpt>
      <trkpt lat="49.06502" lon="1.32275">
        <ele>68.199996948242</ele>
        <time>2021-04-11T08:22:18.000Z</time>
      </trkpt>
      <trkpt lat="49.06503" lon="1.32273">
        <ele>68</ele>
        <time>2021-04-11T08:22:20.000Z</time>
      </trkpt>
      <trkpt lat="49.06503" lon="1.32258">
        <ele>27.60000038147</ele>
        <time>2021-04-11T08:30:08.000Z</time>
      </trkpt>
      <trkpt lat="49.06502" lon="1.32258">
        <ele>27.60000038147</ele>
        <time>2021-04-11T08:30:10.000Z</time>
      </trkpt>
      <trkpt lat="49.06501" lon="1.32258">
        <ele>27.200000762939</ele>
        <time>2021-04-11T08:30:13.000Z</time>
      </trkpt>
      <trkpt lat="49.065" lon="1.32254">
        <ele>24.799999237061</ele>
        <time>2021-04-11T08:31:58.000Z</time>
      </trkpt>
      <trkpt lat="49.06505" lon="1.32244">
        <ele>24.60000038147</ele>
        <time>2021-04-11T08:32:02.000Z</time>
      </trkpt>
      <trkpt lat="49.06506" lon="1.32241">
        <ele>24.60000038147</ele>
        <time>2021-04-11T08:32:03.000Z</time>
      </trkpt>
      <trkpt lat="49.06516" lon="1.3223">
        <ele>24.60000038147</ele>
        <time>2021-04-11T08:32:06.000Z</time>
      </trkpt>
      <trkpt lat="49.06525" lon="1.32217">
        <ele>24.39999961853</ele>
        <time>2021-04-11T08:32:10.000Z</time>
      </trkpt>
      <trkpt lat="49.06539" lon="1.32199">
        <ele>24.60000038147</ele>
        <time>2021-04-11T08:32:17.000Z</time>
      </trkpt>
      <trkpt lat="49.06552" lon="1.32185">
        <ele>25.60000038147</ele>
        <time>2021-04-11T08:32:23.000Z</time>
      </trkpt>
      <trkpt lat="49.0656" lon="1.32177">
        <ele>26.39999961853</ele>
        <time>2021-04-11T08:32:27.000Z</time>
      </trkpt>
      <trkpt lat="49.06562" lon="1.32175">
        <ele>26.60000038147</ele>
        <time>2021-04-11T08:32:28.000Z</time>
      </trkpt>
      <trkpt lat="49.06568" lon="1.3217">
        <ele>27.60000038147</ele>
        <time>2021-04-11T08:32:31.000Z</time>
      </trkpt>
      <trkpt lat="49.0657" lon="1.32168">
        <ele>28</ele>
        <time>2021-04-11T08:32:32.000Z</time>
      </trkpt>
      <trkpt lat="49.06576" lon="1.32161">
        <ele>28.39999961853</ele>
        <time>2021-04-11T08:32:34.000Z</time>
      </trkpt>
      <trkpt lat="49.06579" lon="1.32157">
        <ele>28.799999237061</ele>
        <time>2021-04-11T08:32:35.000Z</time>
      </trkpt>
      <trkpt lat="49.06592" lon="1.32146">
        <ele>29.799999237061</ele>
        <time>2021-04-11T08:32:39.000Z</time>
      </trkpt>
      <trkpt lat="49.06598" lon="1.32143">
        <ele>30.200000762939</ele>
        <time>2021-04-11T08:32:41.000Z</time>
      </trkpt>
      <trkpt lat="49.06604" lon="1.3214">
        <ele>30.799999237061</ele>
        <time>2021-04-11T08:32:43.000Z</time>
      </trkpt>
      <trkpt lat="49.06609" lon="1.32138">
        <ele>31</ele>
        <time>2021-04-11T08:32:44.000Z</time>
      </trkpt>
      <trkpt lat="49.06617" lon="1.32129">
        <ele>31.60000038147</ele>
        <time>2021-04-11T08:32:46.000Z</time>
      </trkpt>
      <trkpt lat="49.06622" lon="1.32125">
        <ele>31.799999237061</ele>
        <time>2021-04-11T08:32:47.000Z</time>
      </trkpt>
      <trkpt lat="49.06637" lon="1.32115">
        <ele>33.200000762939</ele>
        <time>2021-04-11T08:32:51.000Z</time>
      </trkpt>
      <trkpt lat="49.06648" lon="1.32109">
        <ele>34.200000762939</ele>
        <time>2021-04-11T08:32:54.000Z</time>
      </trkpt>
      <trkpt lat="49.06655" lon="1.32105">
        <ele>34.799999237061</ele>
        <time>2021-04-11T08:32:56.000Z</time>
      </trkpt>
      <trkpt lat="49.06664" lon="1.321">
        <ele>35.400001525879</ele>
        <time>2021-04-11T08:32:58.000Z</time>
      </trkpt>
      <trkpt lat="49.06676" lon="1.32096">
        <ele>36.599998474121</ele>
        <time>2021-04-11T08:33:01.000Z</time>
      </trkpt>
      <trkpt lat="49.06687" lon="1.32093">
        <ele>37.599998474121</ele>
        <time>2021-04-11T08:33:04.000Z</time>
      </trkpt>
      <trkpt lat="49.06691" lon="1.32093">
        <ele>38.200000762939</ele>
        <time>2021-04-11T08:33:06.000Z</time>
      </trkpt>
      <trkpt lat="49.06695" lon="1.32094">
        <ele>38.799999237061</ele>
        <time>2021-04-11T08:33:08.000Z</time>
      </trkpt>
      <trkpt lat="49.06701" lon="1.32099">
        <ele>39.599998474121</ele>
        <time>2021-04-11T08:33:11.000Z</time>
      </trkpt>
      <trkpt lat="49.06704" lon="1.32102">
        <ele>40.400001525879</ele>
        <time>2021-04-11T08:33:13.000Z</time>
      </trkpt>
      <trkpt lat="49.06706" lon="1.32102">
        <ele>40.799999237061</ele>
        <time>2021-04-11T08:33:14.000Z</time>
      </trkpt>
      <trkpt lat="49.0671" lon="1.32101">
        <ele>41.400001525879</ele>
        <time>2021-04-11T08:33:16.000Z</time>
      </trkpt>
      <trkpt lat="49.06712" lon="1.32101">
        <ele>41.799999237061</ele>
        <time>2021-04-11T08:33:17.000Z</time>
      </trkpt>
      <trkpt lat="49.06718" lon="1.32099">
        <ele>42.799999237061</ele>
        <time>2021-04-11T08:33:20.000Z</time>
      </trkpt>
      <trkpt lat="49.06723" lon="1.32098">
        <ele>43.400001525879</ele>
        <time>2021-04-11T08:33:22.000Z</time>
      </trkpt>
      <trkpt lat="49.06727" lon="1.32098">
        <ele>44</ele>
        <time>2021-04-11T08:33:24.000Z</time>
      </trkpt>
      <trkpt lat="49.06736" lon="1.32096">
        <ele>44.599998474121</ele>
        <time>2021-04-11T08:33:27.000Z</time>
      </trkpt>
      <trkpt lat="49.06744" lon="1.32092">
        <ele>44.799999237061</ele>
        <time>2021-04-11T08:33:29.000Z</time>
      </trkpt>
      <trkpt lat="49.06749" lon="1.32091">
        <ele>45</ele>
        <time>2021-04-11T08:33:30.000Z</time>
      </trkpt>
      <trkpt lat="49.06766" lon="1.32087">
        <ele>45.799999237061</ele>
        <time>2021-04-11T08:33:34.000Z</time>
      </trkpt>
      <trkpt lat="49.06771" lon="1.32086">
        <ele>46</ele>
        <time>2021-04-11T08:33:35.000Z</time>
      </trkpt>
      <trkpt lat="49.06786" lon="1.32082">
        <ele>46.799999237061</ele>
        <time>2021-04-11T08:33:38.000Z</time>
      </trkpt>
      <trkpt lat="49.06807" lon="1.32076">
        <ele>47.599998474121</ele>
        <time>2021-04-11T08:33:42.000Z</time>
      </trkpt>
      <trkpt lat="49.06812" lon="1.32075">
        <ele>47.799999237061</ele>
        <time>2021-04-11T08:33:43.000Z</time>
      </trkpt>
      <trkpt lat="49.06837" lon="1.32065">
        <ele>49.400001525879</ele>
        <time>2021-04-11T08:33:48.000Z</time>
      </trkpt>
      <trkpt lat="49.06855" lon="1.32056">
        <ele>50.400001525879</ele>
        <time>2021-04-11T08:33:52.000Z</time>
      </trkpt>
      <trkpt lat="49.06869" lon="1.3205">
        <ele>51.200000762939</ele>
        <time>2021-04-11T08:33:55.000Z</time>
      </trkpt>
      <trkpt lat="49.06888" lon="1.32045">
        <ele>52</ele>
        <time>2021-04-11T08:33:59.000Z</time>
      </trkpt>
      <trkpt lat="49.06898" lon="1.32044">
        <ele>52.400001525879</ele>
        <time>2021-04-11T08:34:01.000Z</time>
      </trkpt>
      <trkpt lat="49.06916" lon="1.3205">
        <ele>53.400001525879</ele>
        <time>2021-04-11T08:34:05.000Z</time>
      </trkpt>
      <trkpt lat="49.06919" lon="1.32053">
        <ele>53.599998474121</ele>
        <time>2021-04-11T08:34:06.000Z</time>
      </trkpt>
      <trkpt lat="49.06926" lon="1.32061">
        <ele>53.799999237061</ele>
        <time>2021-04-11T08:34:08.000Z</time>
      </trkpt>
      <trkpt lat="49.06931" lon="1.32069">
        <ele>54.200000762939</ele>
        <time>2021-04-11T08:34:10.000Z</time>
      </trkpt>
      <trkpt lat="49.06936" lon="1.32079">
        <ele>54.599998474121</ele>
        <time>2021-04-11T08:34:12.000Z</time>
      </trkpt>
      <trkpt lat="49.06946" lon="1.32099">
        <ele>55.599998474121</ele>
        <time>2021-04-11T08:34:16.000Z</time>
      </trkpt>
      <trkpt lat="49.06954" lon="1.32114">
        <ele>55.799999237061</ele>
        <time>2021-04-11T08:34:19.000Z</time>
      </trkpt>
      <trkpt lat="49.06965" lon="1.32134">
        <ele>56.599998474121</ele>
        <time>2021-04-11T08:34:23.000Z</time>
      </trkpt>
      <trkpt lat="49.06979" lon="1.32162">
        <ele>57.400001525879</ele>
        <time>2021-04-11T08:34:28.000Z</time>
      </trkpt>
      <trkpt lat="49.06985" lon="1.32172">
        <ele>57.799999237061</ele>
        <time>2021-04-11T08:34:30.000Z</time>
      </trkpt>
      <trkpt lat="49.07003" lon="1.32206">
        <ele>58.799999237061</ele>
        <time>2021-04-11T08:34:36.000Z</time>
      </trkpt>
      <trkpt lat="49.07006" lon="1.32212">
        <ele>58.799999237061</ele>
        <time>2021-04-11T08:34:37.000Z</time>
      </trkpt>
      <trkpt lat="49.07027" lon="1.3225">
        <ele>59.599998474121</ele>
        <time>2021-04-11T08:34:44.000Z</time>
      </trkpt>
      <trkpt lat="49.0703" lon="1.32256">
        <ele>59.799999237061</ele>
        <time>2021-04-11T08:34:45.000Z</time>
      </trkpt>
      <trkpt lat="49.07045" lon="1.32285">
        <ele>60.599998474121</ele>
        <time>2021-04-11T08:34:51.000Z</time>
      </trkpt>
      <trkpt lat="49.07048" lon="1.3229">
        <ele>60.799999237061</ele>
        <time>2021-04-11T08:34:52.000Z</time>
      </trkpt>
      <trkpt lat="49.07056" lon="1.32303">
        <ele>61</ele>
        <time>2021-04-11T08:34:56.000Z</time>
      </trkpt>
      <trkpt lat="49.07056" lon="1.32303">
        <ele>61.400001525879</ele>
        <time>2021-04-11T08:34:58.000Z</time>
      </trkpt>
      <trkpt lat="49.07058" lon="1.32303">
        <ele>62.599998474121</ele>
        <time>2021-04-11T08:35:31.000Z</time>
      </trkpt>
      <trkpt lat="49.07058" lon="1.32303">
        <ele>62.799999237061</ele>
        <time>2021-04-11T08:35:32.000Z</time>
      </trkpt>
      <trkpt lat="49.07059" lon="1.32302">
        <ele>62.799999237061</ele>
        <time>2021-04-11T08:35:33.000Z</time>
      </trkpt>
      <trkpt lat="49.07063" lon="1.32293">
        <ele>62.799999237061</ele>
        <time>2021-04-11T08:35:36.000Z</time>
      </trkpt>
      <trkpt lat="49.07064" lon="1.32289">
        <ele>62.799999237061</ele>
        <time>2021-04-11T08:35:37.000Z</time>
      </trkpt>
      <trkpt lat="49.0707" lon="1.3226">
        <ele>62.599998474121</ele>
        <time>2021-04-11T08:35:42.000Z</time>
      </trkpt>
      <trkpt lat="49.07075" lon="1.32239">
        <ele>62.200000762939</ele>
        <time>2021-04-11T08:35:45.000Z</time>
      </trkpt>
      <trkpt lat="49.07079" lon="1.32217">
        <ele>62.200000762939</ele>
        <time>2021-04-11T08:35:48.000Z</time>
      </trkpt>
      <trkpt lat="49.07083" lon="1.32161">
        <ele>62.200000762939</ele>
        <time>2021-04-11T08:35:54.000Z</time>
      </trkpt>
      <trkpt lat="49.07083" lon="1.32139">
        <ele>62.200000762939</ele>
        <time>2021-04-11T08:35:56.000Z</time>
      </trkpt>
      <trkpt lat="49.0708" lon="1.32115">
        <ele>62.400001525879</ele>
        <time>2021-04-11T08:35:58.000Z</time>
      </trkpt>
      <trkpt lat="49.07078" lon="1.32104">
        <ele>62.400001525879</ele>
        <time>2021-04-11T08:35:59.000Z</time>
      </trkpt>
      <trkpt lat="49.07058" lon="1.32036">
        <ele>62.799999237061</ele>
        <time>2021-04-11T08:36:05.000Z</time>
      </trkpt>
      <trkpt lat="49.07056" lon="1.32024">
        <ele>63</ele>
        <time>2021-04-11T08:36:06.000Z</time>
      </trkpt>
      <trkpt lat="49.0705" lon="1.31985">
        <ele>63.400001525879</ele>
        <time>2021-04-11T08:36:09.000Z</time>
      </trkpt>
      <trkpt lat="49.07049" lon="1.31972">
        <ele>63.599998474121</ele>
        <time>2021-04-11T08:36:10.000Z</time>
      </trkpt>
      <trkpt lat="49.07046" lon="1.31909">
        <ele>64</ele>
        <time>2021-04-11T08:36:15.000Z</time>
      </trkpt>
      <trkpt lat="49.07045" lon="1.31843">
        <ele>64.599998474121</ele>
        <time>2021-04-11T08:36:20.000Z</time>
      </trkpt>
      <trkpt lat="49.07039" lon="1.31789">
        <ele>64.800003051758</ele>
        <time>2021-04-11T08:36:24.000Z</time>
      </trkpt>
      <trkpt lat="49.07038" lon="1.31775">
        <ele>65</ele>
        <time>2021-04-11T08:36:25.000Z</time>
      </trkpt>
      <trkpt lat="49.07038" lon="1.31761">
        <ele>65</ele>
        <time>2021-04-11T08:36:26.000Z</time>
      </trkpt>
      <trkpt lat="49.07043" lon="1.31688">
        <ele>65.400001525879</ele>
        <time>2021-04-11T08:36:31.000Z</time>
      </trkpt>
      <trkpt lat="49.07044" lon="1.31624">
        <ele>65.599998474121</ele>
        <time>2021-04-11T08:36:35.000Z</time>
      </trkpt>
      <trkpt lat="49.07047" lon="1.31608">
        <ele>65.599998474121</ele>
        <time>2021-04-11T08:36:36.000Z</time>
      </trkpt>
      <trkpt lat="49.07062" lon="1.31561">
        <ele>65.599998474121</ele>
        <time>2021-04-11T08:36:39.000Z</time>
      </trkpt>
      <trkpt lat="49.07076" lon="1.31533">
        <ele>65.599998474121</ele>
        <time>2021-04-11T08:36:41.000Z</time>
      </trkpt>
      <trkpt lat="49.07098" lon="1.31494">
        <ele>65.599998474121</ele>
        <time>2021-04-11T08:36:44.000Z</time>
      </trkpt>
      <trkpt lat="49.0713" lon="1.31426">
        <ele>65.800003051758</ele>
        <time>2021-04-11T08:36:49.000Z</time>
      </trkpt>
      <trkpt lat="49.07136" lon="1.31412">
        <ele>65.800003051758</ele>
        <time>2021-04-11T08:36:50.000Z</time>
      </trkpt>
      <trkpt lat="49.0716" lon="1.31338">
        <ele>66</ele>
        <time>2021-04-11T08:36:55.000Z</time>
      </trkpt>
      <trkpt lat="49.07168" lon="1.31307">
        <ele>66</ele>
        <time>2021-04-11T08:36:57.000Z</time>
      </trkpt>
      <trkpt lat="49.07185" lon="1.31223">
        <ele>66.199996948242</ele>
        <time>2021-04-11T08:37:02.000Z</time>
      </trkpt>
      <trkpt lat="49.07187" lon="1.31206">
        <ele>66.199996948242</ele>
        <time>2021-04-11T08:37:03.000Z</time>
      </trkpt>
      <trkpt lat="49.0719" lon="1.3116">
        <ele>66.199996948242</ele>
        <time>2021-04-11T08:37:06.000Z</time>
      </trkpt>
      <trkpt lat="49.07189" lon="1.31146">
        <ele>66.199996948242</ele>
        <time>2021-04-11T08:37:07.000Z</time>
      </trkpt>
      <trkpt lat="49.07188" lon="1.31123">
        <ele>66.199996948242</ele>
        <time>2021-04-11T08:37:09.000Z</time>
      </trkpt>
      <trkpt lat="49.0719" lon="1.31114">
        <ele>66</ele>
        <time>2021-04-11T08:37:10.000Z</time>
      </trkpt>
      <trkpt lat="49.07203" lon="1.31094">
        <ele>66</ele>
        <time>2021-04-11T08:37:13.000Z</time>
      </trkpt>
      <trkpt lat="49.07209" lon="1.31089">
        <ele>66</ele>
        <time>2021-04-11T08:37:14.000Z</time>
      </trkpt>
      <trkpt lat="49.07245" lon="1.31057">
        <ele>65.599998474121</ele>
        <time>2021-04-11T08:37:20.000Z</time>
      </trkpt>
      <trkpt lat="49.07291" lon="1.31011">
        <ele>65.599998474121</ele>
        <time>2021-04-11T08:37:27.000Z</time>
      </trkpt>
      <trkpt lat="49.07324" lon="1.30959">
        <ele>65.199996948242</ele>
        <time>2021-04-11T08:37:33.000Z</time>
      </trkpt>
      <trkpt lat="49.07329" lon="1.30951">
        <ele>65.199996948242</ele>
        <time>2021-04-11T08:37:34.000Z</time>
      </trkpt>
      <trkpt lat="49.07349" lon="1.30917">
        <ele>65</ele>
        <time>2021-04-11T08:37:38.000Z</time>
      </trkpt>
      <trkpt lat="49.07355" lon="1.30899">
        <ele>64.800003051758</ele>
        <time>2021-04-11T08:37:40.000Z</time>
      </trkpt>
      <trkpt lat="49.07359" lon="1.30872">
        <ele>64.800003051758</ele>
        <time>2021-04-11T08:37:43.000Z</time>
      </trkpt>
      <trkpt lat="49.07361" lon="1.30855">
        <ele>64.599998474121</ele>
        <time>2021-04-11T08:37:45.000Z</time>
      </trkpt>
      <trkpt lat="49.07367" lon="1.30847">
        <ele>64.800003051758</ele>
        <time>2021-04-11T08:37:47.000Z</time>
      </trkpt>
      <trkpt lat="49.07377" lon="1.30855">
        <ele>64.599998474121</ele>
        <time>2021-04-11T08:37:50.000Z</time>
      </trkpt>
      <trkpt lat="49.07381" lon="1.30862">
        <ele>64.400001525879</ele>
        <time>2021-04-11T08:37:52.000Z</time>
      </trkpt>
      <trkpt lat="49.07395" lon="1.30882">
        <ele>64.400001525879</ele>
        <time>2021-04-11T08:37:58.000Z</time>
      </trkpt>
      <trkpt lat="49.07404" lon="1.30894">
        <ele>64</ele>
        <time>2021-04-11T08:38:02.000Z</time>
      </trkpt>
      <trkpt lat="49.07413" lon="1.30905">
        <ele>63.799999237061</ele>
        <time>2021-04-11T08:38:06.000Z</time>
      </trkpt>
      <trkpt lat="49.07432" lon="1.30926">
        <ele>63.400001525879</ele>
        <time>2021-04-11T08:38:14.000Z</time>
      </trkpt>
      <trkpt lat="49.07437" lon="1.30932">
        <ele>63</ele>
        <time>2021-04-11T08:38:16.000Z</time>
      </trkpt>
      <trkpt lat="49.0745" lon="1.30951">
        <ele>62.599998474121</ele>
        <time>2021-04-11T08:38:22.000Z</time>
      </trkpt>
      <trkpt lat="49.07452" lon="1.30955">
        <ele>62.599998474121</ele>
        <time>2021-04-11T08:38:23.000Z</time>
      </trkpt>
      <trkpt lat="49.07468" lon="1.3098">
        <ele>61.799999237061</ele>
        <time>2021-04-11T08:38:31.000Z</time>
      </trkpt>
      <trkpt lat="49.07472" lon="1.30984">
        <ele>61.400001525879</ele>
        <time>2021-04-11T08:38:33.000Z</time>
      </trkpt>
      <trkpt lat="49.07474" lon="1.30973">
        <ele>61</ele>
        <time>2021-04-11T08:38:36.000Z</time>
      </trkpt>
      <trkpt lat="49.07476" lon="1.30968">
        <ele>61</ele>
        <time>2021-04-11T08:38:38.000Z</time>
      </trkpt>
      <trkpt lat="49.07478" lon="1.30965">
        <ele>60.799999237061</ele>
        <time>2021-04-11T08:38:39.000Z</time>
      </trkpt>
      <trkpt lat="49.07482" lon="1.30957">
        <ele>60.400001525879</ele>
        <time>2021-04-11T08:38:42.000Z</time>
      </trkpt>
      <trkpt lat="49.07488" lon="1.30945">
        <ele>60.200000762939</ele>
        <time>2021-04-11T08:38:46.000Z</time>
      </trkpt>
      <trkpt lat="49.07497" lon="1.30933">
        <ele>59.400001525879</ele>
        <time>2021-04-11T08:38:51.000Z</time>
      </trkpt>
      <trkpt lat="49.07502" lon="1.30925">
        <ele>59.200000762939</ele>
        <time>2021-04-11T08:38:54.000Z</time>
      </trkpt>
      <trkpt lat="49.07511" lon="1.30911">
        <ele>58.799999237061</ele>
        <time>2021-04-11T08:38:59.000Z</time>
      </trkpt>
      <trkpt lat="49.07515" lon="1.30905">
        <ele>58.400001525879</ele>
        <time>2021-04-11T08:39:01.000Z</time>
      </trkpt>
      <trkpt lat="49.07521" lon="1.30885">
        <ele>57.599998474121</ele>
        <time>2021-04-11T08:39:06.000Z</time>
      </trkpt>
      <trkpt lat="49.07524" lon="1.30877">
        <ele>57.400001525879</ele>
        <time>2021-04-11T08:39:08.000Z</time>
      </trkpt>
      <trkpt lat="49.07529" lon="1.30865">
        <ele>57</ele>
        <time>2021-04-11T08:39:11.000Z</time>
      </trkpt>
      <trkpt lat="49.07541" lon="1.30851">
        <ele>56.599998474121</ele>
        <time>2021-04-11T08:39:16.000Z</time>
      </trkpt>
      <trkpt lat="49.07543" lon="1.30849">
        <ele>56.400001525879</ele>
        <time>2021-04-11T08:39:17.000Z</time>
      </trkpt>
      <trkpt lat="49.07563" lon="1.30827">
        <ele>55.400001525879</ele>
        <time>2021-04-11T08:39:25.000Z</time>
      </trkpt>
      <trkpt lat="49.07566" lon="1.30824">
        <ele>55.599998474121</ele>
        <time>2021-04-11T08:39:26.000Z</time>
      </trkpt>
      <trkpt lat="49.07576" lon="1.30814">
        <ele>55.200000762939</ele>
        <time>2021-04-11T08:39:30.000Z</time>
      </trkpt>
      <trkpt lat="49.07596" lon="1.30794">
        <ele>54.799999237061</ele>
        <time>2021-04-11T08:39:37.000Z</time>
      </trkpt>
      <trkpt lat="49.07611" lon="1.30776">
        <ele>54.400001525879</ele>
        <time>2021-04-11T08:39:42.000Z</time>
      </trkpt>
      <trkpt lat="49.07618" lon="1.30769">
        <ele>54.200000762939</ele>
        <time>2021-04-11T08:39:44.000Z</time>
      </trkpt>
      <trkpt lat="49.07631" lon="1.30754">
        <ele>53.799999237061</ele>
        <time>2021-04-11T08:39:48.000Z</time>
      </trkpt>
      <trkpt lat="49.07645" lon="1.30738">
        <ele>53.599998474121</ele>
        <time>2021-04-11T08:39:52.000Z</time>
      </trkpt>
      <trkpt lat="49.07678" lon="1.30706">
        <ele>53.200000762939</ele>
        <time>2021-04-11T08:40:00.000Z</time>
      </trkpt>
      <trkpt lat="49.07695" lon="1.30687">
        <ele>53.200000762939</ele>
        <time>2021-04-11T08:40:04.000Z</time>
      </trkpt>
      <trkpt lat="49.07714" lon="1.30666">
        <ele>53</ele>
        <time>2021-04-11T08:40:09.000Z</time>
      </trkpt>
      <trkpt lat="49.07739" lon="1.30635">
        <ele>53</ele>
        <time>2021-04-11T08:40:17.000Z</time>
      </trkpt>
      <trkpt lat="49.07751" lon="1.30618">
        <ele>53</ele>
        <time>2021-04-11T08:40:21.000Z</time>
      </trkpt>
      <trkpt lat="49.07759" lon="1.30613">
        <ele>53.200000762939</ele>
        <time>2021-04-11T08:40:23.000Z</time>
      </trkpt>
      <trkpt lat="49.07767" lon="1.30622">
        <ele>53.200000762939</ele>
        <time>2021-04-11T08:40:26.000Z</time>
      </trkpt>
      <trkpt lat="49.07769" lon="1.30625">
        <ele>53.200000762939</ele>
        <time>2021-04-11T08:40:27.000Z</time>
      </trkpt>
      <trkpt lat="49.07778" lon="1.30639">
        <ele>53.200000762939</ele>
        <time>2021-04-11T08:40:32.000Z</time>
      </trkpt>
      <trkpt lat="49.07795" lon="1.30661">
        <ele>53</ele>
        <time>2021-04-11T08:40:40.000Z</time>
      </trkpt>
      <trkpt lat="49.07806" lon="1.30674">
        <ele>53</ele>
        <time>2021-04-11T08:40:45.000Z</time>
      </trkpt>
      <trkpt lat="49.07811" lon="1.30678">
        <ele>53</ele>
        <time>2021-04-11T08:40:47.000Z</time>
      </trkpt>
      <trkpt lat="49.07822" lon="1.30688">
        <ele>52.799999237061</ele>
        <time>2021-04-11T08:40:52.000Z</time>
      </trkpt>
      <trkpt lat="49.07835" lon="1.30705">
        <ele>52.599998474121</ele>
        <time>2021-04-11T08:40:59.000Z</time>
      </trkpt>
      <trkpt lat="49.07847" lon="1.30723">
        <ele>52.400001525879</ele>
        <time>2021-04-11T08:41:06.000Z</time>
      </trkpt>
      <trkpt lat="49.07849" lon="1.30725">
        <ele>52.400001525879</ele>
        <time>2021-04-11T08:41:07.000Z</time>
      </trkpt>
      <trkpt lat="49.07863" lon="1.30745">
        <ele>51.799999237061</ele>
        <time>2021-04-11T08:41:15.000Z</time>
      </trkpt>
      <trkpt lat="49.07872" lon="1.30761">
        <ele>51.400001525879</ele>
        <time>2021-04-11T08:41:21.000Z</time>
      </trkpt>
      <trkpt lat="49.07879" lon="1.30776">
        <ele>51</ele>
        <time>2021-04-11T08:41:26.000Z</time>
      </trkpt>
      <trkpt lat="49.07887" lon="1.30792">
        <ele>50.400001525879</ele>
        <time>2021-04-11T08:41:32.000Z</time>
      </trkpt>
      <trkpt lat="49.07891" lon="1.30801">
        <ele>50.400001525879</ele>
        <time>2021-04-11T08:41:35.000Z</time>
      </trkpt>
      <trkpt lat="49.07902" lon="1.30826">
        <ele>50</ele>
        <time>2021-04-11T08:41:44.000Z</time>
      </trkpt>
      <trkpt lat="49.07909" lon="1.3085">
        <ele>50.200000762939</ele>
        <time>2021-04-11T08:41:52.000Z</time>
      </trkpt>
      <trkpt lat="49.07915" lon="1.3087">
        <ele>50.200000762939</ele>
        <time>2021-04-11T08:41:59.000Z</time>
      </trkpt>
      <trkpt lat="49.07924" lon="1.30899">
        <ele>50.200000762939</ele>
        <time>2021-04-11T08:42:09.000Z</time>
      </trkpt>
      <trkpt lat="49.07928" lon="1.30923">
        <ele>50.200000762939</ele>
        <time>2021-04-11T08:42:17.000Z</time>
      </trkpt>
      <trkpt lat="49.07933" lon="1.30951">
        <ele>50.599998474121</ele>
        <time>2021-04-11T08:42:26.000Z</time>
      </trkpt>
      <trkpt lat="49.07938" lon="1.30978">
        <ele>51</ele>
        <time>2021-04-11T08:42:35.000Z</time>
      </trkpt>
      <trkpt lat="49.07943" lon="1.31003">
        <ele>51.599998474121</ele>
        <time>2021-04-11T08:42:44.000Z</time>
      </trkpt>
      <trkpt lat="49.07944" lon="1.31011">
        <ele>52</ele>
        <time>2021-04-11T08:42:47.000Z</time>
      </trkpt>
      <trkpt lat="49.07947" lon="1.31025">
        <ele>52.400001525879</ele>
        <time>2021-04-11T08:42:52.000Z</time>
      </trkpt>
      <trkpt lat="49.07952" lon="1.31045">
        <ele>53.200000762939</ele>
        <time>2021-04-11T08:43:00.000Z</time>
      </trkpt>
      <trkpt lat="49.07952" lon="1.31048">
        <ele>53.400001525879</ele>
        <time>2021-04-11T08:43:01.000Z</time>
      </trkpt>
      <trkpt lat="49.07958" lon="1.31069">
        <ele>54.200000762939</ele>
        <time>2021-04-11T08:43:09.000Z</time>
      </trkpt>
      <trkpt lat="49.0796" lon="1.31074">
        <ele>54.599998474121</ele>
        <time>2021-04-11T08:43:11.000Z</time>
      </trkpt>
      <trkpt lat="49.07965" lon="1.3109">
        <ele>55.599998474121</ele>
        <time>2021-04-11T08:43:17.000Z</time>
      </trkpt>
      <trkpt lat="49.07966" lon="1.31093">
        <ele>55.599998474121</ele>
        <time>2021-04-11T08:43:18.000Z</time>
      </trkpt>
      <trkpt lat="49.07971" lon="1.31113">
        <ele>56.599998474121</ele>
        <time>2021-04-11T08:43:25.000Z</time>
      </trkpt>
      <trkpt lat="49.07972" lon="1.31116">
        <ele>56.799999237061</ele>
        <time>2021-04-11T08:43:26.000Z</time>
      </trkpt>
      <trkpt lat="49.07977" lon="1.3113">
        <ele>57.599998474121</ele>
        <time>2021-04-11T08:43:31.000Z</time>
      </trkpt>
      <trkpt lat="49.07979" lon="1.31139">
        <ele>58</ele>
        <time>2021-04-11T08:43:34.000Z</time>
      </trkpt>
      <trkpt lat="49.07982" lon="1.31151">
        <ele>58.799999237061</ele>
        <time>2021-04-11T08:43:38.000Z</time>
      </trkpt>
      <trkpt lat="49.07987" lon="1.31167">
        <ele>59.799999237061</ele>
        <time>2021-04-11T08:43:43.000Z</time>
      </trkpt>
      <trkpt lat="49.07992" lon="1.31183">
        <ele>60.799999237061</ele>
        <time>2021-04-11T08:43:48.000Z</time>
      </trkpt>
      <trkpt lat="49.07997" lon="1.31198">
        <ele>61.799999237061</ele>
        <time>2021-04-11T08:43:52.000Z</time>
      </trkpt>
      <trkpt lat="49.07998" lon="1.31201">
        <ele>62</ele>
        <time>2021-04-11T08:43:53.000Z</time>
      </trkpt>
      <trkpt lat="49.08004" lon="1.31219">
        <ele>63</ele>
        <time>2021-04-11T08:43:58.000Z</time>
      </trkpt>
      <trkpt lat="49.08008" lon="1.3123">
        <ele>63.799999237061</ele>
        <time>2021-04-11T08:44:01.000Z</time>
      </trkpt>
      <trkpt lat="49.08009" lon="1.31233">
        <ele>64</ele>
        <time>2021-04-11T08:44:02.000Z</time>
      </trkpt>
      <trkpt lat="49.08016" lon="1.31251">
        <ele>65.400001525879</ele>
        <time>2021-04-11T08:44:07.000Z</time>
      </trkpt>
      <trkpt lat="49.08019" lon="1.31261">
        <ele>66.199996948242</ele>
        <time>2021-04-11T08:44:10.000Z</time>
      </trkpt>
      <trkpt lat="49.08021" lon="1.31265">
        <ele>66.400001525879</ele>
        <time>2021-04-11T08:44:11.000Z</time>
      </trkpt>
      <trkpt lat="49.08025" lon="1.3128">
        <ele>67.800003051758</ele>
        <time>2021-04-11T08:44:15.000Z</time>
      </trkpt>
      <trkpt lat="49.08029" lon="1.31291">
        <ele>68.400001525879</ele>
        <time>2021-04-11T08:44:18.000Z</time>
      </trkpt>
      <trkpt lat="49.08031" lon="1.31298">
        <ele>68.800003051758</ele>
        <time>2021-04-11T08:44:20.000Z</time>
      </trkpt>
      <trkpt lat="49.08036" lon="1.31316">
        <ele>70</ele>
        <time>2021-04-11T08:44:25.000Z</time>
      </trkpt>
      <trkpt lat="49.08039" lon="1.31331">
        <ele>71.199996948242</ele>
        <time>2021-04-11T08:44:29.000Z</time>
      </trkpt>
      <trkpt lat="49.08042" lon="1.31347">
        <ele>72.400001525879</ele>
        <time>2021-04-11T08:44:33.000Z</time>
      </trkpt>
      <trkpt lat="49.08043" lon="1.31354">
        <ele>73</ele>
        <time>2021-04-11T08:44:35.000Z</time>
      </trkpt>
      <trkpt lat="49.08045" lon="1.31366">
        <ele>73.599998474121</ele>
        <time>2021-04-11T08:44:38.000Z</time>
      </trkpt>
      <trkpt lat="49.08048" lon="1.31384">
        <ele>74.800003051758</ele>
        <time>2021-04-11T08:44:42.000Z</time>
      </trkpt>
      <trkpt lat="49.08049" lon="1.31394">
        <ele>75.199996948242</ele>
        <time>2021-04-11T08:44:44.000Z</time>
      </trkpt>
      <trkpt lat="49.0805" lon="1.31408">
        <ele>75.800003051758</ele>
        <time>2021-04-11T08:44:47.000Z</time>
      </trkpt>
      <trkpt lat="49.08051" lon="1.31432">
        <ele>77</ele>
        <time>2021-04-11T08:44:52.000Z</time>
      </trkpt>
      <trkpt lat="49.08051" lon="1.31455">
        <ele>78.199996948242</ele>
        <time>2021-04-11T08:44:57.000Z</time>
      </trkpt>
      <trkpt lat="49.08051" lon="1.31474">
        <ele>79.400001525879</ele>
        <time>2021-04-11T08:45:01.000Z</time>
      </trkpt>
      <trkpt lat="49.08051" lon="1.31496">
        <ele>80.599998474121</ele>
        <time>2021-04-11T08:45:06.000Z</time>
      </trkpt>
      <trkpt lat="49.08052" lon="1.31514">
        <ele>82</ele>
        <time>2021-04-11T08:45:10.000Z</time>
      </trkpt>
      <trkpt lat="49.08053" lon="1.31536">
        <ele>83.199996948242</ele>
        <time>2021-04-11T08:45:15.000Z</time>
      </trkpt>
      <trkpt lat="49.08053" lon="1.31552">
        <ele>84.199996948242</ele>
        <time>2021-04-11T08:45:19.000Z</time>
      </trkpt>
      <trkpt lat="49.08053" lon="1.31561">
        <ele>84.599998474121</ele>
        <time>2021-04-11T08:45:21.000Z</time>
      </trkpt>
      <trkpt lat="49.08053" lon="1.31573">
        <ele>85.400001525879</ele>
        <time>2021-04-11T08:45:24.000Z</time>
      </trkpt>
      <trkpt lat="49.08052" lon="1.31589">
        <ele>86.599998474121</ele>
        <time>2021-04-11T08:45:28.000Z</time>
      </trkpt>
      <trkpt lat="49.08052" lon="1.31597">
        <ele>86.800003051758</ele>
        <time>2021-04-11T08:45:30.000Z</time>
      </trkpt>
      <trkpt lat="49.08053" lon="1.31608">
        <ele>87.599998474121</ele>
        <time>2021-04-11T08:45:33.000Z</time>
      </trkpt>
      <trkpt lat="49.08052" lon="1.31628">
        <ele>88.800003051758</ele>
        <time>2021-04-11T08:45:38.000Z</time>
      </trkpt>
      <trkpt lat="49.08052" lon="1.31632">
        <ele>89</ele>
        <time>2021-04-11T08:45:39.000Z</time>
      </trkpt>
      <trkpt lat="49.08052" lon="1.31654">
        <ele>90</ele>
        <time>2021-04-11T08:45:45.000Z</time>
      </trkpt>
      <trkpt lat="49.08052" lon="1.31665">
        <ele>90.800003051758</ele>
        <time>2021-04-11T08:45:48.000Z</time>
      </trkpt>
      <trkpt lat="49.08052" lon="1.31672">
        <ele>91.199996948242</ele>
        <time>2021-04-11T08:45:50.000Z</time>
      </trkpt>
      <trkpt lat="49.08053" lon="1.31693">
        <ele>92.400001525879</ele>
        <time>2021-04-11T08:45:55.000Z</time>
      </trkpt>
      <trkpt lat="49.08053" lon="1.31697">
        <ele>92.599998474121</ele>
        <time>2021-04-11T08:45:56.000Z</time>
      </trkpt>
      <trkpt lat="49.08053" lon="1.31714">
        <ele>93.599998474121</ele>
        <time>2021-04-11T08:46:00.000Z</time>
      </trkpt>
      <trkpt lat="49.08053" lon="1.31738">
        <ele>94.800003051758</ele>
        <time>2021-04-11T08:46:05.000Z</time>
      </trkpt>
      <trkpt lat="49.08054" lon="1.31758">
        <ele>95.800003051758</ele>
        <time>2021-04-11T08:46:09.000Z</time>
      </trkpt>
      <trkpt lat="49.08056" lon="1.31777">
        <ele>96.400001525879</ele>
        <time>2021-04-11T08:46:13.000Z</time>
      </trkpt>
      <trkpt lat="49.08057" lon="1.31787">
        <ele>96.800003051758</ele>
        <time>2021-04-11T08:46:15.000Z</time>
      </trkpt>
      <trkpt lat="49.08061" lon="1.31816">
        <ele>98.199996948242</ele>
        <time>2021-04-11T08:46:21.000Z</time>
      </trkpt>
      <trkpt lat="49.08063" lon="1.31825">
        <ele>98.599998474121</ele>
        <time>2021-04-11T08:46:23.000Z</time>
      </trkpt>
      <trkpt lat="49.0807" lon="1.31853">
        <ele>99.400001525879</ele>
        <time>2021-04-11T08:46:29.000Z</time>
      </trkpt>
      <trkpt lat="49.08071" lon="1.31858">
        <ele>99.599998474121</ele>
        <time>2021-04-11T08:46:30.000Z</time>
      </trkpt>
      <trkpt lat="49.08078" lon="1.31881">
        <ele>100.59999847412</ele>
        <time>2021-04-11T08:46:35.000Z</time>
      </trkpt>
      <trkpt lat="49.08085" lon="1.31904">
        <ele>101.19999694824</ele>
        <time>2021-04-11T08:46:40.000Z</time>
      </trkpt>
      <trkpt lat="49.08089" lon="1.31917">
        <ele>101.59999847412</ele>
        <time>2021-04-11T08:46:43.000Z</time>
      </trkpt>
      <trkpt lat="49.08094" lon="1.31935">
        <ele>102.19999694824</ele>
        <time>2021-04-11T08:46:47.000Z</time>
      </trkpt>
      <trkpt lat="49.081" lon="1.31953">
        <ele>102.80000305176</ele>
        <time>2021-04-11T08:46:51.000Z</time>
      </trkpt>
      <trkpt lat="49.08102" lon="1.31966">
        <ele>103</ele>
        <time>2021-04-11T08:46:54.000Z</time>
      </trkpt>
      <trkpt lat="49.08104" lon="1.31973">
        <ele>103.80000305176</ele>
        <time>2021-04-11T08:46:58.000Z</time>
      </trkpt>
      <trkpt lat="49.08103" lon="1.31974">
        <ele>104</ele>
        <time>2021-04-11T08:46:59.000Z</time>
      </trkpt>
      <trkpt lat="49.08106" lon="1.31973">
        <ele>105.19999694824</ele>
        <time>2021-04-11T08:48:14.000Z</time>
      </trkpt>
      <trkpt lat="49.08109" lon="1.31975">
        <ele>105</ele>
        <time>2021-04-11T08:48:16.000Z</time>
      </trkpt>
      <trkpt lat="49.08112" lon="1.3198">
        <ele>105.19999694824</ele>
        <time>2021-04-11T08:48:18.000Z</time>
      </trkpt>
      <trkpt lat="49.08117" lon="1.3199">
        <ele>105.19999694824</ele>
        <time>2021-04-11T08:48:21.000Z</time>
      </trkpt>
      <trkpt lat="49.08127" lon="1.32019">
        <ele>105</ele>
        <time>2021-04-11T08:48:26.000Z</time>
      </trkpt>
      <trkpt lat="49.08149" lon="1.32076">
        <ele>104.40000152588</ele>
        <time>2021-04-11T08:48:34.000Z</time>
      </trkpt>
      <trkpt lat="49.08154" lon="1.32092">
        <ele>104.19999694824</ele>
        <time>2021-04-11T08:48:36.000Z</time>
      </trkpt>
      <trkpt lat="49.08157" lon="1.32101">
        <ele>104.19999694824</ele>
        <time>2021-04-11T08:48:37.000Z</time>
      </trkpt>
      <trkpt lat="49.0817" lon="1.32137">
        <ele>103.80000305176</ele>
        <time>2021-04-11T08:48:41.000Z</time>
      </trkpt>
      <trkpt lat="49.08192" lon="1.32201">
        <ele>103.19999694824</ele>
        <time>2021-04-11T08:48:48.000Z</time>
      </trkpt>
      <trkpt lat="49.08202" lon="1.32228">
        <ele>102.59999847412</ele>
        <time>2021-04-11T08:48:51.000Z</time>
      </trkpt>
      <trkpt lat="49.08209" lon="1.32256">
        <ele>102.19999694824</ele>
        <time>2021-04-11T08:48:54.000Z</time>
      </trkpt>
      <trkpt lat="49.08219" lon="1.32293">
        <ele>101.19999694824</ele>
        <time>2021-04-11T08:48:58.000Z</time>
      </trkpt>
      <trkpt lat="49.08223" lon="1.32301">
        <ele>101</ele>
        <time>2021-04-11T08:48:59.000Z</time>
      </trkpt>
      <trkpt lat="49.08233" lon="1.32307">
        <ele>100.80000305176</ele>
        <time>2021-04-11T08:49:01.000Z</time>
      </trkpt>
      <trkpt lat="49.0824" lon="1.32297">
        <ele>100.59999847412</ele>
        <time>2021-04-11T08:49:03.000Z</time>
      </trkpt>
      <trkpt lat="49.08241" lon="1.32281">
        <ele>100.40000152588</ele>
        <time>2021-04-11T08:49:05.000Z</time>
      </trkpt>
      <trkpt lat="49.08242" lon="1.32272">
        <ele>100.40000152588</ele>
        <time>2021-04-11T08:49:06.000Z</time>
      </trkpt>
      <trkpt lat="49.08242" lon="1.32263">
        <ele>100.19999694824</ele>
        <time>2021-04-11T08:49:07.000Z</time>
      </trkpt>
      <trkpt lat="49.08246" lon="1.32201">
        <ele>99.199996948242</ele>
        <time>2021-04-11T08:49:13.000Z</time>
      </trkpt>
      <trkpt lat="49.08247" lon="1.32191">
        <ele>99.199996948242</ele>
        <time>2021-04-11T08:49:14.000Z</time>
      </trkpt>
      <trkpt lat="49.08251" lon="1.32137">
        <ele>98</ele>
        <time>2021-04-11T08:49:19.000Z</time>
      </trkpt>
      <trkpt lat="49.08252" lon="1.32116">
        <ele>97.599998474121</ele>
        <time>2021-04-11T08:49:21.000Z</time>
      </trkpt>
      <trkpt lat="49.08254" lon="1.32084">
        <ele>96.599998474121</ele>
        <time>2021-04-11T08:49:24.000Z</time>
      </trkpt>
      <trkpt lat="49.08255" lon="1.32051">
        <ele>96</ele>
        <time>2021-04-11T08:49:27.000Z</time>
      </trkpt>
      <trkpt lat="49.08256" lon="1.32041">
        <ele>95.599998474121</ele>
        <time>2021-04-11T08:49:28.000Z</time>
      </trkpt>
      <trkpt lat="49.08256" lon="1.32031">
        <ele>95.400001525879</ele>
        <time>2021-04-11T08:49:29.000Z</time>
      </trkpt>
      <trkpt lat="49.08257" lon="1.32011">
        <ele>94.800003051758</ele>
        <time>2021-04-11T08:49:31.000Z</time>
      </trkpt>
      <trkpt lat="49.08258" lon="1.32002">
        <ele>94.599998474121</ele>
        <time>2021-04-11T08:49:32.000Z</time>
      </trkpt>
      <trkpt lat="49.0826" lon="1.31993">
        <ele>94.599998474121</ele>
        <time>2021-04-11T08:49:33.000Z</time>
      </trkpt>
      <trkpt lat="49.08263" lon="1.31948">
        <ele>93.599998474121</ele>
        <time>2021-04-11T08:49:38.000Z</time>
      </trkpt>
      <trkpt lat="49.08264" lon="1.31938">
        <ele>93.400001525879</ele>
        <time>2021-04-11T08:49:39.000Z</time>
      </trkpt>
      <trkpt lat="49.08267" lon="1.31876">
        <ele>92.599998474121</ele>
        <time>2021-04-11T08:49:45.000Z</time>
      </trkpt>
      <trkpt lat="49.08267" lon="1.31865">
        <ele>92.199996948242</ele>
        <time>2021-04-11T08:49:46.000Z</time>
      </trkpt>
      <trkpt lat="49.0827" lon="1.31836">
        <ele>91.400001525879</ele>
        <time>2021-04-11T08:49:49.000Z</time>
      </trkpt>
      <trkpt lat="49.08272" lon="1.31797">
        <ele>90.199996948242</ele>
        <time>2021-04-11T08:49:53.000Z</time>
      </trkpt>
      <trkpt lat="49.08274" lon="1.31772">
        <ele>89.800003051758</ele>
        <time>2021-04-11T08:49:56.000Z</time>
      </trkpt>
      <trkpt lat="49.08277" lon="1.31768">
        <ele>89.400001525879</ele>
        <time>2021-04-11T08:49:57.000Z</time>
      </trkpt>
      <trkpt lat="49.0828" lon="1.31769">
        <ele>89.400001525879</ele>
        <time>2021-04-11T08:49:58.000Z</time>
      </trkpt>
      <trkpt lat="49.08287" lon="1.31775">
        <ele>88.599998474121</ele>
        <time>2021-04-11T08:50:00.000Z</time>
      </trkpt>
      <trkpt lat="49.08291" lon="1.31778">
        <ele>88.599998474121</ele>
        <time>2021-04-11T08:50:01.000Z</time>
      </trkpt>
      <trkpt lat="49.08295" lon="1.31782">
        <ele>88</ele>
        <time>2021-04-11T08:50:02.000Z</time>
      </trkpt>
      <trkpt lat="49.08316" lon="1.31804">
        <ele>87.599998474121</ele>
        <time>2021-04-11T08:50:07.000Z</time>
      </trkpt>
      <trkpt lat="49.0832" lon="1.31809">
        <ele>87.199996948242</ele>
        <time>2021-04-11T08:50:08.000Z</time>
      </trkpt>
      <trkpt lat="49.08342" lon="1.31831">
        <ele>86.199996948242</ele>
        <time>2021-04-11T08:50:13.000Z</time>
      </trkpt>
      <trkpt lat="49.0836" lon="1.31849">
        <ele>85.199996948242</ele>
        <time>2021-04-11T08:50:17.000Z</time>
      </trkpt>
      <trkpt lat="49.08365" lon="1.31854">
        <ele>85.199996948242</ele>
        <time>2021-04-11T08:50:18.000Z</time>
      </trkpt>
      <trkpt lat="49.08383" lon="1.31872">
        <ele>84.199996948242</ele>
        <time>2021-04-11T08:50:22.000Z</time>
      </trkpt>
      <trkpt lat="49.08392" lon="1.31881">
        <ele>83.599998474121</ele>
        <time>2021-04-11T08:50:24.000Z</time>
      </trkpt>
      <trkpt lat="49.08401" lon="1.3189">
        <ele>83</ele>
        <time>2021-04-11T08:50:26.000Z</time>
      </trkpt>
      <trkpt lat="49.0842" lon="1.31908">
        <ele>82.400001525879</ele>
        <time>2021-04-11T08:50:30.000Z</time>
      </trkpt>
      <trkpt lat="49.08438" lon="1.31927">
        <ele>82.199996948242</ele>
        <time>2021-04-11T08:50:34.000Z</time>
      </trkpt>
      <trkpt lat="49.08453" lon="1.31944">
        <ele>81.800003051758</ele>
        <time>2021-04-11T08:50:37.000Z</time>
      </trkpt>
      <trkpt lat="49.08468" lon="1.31961">
        <ele>81.199996948242</ele>
        <time>2021-04-11T08:50:40.000Z</time>
      </trkpt>
      <trkpt lat="49.08473" lon="1.31965">
        <ele>81</ele>
        <time>2021-04-11T08:50:41.000Z</time>
      </trkpt>
      <trkpt lat="49.08495" lon="1.31987">
        <ele>80.400001525879</ele>
        <time>2021-04-11T08:50:46.000Z</time>
      </trkpt>
      <trkpt lat="49.08504" lon="1.31995">
        <ele>80</ele>
        <time>2021-04-11T08:50:48.000Z</time>
      </trkpt>
      <trkpt lat="49.08528" lon="1.32019">
        <ele>79.400001525879</ele>
        <time>2021-04-11T08:50:54.000Z</time>
      </trkpt>
      <trkpt lat="49.08538" lon="1.3203">
        <ele>79.400001525879</ele>
        <time>2021-04-11T08:50:57.000Z</time>
      </trkpt>
      <trkpt lat="49.08552" lon="1.32041">
        <ele>79.400001525879</ele>
        <time>2021-04-11T08:51:01.000Z</time>
      </trkpt>
      <trkpt lat="49.08581" lon="1.32057">
        <ele>79.400001525879</ele>
        <time>2021-04-11T08:51:09.000Z</time>
      </trkpt>
      <trkpt lat="49.08598" lon="1.3206">
        <ele>79.400001525879</ele>
        <time>2021-04-11T08:51:14.000Z</time>
      </trkpt>
      <trkpt lat="49.08618" lon="1.32068">
        <ele>80</ele>
        <time>2021-04-11T08:51:21.000Z</time>
      </trkpt>
      <trkpt lat="49.0864" lon="1.32076">
        <ele>80.800003051758</ele>
        <time>2021-04-11T08:51:28.000Z</time>
      </trkpt>
      <trkpt lat="49.08659" lon="1.32083">
        <ele>81.199996948242</ele>
        <time>2021-04-11T08:51:34.000Z</time>
      </trkpt>
      <trkpt lat="49.08666" lon="1.32085">
        <ele>81.599998474121</ele>
        <time>2021-04-11T08:51:36.000Z</time>
      </trkpt>
      <trkpt lat="49.08682" lon="1.3209">
        <ele>82.199996948242</ele>
        <time>2021-04-11T08:51:41.000Z</time>
      </trkpt>
      <trkpt lat="49.08693" lon="1.32092">
        <ele>82.599998474121</ele>
        <time>2021-04-11T08:51:44.000Z</time>
      </trkpt>
      <trkpt lat="49.08711" lon="1.32096">
        <ele>83.199996948242</ele>
        <time>2021-04-11T08:51:49.000Z</time>
      </trkpt>
      <trkpt lat="49.08739" lon="1.32104">
        <ele>83.599998474121</ele>
        <time>2021-04-11T08:51:56.000Z</time>
      </trkpt>
      <trkpt lat="49.08742" lon="1.32107">
        <ele>83.800003051758</ele>
        <time>2021-04-11T08:51:57.000Z</time>
      </trkpt>
      <trkpt lat="49.08749" lon="1.32114">
        <ele>83.800003051758</ele>
        <time>2021-04-11T08:51:59.000Z</time>
      </trkpt>
      <trkpt lat="49.08753" lon="1.32118">
        <ele>83.800003051758</ele>
        <time>2021-04-11T08:52:00.000Z</time>
      </trkpt>
      <trkpt lat="49.08767" lon="1.32133">
        <ele>84</ele>
        <time>2021-04-11T08:52:04.000Z</time>
      </trkpt>
      <trkpt lat="49.08788" lon="1.32162">
        <ele>84</ele>
        <time>2021-04-11T08:52:11.000Z</time>
      </trkpt>
      <trkpt lat="49.08812" lon="1.32196">
        <ele>83.800003051758</ele>
        <time>2021-04-11T08:52:18.000Z</time>
      </trkpt>
      <trkpt lat="49.0882" lon="1.32203">
        <ele>83.599998474121</ele>
        <time>2021-04-11T08:52:20.000Z</time>
      </trkpt>
      <trkpt lat="49.08829" lon="1.3221">
        <ele>83.199996948242</ele>
        <time>2021-04-11T08:52:22.000Z</time>
      </trkpt>
      <trkpt lat="49.08832" lon="1.32214">
        <ele>83.400001525879</ele>
        <time>2021-04-11T08:52:23.000Z</time>
      </trkpt>
      <trkpt lat="49.08845" lon="1.3223">
        <ele>83</ele>
        <time>2021-04-11T08:52:26.000Z</time>
      </trkpt>
      <trkpt lat="49.08859" lon="1.32249">
        <ele>82.599998474121</ele>
        <time>2021-04-11T08:52:29.000Z</time>
      </trkpt>
      <trkpt lat="49.08881" lon="1.32279">
        <ele>81.800003051758</ele>
        <time>2021-04-11T08:52:33.000Z</time>
      </trkpt>
      <trkpt lat="49.08891" lon="1.32296">
        <ele>81.199996948242</ele>
        <time>2021-04-11T08:52:35.000Z</time>
      </trkpt>
      <trkpt lat="49.08896" lon="1.32305">
        <ele>80.800003051758</ele>
        <time>2021-04-11T08:52:36.000Z</time>
      </trkpt>
      <trkpt lat="49.08912" lon="1.32333">
        <ele>79.599998474121</ele>
        <time>2021-04-11T08:52:39.000Z</time>
      </trkpt>
      <trkpt lat="49.08924" lon="1.3235">
        <ele>78.800003051758</ele>
        <time>2021-04-11T08:52:41.000Z</time>
      </trkpt>
      <trkpt lat="49.0893" lon="1.32356">
        <ele>77.599998474121</ele>
        <time>2021-04-11T08:52:42.000Z</time>
      </trkpt>
      <trkpt lat="49.08941" lon="1.32367">
        <ele>76.400001525879</ele>
        <time>2021-04-11T08:52:44.000Z</time>
      </trkpt>
      <trkpt lat="49.08945" lon="1.32371">
        <ele>75.800003051758</ele>
        <time>2021-04-11T08:52:45.000Z</time>
      </trkpt>
      <trkpt lat="49.0895" lon="1.32375">
        <ele>75</ele>
        <time>2021-04-11T08:52:46.000Z</time>
      </trkpt>
      <trkpt lat="49.08957" lon="1.32383">
        <ele>73.400001525879</ele>
        <time>2021-04-11T08:52:48.000Z</time>
      </trkpt>
      <trkpt lat="49.08965" lon="1.32392">
        <ele>72.199996948242</ele>
        <time>2021-04-11T08:52:50.000Z</time>
      </trkpt>
      <trkpt lat="49.08969" lon="1.32396">
        <ele>71.800003051758</ele>
        <time>2021-04-11T08:52:51.000Z</time>
      </trkpt>
      <trkpt lat="49.08976" lon="1.32405">
        <ele>71</ele>
        <time>2021-04-11T08:52:53.000Z</time>
      </trkpt>
      <trkpt lat="49.08983" lon="1.32416">
        <ele>70.800003051758</ele>
        <time>2021-04-11T08:52:55.000Z</time>
      </trkpt>
      <trkpt lat="49.08987" lon="1.32422">
        <ele>70.800003051758</ele>
        <time>2021-04-11T08:52:56.000Z</time>
      </trkpt>
      <trkpt lat="49.09001" lon="1.32447">
        <ele>70.599998474121</ele>
        <time>2021-04-11T08:53:00.000Z</time>
      </trkpt>
      <trkpt lat="49.09011" lon="1.32456">
        <ele>70.400001525879</ele>
        <time>2021-04-11T08:53:02.000Z</time>
      </trkpt>
      <trkpt lat="49.09023" lon="1.32464">
        <ele>70.400001525879</ele>
        <time>2021-04-11T08:53:04.000Z</time>
      </trkpt>
      <trkpt lat="49.09028" lon="1.32469">
        <ele>70</ele>
        <time>2021-04-11T08:53:05.000Z</time>
      </trkpt>
      <trkpt lat="49.09034" lon="1.32473">
        <ele>69.800003051758</ele>
        <time>2021-04-11T08:53:06.000Z</time>
      </trkpt>
      <trkpt lat="49.0904" lon="1.32476">
        <ele>69.599998474121</ele>
        <time>2021-04-11T08:53:07.000Z</time>
      </trkpt>
      <trkpt lat="49.09056" lon="1.32485">
        <ele>68.599998474121</ele>
        <time>2021-04-11T08:53:10.000Z</time>
      </trkpt>
      <trkpt lat="49.09061" lon="1.32488">
        <ele>68.400001525879</ele>
        <time>2021-04-11T08:53:11.000Z</time>
      </trkpt>
      <trkpt lat="49.09065" lon="1.32492">
        <ele>68</ele>
        <time>2021-04-11T08:53:12.000Z</time>
      </trkpt>
      <trkpt lat="49.09074" lon="1.32499">
        <ele>67.599998474121</ele>
        <time>2021-04-11T08:53:14.000Z</time>
      </trkpt>
      <trkpt lat="49.09078" lon="1.32503">
        <ele>67.199996948242</ele>
        <time>2021-04-11T08:53:15.000Z</time>
      </trkpt>
      <trkpt lat="49.09102" lon="1.32525">
        <ele>66.599998474121</ele>
        <time>2021-04-11T08:53:20.000Z</time>
      </trkpt>
      <trkpt lat="49.09106" lon="1.3253">
        <ele>66.400001525879</ele>
        <time>2021-04-11T08:53:21.000Z</time>
      </trkpt>
      <trkpt lat="49.09114" lon="1.3254">
        <ele>66.199996948242</ele>
        <time>2021-04-11T08:53:23.000Z</time>
      </trkpt>
      <trkpt lat="49.09119" lon="1.32555">
        <ele>66.199996948242</ele>
        <time>2021-04-11T08:53:25.000Z</time>
      </trkpt>
      <trkpt lat="49.09125" lon="1.32577">
        <ele>65.800003051758</ele>
        <time>2021-04-11T08:53:29.000Z</time>
      </trkpt>
      <trkpt lat="49.09127" lon="1.32582">
        <ele>65.599998474121</ele>
        <time>2021-04-11T08:53:30.000Z</time>
      </trkpt>
      <trkpt lat="49.09129" lon="1.32587">
        <ele>65.400001525879</ele>
        <time>2021-04-11T08:53:31.000Z</time>
      </trkpt>
      <trkpt lat="49.09137" lon="1.32607">
        <ele>65</ele>
        <time>2021-04-11T08:53:35.000Z</time>
      </trkpt>
      <trkpt lat="49.09158" lon="1.32649">
        <ele>65</ele>
        <time>2021-04-11T08:53:43.000Z</time>
      </trkpt>
      <trkpt lat="49.09181" lon="1.32674">
        <ele>65</ele>
        <time>2021-04-11T08:53:50.000Z</time>
      </trkpt>
      <trkpt lat="49.09198" lon="1.32687">
        <ele>64.800003051758</ele>
        <time>2021-04-11T08:53:55.000Z</time>
      </trkpt>
      <trkpt lat="49.0922" lon="1.3271">
        <ele>64.599998474121</ele>
        <time>2021-04-11T08:54:02.000Z</time>
      </trkpt>
      <trkpt lat="49.09251" lon="1.32749">
        <ele>64.800003051758</ele>
        <time>2021-04-11T08:54:13.000Z</time>
      </trkpt>
      <trkpt lat="49.09275" lon="1.32791">
        <ele>65.400001525879</ele>
        <time>2021-04-11T08:54:23.000Z</time>
      </trkpt>
      <trkpt lat="49.09298" lon="1.32819">
        <ele>66.199996948242</ele>
        <time>2021-04-11T08:54:31.000Z</time>
      </trkpt>
      <trkpt lat="49.09324" lon="1.32846">
        <ele>66.800003051758</ele>
        <time>2021-04-11T08:54:39.000Z</time>
      </trkpt>
      <trkpt lat="49.09327" lon="1.32849">
        <ele>66.800003051758</ele>
        <time>2021-04-11T08:54:40.000Z</time>
      </trkpt>
      <trkpt lat="49.09346" lon="1.32875">
        <ele>67</ele>
        <time>2021-04-11T08:54:47.000Z</time>
      </trkpt>
      <trkpt lat="49.09369" lon="1.3291">
        <ele>67.599998474121</ele>
        <time>2021-04-11T08:54:56.000Z</time>
      </trkpt>
      <trkpt lat="49.09377" lon="1.32922">
        <ele>67.800003051758</ele>
        <time>2021-04-11T08:54:59.000Z</time>
      </trkpt>
      <trkpt lat="49.09385" lon="1.32935">
        <ele>68</ele>
        <time>2021-04-11T08:55:02.000Z</time>
      </trkpt>
      <trkpt lat="49.094" lon="1.32956">
        <ele>68.599998474121</ele>
        <time>2021-04-11T08:55:07.000Z</time>
      </trkpt>
      <trkpt lat="49.0941" lon="1.32966">
        <ele>68.599998474121</ele>
        <time>2021-04-11T08:55:10.000Z</time>
      </trkpt>
      <trkpt lat="49.09425" lon="1.32974">
        <ele>68.599998474121</ele>
        <time>2021-04-11T08:55:15.000Z</time>
      </trkpt>
      <trkpt lat="49.09441" lon="1.32977">
        <ele>68.800003051758</ele>
        <time>2021-04-11T08:55:20.000Z</time>
      </trkpt>
      <trkpt lat="49.0945" lon="1.32983">
        <ele>69.199996948242</ele>
        <time>2021-04-11T08:55:23.000Z</time>
      </trkpt>
      <trkpt lat="49.09457" lon="1.32994">
        <ele>70</ele>
        <time>2021-04-11T08:55:26.000Z</time>
      </trkpt>
      <trkpt lat="49.09463" lon="1.33007">
        <ele>70.199996948242</ele>
        <time>2021-04-11T08:55:29.000Z</time>
      </trkpt>
      <trkpt lat="49.09466" lon="1.33016">
        <ele>70.199996948242</ele>
        <time>2021-04-11T08:55:33.000Z</time>
      </trkpt>
      <trkpt lat="49.09467" lon="1.33017">
        <ele>70.400001525879</ele>
        <time>2021-04-11T08:55:36.000Z</time>
      </trkpt>
      <trkpt lat="49.09468" lon="1.33017">
        <ele>71.400001525879</ele>
        <time>2021-04-11T08:55:53.000Z</time>
      </trkpt>
      <trkpt lat="49.09469" lon="1.33016">
        <ele>71.400001525879</ele>
        <time>2021-04-11T08:55:54.000Z</time>
      </trkpt>
      <trkpt lat="49.09478" lon="1.33012">
        <ele>71.400001525879</ele>
        <time>2021-04-11T08:55:59.000Z</time>
      </trkpt>
      <trkpt lat="49.0948" lon="1.3301">
        <ele>71.400001525879</ele>
        <time>2021-04-11T08:56:00.000Z</time>
      </trkpt>
      <trkpt lat="49.09482" lon="1.32999">
        <ele>71.199996948242</ele>
        <time>2021-04-11T08:56:04.000Z</time>
      </trkpt>
      <trkpt lat="49.0949" lon="1.32973">
        <ele>70.800003051758</ele>
        <time>2021-04-11T08:56:12.000Z</time>
      </trkpt>
      <trkpt lat="49.09497" lon="1.32951">
        <ele>71.199996948242</ele>
        <time>2021-04-11T08:56:19.000Z</time>
      </trkpt>
      <trkpt lat="49.09505" lon="1.32934">
        <ele>71.800003051758</ele>
        <time>2021-04-11T08:56:26.000Z</time>
      </trkpt>
      <trkpt lat="49.0951" lon="1.32923">
        <ele>72.800003051758</ele>
        <time>2021-04-11T08:56:31.000Z</time>
      </trkpt>
      <trkpt lat="49.09513" lon="1.32919">
        <ele>73.400001525879</ele>
        <time>2021-04-11T08:56:33.000Z</time>
      </trkpt>
      <trkpt lat="49.09515" lon="1.32913">
        <ele>74</ele>
        <time>2021-04-11T08:56:36.000Z</time>
      </trkpt>
      <trkpt lat="49.09518" lon="1.32907">
        <ele>74.800003051758</ele>
        <time>2021-04-11T08:56:39.000Z</time>
      </trkpt>
      <trkpt lat="49.0952" lon="1.32903">
        <ele>75.199996948242</ele>
        <time>2021-04-11T08:56:41.000Z</time>
      </trkpt>
      <trkpt lat="49.09524" lon="1.32894">
        <ele>76.199996948242</ele>
        <time>2021-04-11T08:56:45.000Z</time>
      </trkpt>
      <trkpt lat="49.09525" lon="1.32892">
        <ele>76.400001525879</ele>
        <time>2021-04-11T08:56:46.000Z</time>
      </trkpt>
      <trkpt lat="49.0953" lon="1.32881">
        <ele>77.599998474121</ele>
        <time>2021-04-11T08:56:51.000Z</time>
      </trkpt>
      <trkpt lat="49.09534" lon="1.32871">
        <ele>78.199996948242</ele>
        <time>2021-04-11T08:56:55.000Z</time>
      </trkpt>
      <trkpt lat="49.09536" lon="1.32867">
        <ele>78.599998474121</ele>
        <time>2021-04-11T08:56:57.000Z</time>
      </trkpt>
      <trkpt lat="49.0954" lon="1.32856">
        <ele>79.800003051758</ele>
        <time>2021-04-11T08:57:02.000Z</time>
      </trkpt>
      <trkpt lat="49.09541" lon="1.32854">
        <ele>80</ele>
        <time>2021-04-11T08:57:03.000Z</time>
      </trkpt>
      <trkpt lat="49.09545" lon="1.32839">
        <ele>81</ele>
        <time>2021-04-11T08:57:09.000Z</time>
      </trkpt>
      <trkpt lat="49.09546" lon="1.32837">
        <ele>81.199996948242</ele>
        <time>2021-04-11T08:57:10.000Z</time>
      </trkpt>
      <trkpt lat="49.09551" lon="1.32819">
        <ele>82.199996948242</ele>
        <time>2021-04-11T08:57:17.000Z</time>
      </trkpt>
      <trkpt lat="49.09552" lon="1.32812">
        <ele>82.599998474121</ele>
        <time>2021-04-11T08:57:20.000Z</time>
      </trkpt>
      <trkpt lat="49.09554" lon="1.32801">
        <ele>83.400001525879</ele>
        <time>2021-04-11T08:57:24.000Z</time>
      </trkpt>
      <trkpt lat="49.09556" lon="1.32788">
        <ele>84.599998474121</ele>
        <time>2021-04-11T08:57:29.000Z</time>
      </trkpt>
      <trkpt lat="49.09558" lon="1.32771">
        <ele>85.599998474121</ele>
        <time>2021-04-11T08:57:36.000Z</time>
      </trkpt>
      <trkpt lat="49.09559" lon="1.32767">
        <ele>86</ele>
        <time>2021-04-11T08:57:38.000Z</time>
      </trkpt>
      <trkpt lat="49.09561" lon="1.32757">
        <ele>86.800003051758</ele>
        <time>2021-04-11T08:57:42.000Z</time>
      </trkpt>
      <trkpt lat="49.09565" lon="1.32747">
        <ele>87.800003051758</ele>
        <time>2021-04-11T08:57:47.000Z</time>
      </trkpt>
      <trkpt lat="49.0957" lon="1.32737">
        <ele>89</ele>
        <time>2021-04-11T08:57:52.000Z</time>
      </trkpt>
      <trkpt lat="49.09571" lon="1.32731">
        <ele>90</ele>
        <time>2021-04-11T08:57:55.000Z</time>
      </trkpt>
      <trkpt lat="49.09572" lon="1.32729">
        <ele>90.199996948242</ele>
        <time>2021-04-11T08:57:56.000Z</time>
      </trkpt>
      <trkpt lat="49.09576" lon="1.32713">
        <ele>91</ele>
        <time>2021-04-11T08:58:03.000Z</time>
      </trkpt>
      <trkpt lat="49.09577" lon="1.32708">
        <ele>91.199996948242</ele>
        <time>2021-04-11T08:58:05.000Z</time>
      </trkpt>
      <trkpt lat="49.09581" lon="1.32697">
        <ele>91.800003051758</ele>
        <time>2021-04-11T08:58:10.000Z</time>
      </trkpt>
      <trkpt lat="49.09582" lon="1.32693">
        <ele>92.400001525879</ele>
        <time>2021-04-11T08:58:12.000Z</time>
      </trkpt>
      <trkpt lat="49.09584" lon="1.32684">
        <ele>93.199996948242</ele>
        <time>2021-04-11T08:58:16.000Z</time>
      </trkpt>
      <trkpt lat="49.09585" lon="1.32681">
        <ele>93.400001525879</ele>
        <time>2021-04-11T08:58:17.000Z</time>
      </trkpt>
      <trkpt lat="49.09589" lon="1.32671">
        <ele>94.800003051758</ele>
        <time>2021-04-11T08:58:21.000Z</time>
      </trkpt>
      <trkpt lat="49.0959" lon="1.32666">
        <ele>95.199996948242</ele>
        <time>2021-04-11T08:58:23.000Z</time>
      </trkpt>
      <trkpt lat="49.09591" lon="1.32658">
        <ele>95.599998474121</ele>
        <time>2021-04-11T08:58:26.000Z</time>
      </trkpt>
      <trkpt lat="49.09592" lon="1.32655">
        <ele>95.800003051758</ele>
        <time>2021-04-11T08:58:27.000Z</time>
      </trkpt>
      <trkpt lat="49.09592" lon="1.32647">
        <ele>96.199996948242</ele>
        <time>2021-04-11T08:58:30.000Z</time>
      </trkpt>
      <trkpt lat="49.09593" lon="1.32639">
        <ele>97</ele>
        <time>2021-04-11T08:58:33.000Z</time>
      </trkpt>
      <trkpt lat="49.09591" lon="1.32626">
        <ele>98</ele>
        <time>2021-04-11T08:58:38.000Z</time>
      </trkpt>
      <trkpt lat="49.09591" lon="1.32623">
        <ele>98.400001525879</ele>
        <time>2021-04-11T08:58:39.000Z</time>
      </trkpt>
      <trkpt lat="49.09589" lon="1.32607">
        <ele>99.199996948242</ele>
        <time>2021-04-11T08:58:45.000Z</time>
      </trkpt>
      <trkpt lat="49.09588" lon="1.32601">
        <ele>99.400001525879</ele>
        <time>2021-04-11T08:58:47.000Z</time>
      </trkpt>
      <trkpt lat="49.09585" lon="1.32586">
        <ele>100.40000152588</ele>
        <time>2021-04-11T08:58:52.000Z</time>
      </trkpt>
      <trkpt lat="49.09583" lon="1.3257">
        <ele>101.19999694824</ele>
        <time>2021-04-11T08:58:57.000Z</time>
      </trkpt>
      <trkpt lat="49.09582" lon="1.32562">
        <ele>101.59999847412</ele>
        <time>2021-04-11T08:59:00.000Z</time>
      </trkpt>
      <trkpt lat="49.09582" lon="1.3255">
        <ele>102</ele>
        <time>2021-04-11T08:59:04.000Z</time>
      </trkpt>
      <trkpt lat="49.09581" lon="1.32533">
        <ele>102.59999847412</ele>
        <time>2021-04-11T08:59:09.000Z</time>
      </trkpt>
      <trkpt lat="49.09582" lon="1.32522">
        <ele>103</ele>
        <time>2021-04-11T08:59:12.000Z</time>
      </trkpt>
      <trkpt lat="49.09584" lon="1.32505">
        <ele>103.80000305176</ele>
        <time>2021-04-11T08:59:17.000Z</time>
      </trkpt>
      <trkpt lat="49.09585" lon="1.32494">
        <ele>104.40000152588</ele>
        <time>2021-04-11T08:59:20.000Z</time>
      </trkpt>
      <trkpt lat="49.09586" lon="1.32487">
        <ele>104.80000305176</ele>
        <time>2021-04-11T08:59:22.000Z</time>
      </trkpt>
      <trkpt lat="49.0959" lon="1.32461">
        <ele>106</ele>
        <time>2021-04-11T08:59:29.000Z</time>
      </trkpt>
      <trkpt lat="49.09591" lon="1.32454">
        <ele>106.19999694824</ele>
        <time>2021-04-11T08:59:31.000Z</time>
      </trkpt>
      <trkpt lat="49.09596" lon="1.32421">
        <ele>107.19999694824</ele>
        <time>2021-04-11T08:59:39.000Z</time>
      </trkpt>
      <trkpt lat="49.09603" lon="1.32377">
        <ele>108.19999694824</ele>
        <time>2021-04-11T08:59:48.000Z</time>
      </trkpt>
      <trkpt lat="49.09606" lon="1.32343">
        <ele>108.19999694824</ele>
        <time>2021-04-11T08:59:55.000Z</time>
      </trkpt>
      <trkpt lat="49.09607" lon="1.32334">
        <ele>108.40000152588</ele>
        <time>2021-04-11T08:59:57.000Z</time>
      </trkpt>
      <trkpt lat="49.09606" lon="1.32317">
        <ele>108.59999847412</ele>
        <time>2021-04-11T09:00:01.000Z</time>
      </trkpt>
      <trkpt lat="49.09605" lon="1.32313">
        <ele>108.80000305176</ele>
        <time>2021-04-11T09:00:03.000Z</time>
      </trkpt>
      <trkpt lat="49.09604" lon="1.32312">
        <ele>108.80000305176</ele>
        <time>2021-04-11T09:00:05.000Z</time>
      </trkpt>
      <trkpt lat="49.09603" lon="1.32313">
        <ele>111.59999847412</ele>
        <time>2021-04-11T09:00:41.000Z</time>
      </trkpt>
      <trkpt lat="49.09602" lon="1.32313">
        <ele>111.59999847412</ele>
        <time>2021-04-11T09:00:42.000Z</time>
      </trkpt>
      <trkpt lat="49.09598" lon="1.32312">
        <ele>111.59999847412</ele>
        <time>2021-04-11T09:00:45.000Z</time>
      </trkpt>
      <trkpt lat="49.09588" lon="1.32302">
        <ele>111.59999847412</ele>
        <time>2021-04-11T09:00:50.000Z</time>
      </trkpt>
      <trkpt lat="49.09584" lon="1.32283">
        <ele>111.59999847412</ele>
        <time>2021-04-11T09:00:55.000Z</time>
      </trkpt>
      <trkpt lat="49.0958" lon="1.32245">
        <ele>112</ele>
        <time>2021-04-11T09:01:04.000Z</time>
      </trkpt>
      <trkpt lat="49.09576" lon="1.32216">
        <ele>112.40000152588</ele>
        <time>2021-04-11T09:01:11.000Z</time>
      </trkpt>
      <trkpt lat="49.09573" lon="1.32199">
        <ele>113</ele>
        <time>2021-04-11T09:01:15.000Z</time>
      </trkpt>
      <trkpt lat="49.09572" lon="1.32189">
        <ele>113.40000152588</ele>
        <time>2021-04-11T09:01:17.000Z</time>
      </trkpt>
      <trkpt lat="49.09569" lon="1.32171">
        <ele>114</ele>
        <time>2021-04-11T09:01:21.000Z</time>
      </trkpt>
      <trkpt lat="49.09568" lon="1.32156">
        <ele>114.40000152588</ele>
        <time>2021-04-11T09:01:24.000Z</time>
      </trkpt>
      <trkpt lat="49.09567" lon="1.32126">
        <ele>114.80000305176</ele>
        <time>2021-04-11T09:01:30.000Z</time>
      </trkpt>
      <trkpt lat="49.09566" lon="1.32116">
        <ele>114.80000305176</ele>
        <time>2021-04-11T09:01:33.000Z</time>
      </trkpt>
      <trkpt lat="49.09568" lon="1.32116">
        <ele>115</ele>
        <time>2021-04-11T09:01:34.000Z</time>
      </trkpt>
      <trkpt lat="49.0958" lon="1.32126">
        <ele>115.19999694824</ele>
        <time>2021-04-11T09:01:39.000Z</time>
      </trkpt>
      <trkpt lat="49.09588" lon="1.32129">
        <ele>115.19999694824</ele>
        <time>2021-04-11T09:01:43.000Z</time>
      </trkpt>
      <trkpt lat="49.09599" lon="1.32119">
        <ele>115.19999694824</ele>
        <time>2021-04-11T09:01:48.000Z</time>
      </trkpt>
      <trkpt lat="49.09609" lon="1.32105">
        <ele>115.19999694824</ele>
        <time>2021-04-11T09:01:53.000Z</time>
      </trkpt>
      <trkpt lat="49.09621" lon="1.32089">
        <ele>115.59999847412</ele>
        <time>2021-04-11T09:01:58.000Z</time>
      </trkpt>
      <trkpt lat="49.09641" lon="1.32067">
        <ele>116.40000152588</ele>
        <time>2021-04-11T09:02:04.000Z</time>
      </trkpt>
      <trkpt lat="49.09644" lon="1.32064">
        <ele>116.40000152588</ele>
        <time>2021-04-11T09:02:05.000Z</time>
      </trkpt>
      <trkpt lat="49.0966" lon="1.32053">
        <ele>117</ele>
        <time>2021-04-11T09:02:10.000Z</time>
      </trkpt>
      <trkpt lat="49.0966" lon="1.32038">
        <ele>117.19999694824</ele>
        <time>2021-04-11T09:02:13.000Z</time>
      </trkpt>
      <trkpt lat="49.09662" lon="1.32025">
        <ele>117.19999694824</ele>
        <time>2021-04-11T09:02:16.000Z</time>
      </trkpt>
      <trkpt lat="49.09664" lon="1.32016">
        <ele>117.19999694824</ele>
        <time>2021-04-11T09:02:18.000Z</time>
      </trkpt>
      <trkpt lat="49.09668" lon="1.32003">
        <ele>117.40000152588</ele>
        <time>2021-04-11T09:02:21.000Z</time>
      </trkpt>
      <trkpt lat="49.09669" lon="1.31998">
        <ele>117.40000152588</ele>
        <time>2021-04-11T09:02:22.000Z</time>
      </trkpt>
      <trkpt lat="49.09675" lon="1.31961">
        <ele>117.59999847412</ele>
        <time>2021-04-11T09:02:29.000Z</time>
      </trkpt>
      <trkpt lat="49.09684" lon="1.31931">
        <ele>117.80000305176</ele>
        <time>2021-04-11T09:02:35.000Z</time>
      </trkpt>
      <trkpt lat="49.09691" lon="1.31903">
        <ele>118</ele>
        <time>2021-04-11T09:02:40.000Z</time>
      </trkpt>
      <trkpt lat="49.09689" lon="1.3188">
        <ele>118.40000152588</ele>
        <time>2021-04-11T09:02:44.000Z</time>
      </trkpt>
      <trkpt lat="49.09688" lon="1.31873">
        <ele>118.40000152588</ele>
        <time>2021-04-11T09:02:45.000Z</time>
      </trkpt>
      <trkpt lat="49.09685" lon="1.3185">
        <ele>118.59999847412</ele>
        <time>2021-04-11T09:02:49.000Z</time>
      </trkpt>
      <trkpt lat="49.09682" lon="1.31815">
        <ele>119.19999694824</ele>
        <time>2021-04-11T09:02:55.000Z</time>
      </trkpt>
      <trkpt lat="49.09681" lon="1.31783">
        <ele>119.19999694824</ele>
        <time>2021-04-11T09:03:00.000Z</time>
      </trkpt>
      <trkpt lat="49.09681" lon="1.31776">
        <ele>119.19999694824</ele>
        <time>2021-04-11T09:03:01.000Z</time>
      </trkpt>
      <trkpt lat="49.09683" lon="1.31748">
        <ele>119.19999694824</ele>
        <time>2021-04-11T09:03:06.000Z</time>
      </trkpt>
      <trkpt lat="49.09685" lon="1.31738">
        <ele>119.19999694824</ele>
        <time>2021-04-11T09:03:08.000Z</time>
      </trkpt>
      <trkpt lat="49.09688" lon="1.31728">
        <ele>119.19999694824</ele>
        <time>2021-04-11T09:03:10.000Z</time>
      </trkpt>
      <trkpt lat="49.09693" lon="1.31704">
        <ele>119.19999694824</ele>
        <time>2021-04-11T09:03:14.000Z</time>
      </trkpt>
      <trkpt lat="49.09695" lon="1.31691">
        <ele>119.19999694824</ele>
        <time>2021-04-11T09:03:16.000Z</time>
      </trkpt>
      <trkpt lat="49.09696" lon="1.31657">
        <ele>119.19999694824</ele>
        <time>2021-04-11T09:03:21.000Z</time>
      </trkpt>
      <trkpt lat="49.09695" lon="1.3165">
        <ele>119.19999694824</ele>
        <time>2021-04-11T09:03:22.000Z</time>
      </trkpt>
      <trkpt lat="49.09693" lon="1.31628">
        <ele>119.19999694824</ele>
        <time>2021-04-11T09:03:25.000Z</time>
      </trkpt>
      <trkpt lat="49.09691" lon="1.31614">
        <ele>119.19999694824</ele>
        <time>2021-04-11T09:03:27.000Z</time>
      </trkpt>
      <trkpt lat="49.0969" lon="1.31608">
        <ele>119.19999694824</ele>
        <time>2021-04-11T09:03:28.000Z</time>
      </trkpt>
      <trkpt lat="49.09692" lon="1.31568">
        <ele>119</ele>
        <time>2021-04-11T09:03:34.000Z</time>
      </trkpt>
      <trkpt lat="49.09694" lon="1.31541">
        <ele>118.40000152588</ele>
        <time>2021-04-11T09:03:37.000Z</time>
      </trkpt>
      <trkpt lat="49.09694" lon="1.31534">
        <ele>118.19999694824</ele>
        <time>2021-04-11T09:03:38.000Z</time>
      </trkpt>
      <trkpt lat="49.09692" lon="1.31523">
        <ele>117.80000305176</ele>
        <time>2021-04-11T09:03:40.000Z</time>
      </trkpt>
      <trkpt lat="49.09692" lon="1.31521">
        <ele>117.40000152588</ele>
        <time>2021-04-11T09:03:41.000Z</time>
      </trkpt>
      <trkpt lat="49.09691" lon="1.31519">
        <ele>116.59999847412</ele>
        <time>2021-04-11T09:03:43.000Z</time>
      </trkpt>
      <trkpt lat="49.09692" lon="1.31513">
        <ele>112.40000152588</ele>
        <time>2021-04-11T09:04:10.000Z</time>
      </trkpt>
      <trkpt lat="49.09692" lon="1.31506">
        <ele>112.40000152588</ele>
        <time>2021-04-11T09:04:13.000Z</time>
      </trkpt>
      <trkpt lat="49.09692" lon="1.31483">
        <ele>112.40000152588</ele>
        <time>2021-04-11T09:04:18.000Z</time>
      </trkpt>
      <trkpt lat="49.09687" lon="1.31473">
        <ele>112.19999694824</ele>
        <time>2021-04-11T09:04:20.000Z</time>
      </trkpt>
      <trkpt lat="49.09683" lon="1.31468">
        <ele>112</ele>
        <time>2021-04-11T09:04:21.000Z</time>
      </trkpt>
      <trkpt lat="49.09672" lon="1.31456">
        <ele>111.40000152588</ele>
        <time>2021-04-11T09:04:23.000Z</time>
      </trkpt>
      <trkpt lat="49.09662" lon="1.31441">
        <ele>110.80000305176</ele>
        <time>2021-04-11T09:04:25.000Z</time>
      </trkpt>
      <trkpt lat="49.09658" lon="1.31433">
        <ele>110.19999694824</ele>
        <time>2021-04-11T09:04:26.000Z</time>
      </trkpt>
      <trkpt lat="49.09649" lon="1.31418">
        <ele>109.19999694824</ele>
        <time>2021-04-11T09:04:28.000Z</time>
      </trkpt>
      <trkpt lat="49.0964" lon="1.31402">
        <ele>108.19999694824</ele>
        <time>2021-04-11T09:04:30.000Z</time>
      </trkpt>
      <trkpt lat="49.09635" lon="1.31396">
        <ele>107.59999847412</ele>
        <time>2021-04-11T09:04:31.000Z</time>
      </trkpt>
      <trkpt lat="49.09629" lon="1.31389">
        <ele>106.59999847412</ele>
        <time>2021-04-11T09:04:32.000Z</time>
      </trkpt>
      <trkpt lat="49.09613" lon="1.31378">
        <ele>105</ele>
        <time>2021-04-11T09:04:34.000Z</time>
      </trkpt>
      <trkpt lat="49.09605" lon="1.31373">
        <ele>104</ele>
        <time>2021-04-11T09:04:35.000Z</time>
      </trkpt>
      <trkpt lat="49.09597" lon="1.31367">
        <ele>102.80000305176</ele>
        <time>2021-04-11T09:04:36.000Z</time>
      </trkpt>
      <trkpt lat="49.09583" lon="1.31355">
        <ele>101.19999694824</ele>
        <time>2021-04-11T09:04:38.000Z</time>
      </trkpt>
      <trkpt lat="49.09576" lon="1.31346">
        <ele>100.59999847412</ele>
        <time>2021-04-11T09:04:39.000Z</time>
      </trkpt>
      <trkpt lat="49.09566" lon="1.31327">
        <ele>100</ele>
        <time>2021-04-11T09:04:41.000Z</time>
      </trkpt>
      <trkpt lat="49.09557" lon="1.31306">
        <ele>99.800003051758</ele>
        <time>2021-04-11T09:04:43.000Z</time>
      </trkpt>
      <trkpt lat="49.09535" lon="1.31254">
        <ele>99.599998474121</ele>
        <time>2021-04-11T09:04:48.000Z</time>
      </trkpt>
      <trkpt lat="49.09529" lon="1.31245">
        <ele>99.599998474121</ele>
        <time>2021-04-11T09:04:49.000Z</time>
      </trkpt>
      <trkpt lat="49.09517" lon="1.31228">
        <ele>99.599998474121</ele>
        <time>2021-04-11T09:04:51.000Z</time>
      </trkpt>
      <trkpt lat="49.09507" lon="1.31208">
        <ele>99.599998474121</ele>
        <time>2021-04-11T09:04:53.000Z</time>
      </trkpt>
      <trkpt lat="49.09499" lon="1.31187">
        <ele>99.599998474121</ele>
        <time>2021-04-11T09:04:55.000Z</time>
      </trkpt>
      <trkpt lat="49.09484" lon="1.31144">
        <ele>99.800003051758</ele>
        <time>2021-04-11T09:04:59.000Z</time>
      </trkpt>
      <trkpt lat="49.09481" lon="1.31134">
        <ele>100</ele>
        <time>2021-04-11T09:05:00.000Z</time>
      </trkpt>
      <trkpt lat="49.0947" lon="1.31099">
        <ele>100.59999847412</ele>
        <time>2021-04-11T09:05:04.000Z</time>
      </trkpt>
      <trkpt lat="49.09466" lon="1.31091">
        <ele>100.80000305176</ele>
        <time>2021-04-11T09:05:05.000Z</time>
      </trkpt>
      <trkpt lat="49.09455" lon="1.31076">
        <ele>100.80000305176</ele>
        <time>2021-04-11T09:05:07.000Z</time>
      </trkpt>
      <trkpt lat="49.09444" lon="1.31064">
        <ele>101.19999694824</ele>
        <time>2021-04-11T09:05:09.000Z</time>
      </trkpt>
      <trkpt lat="49.09438" lon="1.31059">
        <ele>101.40000152588</ele>
        <time>2021-04-11T09:05:10.000Z</time>
      </trkpt>
      <trkpt lat="49.0942" lon="1.31042">
        <ele>101.80000305176</ele>
        <time>2021-04-11T09:05:13.000Z</time>
      </trkpt>
      <trkpt lat="49.0941" lon="1.31028">
        <ele>102</ele>
        <time>2021-04-11T09:05:15.000Z</time>
      </trkpt>
      <trkpt lat="49.09405" lon="1.31021">
        <ele>102.19999694824</ele>
        <time>2021-04-11T09:05:16.000Z</time>
      </trkpt>
      <trkpt lat="49.09393" lon="1.31009">
        <ele>102.40000152588</ele>
        <time>2021-04-11T09:05:18.000Z</time>
      </trkpt>
      <trkpt lat="49.09373" lon="1.30986">
        <ele>102.80000305176</ele>
        <time>2021-04-11T09:05:22.000Z</time>
      </trkpt>
      <trkpt lat="49.09361" lon="1.30973">
        <ele>103</ele>
        <time>2021-04-11T09:05:26.000Z</time>
      </trkpt>
      <trkpt lat="49.09342" lon="1.3096">
        <ele>103.19999694824</ele>
        <time>2021-04-11T09:05:31.000Z</time>
      </trkpt>
      <trkpt lat="49.09324" lon="1.30951">
        <ele>103.40000152588</ele>
        <time>2021-04-11T09:05:36.000Z</time>
      </trkpt>
      <trkpt lat="49.09299" lon="1.3095">
        <ele>103.40000152588</ele>
        <time>2021-04-11T09:05:42.000Z</time>
      </trkpt>
      <trkpt lat="49.09272" lon="1.30941">
        <ele>103.40000152588</ele>
        <time>2021-04-11T09:05:47.000Z</time>
      </trkpt>
      <trkpt lat="49.0925" lon="1.30928">
        <ele>103.40000152588</ele>
        <time>2021-04-11T09:05:52.000Z</time>
      </trkpt>
      <trkpt lat="49.09227" lon="1.30916">
        <ele>103.59999847412</ele>
        <time>2021-04-11T09:05:57.000Z</time>
      </trkpt>
      <trkpt lat="49.09217" lon="1.30909">
        <ele>103.80000305176</ele>
        <time>2021-04-11T09:05:59.000Z</time>
      </trkpt>
      <trkpt lat="49.09201" lon="1.30895">
        <ele>104.19999694824</ele>
        <time>2021-04-11T09:06:03.000Z</time>
      </trkpt>
      <trkpt lat="49.09188" lon="1.30872">
        <ele>104.19999694824</ele>
        <time>2021-04-11T09:06:08.000Z</time>
      </trkpt>
      <trkpt lat="49.09176" lon="1.30855">
        <ele>104.19999694824</ele>
        <time>2021-04-11T09:06:12.000Z</time>
      </trkpt>
      <trkpt lat="49.09165" lon="1.30849">
        <ele>104</ele>
        <time>2021-04-11T09:06:17.000Z</time>
      </trkpt>
      <trkpt lat="49.09159" lon="1.30846">
        <ele>104.19999694824</ele>
        <time>2021-04-11T09:06:21.000Z</time>
      </trkpt>
      <trkpt lat="49.09154" lon="1.30838">
        <ele>104.19999694824</ele>
        <time>2021-04-11T09:06:24.000Z</time>
      </trkpt>
      <trkpt lat="49.09147" lon="1.30832">
        <ele>104</ele>
        <time>2021-04-11T09:06:26.000Z</time>
      </trkpt>
      <trkpt lat="49.09141" lon="1.30825">
        <ele>104.19999694824</ele>
        <time>2021-04-11T09:06:28.000Z</time>
      </trkpt>
      <trkpt lat="49.09136" lon="1.30816">
        <ele>104</ele>
        <time>2021-04-11T09:06:30.000Z</time>
      </trkpt>
      <trkpt lat="49.09128" lon="1.30798">
        <ele>103.59999847412</ele>
        <time>2021-04-11T09:06:34.000Z</time>
      </trkpt>
      <trkpt lat="49.09122" lon="1.30766">
        <ele>103.40000152588</ele>
        <time>2021-04-11T09:06:39.000Z</time>
      </trkpt>
      <trkpt lat="49.09121" lon="1.30758">
        <ele>103.40000152588</ele>
        <time>2021-04-11T09:06:40.000Z</time>
      </trkpt>
      <trkpt lat="49.09116" lon="1.30735">
        <ele>103.40000152588</ele>
        <time>2021-04-11T09:06:43.000Z</time>
      </trkpt>
      <trkpt lat="49.0911" lon="1.30698">
        <ele>103.80000305176</ele>
        <time>2021-04-11T09:06:47.000Z</time>
      </trkpt>
      <trkpt lat="49.09109" lon="1.30687">
        <ele>103.80000305176</ele>
        <time>2021-04-11T09:06:48.000Z</time>
      </trkpt>
      <trkpt lat="49.09107" lon="1.30665">
        <ele>104</ele>
        <time>2021-04-11T09:06:50.000Z</time>
      </trkpt>
      <trkpt lat="49.09106" lon="1.30642">
        <ele>104</ele>
        <time>2021-04-11T09:06:52.000Z</time>
      </trkpt>
      <trkpt lat="49.09105" lon="1.30604">
        <ele>104.19999694824</ele>
        <time>2021-04-11T09:06:55.000Z</time>
      </trkpt>
      <trkpt lat="49.09105" lon="1.30591">
        <ele>104.19999694824</ele>
        <time>2021-04-11T09:06:56.000Z</time>
      </trkpt>
      <trkpt lat="49.09105" lon="1.30551">
        <ele>104.40000152588</ele>
        <time>2021-04-11T09:06:59.000Z</time>
      </trkpt>
      <trkpt lat="49.09098" lon="1.30487">
        <ele>104.59999847412</ele>
        <time>2021-04-11T09:07:04.000Z</time>
      </trkpt>
      <trkpt lat="49.09097" lon="1.30475">
        <ele>104.80000305176</ele>
        <time>2021-04-11T09:07:05.000Z</time>
      </trkpt>
      <trkpt lat="49.09098" lon="1.30439">
        <ele>105</ele>
        <time>2021-04-11T09:07:08.000Z</time>
      </trkpt>
      <trkpt lat="49.09102" lon="1.30416">
        <ele>105</ele>
        <time>2021-04-11T09:07:10.000Z</time>
      </trkpt>
      <trkpt lat="49.09106" lon="1.30393">
        <ele>105</ele>
        <time>2021-04-11T09:07:12.000Z</time>
      </trkpt>
      <trkpt lat="49.09107" lon="1.30382">
        <ele>105</ele>
        <time>2021-04-11T09:07:13.000Z</time>
      </trkpt>
      <trkpt lat="49.09103" lon="1.30348">
        <ele>105.19999694824</ele>
        <time>2021-04-11T09:07:16.000Z</time>
      </trkpt>
      <trkpt lat="49.09094" lon="1.30327">
        <ele>105.19999694824</ele>
        <time>2021-04-11T09:07:18.000Z</time>
      </trkpt>
      <trkpt lat="49.0908" lon="1.30297">
        <ele>105.19999694824</ele>
        <time>2021-04-11T09:07:21.000Z</time>
      </trkpt>
      <trkpt lat="49.09048" lon="1.30229">
        <ele>105.40000152588</ele>
        <time>2021-04-11T09:07:28.000Z</time>
      </trkpt>
      <trkpt lat="49.0904" lon="1.30212">
        <ele>105.40000152588</ele>
        <time>2021-04-11T09:07:30.000Z</time>
      </trkpt>
      <trkpt lat="49.09019" lon="1.30164">
        <ele>105.19999694824</ele>
        <time>2021-04-11T09:07:36.000Z</time>
      </trkpt>
      <trkpt lat="49.09003" lon="1.30123">
        <ele>104.40000152588</ele>
        <time>2021-04-11T09:07:42.000Z</time>
      </trkpt>
      <trkpt lat="49.09" lon="1.30117">
        <ele>104.40000152588</ele>
        <time>2021-04-11T09:07:43.000Z</time>
      </trkpt>
      <trkpt lat="49.08984" lon="1.30078">
        <ele>103.59999847412</ele>
        <time>2021-04-11T09:07:50.000Z</time>
      </trkpt>
      <trkpt lat="49.08976" lon="1.30062">
        <ele>102.80000305176</ele>
        <time>2021-04-11T09:07:53.000Z</time>
      </trkpt>
      <trkpt lat="49.0897" lon="1.30052">
        <ele>102.80000305176</ele>
        <time>2021-04-11T09:07:55.000Z</time>
      </trkpt>
      <trkpt lat="49.08958" lon="1.30028">
        <ele>102</ele>
        <time>2021-04-11T09:07:59.000Z</time>
      </trkpt>
      <trkpt lat="49.08954" lon="1.30022">
        <ele>101.80000305176</ele>
        <time>2021-04-11T09:08:00.000Z</time>
      </trkpt>
      <trkpt lat="49.08938" lon="1.29983">
        <ele>101</ele>
        <time>2021-04-11T09:08:06.000Z</time>
      </trkpt>
      <trkpt lat="49.08933" lon="1.29961">
        <ele>100.40000152588</ele>
        <time>2021-04-11T09:08:09.000Z</time>
      </trkpt>
      <trkpt lat="49.08931" lon="1.29939">
        <ele>100</ele>
        <time>2021-04-11T09:08:12.000Z</time>
      </trkpt>
      <trkpt lat="49.08929" lon="1.29902">
        <ele>99.199996948242</ele>
        <time>2021-04-11T09:08:18.000Z</time>
      </trkpt>
      <trkpt lat="49.08926" lon="1.29857">
        <ele>99</ele>
        <time>2021-04-11T09:08:26.000Z</time>
      </trkpt>
      <trkpt lat="49.08926" lon="1.29813">
        <ele>98.599998474121</ele>
        <time>2021-04-11T09:08:32.000Z</time>
      </trkpt>
      <trkpt lat="49.08926" lon="1.29805">
        <ele>98.599998474121</ele>
        <time>2021-04-11T09:08:33.000Z</time>
      </trkpt>
      <trkpt lat="49.08926" lon="1.2975">
        <ele>97.599998474121</ele>
        <time>2021-04-11T09:08:39.000Z</time>
      </trkpt>
      <trkpt lat="49.08928" lon="1.29719">
        <ele>96.599998474121</ele>
        <time>2021-04-11T09:08:42.000Z</time>
      </trkpt>
      <trkpt lat="49.08929" lon="1.29687">
        <ele>95.199996948242</ele>
        <time>2021-04-11T09:08:45.000Z</time>
      </trkpt>
      <trkpt lat="49.0893" lon="1.29657">
        <ele>94.199996948242</ele>
        <time>2021-04-11T09:08:48.000Z</time>
      </trkpt>
      <trkpt lat="49.08931" lon="1.29639">
        <ele>93.400001525879</ele>
        <time>2021-04-11T09:08:50.000Z</time>
      </trkpt>
      <trkpt lat="49.08932" lon="1.2963">
        <ele>93</ele>
        <time>2021-04-11T09:08:51.000Z</time>
      </trkpt>
      <trkpt lat="49.08935" lon="1.29604">
        <ele>92</ele>
        <time>2021-04-11T09:08:54.000Z</time>
      </trkpt>
      <trkpt lat="49.08938" lon="1.29581">
        <ele>90.800003051758</ele>
        <time>2021-04-11T09:08:57.000Z</time>
      </trkpt>
      <trkpt lat="49.08943" lon="1.29539">
        <ele>90</ele>
        <time>2021-04-11T09:09:02.000Z</time>
      </trkpt>
      <trkpt lat="49.08945" lon="1.29531">
        <ele>89.800003051758</ele>
        <time>2021-04-11T09:09:03.000Z</time>
      </trkpt>
      <trkpt lat="49.08953" lon="1.29486">
        <ele>89</ele>
        <time>2021-04-11T09:09:08.000Z</time>
      </trkpt>
      <trkpt lat="49.08954" lon="1.29478">
        <ele>88.400001525879</ele>
        <time>2021-04-11T09:09:09.000Z</time>
      </trkpt>
      <trkpt lat="49.08957" lon="1.29462">
        <ele>88.199996948242</ele>
        <time>2021-04-11T09:09:11.000Z</time>
      </trkpt>
      <trkpt lat="49.08962" lon="1.29448">
        <ele>88.199996948242</ele>
        <time>2021-04-11T09:09:13.000Z</time>
      </trkpt>
      <trkpt lat="49.08964" lon="1.2944">
        <ele>88</ele>
        <time>2021-04-11T09:09:14.000Z</time>
      </trkpt>
      <trkpt lat="49.08973" lon="1.29412">
        <ele>87.599998474121</ele>
        <time>2021-04-11T09:09:19.000Z</time>
      </trkpt>
      <trkpt lat="49.08973" lon="1.29409">
        <ele>87.400001525879</ele>
        <time>2021-04-11T09:09:22.000Z</time>
      </trkpt>
      <trkpt lat="49.08974" lon="1.29406">
        <ele>86</ele>
        <time>2021-04-11T09:09:36.000Z</time>
      </trkpt>
      <trkpt lat="49.08976" lon="1.294">
        <ele>85.599998474121</ele>
        <time>2021-04-11T09:09:38.000Z</time>
      </trkpt>
      <trkpt lat="49.08979" lon="1.29386">
        <ele>85.199996948242</ele>
        <time>2021-04-11T09:09:41.000Z</time>
      </trkpt>
      <trkpt lat="49.08982" lon="1.29376">
        <ele>84.800003051758</ele>
        <time>2021-04-11T09:09:43.000Z</time>
      </trkpt>
      <trkpt lat="49.08986" lon="1.29366">
        <ele>84.599998474121</ele>
        <time>2021-04-11T09:09:45.000Z</time>
      </trkpt>
      <trkpt lat="49.08991" lon="1.29354">
        <ele>84</ele>
        <time>2021-04-11T09:09:47.000Z</time>
      </trkpt>
      <trkpt lat="49.08996" lon="1.29342">
        <ele>83.800003051758</ele>
        <time>2021-04-11T09:09:49.000Z</time>
      </trkpt>
      <trkpt lat="49.09011" lon="1.29295">
        <ele>83.400001525879</ele>
        <time>2021-04-11T09:09:55.000Z</time>
      </trkpt>
      <trkpt lat="49.09013" lon="1.29286">
        <ele>83.400001525879</ele>
        <time>2021-04-11T09:09:56.000Z</time>
      </trkpt>
      <trkpt lat="49.09018" lon="1.29236">
        <ele>83.400001525879</ele>
        <time>2021-04-11T09:10:01.000Z</time>
      </trkpt>
      <trkpt lat="49.09018" lon="1.2916">
        <ele>83</ele>
        <time>2021-04-11T09:10:08.000Z</time>
      </trkpt>
      <trkpt lat="49.0902" lon="1.29099">
        <ele>83</ele>
        <time>2021-04-11T09:10:14.000Z</time>
      </trkpt>
      <trkpt lat="49.09022" lon="1.29069">
        <ele>83</ele>
        <time>2021-04-11T09:10:17.000Z</time>
      </trkpt>
      <trkpt lat="49.09023" lon="1.29026">
        <ele>83</ele>
        <time>2021-04-11T09:10:21.000Z</time>
      </trkpt>
      <trkpt lat="49.09027" lon="1.28939">
        <ele>83</ele>
        <time>2021-04-11T09:10:29.000Z</time>
      </trkpt>
      <trkpt lat="49.09028" lon="1.28928">
        <ele>83</ele>
        <time>2021-04-11T09:10:30.000Z</time>
      </trkpt>
      <trkpt lat="49.0903" lon="1.28845">
        <ele>82.800003051758</ele>
        <time>2021-04-11T09:10:38.000Z</time>
      </trkpt>
      <trkpt lat="49.0903" lon="1.28825">
        <ele>83</ele>
        <time>2021-04-11T09:10:40.000Z</time>
      </trkpt>
      <trkpt lat="49.0903" lon="1.28806">
        <ele>83</ele>
        <time>2021-04-11T09:10:42.000Z</time>
      </trkpt>
      <trkpt lat="49.09026" lon="1.28788">
        <ele>83</ele>
        <time>2021-04-11T09:10:44.000Z</time>
      </trkpt>
      <trkpt lat="49.0902" lon="1.28774">
        <ele>83.199996948242</ele>
        <time>2021-04-11T09:10:46.000Z</time>
      </trkpt>
      <trkpt lat="49.09017" lon="1.28767">
        <ele>83.199996948242</ele>
        <time>2021-04-11T09:10:47.000Z</time>
      </trkpt>
      <trkpt lat="49.09016" lon="1.28761">
        <ele>83.199996948242</ele>
        <time>2021-04-11T09:10:48.000Z</time>
      </trkpt>
      <trkpt lat="49.09021" lon="1.28747">
        <ele>83</ele>
        <time>2021-04-11T09:10:51.000Z</time>
      </trkpt>
      <trkpt lat="49.09028" lon="1.28738">
        <ele>83</ele>
        <time>2021-04-11T09:10:53.000Z</time>
      </trkpt>
      <trkpt lat="49.09036" lon="1.28728">
        <ele>83.199996948242</ele>
        <time>2021-04-11T09:10:55.000Z</time>
      </trkpt>
      <trkpt lat="49.09043" lon="1.28718">
        <ele>83</ele>
        <time>2021-04-11T09:10:57.000Z</time>
      </trkpt>
      <trkpt lat="49.09082" lon="1.28677">
        <ele>83</ele>
        <time>2021-04-11T09:11:06.000Z</time>
      </trkpt>
      <trkpt lat="49.09111" lon="1.28654">
        <ele>83.599998474121</ele>
        <time>2021-04-11T09:11:12.000Z</time>
      </trkpt>
      <trkpt lat="49.09115" lon="1.28651">
        <ele>83.599998474121</ele>
        <time>2021-04-11T09:11:13.000Z</time>
      </trkpt>
      <trkpt lat="49.09158" lon="1.28636">
        <ele>84.199996948242</ele>
        <time>2021-04-11T09:11:21.000Z</time>
      </trkpt>
      <trkpt lat="49.09213" lon="1.28626">
        <ele>84.400001525879</ele>
        <time>2021-04-11T09:11:31.000Z</time>
      </trkpt>
      <trkpt lat="49.09249" lon="1.28616">
        <ele>84.800003051758</ele>
        <time>2021-04-11T09:11:38.000Z</time>
      </trkpt>
      <trkpt lat="49.09296" lon="1.28601">
        <ele>85.199996948242</ele>
        <time>2021-04-11T09:11:47.000Z</time>
      </trkpt>
      <trkpt lat="49.09318" lon="1.28579">
        <ele>85.400001525879</ele>
        <time>2021-04-11T09:11:52.000Z</time>
      </trkpt>
      <trkpt lat="49.09325" lon="1.28566">
        <ele>85.199996948242</ele>
        <time>2021-04-11T09:11:54.000Z</time>
      </trkpt>
      <trkpt lat="49.09344" lon="1.28525">
        <ele>84.800003051758</ele>
        <time>2021-04-11T09:12:00.000Z</time>
      </trkpt>
      <trkpt lat="49.09363" lon="1.28484">
        <ele>84.400001525879</ele>
        <time>2021-04-11T09:12:06.000Z</time>
      </trkpt>
      <trkpt lat="49.09379" lon="1.2845">
        <ele>84</ele>
        <time>2021-04-11T09:12:11.000Z</time>
      </trkpt>
      <trkpt lat="49.09389" lon="1.28429">
        <ele>83.599998474121</ele>
        <time>2021-04-11T09:12:14.000Z</time>
      </trkpt>
      <trkpt lat="49.0941" lon="1.28386">
        <ele>83</ele>
        <time>2021-04-11T09:12:20.000Z</time>
      </trkpt>
      <trkpt lat="49.09413" lon="1.28379">
        <ele>82.800003051758</ele>
        <time>2021-04-11T09:12:21.000Z</time>
      </trkpt>
      <trkpt lat="49.09431" lon="1.2834">
        <ele>82</ele>
        <time>2021-04-11T09:12:27.000Z</time>
      </trkpt>
      <trkpt lat="49.09434" lon="1.28333">
        <ele>81.800003051758</ele>
        <time>2021-04-11T09:12:28.000Z</time>
      </trkpt>
      <trkpt lat="49.09454" lon="1.28295">
        <ele>81</ele>
        <time>2021-04-11T09:12:34.000Z</time>
      </trkpt>
      <trkpt lat="49.09463" lon="1.28275">
        <ele>80.400001525879</ele>
        <time>2021-04-11T09:12:37.000Z</time>
      </trkpt>
      <trkpt lat="49.09467" lon="1.28268">
        <ele>80.199996948242</ele>
        <time>2021-04-11T09:12:38.000Z</time>
      </trkpt>
      <trkpt lat="49.09482" lon="1.28236">
        <ele>79.199996948242</ele>
        <time>2021-04-11T09:12:43.000Z</time>
      </trkpt>
      <trkpt lat="49.095" lon="1.28198">
        <ele>78.199996948242</ele>
        <time>2021-04-11T09:12:49.000Z</time>
      </trkpt>
      <trkpt lat="49.09518" lon="1.28159">
        <ele>77.400001525879</ele>
        <time>2021-04-11T09:12:55.000Z</time>
      </trkpt>
      <trkpt lat="49.09524" lon="1.28147">
        <ele>76.800003051758</ele>
        <time>2021-04-11T09:12:57.000Z</time>
      </trkpt>
      <trkpt lat="49.0953" lon="1.28134">
        <ele>76.400001525879</ele>
        <time>2021-04-11T09:12:59.000Z</time>
      </trkpt>
      <trkpt lat="49.09542" lon="1.28108">
        <ele>75.400001525879</ele>
        <time>2021-04-11T09:13:03.000Z</time>
      </trkpt>
      <trkpt lat="49.09549" lon="1.28094">
        <ele>75</ele>
        <time>2021-04-11T09:13:05.000Z</time>
      </trkpt>
      <trkpt lat="49.09556" lon="1.2808">
        <ele>74.400001525879</ele>
        <time>2021-04-11T09:13:07.000Z</time>
      </trkpt>
      <trkpt lat="49.09572" lon="1.28045">
        <ele>73.199996948242</ele>
        <time>2021-04-11T09:13:12.000Z</time>
      </trkpt>
      <trkpt lat="49.09582" lon="1.28025">
        <ele>72.599998474121</ele>
        <time>2021-04-11T09:13:15.000Z</time>
      </trkpt>
      <trkpt lat="49.09585" lon="1.28018">
        <ele>72.199996948242</ele>
        <time>2021-04-11T09:13:16.000Z</time>
      </trkpt>
      <trkpt lat="49.09598" lon="1.2799">
        <ele>71.400001525879</ele>
        <time>2021-04-11T09:13:20.000Z</time>
      </trkpt>
      <trkpt lat="49.09608" lon="1.27969">
        <ele>70.199996948242</ele>
        <time>2021-04-11T09:13:23.000Z</time>
      </trkpt>
      <trkpt lat="49.09619" lon="1.2795">
        <ele>69.400001525879</ele>
        <time>2021-04-11T09:13:26.000Z</time>
      </trkpt>
      <trkpt lat="49.09633" lon="1.27922">
        <ele>68</ele>
        <time>2021-04-11T09:13:30.000Z</time>
      </trkpt>
      <trkpt lat="49.09643" lon="1.279">
        <ele>67</ele>
        <time>2021-04-11T09:13:33.000Z</time>
      </trkpt>
      <trkpt lat="49.09646" lon="1.27893">
        <ele>66.599998474121</ele>
        <time>2021-04-11T09:13:34.000Z</time>
      </trkpt>
      <trkpt lat="49.09651" lon="1.27879">
        <ele>66</ele>
        <time>2021-04-11T09:13:36.000Z</time>
      </trkpt>
      <trkpt lat="49.09654" lon="1.27873">
        <ele>65.599998474121</ele>
        <time>2021-04-11T09:13:37.000Z</time>
      </trkpt>
      <trkpt lat="49.09661" lon="1.27859">
        <ele>65</ele>
        <time>2021-04-11T09:13:39.000Z</time>
      </trkpt>
      <trkpt lat="49.0967" lon="1.27837">
        <ele>63.799999237061</ele>
        <time>2021-04-11T09:13:42.000Z</time>
      </trkpt>
      <trkpt lat="49.0968" lon="1.27816">
        <ele>63</ele>
        <time>2021-04-11T09:13:45.000Z</time>
      </trkpt>
      <trkpt lat="49.09686" lon="1.27803">
        <ele>62.200000762939</ele>
        <time>2021-04-11T09:13:47.000Z</time>
      </trkpt>
      <trkpt lat="49.09689" lon="1.27796">
        <ele>61.799999237061</ele>
        <time>2021-04-11T09:13:48.000Z</time>
      </trkpt>
      <trkpt lat="49.09699" lon="1.27776">
        <ele>60.599998474121</ele>
        <time>2021-04-11T09:13:51.000Z</time>
      </trkpt>
      <trkpt lat="49.09705" lon="1.27763">
        <ele>59.599998474121</ele>
        <time>2021-04-11T09:13:53.000Z</time>
      </trkpt>
      <trkpt lat="49.09712" lon="1.27749">
        <ele>58.599998474121</ele>
        <time>2021-04-11T09:13:55.000Z</time>
      </trkpt>
      <trkpt lat="49.09715" lon="1.27741">
        <ele>58.200000762939</ele>
        <time>2021-04-11T09:13:56.000Z</time>
      </trkpt>
      <trkpt lat="49.09725" lon="1.2772">
        <ele>56.799999237061</ele>
        <time>2021-04-11T09:13:59.000Z</time>
      </trkpt>
      <trkpt lat="49.09734" lon="1.277">
        <ele>55.799999237061</ele>
        <time>2021-04-11T09:14:02.000Z</time>
      </trkpt>
      <trkpt lat="49.0974" lon="1.27687">
        <ele>55</ele>
        <time>2021-04-11T09:14:04.000Z</time>
      </trkpt>
      <trkpt lat="49.09743" lon="1.2768">
        <ele>54.599998474121</ele>
        <time>2021-04-11T09:14:05.000Z</time>
      </trkpt>
      <trkpt lat="49.09746" lon="1.27673">
        <ele>54.200000762939</ele>
        <time>2021-04-11T09:14:06.000Z</time>
      </trkpt>
      <trkpt lat="49.09749" lon="1.27656">
        <ele>53.400001525879</ele>
        <time>2021-04-11T09:14:08.000Z</time>
      </trkpt>
      <trkpt lat="49.0975" lon="1.27647">
        <ele>52.799999237061</ele>
        <time>2021-04-11T09:14:09.000Z</time>
      </trkpt>
      <trkpt lat="49.09751" lon="1.27629">
        <ele>52.400001525879</ele>
        <time>2021-04-11T09:14:11.000Z</time>
      </trkpt>
      <trkpt lat="49.09754" lon="1.27589">
        <ele>51.200000762939</ele>
        <time>2021-04-11T09:14:15.000Z</time>
      </trkpt>
      <trkpt lat="49.09757" lon="1.27569">
        <ele>50.599998474121</ele>
        <time>2021-04-11T09:14:17.000Z</time>
      </trkpt>
      <trkpt lat="49.0976" lon="1.2755">
        <ele>49.799999237061</ele>
        <time>2021-04-11T09:14:19.000Z</time>
      </trkpt>
      <trkpt lat="49.09765" lon="1.27523">
        <ele>48.400001525879</ele>
        <time>2021-04-11T09:14:22.000Z</time>
      </trkpt>
      <trkpt lat="49.09769" lon="1.27506">
        <ele>47.599998474121</ele>
        <time>2021-04-11T09:14:24.000Z</time>
      </trkpt>
      <trkpt lat="49.09771" lon="1.27497">
        <ele>47.200000762939</ele>
        <time>2021-04-11T09:14:25.000Z</time>
      </trkpt>
      <trkpt lat="49.09778" lon="1.27469">
        <ele>46</ele>
        <time>2021-04-11T09:14:28.000Z</time>
      </trkpt>
      <trkpt lat="49.09784" lon="1.27442">
        <ele>44.799999237061</ele>
        <time>2021-04-11T09:14:31.000Z</time>
      </trkpt>
      <trkpt lat="49.09788" lon="1.27425">
        <ele>44</ele>
        <time>2021-04-11T09:14:33.000Z</time>
      </trkpt>
      <trkpt lat="49.09791" lon="1.27416">
        <ele>43.599998474121</ele>
        <time>2021-04-11T09:14:34.000Z</time>
      </trkpt>
      <trkpt lat="49.09798" lon="1.27389">
        <ele>42.599998474121</ele>
        <time>2021-04-11T09:14:37.000Z</time>
      </trkpt>
      <trkpt lat="49.09806" lon="1.27353">
        <ele>41.599998474121</ele>
        <time>2021-04-11T09:14:41.000Z</time>
      </trkpt>
      <trkpt lat="49.09813" lon="1.27327">
        <ele>40.400001525879</ele>
        <time>2021-04-11T09:14:44.000Z</time>
      </trkpt>
      <trkpt lat="49.09821" lon="1.27292">
        <ele>38.400001525879</ele>
        <time>2021-04-11T09:14:48.000Z</time>
      </trkpt>
      <trkpt lat="49.09827" lon="1.27265">
        <ele>37.200000762939</ele>
        <time>2021-04-11T09:14:51.000Z</time>
      </trkpt>
      <trkpt lat="49.09829" lon="1.27256">
        <ele>36.799999237061</ele>
        <time>2021-04-11T09:14:52.000Z</time>
      </trkpt>
      <trkpt lat="49.09835" lon="1.2723">
        <ele>35.799999237061</ele>
        <time>2021-04-11T09:14:55.000Z</time>
      </trkpt>
      <trkpt lat="49.09844" lon="1.27196">
        <ele>34.599998474121</ele>
        <time>2021-04-11T09:14:59.000Z</time>
      </trkpt>
      <trkpt lat="49.09852" lon="1.27173">
        <ele>33.400001525879</ele>
        <time>2021-04-11T09:15:02.000Z</time>
      </trkpt>
      <trkpt lat="49.09861" lon="1.2715">
        <ele>32.400001525879</ele>
        <time>2021-04-11T09:15:05.000Z</time>
      </trkpt>
      <trkpt lat="49.0987" lon="1.27129">
        <ele>31.60000038147</ele>
        <time>2021-04-11T09:15:08.000Z</time>
      </trkpt>
      <trkpt lat="49.09878" lon="1.27108">
        <ele>30.60000038147</ele>
        <time>2021-04-11T09:15:11.000Z</time>
      </trkpt>
      <trkpt lat="49.0989" lon="1.2708">
        <ele>29.39999961853</ele>
        <time>2021-04-11T09:15:15.000Z</time>
      </trkpt>
      <trkpt lat="49.09899" lon="1.27059">
        <ele>28.200000762939</ele>
        <time>2021-04-11T09:15:18.000Z</time>
      </trkpt>
      <trkpt lat="49.09915" lon="1.27024">
        <ele>27.200000762939</ele>
        <time>2021-04-11T09:15:23.000Z</time>
      </trkpt>
      <trkpt lat="49.0993" lon="1.26989">
        <ele>26.39999961853</ele>
        <time>2021-04-11T09:15:28.000Z</time>
      </trkpt>
      <trkpt lat="49.09933" lon="1.26982">
        <ele>26.200000762939</ele>
        <time>2021-04-11T09:15:29.000Z</time>
      </trkpt>
      <trkpt lat="49.09948" lon="1.26947">
        <ele>25.200000762939</ele>
        <time>2021-04-11T09:15:34.000Z</time>
      </trkpt>
      <trkpt lat="49.09957" lon="1.26926">
        <ele>24.799999237061</ele>
        <time>2021-04-11T09:15:37.000Z</time>
      </trkpt>
      <trkpt lat="49.0997" lon="1.26893">
        <ele>24.200000762939</ele>
        <time>2021-04-11T09:15:42.000Z</time>
      </trkpt>
      <trkpt lat="49.09975" lon="1.26879">
        <ele>24</ele>
        <time>2021-04-11T09:15:44.000Z</time>
      </trkpt>
      <trkpt lat="49.09984" lon="1.26852">
        <ele>23.200000762939</ele>
        <time>2021-04-11T09:15:48.000Z</time>
      </trkpt>
      <trkpt lat="49.09991" lon="1.26831">
        <ele>22.799999237061</ele>
        <time>2021-04-11T09:15:51.000Z</time>
      </trkpt>
      <trkpt lat="49.1" lon="1.2683">
        <ele>22.60000038147</ele>
        <time>2021-04-11T09:15:53.000Z</time>
      </trkpt>
      <trkpt lat="49.10008" lon="1.2684">
        <ele>22.200000762939</ele>
        <time>2021-04-11T09:15:55.000Z</time>
      </trkpt>
      <trkpt lat="49.10012" lon="1.26845">
        <ele>22.200000762939</ele>
        <time>2021-04-11T09:15:56.000Z</time>
      </trkpt>
      <trkpt lat="49.10016" lon="1.2685">
        <ele>22</ele>
        <time>2021-04-11T09:15:57.000Z</time>
      </trkpt>
      <trkpt lat="49.10053" lon="1.26893">
        <ele>21.39999961853</ele>
        <time>2021-04-11T09:16:06.000Z</time>
      </trkpt>
      <trkpt lat="49.10062" lon="1.26902">
        <ele>21.200000762939</ele>
        <time>2021-04-11T09:16:08.000Z</time>
      </trkpt>
      <trkpt lat="49.10095" lon="1.26938">
        <ele>20.60000038147</ele>
        <time>2021-04-11T09:16:16.000Z</time>
      </trkpt>
      <trkpt lat="49.10132" lon="1.26976">
        <ele>20.200000762939</ele>
        <time>2021-04-11T09:16:25.000Z</time>
      </trkpt>
      <trkpt lat="49.10149" lon="1.26991">
        <ele>20</ele>
        <time>2021-04-11T09:16:29.000Z</time>
      </trkpt>
      <trkpt lat="49.10168" lon="1.27007">
        <ele>19.60000038147</ele>
        <time>2021-04-11T09:16:34.000Z</time>
      </trkpt>
      <trkpt lat="49.10214" lon="1.27043">
        <ele>19.60000038147</ele>
        <time>2021-04-11T09:16:46.000Z</time>
      </trkpt>
      <trkpt lat="49.10245" lon="1.27076">
        <ele>20.200000762939</ele>
        <time>2021-04-11T09:16:55.000Z</time>
      </trkpt>
      <trkpt lat="49.10253" lon="1.27086">
        <ele>20.200000762939</ele>
        <time>2021-04-11T09:16:58.000Z</time>
      </trkpt>
      <trkpt lat="49.10256" lon="1.27083">
        <ele>20.200000762939</ele>
        <time>2021-04-11T09:16:59.000Z</time>
      </trkpt>
      <trkpt lat="49.10266" lon="1.27059">
        <ele>20.39999961853</ele>
        <time>2021-04-11T09:17:04.000Z</time>
      </trkpt>
      <trkpt lat="49.10281" lon="1.27019">
        <ele>21</ele>
        <time>2021-04-11T09:17:11.000Z</time>
      </trkpt>
      <trkpt lat="49.10283" lon="1.27013">
        <ele>21</ele>
        <time>2021-04-11T09:17:12.000Z</time>
      </trkpt>
      <trkpt lat="49.10292" lon="1.26991">
        <ele>21.200000762939</ele>
        <time>2021-04-11T09:17:18.000Z</time>
      </trkpt>
      <trkpt lat="49.10292" lon="1.26991">
        <ele>21.200000762939</ele>
        <time>2021-04-11T09:17:19.000Z</time>
      </trkpt>
      <trkpt lat="49.10292" lon="1.26988">
        <ele>21.200000762939</ele>
        <time>2021-04-11T09:17:27.000Z</time>
      </trkpt>
      <trkpt lat="49.10295" lon="1.26979">
        <ele>21.200000762939</ele>
        <time>2021-04-11T09:17:29.000Z</time>
      </trkpt>
      <trkpt lat="49.10313" lon="1.26936">
        <ele>21.200000762939</ele>
        <time>2021-04-11T09:17:37.000Z</time>
      </trkpt>
      <trkpt lat="49.10335" lon="1.26878">
        <ele>20.799999237061</ele>
        <time>2021-04-11T09:17:47.000Z</time>
      </trkpt>
      <trkpt lat="49.10354" lon="1.2683">
        <ele>21</ele>
        <time>2021-04-11T09:17:55.000Z</time>
      </trkpt>
      <trkpt lat="49.10369" lon="1.26793">
        <ele>21.39999961853</ele>
        <time>2021-04-11T09:18:02.000Z</time>
      </trkpt>
      <trkpt lat="49.10374" lon="1.26783">
        <ele>21.60000038147</ele>
        <time>2021-04-11T09:18:04.000Z</time>
      </trkpt>
      <trkpt lat="49.10384" lon="1.26757">
        <ele>21.799999237061</ele>
        <time>2021-04-11T09:18:09.000Z</time>
      </trkpt>
      <trkpt lat="49.104" lon="1.26715">
        <ele>22</ele>
        <time>2021-04-11T09:18:17.000Z</time>
      </trkpt>
      <trkpt lat="49.10409" lon="1.26693">
        <ele>21.799999237061</ele>
        <time>2021-04-11T09:18:21.000Z</time>
      </trkpt>
      <trkpt lat="49.10415" lon="1.26677">
        <ele>21.799999237061</ele>
        <time>2021-04-11T09:18:24.000Z</time>
      </trkpt>
      <trkpt lat="49.10432" lon="1.26638">
        <ele>21.799999237061</ele>
        <time>2021-04-11T09:18:32.000Z</time>
      </trkpt>
      <trkpt lat="49.10436" lon="1.26627">
        <ele>22</ele>
        <time>2021-04-11T09:18:36.000Z</time>
      </trkpt>
      <trkpt lat="49.10435" lon="1.26624">
        <ele>22</ele>
        <time>2021-04-11T09:18:37.000Z</time>
      </trkpt>
      <trkpt lat="49.10427" lon="1.26613">
        <ele>22</ele>
        <time>2021-04-11T09:18:40.000Z</time>
      </trkpt>
      <trkpt lat="49.10423" lon="1.2661">
        <ele>22.200000762939</ele>
        <time>2021-04-11T09:18:41.000Z</time>
      </trkpt>
      <trkpt lat="49.10405" lon="1.26599">
        <ele>22.200000762939</ele>
        <time>2021-04-11T09:18:45.000Z</time>
      </trkpt>
      <trkpt lat="49.104" lon="1.26596">
        <ele>22.200000762939</ele>
        <time>2021-04-11T09:18:46.000Z</time>
      </trkpt>
      <trkpt lat="49.1036" lon="1.26573">
        <ele>22</ele>
        <time>2021-04-11T09:18:53.000Z</time>
      </trkpt>
      <trkpt lat="49.1032" lon="1.26546">
        <ele>21.200000762939</ele>
        <time>2021-04-11T09:19:00.000Z</time>
      </trkpt>
      <trkpt lat="49.10295" lon="1.26521">
        <ele>20.39999961853</ele>
        <time>2021-04-11T09:19:05.000Z</time>
      </trkpt>
      <trkpt lat="49.1029" lon="1.26515">
        <ele>20.200000762939</ele>
        <time>2021-04-11T09:19:06.000Z</time>
      </trkpt>
      <trkpt lat="49.10265" lon="1.2649">
        <ele>19</ele>
        <time>2021-04-11T09:19:11.000Z</time>
      </trkpt>
      <trkpt lat="49.10252" lon="1.26476">
        <ele>18.39999961853</ele>
        <time>2021-04-11T09:19:14.000Z</time>
      </trkpt>
      <trkpt lat="49.10243" lon="1.26467">
        <ele>18</ele>
        <time>2021-04-11T09:19:16.000Z</time>
      </trkpt>
      <trkpt lat="49.10234" lon="1.26458">
        <ele>17.60000038147</ele>
        <time>2021-04-11T09:19:18.000Z</time>
      </trkpt>
      <trkpt lat="49.10231" lon="1.26454">
        <ele>17.39999961853</ele>
        <time>2021-04-11T09:19:19.000Z</time>
      </trkpt>
      <trkpt lat="49.10233" lon="1.26438">
        <ele>17</ele>
        <time>2021-04-11T09:19:22.000Z</time>
      </trkpt>
      <trkpt lat="49.10236" lon="1.26433">
        <ele>16.799999237061</ele>
        <time>2021-04-11T09:19:23.000Z</time>
      </trkpt>
      <trkpt lat="49.10238" lon="1.26427">
        <ele>16.60000038147</ele>
        <time>2021-04-11T09:19:24.000Z</time>
      </trkpt>
      <trkpt lat="49.10249" lon="1.26402">
        <ele>16</ele>
        <time>2021-04-11T09:19:28.000Z</time>
      </trkpt>
      <trkpt lat="49.10252" lon="1.26396">
        <ele>15.800000190735</ele>
        <time>2021-04-11T09:19:29.000Z</time>
      </trkpt>
      <trkpt lat="49.10256" lon="1.26392">
        <ele>15.800000190735</ele>
        <time>2021-04-11T09:19:30.000Z</time>
      </trkpt>
      <trkpt lat="49.10263" lon="1.26385">
        <ele>15.39999961853</ele>
        <time>2021-04-11T09:19:32.000Z</time>
      </trkpt>
      <trkpt lat="49.10267" lon="1.26377">
        <ele>15.39999961853</ele>
        <time>2021-04-11T09:19:35.000Z</time>
      </trkpt>
      <trkpt lat="49.10261" lon="1.26366">
        <ele>15</ele>
        <time>2021-04-11T09:19:38.000Z</time>
      </trkpt>
      <trkpt lat="49.10267" lon="1.2634">
        <ele>14.800000190735</ele>
        <time>2021-04-11T09:19:42.000Z</time>
      </trkpt>
      <trkpt lat="49.10269" lon="1.26333">
        <ele>14.800000190735</ele>
        <time>2021-04-11T09:19:43.000Z</time>
      </trkpt>
      <trkpt lat="49.10271" lon="1.26327">
        <ele>14.60000038147</ele>
        <time>2021-04-11T09:19:44.000Z</time>
      </trkpt>
      <trkpt lat="49.10273" lon="1.26306">
        <ele>14.39999961853</ele>
        <time>2021-04-11T09:19:47.000Z</time>
      </trkpt>
      <trkpt lat="49.10266" lon="1.26278">
        <ele>13.800000190735</ele>
        <time>2021-04-11T09:19:51.000Z</time>
      </trkpt>
      <trkpt lat="49.10251" lon="1.26258">
        <ele>13.60000038147</ele>
        <time>2021-04-11T09:19:55.000Z</time>
      </trkpt>
      <trkpt lat="49.10219" lon="1.2622">
        <ele>13.800000190735</ele>
        <time>2021-04-11T09:20:03.000Z</time>
      </trkpt>
      <trkpt lat="49.10205" lon="1.26199">
        <ele>13.800000190735</ele>
        <time>2021-04-11T09:20:08.000Z</time>
      </trkpt>
      <trkpt lat="49.10206" lon="1.26189">
        <ele>13.800000190735</ele>
        <time>2021-04-11T09:20:10.000Z</time>
      </trkpt>
      <trkpt lat="49.1021" lon="1.2618">
        <ele>13.800000190735</ele>
        <time>2021-04-11T09:20:12.000Z</time>
      </trkpt>
      <trkpt lat="49.10229" lon="1.26135">
        <ele>13.800000190735</ele>
        <time>2021-04-11T09:20:20.000Z</time>
      </trkpt>
      <trkpt lat="49.10233" lon="1.26125">
        <ele>13.60000038147</ele>
        <time>2021-04-11T09:20:22.000Z</time>
      </trkpt>
      <trkpt lat="49.10235" lon="1.2612">
        <ele>13.60000038147</ele>
        <time>2021-04-11T09:20:23.000Z</time>
      </trkpt>
      <trkpt lat="49.10245" lon="1.26096">
        <ele>13.39999961853</ele>
        <time>2021-04-11T09:20:27.000Z</time>
      </trkpt>
      <trkpt lat="49.1027" lon="1.26034">
        <ele>13.39999961853</ele>
        <time>2021-04-11T09:20:37.000Z</time>
      </trkpt>
      <trkpt lat="49.10281" lon="1.26009">
        <ele>13.199999809265</ele>
        <time>2021-04-11T09:20:41.000Z</time>
      </trkpt>
      <trkpt lat="49.10292" lon="1.25995">
        <ele>13</ele>
        <time>2021-04-11T09:20:44.000Z</time>
      </trkpt>
      <trkpt lat="49.10296" lon="1.25992">
        <ele>13</ele>
        <time>2021-04-11T09:20:45.000Z</time>
      </trkpt>
      <trkpt lat="49.103" lon="1.25988">
        <ele>13</ele>
        <time>2021-04-11T09:20:46.000Z</time>
      </trkpt>
      <trkpt lat="49.1031" lon="1.25975">
        <ele>13</ele>
        <time>2021-04-11T09:20:49.000Z</time>
      </trkpt>
      <trkpt lat="49.10313" lon="1.25971">
        <ele>13</ele>
        <time>2021-04-11T09:20:50.000Z</time>
      </trkpt>
      <trkpt lat="49.10317" lon="1.25967">
        <ele>13</ele>
        <time>2021-04-11T09:20:51.000Z</time>
      </trkpt>
      <trkpt lat="49.10338" lon="1.25941">
        <ele>12.60000038147</ele>
        <time>2021-04-11T09:20:57.000Z</time>
      </trkpt>
      <trkpt lat="49.10379" lon="1.25888">
        <ele>12.60000038147</ele>
        <time>2021-04-11T09:21:08.000Z</time>
      </trkpt>
      <trkpt lat="49.10405" lon="1.25846">
        <ele>12.39999961853</ele>
        <time>2021-04-11T09:21:16.000Z</time>
      </trkpt>
      <trkpt lat="49.10429" lon="1.25798">
        <ele>12.39999961853</ele>
        <time>2021-04-11T09:21:24.000Z</time>
      </trkpt>
      <trkpt lat="49.10457" lon="1.25745">
        <ele>12.60000038147</ele>
        <time>2021-04-11T09:21:33.000Z</time>
      </trkpt>
      <trkpt lat="49.10487" lon="1.25693">
        <ele>12.800000190735</ele>
        <time>2021-04-11T09:21:42.000Z</time>
      </trkpt>
      <trkpt lat="49.10517" lon="1.25641">
        <ele>12.800000190735</ele>
        <time>2021-04-11T09:21:51.000Z</time>
      </trkpt>
      <trkpt lat="49.1055" lon="1.25584">
        <ele>12</ele>
        <time>2021-04-11T09:22:01.000Z</time>
      </trkpt>
      <trkpt lat="49.10554" lon="1.25579">
        <ele>12</ele>
        <time>2021-04-11T09:22:02.000Z</time>
      </trkpt>
      <trkpt lat="49.10584" lon="1.25529">
        <ele>11</ele>
        <time>2021-04-11T09:22:11.000Z</time>
      </trkpt>
      <trkpt lat="49.10606" lon="1.25492">
        <ele>11</ele>
        <time>2021-04-11T09:22:18.000Z</time>
      </trkpt>
      <trkpt lat="49.10631" lon="1.25451">
        <ele>11.199999809265</ele>
        <time>2021-04-11T09:22:26.000Z</time>
      </trkpt>
      <trkpt lat="49.10663" lon="1.25396">
        <ele>11.60000038147</ele>
        <time>2021-04-11T09:22:37.000Z</time>
      </trkpt>
      <trkpt lat="49.10694" lon="1.25344">
        <ele>11.800000190735</ele>
        <time>2021-04-11T09:22:47.000Z</time>
      </trkpt>
      <trkpt lat="49.10723" lon="1.2529">
        <ele>12.199999809265</ele>
        <time>2021-04-11T09:22:57.000Z</time>
      </trkpt>
      <trkpt lat="49.10746" lon="1.25249">
        <ele>12.199999809265</ele>
        <time>2021-04-11T09:23:05.000Z</time>
      </trkpt>
      <trkpt lat="49.10768" lon="1.2521">
        <ele>12.199999809265</ele>
        <time>2021-04-11T09:23:13.000Z</time>
      </trkpt>
      <trkpt lat="49.10785" lon="1.25179">
        <ele>12.39999961853</ele>
        <time>2021-04-11T09:23:19.000Z</time>
      </trkpt>
      <trkpt lat="49.10794" lon="1.25164">
        <ele>12.60000038147</ele>
        <time>2021-04-11T09:23:22.000Z</time>
      </trkpt>
      <trkpt lat="49.10814" lon="1.25129">
        <ele>12.800000190735</ele>
        <time>2021-04-11T09:23:29.000Z</time>
      </trkpt>
      <trkpt lat="49.10843" lon="1.25086">
        <ele>13</ele>
        <time>2021-04-11T09:23:38.000Z</time>
      </trkpt>
      <trkpt lat="49.10871" lon="1.25045">
        <ele>13.39999961853</ele>
        <time>2021-04-11T09:23:47.000Z</time>
      </trkpt>
      <trkpt lat="49.10886" lon="1.25022">
        <ele>13.60000038147</ele>
        <time>2021-04-11T09:23:52.000Z</time>
      </trkpt>
      <trkpt lat="49.10896" lon="1.25008">
        <ele>13.60000038147</ele>
        <time>2021-04-11T09:23:55.000Z</time>
      </trkpt>
      <trkpt lat="49.10923" lon="1.24967">
        <ele>13.800000190735</ele>
        <time>2021-04-11T09:24:04.000Z</time>
      </trkpt>
      <trkpt lat="49.10941" lon="1.24939">
        <ele>14</ele>
        <time>2021-04-11T09:24:10.000Z</time>
      </trkpt>
      <trkpt lat="49.10944" lon="1.24935">
        <ele>14</ele>
        <time>2021-04-11T09:24:11.000Z</time>
      </trkpt>
      <trkpt lat="49.10951" lon="1.24936">
        <ele>14.199999809265</ele>
        <time>2021-04-11T09:24:14.000Z</time>
      </trkpt>
      <trkpt lat="49.10953" lon="1.24942">
        <ele>14.39999961853</ele>
        <time>2021-04-11T09:24:16.000Z</time>
      </trkpt>
      <trkpt lat="49.10957" lon="1.24948">
        <ele>14.60000038147</ele>
        <time>2021-04-11T09:24:18.000Z</time>
      </trkpt>
      <trkpt lat="49.1096" lon="1.24954">
        <ele>14.60000038147</ele>
        <time>2021-04-11T09:24:20.000Z</time>
      </trkpt>
      <trkpt lat="49.10967" lon="1.24966">
        <ele>15.39999961853</ele>
        <time>2021-04-11T09:24:24.000Z</time>
      </trkpt>
      <trkpt lat="49.10969" lon="1.2497">
        <ele>15.60000038147</ele>
        <time>2021-04-11T09:24:25.000Z</time>
      </trkpt>
      <trkpt lat="49.10981" lon="1.24997">
        <ele>16</ele>
        <time>2021-04-11T09:24:33.000Z</time>
      </trkpt>
      <trkpt lat="49.10983" lon="1.25003">
        <ele>16.39999961853</ele>
        <time>2021-04-11T09:24:35.000Z</time>
      </trkpt>
      <trkpt lat="49.1099" lon="1.2502">
        <ele>17.200000762939</ele>
        <time>2021-04-11T09:24:40.000Z</time>
      </trkpt>
      <trkpt lat="49.10991" lon="1.25023">
        <ele>17.39999961853</ele>
        <time>2021-04-11T09:24:41.000Z</time>
      </trkpt>
      <trkpt lat="49.10998" lon="1.25039">
        <ele>18.39999961853</ele>
        <time>2021-04-11T09:24:46.000Z</time>
      </trkpt>
      <trkpt lat="49.11005" lon="1.25058">
        <ele>19.39999961853</ele>
        <time>2021-04-11T09:24:52.000Z</time>
      </trkpt>
      <trkpt lat="49.11006" lon="1.25061">
        <ele>19.60000038147</ele>
        <time>2021-04-11T09:24:53.000Z</time>
      </trkpt>
      <trkpt lat="49.11013" lon="1.25075">
        <ele>20.799999237061</ele>
        <time>2021-04-11T09:24:58.000Z</time>
      </trkpt>
      <trkpt lat="49.11018" lon="1.25081">
        <ele>21.39999961853</ele>
        <time>2021-04-11T09:25:01.000Z</time>
      </trkpt>
      <trkpt lat="49.11021" lon="1.25084">
        <ele>21.799999237061</ele>
        <time>2021-04-11T09:25:03.000Z</time>
      </trkpt>
      <trkpt lat="49.1103" lon="1.25094">
        <ele>22.799999237061</ele>
        <time>2021-04-11T09:25:08.000Z</time>
      </trkpt>
      <trkpt lat="49.11032" lon="1.25095">
        <ele>23</ele>
        <time>2021-04-11T09:25:09.000Z</time>
      </trkpt>
      <trkpt lat="49.11041" lon="1.25104">
        <ele>24</ele>
        <time>2021-04-11T09:25:14.000Z</time>
      </trkpt>
      <trkpt lat="49.11042" lon="1.25106">
        <ele>24.200000762939</ele>
        <time>2021-04-11T09:25:15.000Z</time>
      </trkpt>
      <trkpt lat="49.11049" lon="1.25114">
        <ele>24.799999237061</ele>
        <time>2021-04-11T09:25:19.000Z</time>
      </trkpt>
      <trkpt lat="49.11055" lon="1.25121">
        <ele>25.60000038147</ele>
        <time>2021-04-11T09:25:23.000Z</time>
      </trkpt>
      <trkpt lat="49.11058" lon="1.25125">
        <ele>26</ele>
        <time>2021-04-11T09:25:25.000Z</time>
      </trkpt>
      <trkpt lat="49.11068" lon="1.25137">
        <ele>27</ele>
        <time>2021-04-11T09:25:33.000Z</time>
      </trkpt>
      <trkpt lat="49.11078" lon="1.25148">
        <ele>28.200000762939</ele>
        <time>2021-04-11T09:25:39.000Z</time>
      </trkpt>
      <trkpt lat="49.11082" lon="1.25153">
        <ele>28.799999237061</ele>
        <time>2021-04-11T09:25:42.000Z</time>
      </trkpt>
      <trkpt lat="49.11087" lon="1.25158">
        <ele>29.200000762939</ele>
        <time>2021-04-11T09:25:45.000Z</time>
      </trkpt>
      <trkpt lat="49.11094" lon="1.25167">
        <ele>30.200000762939</ele>
        <time>2021-04-11T09:25:50.000Z</time>
      </trkpt>
      <trkpt lat="49.11095" lon="1.25169">
        <ele>30.200000762939</ele>
        <time>2021-04-11T09:25:51.000Z</time>
      </trkpt>
      <trkpt lat="49.11101" lon="1.25176">
        <ele>31.200000762939</ele>
        <time>2021-04-11T09:25:55.000Z</time>
      </trkpt>
      <trkpt lat="49.11108" lon="1.25185">
        <ele>32.200000762939</ele>
        <time>2021-04-11T09:26:00.000Z</time>
      </trkpt>
      <trkpt lat="49.1111" lon="1.25186">
        <ele>32.400001525879</ele>
        <time>2021-04-11T09:26:01.000Z</time>
      </trkpt>
      <trkpt lat="49.11116" lon="1.25193">
        <ele>33.200000762939</ele>
        <time>2021-04-11T09:26:05.000Z</time>
      </trkpt>
      <trkpt lat="49.11123" lon="1.25201">
        <ele>34.200000762939</ele>
        <time>2021-04-11T09:26:10.000Z</time>
      </trkpt>
      <trkpt lat="49.11126" lon="1.25204">
        <ele>34.599998474121</ele>
        <time>2021-04-11T09:26:12.000Z</time>
      </trkpt>
      <trkpt lat="49.11132" lon="1.25211">
        <ele>35.400001525879</ele>
        <time>2021-04-11T09:26:16.000Z</time>
      </trkpt>
      <trkpt lat="49.11139" lon="1.25216">
        <ele>36.400001525879</ele>
        <time>2021-04-11T09:26:20.000Z</time>
      </trkpt>
      <trkpt lat="49.11142" lon="1.25219">
        <ele>37</ele>
        <time>2021-04-11T09:26:22.000Z</time>
      </trkpt>
      <trkpt lat="49.11145" lon="1.25223">
        <ele>37.400001525879</ele>
        <time>2021-04-11T09:26:24.000Z</time>
      </trkpt>
      <trkpt lat="49.11153" lon="1.25232">
        <ele>38.599998474121</ele>
        <time>2021-04-11T09:26:30.000Z</time>
      </trkpt>
      <trkpt lat="49.11161" lon="1.2524">
        <ele>39.799999237061</ele>
        <time>2021-04-11T09:26:36.000Z</time>
      </trkpt>
      <trkpt lat="49.11164" lon="1.25242">
        <ele>40.599998474121</ele>
        <time>2021-04-11T09:26:38.000Z</time>
      </trkpt>
      <trkpt lat="49.11165" lon="1.25243">
        <ele>41</ele>
        <time>2021-04-11T09:26:39.000Z</time>
      </trkpt>
      <trkpt lat="49.1117" lon="1.25248">
        <ele>41.799999237061</ele>
        <time>2021-04-11T09:26:43.000Z</time>
      </trkpt>
      <trkpt lat="49.11175" lon="1.25253">
        <ele>42.599998474121</ele>
        <time>2021-04-11T09:26:47.000Z</time>
      </trkpt>
      <trkpt lat="49.11176" lon="1.25254">
        <ele>42.799999237061</ele>
        <time>2021-04-11T09:26:48.000Z</time>
      </trkpt>
      <trkpt lat="49.11182" lon="1.25263">
        <ele>44</ele>
        <time>2021-04-11T09:26:54.000Z</time>
      </trkpt>
      <trkpt lat="49.11183" lon="1.25264">
        <ele>44.200000762939</ele>
        <time>2021-04-11T09:26:55.000Z</time>
      </trkpt>
      <trkpt lat="49.11187" lon="1.2527">
        <ele>45.400001525879</ele>
        <time>2021-04-11T09:26:59.000Z</time>
      </trkpt>
      <trkpt lat="49.11191" lon="1.25277">
        <ele>46.400001525879</ele>
        <time>2021-04-11T09:27:03.000Z</time>
      </trkpt>
      <trkpt lat="49.11192" lon="1.25278">
        <ele>46.599998474121</ele>
        <time>2021-04-11T09:27:04.000Z</time>
      </trkpt>
      <trkpt lat="49.11196" lon="1.25284">
        <ele>47.599998474121</ele>
        <time>2021-04-11T09:27:08.000Z</time>
      </trkpt>
      <trkpt lat="49.11201" lon="1.25291">
        <ele>48.599998474121</ele>
        <time>2021-04-11T09:27:13.000Z</time>
      </trkpt>
      <trkpt lat="49.11205" lon="1.25296">
        <ele>49.599998474121</ele>
        <time>2021-04-11T09:27:17.000Z</time>
      </trkpt>
      <trkpt lat="49.11207" lon="1.25298">
        <ele>50</ele>
        <time>2021-04-11T09:27:19.000Z</time>
      </trkpt>
      <trkpt lat="49.11213" lon="1.253">
        <ele>50.799999237061</ele>
        <time>2021-04-11T09:27:23.000Z</time>
      </trkpt>
      <trkpt lat="49.11216" lon="1.253">
        <ele>51.200000762939</ele>
        <time>2021-04-11T09:27:25.000Z</time>
      </trkpt>
      <trkpt lat="49.11219" lon="1.25299">
        <ele>51.599998474121</ele>
        <time>2021-04-11T09:27:27.000Z</time>
      </trkpt>
      <trkpt lat="49.1122" lon="1.25298">
        <ele>52</ele>
        <time>2021-04-11T09:27:28.000Z</time>
      </trkpt>
      <trkpt lat="49.11225" lon="1.25295">
        <ele>53</ele>
        <time>2021-04-11T09:27:32.000Z</time>
      </trkpt>
      <trkpt lat="49.11229" lon="1.25292">
        <ele>54.200000762939</ele>
        <time>2021-04-11T09:27:35.000Z</time>
      </trkpt>
      <trkpt lat="49.11236" lon="1.25283">
        <ele>55.200000762939</ele>
        <time>2021-04-11T09:27:41.000Z</time>
      </trkpt>
      <trkpt lat="49.11238" lon="1.2528">
        <ele>55.599998474121</ele>
        <time>2021-04-11T09:27:43.000Z</time>
      </trkpt>
      <trkpt lat="49.11242" lon="1.25273">
        <ele>56.400001525879</ele>
        <time>2021-04-11T09:27:47.000Z</time>
      </trkpt>
      <trkpt lat="49.11248" lon="1.25267">
        <ele>57.200000762939</ele>
        <time>2021-04-11T09:27:52.000Z</time>
      </trkpt>
      <trkpt lat="49.11249" lon="1.25265">
        <ele>57.400001525879</ele>
        <time>2021-04-11T09:27:53.000Z</time>
      </trkpt>
      <trkpt lat="49.11256" lon="1.2526">
        <ele>58.400001525879</ele>
        <time>2021-04-11T09:27:58.000Z</time>
      </trkpt>
      <trkpt lat="49.11257" lon="1.25259">
        <ele>58.599998474121</ele>
        <time>2021-04-11T09:27:59.000Z</time>
      </trkpt>
      <trkpt lat="49.11262" lon="1.25254">
        <ele>59.599998474121</ele>
        <time>2021-04-11T09:28:03.000Z</time>
      </trkpt>
      <trkpt lat="49.11269" lon="1.2525">
        <ele>60.400001525879</ele>
        <time>2021-04-11T09:28:08.000Z</time>
      </trkpt>
      <trkpt lat="49.11272" lon="1.25248">
        <ele>60.599998474121</ele>
        <time>2021-04-11T09:28:10.000Z</time>
      </trkpt>
      <trkpt lat="49.11279" lon="1.25243">
        <ele>61.599998474121</ele>
        <time>2021-04-11T09:28:15.000Z</time>
      </trkpt>
      <trkpt lat="49.11281" lon="1.25243">
        <ele>61.799999237061</ele>
        <time>2021-04-11T09:28:16.000Z</time>
      </trkpt>
      <trkpt lat="49.11286" lon="1.2524">
        <ele>62.799999237061</ele>
        <time>2021-04-11T09:28:20.000Z</time>
      </trkpt>
      <trkpt lat="49.1129" lon="1.25239">
        <ele>63.400001525879</ele>
        <time>2021-04-11T09:28:22.000Z</time>
      </trkpt>
      <trkpt lat="49.11292" lon="1.25238">
        <ele>63.799999237061</ele>
        <time>2021-04-11T09:28:24.000Z</time>
      </trkpt>
      <trkpt lat="49.11302" lon="1.25235">
        <ele>65.199996948242</ele>
        <time>2021-04-11T09:28:31.000Z</time>
      </trkpt>
      <trkpt lat="49.11309" lon="1.25238">
        <ele>66.199996948242</ele>
        <time>2021-04-11T09:28:36.000Z</time>
      </trkpt>
      <trkpt lat="49.11312" lon="1.25239">
        <ele>66.599998474121</ele>
        <time>2021-04-11T09:28:38.000Z</time>
      </trkpt>
      <trkpt lat="49.11316" lon="1.25242">
        <ele>67.199996948242</ele>
        <time>2021-04-11T09:28:41.000Z</time>
      </trkpt>
      <trkpt lat="49.11317" lon="1.25243">
        <ele>67.400001525879</ele>
        <time>2021-04-11T09:28:42.000Z</time>
      </trkpt>
      <trkpt lat="49.11319" lon="1.25245">
        <ele>67.800003051758</ele>
        <time>2021-04-11T09:28:44.000Z</time>
      </trkpt>
      <trkpt lat="49.11321" lon="1.25248">
        <ele>68.199996948242</ele>
        <time>2021-04-11T09:28:46.000Z</time>
      </trkpt>
      <trkpt lat="49.11323" lon="1.25252">
        <ele>68.800003051758</ele>
        <time>2021-04-11T09:28:48.000Z</time>
      </trkpt>
      <trkpt lat="49.11324" lon="1.25256">
        <ele>69.400001525879</ele>
        <time>2021-04-11T09:28:50.000Z</time>
      </trkpt>
      <trkpt lat="49.11325" lon="1.25258">
        <ele>69.800003051758</ele>
        <time>2021-04-11T09:28:51.000Z</time>
      </trkpt>
      <trkpt lat="49.11326" lon="1.25262">
        <ele>70.199996948242</ele>
        <time>2021-04-11T09:28:53.000Z</time>
      </trkpt>
      <trkpt lat="49.11327" lon="1.25266">
        <ele>70.599998474121</ele>
        <time>2021-04-11T09:28:55.000Z</time>
      </trkpt>
      <trkpt lat="49.11328" lon="1.2527">
        <ele>71</ele>
        <time>2021-04-11T09:28:57.000Z</time>
      </trkpt>
      <trkpt lat="49.11329" lon="1.25272">
        <ele>71.199996948242</ele>
        <time>2021-04-11T09:28:58.000Z</time>
      </trkpt>
      <trkpt lat="49.11329" lon="1.25274">
        <ele>71.800003051758</ele>
        <time>2021-04-11T09:28:59.000Z</time>
      </trkpt>
      <trkpt lat="49.11331" lon="1.25286">
        <ele>72.800003051758</ele>
        <time>2021-04-11T09:29:04.000Z</time>
      </trkpt>
      <trkpt lat="49.11331" lon="1.2529">
        <ele>73.199996948242</ele>
        <time>2021-04-11T09:29:06.000Z</time>
      </trkpt>
      <trkpt lat="49.11333" lon="1.25299">
        <ele>74</ele>
        <time>2021-04-11T09:29:10.000Z</time>
      </trkpt>
      <trkpt lat="49.11333" lon="1.25303">
        <ele>74.199996948242</ele>
        <time>2021-04-11T09:29:12.000Z</time>
      </trkpt>
      <trkpt lat="49.11335" lon="1.25312">
        <ele>75.199996948242</ele>
        <time>2021-04-11T09:29:16.000Z</time>
      </trkpt>
      <trkpt lat="49.11337" lon="1.25323">
        <ele>75.800003051758</ele>
        <time>2021-04-11T09:29:21.000Z</time>
      </trkpt>
      <trkpt lat="49.11337" lon="1.25327">
        <ele>76</ele>
        <time>2021-04-11T09:29:23.000Z</time>
      </trkpt>
      <trkpt lat="49.11339" lon="1.25336">
        <ele>77.199996948242</ele>
        <time>2021-04-11T09:29:27.000Z</time>
      </trkpt>
      <trkpt lat="49.1134" lon="1.2534">
        <ele>77.599998474121</ele>
        <time>2021-04-11T09:29:29.000Z</time>
      </trkpt>
      <trkpt lat="49.11341" lon="1.25347">
        <ele>78.400001525879</ele>
        <time>2021-04-11T09:29:32.000Z</time>
      </trkpt>
      <trkpt lat="49.11343" lon="1.25354">
        <ele>79.400001525879</ele>
        <time>2021-04-11T09:29:36.000Z</time>
      </trkpt>
      <trkpt lat="49.11348" lon="1.25364">
        <ele>80.599998474121</ele>
        <time>2021-04-11T09:29:41.000Z</time>
      </trkpt>
      <trkpt lat="49.11349" lon="1.25368">
        <ele>81</ele>
        <time>2021-04-11T09:29:43.000Z</time>
      </trkpt>
      <trkpt lat="49.11352" lon="1.25376">
        <ele>81.599998474121</ele>
        <time>2021-04-11T09:29:47.000Z</time>
      </trkpt>
      <trkpt lat="49.11354" lon="1.25381">
        <ele>81.800003051758</ele>
        <time>2021-04-11T09:29:49.000Z</time>
      </trkpt>
      <trkpt lat="49.11357" lon="1.25388">
        <ele>82.400001525879</ele>
        <time>2021-04-11T09:29:53.000Z</time>
      </trkpt>
      <trkpt lat="49.11359" lon="1.2539">
        <ele>83</ele>
        <time>2021-04-11T09:29:55.000Z</time>
      </trkpt>
      <trkpt lat="49.1136" lon="1.25398">
        <ele>83.800003051758</ele>
        <time>2021-04-11T09:30:00.000Z</time>
      </trkpt>
      <trkpt lat="49.11361" lon="1.25399">
        <ele>84</ele>
        <time>2021-04-11T09:30:01.000Z</time>
      </trkpt>
      <trkpt lat="49.11364" lon="1.25407">
        <ele>85.199996948242</ele>
        <time>2021-04-11T09:30:06.000Z</time>
      </trkpt>
      <trkpt lat="49.11366" lon="1.25413">
        <ele>86.199996948242</ele>
        <time>2021-04-11T09:30:10.000Z</time>
      </trkpt>
      <trkpt lat="49.11367" lon="1.25418">
        <ele>87</ele>
        <time>2021-04-11T09:30:13.000Z</time>
      </trkpt>
      <trkpt lat="49.11368" lon="1.25422">
        <ele>87.199996948242</ele>
        <time>2021-04-11T09:30:15.000Z</time>
      </trkpt>
      <trkpt lat="49.11371" lon="1.25429">
        <ele>88</ele>
        <time>2021-04-11T09:30:19.000Z</time>
      </trkpt>
      <trkpt lat="49.11372" lon="1.25432">
        <ele>88.400001525879</ele>
        <time>2021-04-11T09:30:21.000Z</time>
      </trkpt>
      <trkpt lat="49.11377" lon="1.25439">
        <ele>89.599998474121</ele>
        <time>2021-04-11T09:30:25.000Z</time>
      </trkpt>
      <trkpt lat="49.11378" lon="1.25441">
        <ele>89.800003051758</ele>
        <time>2021-04-11T09:30:26.000Z</time>
      </trkpt>
      <trkpt lat="49.11382" lon="1.25449">
        <ele>90.599998474121</ele>
        <time>2021-04-11T09:30:30.000Z</time>
      </trkpt>
      <trkpt lat="49.11384" lon="1.25452">
        <ele>91.199996948242</ele>
        <time>2021-04-11T09:30:32.000Z</time>
      </trkpt>
      <trkpt lat="49.11386" lon="1.25459">
        <ele>91.800003051758</ele>
        <time>2021-04-11T09:30:35.000Z</time>
      </trkpt>
      <trkpt lat="49.11389" lon="1.25467">
        <ele>92.599998474121</ele>
        <time>2021-04-11T09:30:39.000Z</time>
      </trkpt>
      <trkpt lat="49.11391" lon="1.25471">
        <ele>92.800003051758</ele>
        <time>2021-04-11T09:30:41.000Z</time>
      </trkpt>
      <trkpt lat="49.11393" lon="1.25478">
        <ele>93.400001525879</ele>
        <time>2021-04-11T09:30:44.000Z</time>
      </trkpt>
      <trkpt lat="49.11394" lon="1.25482">
        <ele>94</ele>
        <time>2021-04-11T09:30:46.000Z</time>
      </trkpt>
      <trkpt lat="49.11397" lon="1.2549">
        <ele>94.800003051758</ele>
        <time>2021-04-11T09:30:50.000Z</time>
      </trkpt>
      <trkpt lat="49.11398" lon="1.25492">
        <ele>95</ele>
        <time>2021-04-11T09:30:51.000Z</time>
      </trkpt>
      <trkpt lat="49.11401" lon="1.25497">
        <ele>95.599998474121</ele>
        <time>2021-04-11T09:30:54.000Z</time>
      </trkpt>
      <trkpt lat="49.11405" lon="1.25501">
        <ele>96.199996948242</ele>
        <time>2021-04-11T09:30:57.000Z</time>
      </trkpt>
      <trkpt lat="49.11409" lon="1.25513">
        <ele>97.199996948242</ele>
        <time>2021-04-11T09:31:03.000Z</time>
      </trkpt>
      <trkpt lat="49.1141" lon="1.25518">
        <ele>97.800003051758</ele>
        <time>2021-04-11T09:31:06.000Z</time>
      </trkpt>
      <trkpt lat="49.11411" lon="1.25522">
        <ele>98.400001525879</ele>
        <time>2021-04-11T09:31:08.000Z</time>
      </trkpt>
      <trkpt lat="49.11414" lon="1.2553">
        <ele>99.400001525879</ele>
        <time>2021-04-11T09:31:13.000Z</time>
      </trkpt>
      <trkpt lat="49.11416" lon="1.2554">
        <ele>100.40000152588</ele>
        <time>2021-04-11T09:31:18.000Z</time>
      </trkpt>
      <trkpt lat="49.11417" lon="1.25544">
        <ele>100.80000305176</ele>
        <time>2021-04-11T09:31:20.000Z</time>
      </trkpt>
      <trkpt lat="49.11417" lon="1.2555">
        <ele>101.59999847412</ele>
        <time>2021-04-11T09:31:23.000Z</time>
      </trkpt>
      <trkpt lat="49.11419" lon="1.25557">
        <ele>102.19999694824</ele>
        <time>2021-04-11T09:31:26.000Z</time>
      </trkpt>
      <trkpt lat="49.11419" lon="1.25559">
        <ele>102.59999847412</ele>
        <time>2021-04-11T09:31:27.000Z</time>
      </trkpt>
      <trkpt lat="49.1142" lon="1.25571">
        <ele>103.40000152588</ele>
        <time>2021-04-11T09:31:32.000Z</time>
      </trkpt>
      <trkpt lat="49.11421" lon="1.25573">
        <ele>103.59999847412</ele>
        <time>2021-04-11T09:31:33.000Z</time>
      </trkpt>
      <trkpt lat="49.11423" lon="1.25579">
        <ele>104.19999694824</ele>
        <time>2021-04-11T09:31:36.000Z</time>
      </trkpt>
      <trkpt lat="49.11425" lon="1.25583">
        <ele>104.80000305176</ele>
        <time>2021-04-11T09:31:38.000Z</time>
      </trkpt>
      <trkpt lat="49.11425" lon="1.25586">
        <ele>105.19999694824</ele>
        <time>2021-04-11T09:31:40.000Z</time>
      </trkpt>
      <trkpt lat="49.11428" lon="1.25591">
        <ele>105.59999847412</ele>
        <time>2021-04-11T09:31:43.000Z</time>
      </trkpt>
      <trkpt lat="49.11431" lon="1.25598">
        <ele>106</ele>
        <time>2021-04-11T09:31:46.000Z</time>
      </trkpt>
      <trkpt lat="49.11434" lon="1.25602">
        <ele>106.40000152588</ele>
        <time>2021-04-11T09:31:48.000Z</time>
      </trkpt>
      <trkpt lat="49.11434" lon="1.25604">
        <ele>106.80000305176</ele>
        <time>2021-04-11T09:31:49.000Z</time>
      </trkpt>
      <trkpt lat="49.11436" lon="1.2561">
        <ele>107.40000152588</ele>
        <time>2021-04-11T09:31:52.000Z</time>
      </trkpt>
      <trkpt lat="49.1144" lon="1.25616">
        <ele>108</ele>
        <time>2021-04-11T09:31:55.000Z</time>
      </trkpt>
      <trkpt lat="49.11442" lon="1.25621">
        <ele>108.59999847412</ele>
        <time>2021-04-11T09:31:58.000Z</time>
      </trkpt>
      <trkpt lat="49.11443" lon="1.25625">
        <ele>109</ele>
        <time>2021-04-11T09:32:00.000Z</time>
      </trkpt>
      <trkpt lat="49.11445" lon="1.25629">
        <ele>109.59999847412</ele>
        <time>2021-04-11T09:32:02.000Z</time>
      </trkpt>
      <trkpt lat="49.11446" lon="1.25632">
        <ele>109.80000305176</ele>
        <time>2021-04-11T09:32:04.000Z</time>
      </trkpt>
      <trkpt lat="49.11447" lon="1.25634">
        <ele>110</ele>
        <time>2021-04-11T09:32:05.000Z</time>
      </trkpt>
      <trkpt lat="49.11453" lon="1.25647">
        <ele>111.19999694824</ele>
        <time>2021-04-11T09:32:11.000Z</time>
      </trkpt>
      <trkpt lat="49.11459" lon="1.25659">
        <ele>112.19999694824</ele>
        <time>2021-04-11T09:32:17.000Z</time>
      </trkpt>
      <trkpt lat="49.11465" lon="1.25671">
        <ele>113</ele>
        <time>2021-04-11T09:32:24.000Z</time>
      </trkpt>
      <trkpt lat="49.11466" lon="1.25674">
        <ele>113.19999694824</ele>
        <time>2021-04-11T09:32:25.000Z</time>
      </trkpt>
      <trkpt lat="49.11468" lon="1.25679">
        <ele>113.40000152588</ele>
        <time>2021-04-11T09:32:27.000Z</time>
      </trkpt>
      <trkpt lat="49.11471" lon="1.25682">
        <ele>113.80000305176</ele>
        <time>2021-04-11T09:32:29.000Z</time>
      </trkpt>
      <trkpt lat="49.11474" lon="1.25685">
        <ele>114.19999694824</ele>
        <time>2021-04-11T09:32:31.000Z</time>
      </trkpt>
      <trkpt lat="49.11483" lon="1.25692">
        <ele>115.40000152588</ele>
        <time>2021-04-11T09:32:36.000Z</time>
      </trkpt>
      <trkpt lat="49.11491" lon="1.25701">
        <ele>116.59999847412</ele>
        <time>2021-04-11T09:32:41.000Z</time>
      </trkpt>
      <trkpt lat="49.11492" lon="1.25702">
        <ele>116.80000305176</ele>
        <time>2021-04-11T09:32:42.000Z</time>
      </trkpt>
      <trkpt lat="49.11497" lon="1.25708">
        <ele>117.80000305176</ele>
        <time>2021-04-11T09:32:45.000Z</time>
      </trkpt>
      <trkpt lat="49.11501" lon="1.25713">
        <ele>117.80000305176</ele>
        <time>2021-04-11T09:32:47.000Z</time>
      </trkpt>
      <trkpt lat="49.11512" lon="1.25723">
        <ele>118.59999847412</ele>
        <time>2021-04-11T09:32:52.000Z</time>
      </trkpt>
      <trkpt lat="49.11513" lon="1.25724">
        <ele>118.80000305176</ele>
        <time>2021-04-11T09:32:53.000Z</time>
      </trkpt>
      <trkpt lat="49.11521" lon="1.25732">
        <ele>119.59999847412</ele>
        <time>2021-04-11T09:32:58.000Z</time>
      </trkpt>
      <trkpt lat="49.11522" lon="1.25734">
        <ele>119.80000305176</ele>
        <time>2021-04-11T09:32:59.000Z</time>
      </trkpt>
      <trkpt lat="49.1153" lon="1.25741">
        <ele>120.80000305176</ele>
        <time>2021-04-11T09:33:03.000Z</time>
      </trkpt>
      <trkpt lat="49.11533" lon="1.25745">
        <ele>121.59999847412</ele>
        <time>2021-04-11T09:33:05.000Z</time>
      </trkpt>
      <trkpt lat="49.11535" lon="1.25747">
        <ele>122</ele>
        <time>2021-04-11T09:33:06.000Z</time>
      </trkpt>
      <trkpt lat="49.11543" lon="1.25756">
        <ele>123</ele>
        <time>2021-04-11T09:33:11.000Z</time>
      </trkpt>
      <trkpt lat="49.11544" lon="1.25758">
        <ele>123.40000152588</ele>
        <time>2021-04-11T09:33:12.000Z</time>
      </trkpt>
      <trkpt lat="49.11547" lon="1.25761">
        <ele>124.19999694824</ele>
        <time>2021-04-11T09:33:14.000Z</time>
      </trkpt>
      <trkpt lat="49.11556" lon="1.25767">
        <ele>125.40000152588</ele>
        <time>2021-04-11T09:33:19.000Z</time>
      </trkpt>
      <trkpt lat="49.11565" lon="1.25775">
        <ele>126.59999847412</ele>
        <time>2021-04-11T09:33:25.000Z</time>
      </trkpt>
      <trkpt lat="49.11566" lon="1.25777">
        <ele>126.80000305176</ele>
        <time>2021-04-11T09:33:26.000Z</time>
      </trkpt>
      <trkpt lat="49.11571" lon="1.25783">
        <ele>127.59999847412</ele>
        <time>2021-04-11T09:33:30.000Z</time>
      </trkpt>
      <trkpt lat="49.11573" lon="1.25785">
        <ele>128</ele>
        <time>2021-04-11T09:33:32.000Z</time>
      </trkpt>
      <trkpt lat="49.11578" lon="1.2579">
        <ele>128.60000610352</ele>
        <time>2021-04-11T09:33:35.000Z</time>
      </trkpt>
      <trkpt lat="49.11582" lon="1.25794">
        <ele>129</ele>
        <time>2021-04-11T09:33:37.000Z</time>
      </trkpt>
      <trkpt lat="49.11591" lon="1.25803">
        <ele>129.60000610352</ele>
        <time>2021-04-11T09:33:42.000Z</time>
      </trkpt>
      <trkpt lat="49.11604" lon="1.25816">
        <ele>130.60000610352</ele>
        <time>2021-04-11T09:33:48.000Z</time>
      </trkpt>
      <trkpt lat="49.11606" lon="1.25819">
        <ele>130.80000305176</ele>
        <time>2021-04-11T09:33:49.000Z</time>
      </trkpt>
      <trkpt lat="49.11622" lon="1.25837">
        <ele>131.60000610352</ele>
        <time>2021-04-11T09:33:55.000Z</time>
      </trkpt>
      <trkpt lat="49.11625" lon="1.25839">
        <ele>131.80000305176</ele>
        <time>2021-04-11T09:33:56.000Z</time>
      </trkpt>
      <trkpt lat="49.11645" lon="1.25857">
        <ele>132.60000610352</ele>
        <time>2021-04-11T09:34:03.000Z</time>
      </trkpt>
      <trkpt lat="49.11648" lon="1.25859">
        <ele>132.60000610352</ele>
        <time>2021-04-11T09:34:04.000Z</time>
      </trkpt>
      <trkpt lat="49.11664" lon="1.2587">
        <ele>133.19999694824</ele>
        <time>2021-04-11T09:34:09.000Z</time>
      </trkpt>
      <trkpt lat="49.11683" lon="1.25889">
        <ele>133.39999389648</ele>
        <time>2021-04-11T09:34:15.000Z</time>
      </trkpt>
      <trkpt lat="49.11701" lon="1.25908">
        <ele>133.60000610352</ele>
        <time>2021-04-11T09:34:21.000Z</time>
      </trkpt>
      <trkpt lat="49.1171" lon="1.25923">
        <ele>133.60000610352</ele>
        <time>2021-04-11T09:34:25.000Z</time>
      </trkpt>
      <trkpt lat="49.11711" lon="1.25926">
        <ele>133.80000305176</ele>
        <time>2021-04-11T09:34:26.000Z</time>
      </trkpt>
      <trkpt lat="49.11712" lon="1.25929">
        <ele>133.80000305176</ele>
        <time>2021-04-11T09:34:27.000Z</time>
      </trkpt>
      <trkpt lat="49.11713" lon="1.25931">
        <ele>134</ele>
        <time>2021-04-11T09:34:30.000Z</time>
      </trkpt>
      <trkpt lat="49.11716" lon="1.25932">
        <ele>133.60000610352</ele>
        <time>2021-04-11T09:39:54.000Z</time>
      </trkpt>
      <trkpt lat="49.11717" lon="1.25932">
        <ele>133.60000610352</ele>
        <time>2021-04-11T09:39:56.000Z</time>
      </trkpt>
      <trkpt lat="49.1172" lon="1.25933">
        <ele>133.39999389648</ele>
        <time>2021-04-11T09:39:58.000Z</time>
      </trkpt>
      <trkpt lat="49.11726" lon="1.25945">
        <ele>133.39999389648</ele>
        <time>2021-04-11T09:40:03.000Z</time>
      </trkpt>
      <trkpt lat="49.11728" lon="1.25947">
        <ele>133.39999389648</ele>
        <time>2021-04-11T09:40:04.000Z</time>
      </trkpt>
      <trkpt lat="49.11742" lon="1.25966">
        <ele>133.19999694824</ele>
        <time>2021-04-11T09:40:10.000Z</time>
      </trkpt>
      <trkpt lat="49.1176" lon="1.25996">
        <ele>132.80000305176</ele>
        <time>2021-04-11T09:40:17.000Z</time>
      </trkpt>
      <trkpt lat="49.11772" lon="1.2601">
        <ele>132.80000305176</ele>
        <time>2021-04-11T09:40:22.000Z</time>
      </trkpt>
      <trkpt lat="49.11783" lon="1.26024">
        <ele>132.80000305176</ele>
        <time>2021-04-11T09:40:28.000Z</time>
      </trkpt>
      <trkpt lat="49.11796" lon="1.26046">
        <ele>132.80000305176</ele>
        <time>2021-04-11T09:40:35.000Z</time>
      </trkpt>
      <trkpt lat="49.11806" lon="1.26063">
        <ele>133</ele>
        <time>2021-04-11T09:40:39.000Z</time>
      </trkpt>
      <trkpt lat="49.11817" lon="1.26078">
        <ele>133</ele>
        <time>2021-04-11T09:40:43.000Z</time>
      </trkpt>
      <trkpt lat="49.11831" lon="1.26106">
        <ele>132.60000610352</ele>
        <time>2021-04-11T09:40:49.000Z</time>
      </trkpt>
      <trkpt lat="49.11842" lon="1.26129">
        <ele>132.39999389648</ele>
        <time>2021-04-11T09:40:54.000Z</time>
      </trkpt>
      <trkpt lat="49.11846" lon="1.26132">
        <ele>132.39999389648</ele>
        <time>2021-04-11T09:40:56.000Z</time>
      </trkpt>
      <trkpt lat="49.11849" lon="1.26133">
        <ele>132.39999389648</ele>
        <time>2021-04-11T09:40:58.000Z</time>
      </trkpt>
      <trkpt lat="49.11856" lon="1.26142">
        <ele>132.39999389648</ele>
        <time>2021-04-11T09:41:02.000Z</time>
      </trkpt>
      <trkpt lat="49.11861" lon="1.26149">
        <ele>132.60000610352</ele>
        <time>2021-04-11T09:41:04.000Z</time>
      </trkpt>
      <trkpt lat="49.11873" lon="1.26162">
        <ele>132.80000305176</ele>
        <time>2021-04-11T09:41:08.000Z</time>
      </trkpt>
      <trkpt lat="49.11892" lon="1.26183">
        <ele>132.80000305176</ele>
        <time>2021-04-11T09:41:14.000Z</time>
      </trkpt>
      <trkpt lat="49.11895" lon="1.26186">
        <ele>132.80000305176</ele>
        <time>2021-04-11T09:41:15.000Z</time>
      </trkpt>
      <trkpt lat="49.11913" lon="1.26208">
        <ele>132.60000610352</ele>
        <time>2021-04-11T09:41:21.000Z</time>
      </trkpt>
      <trkpt lat="49.11928" lon="1.26221">
        <ele>132.60000610352</ele>
        <time>2021-04-11T09:41:25.000Z</time>
      </trkpt>
      <trkpt lat="49.11931" lon="1.26224">
        <ele>132.60000610352</ele>
        <time>2021-04-11T09:41:26.000Z</time>
      </trkpt>
      <trkpt lat="49.11942" lon="1.26236">
        <ele>132.39999389648</ele>
        <time>2021-04-11T09:41:29.000Z</time>
      </trkpt>
      <trkpt lat="49.11954" lon="1.26247">
        <ele>132.19999694824</ele>
        <time>2021-04-11T09:41:32.000Z</time>
      </trkpt>
      <trkpt lat="49.11979" lon="1.26272">
        <ele>132</ele>
        <time>2021-04-11T09:41:39.000Z</time>
      </trkpt>
      <trkpt lat="49.11995" lon="1.26286">
        <ele>132</ele>
        <time>2021-04-11T09:41:43.000Z</time>
      </trkpt>
      <trkpt lat="49.11999" lon="1.2629">
        <ele>132</ele>
        <time>2021-04-11T09:41:44.000Z</time>
      </trkpt>
      <trkpt lat="49.12028" lon="1.26316">
        <ele>131.80000305176</ele>
        <time>2021-04-11T09:41:51.000Z</time>
      </trkpt>
      <trkpt lat="49.12033" lon="1.26319">
        <ele>131.80000305176</ele>
        <time>2021-04-11T09:41:52.000Z</time>
      </trkpt>
      <trkpt lat="49.12046" lon="1.26327">
        <ele>131.60000610352</ele>
        <time>2021-04-11T09:41:55.000Z</time>
      </trkpt>
      <trkpt lat="49.12054" lon="1.26335">
        <ele>131.39999389648</ele>
        <time>2021-04-11T09:41:57.000Z</time>
      </trkpt>
      <trkpt lat="49.1207" lon="1.26352">
        <ele>130.80000305176</ele>
        <time>2021-04-11T09:42:01.000Z</time>
      </trkpt>
      <trkpt lat="49.121" lon="1.2638">
        <ele>130.19999694824</ele>
        <time>2021-04-11T09:42:08.000Z</time>
      </trkpt>
      <trkpt lat="49.12119" lon="1.26396">
        <ele>130</ele>
        <time>2021-04-11T09:42:12.000Z</time>
      </trkpt>
      <trkpt lat="49.12131" lon="1.2641">
        <ele>129.80000305176</ele>
        <time>2021-04-11T09:42:15.000Z</time>
      </trkpt>
      <trkpt lat="49.12158" lon="1.26434">
        <ele>129.39999389648</ele>
        <time>2021-04-11T09:42:21.000Z</time>
      </trkpt>
      <trkpt lat="49.12162" lon="1.26438">
        <ele>129.19999694824</ele>
        <time>2021-04-11T09:42:22.000Z</time>
      </trkpt>
      <trkpt lat="49.12175" lon="1.2645">
        <ele>129</ele>
        <time>2021-04-11T09:42:25.000Z</time>
      </trkpt>
      <trkpt lat="49.12187" lon="1.26464">
        <ele>128.60000610352</ele>
        <time>2021-04-11T09:42:28.000Z</time>
      </trkpt>
      <trkpt lat="49.12212" lon="1.26502">
        <ele>128.39999389648</ele>
        <time>2021-04-11T09:42:35.000Z</time>
      </trkpt>
      <trkpt lat="49.12237" lon="1.26538">
        <ele>128.39999389648</ele>
        <time>2021-04-11T09:42:42.000Z</time>
      </trkpt>
      <trkpt lat="49.12251" lon="1.26555">
        <ele>128.39999389648</ele>
        <time>2021-04-11T09:42:46.000Z</time>
      </trkpt>
      <trkpt lat="49.12258" lon="1.26565">
        <ele>128.39999389648</ele>
        <time>2021-04-11T09:42:48.000Z</time>
      </trkpt>
      <trkpt lat="49.12269" lon="1.26582">
        <ele>128.39999389648</ele>
        <time>2021-04-11T09:42:52.000Z</time>
      </trkpt>
      <trkpt lat="49.12283" lon="1.26604">
        <ele>128.39999389648</ele>
        <time>2021-04-11T09:42:57.000Z</time>
      </trkpt>
      <trkpt lat="49.12304" lon="1.26639">
        <ele>128.60000610352</ele>
        <time>2021-04-11T09:43:04.000Z</time>
      </trkpt>
      <trkpt lat="49.1231" lon="1.2665">
        <ele>128.60000610352</ele>
        <time>2021-04-11T09:43:06.000Z</time>
      </trkpt>
      <trkpt lat="49.12322" lon="1.26661">
        <ele>128.60000610352</ele>
        <time>2021-04-11T09:43:09.000Z</time>
      </trkpt>
      <trkpt lat="49.12325" lon="1.26666">
        <ele>128.60000610352</ele>
        <time>2021-04-11T09:43:10.000Z</time>
      </trkpt>
      <trkpt lat="49.12332" lon="1.26684">
        <ele>128.39999389648</ele>
        <time>2021-04-11T09:43:13.000Z</time>
      </trkpt>
      <trkpt lat="49.12334" lon="1.2669">
        <ele>128.39999389648</ele>
        <time>2021-04-11T09:43:14.000Z</time>
      </trkpt>
      <trkpt lat="49.12343" lon="1.26707">
        <ele>128.19999694824</ele>
        <time>2021-04-11T09:43:17.000Z</time>
      </trkpt>
      <trkpt lat="49.12346" lon="1.26713">
        <ele>128.19999694824</ele>
        <time>2021-04-11T09:43:18.000Z</time>
      </trkpt>
      <trkpt lat="49.1235" lon="1.26718">
        <ele>128</ele>
        <time>2021-04-11T09:43:19.000Z</time>
      </trkpt>
      <trkpt lat="49.12359" lon="1.26735">
        <ele>128</ele>
        <time>2021-04-11T09:43:22.000Z</time>
      </trkpt>
      <trkpt lat="49.12369" lon="1.26752">
        <ele>127.80000305176</ele>
        <time>2021-04-11T09:43:25.000Z</time>
      </trkpt>
      <trkpt lat="49.12372" lon="1.26758">
        <ele>127.80000305176</ele>
        <time>2021-04-11T09:43:26.000Z</time>
      </trkpt>
      <trkpt lat="49.12385" lon="1.26783">
        <ele>127</ele>
        <time>2021-04-11T09:43:30.000Z</time>
      </trkpt>
      <trkpt lat="49.12388" lon="1.26789">
        <ele>126.80000305176</ele>
        <time>2021-04-11T09:43:31.000Z</time>
      </trkpt>
      <trkpt lat="49.12405" lon="1.26833">
        <ele>126.40000152588</ele>
        <time>2021-04-11T09:43:37.000Z</time>
      </trkpt>
      <trkpt lat="49.12413" lon="1.26883">
        <ele>126.19999694824</ele>
        <time>2021-04-11T09:43:43.000Z</time>
      </trkpt>
      <trkpt lat="49.12418" lon="1.26934">
        <ele>125.80000305176</ele>
        <time>2021-04-11T09:43:49.000Z</time>
      </trkpt>
      <trkpt lat="49.12419" lon="1.26943">
        <ele>125.80000305176</ele>
        <time>2021-04-11T09:43:50.000Z</time>
      </trkpt>
      <trkpt lat="49.1242" lon="1.26961">
        <ele>125.59999847412</ele>
        <time>2021-04-11T09:43:52.000Z</time>
      </trkpt>
      <trkpt lat="49.12424" lon="1.27007">
        <ele>125</ele>
        <time>2021-04-11T09:43:57.000Z</time>
      </trkpt>
      <trkpt lat="49.12426" lon="1.27025">
        <ele>124.80000305176</ele>
        <time>2021-04-11T09:43:59.000Z</time>
      </trkpt>
      <trkpt lat="49.1243" lon="1.27083">
        <ele>124.19999694824</ele>
        <time>2021-04-11T09:44:05.000Z</time>
      </trkpt>
      <trkpt lat="49.12434" lon="1.27121">
        <ele>123.80000305176</ele>
        <time>2021-04-11T09:44:09.000Z</time>
      </trkpt>
      <trkpt lat="49.12436" lon="1.2715">
        <ele>123.19999694824</ele>
        <time>2021-04-11T09:44:12.000Z</time>
      </trkpt>
      <trkpt lat="49.12439" lon="1.2718">
        <ele>122.59999847412</ele>
        <time>2021-04-11T09:44:15.000Z</time>
      </trkpt>
      <trkpt lat="49.12443" lon="1.2723">
        <ele>122</ele>
        <time>2021-04-11T09:44:20.000Z</time>
      </trkpt>
      <trkpt lat="49.12444" lon="1.2727">
        <ele>121.59999847412</ele>
        <time>2021-04-11T09:44:24.000Z</time>
      </trkpt>
      <trkpt lat="49.12444" lon="1.273">
        <ele>121.19999694824</ele>
        <time>2021-04-11T09:44:27.000Z</time>
      </trkpt>
      <trkpt lat="49.12442" lon="1.27368">
        <ele>120.59999847412</ele>
        <time>2021-04-11T09:44:34.000Z</time>
      </trkpt>
      <trkpt lat="49.1244" lon="1.27388">
        <ele>120.40000152588</ele>
        <time>2021-04-11T09:44:36.000Z</time>
      </trkpt>
      <trkpt lat="49.12439" lon="1.27457">
        <ele>119.59999847412</ele>
        <time>2021-04-11T09:44:43.000Z</time>
      </trkpt>
      <trkpt lat="49.1244" lon="1.2748">
        <ele>118.40000152588</ele>
        <time>2021-04-11T09:44:47.000Z</time>
      </trkpt>
      <trkpt lat="49.12441" lon="1.27486">
        <ele>118.40000152588</ele>
        <time>2021-04-11T09:44:48.000Z</time>
      </trkpt>
      <trkpt lat="49.12442" lon="1.27514">
        <ele>117.80000305176</ele>
        <time>2021-04-11T09:44:52.000Z</time>
      </trkpt>
      <trkpt lat="49.12442" lon="1.27522">
        <ele>117.80000305176</ele>
        <time>2021-04-11T09:44:53.000Z</time>
      </trkpt>
      <trkpt lat="49.12441" lon="1.27557">
        <ele>117.40000152588</ele>
        <time>2021-04-11T09:44:57.000Z</time>
      </trkpt>
      <trkpt lat="49.1244" lon="1.27567">
        <ele>117</ele>
        <time>2021-04-11T09:44:58.000Z</time>
      </trkpt>
      <trkpt lat="49.12436" lon="1.27595">
        <ele>116</ele>
        <time>2021-04-11T09:45:01.000Z</time>
      </trkpt>
      <trkpt lat="49.12435" lon="1.27605">
        <ele>115.59999847412</ele>
        <time>2021-04-11T09:45:02.000Z</time>
      </trkpt>
      <trkpt lat="49.12436" lon="1.27637">
        <ele>114.59999847412</ele>
        <time>2021-04-11T09:45:05.000Z</time>
      </trkpt>
      <trkpt lat="49.12437" lon="1.27648">
        <ele>114.19999694824</ele>
        <time>2021-04-11T09:45:06.000Z</time>
      </trkpt>
      <trkpt lat="49.12439" lon="1.27657">
        <ele>113.80000305176</ele>
        <time>2021-04-11T09:45:07.000Z</time>
      </trkpt>
      <trkpt lat="49.12441" lon="1.27666">
        <ele>113.19999694824</ele>
        <time>2021-04-11T09:45:08.000Z</time>
      </trkpt>
      <trkpt lat="49.12446" lon="1.27681">
        <ele>112</ele>
        <time>2021-04-11T09:45:10.000Z</time>
      </trkpt>
      <trkpt lat="49.1245" lon="1.27694">
        <ele>110.80000305176</ele>
        <time>2021-04-11T09:45:13.000Z</time>
      </trkpt>
      <trkpt lat="49.12451" lon="1.27696">
        <ele>109.19999694824</ele>
        <time>2021-04-11T09:45:16.000Z</time>
      </trkpt>
      <trkpt lat="49.12453" lon="1.27698">
        <ele>107</ele>
        <time>2021-04-11T09:49:17.000Z</time>
      </trkpt>
      <trkpt lat="49.12465" lon="1.27704">
        <ele>107</ele>
        <time>2021-04-11T09:49:23.000Z</time>
      </trkpt>
      <trkpt lat="49.12481" lon="1.27705">
        <ele>106.59999847412</ele>
        <time>2021-04-11T09:49:28.000Z</time>
      </trkpt>
      <trkpt lat="49.12502" lon="1.27706">
        <ele>106.40000152588</ele>
        <time>2021-04-11T09:49:32.000Z</time>
      </trkpt>
      <trkpt lat="49.12515" lon="1.27712">
        <ele>105.80000305176</ele>
        <time>2021-04-11T09:49:34.000Z</time>
      </trkpt>
      <trkpt lat="49.12528" lon="1.2772">
        <ele>105.40000152588</ele>
        <time>2021-04-11T09:49:36.000Z</time>
      </trkpt>
      <trkpt lat="49.12541" lon="1.2773">
        <ele>104.80000305176</ele>
        <time>2021-04-11T09:49:38.000Z</time>
      </trkpt>
      <trkpt lat="49.12569" lon="1.27751">
        <ele>103.59999847412</ele>
        <time>2021-04-11T09:49:42.000Z</time>
      </trkpt>
      <trkpt lat="49.12576" lon="1.27756">
        <ele>103</ele>
        <time>2021-04-11T09:49:43.000Z</time>
      </trkpt>
      <trkpt lat="49.1259" lon="1.27763">
        <ele>101.19999694824</ele>
        <time>2021-04-11T09:49:45.000Z</time>
      </trkpt>
      <trkpt lat="49.12602" lon="1.27768">
        <ele>100</ele>
        <time>2021-04-11T09:49:47.000Z</time>
      </trkpt>
      <trkpt lat="49.12608" lon="1.2777">
        <ele>99.400001525879</ele>
        <time>2021-04-11T09:49:48.000Z</time>
      </trkpt>
      <trkpt lat="49.12616" lon="1.27772">
        <ele>99</ele>
        <time>2021-04-11T09:49:50.000Z</time>
      </trkpt>
      <trkpt lat="49.12631" lon="1.27773">
        <ele>98.800003051758</ele>
        <time>2021-04-11T09:49:53.000Z</time>
      </trkpt>
      <trkpt lat="49.12641" lon="1.2777">
        <ele>98.800003051758</ele>
        <time>2021-04-11T09:49:56.000Z</time>
      </trkpt>
      <trkpt lat="49.12656" lon="1.27763">
        <ele>99.400001525879</ele>
        <time>2021-04-11T09:50:00.000Z</time>
      </trkpt>
      <trkpt lat="49.12665" lon="1.27759">
        <ele>100.40000152588</ele>
        <time>2021-04-11T09:50:02.000Z</time>
      </trkpt>
      <trkpt lat="49.12677" lon="1.27752">
        <ele>101.59999847412</ele>
        <time>2021-04-11T09:50:05.000Z</time>
      </trkpt>
      <trkpt lat="49.12681" lon="1.27749">
        <ele>102.19999694824</ele>
        <time>2021-04-11T09:50:06.000Z</time>
      </trkpt>
      <trkpt lat="49.12689" lon="1.27742">
        <ele>102.80000305176</ele>
        <time>2021-04-11T09:50:08.000Z</time>
      </trkpt>
      <trkpt lat="49.12707" lon="1.27727">
        <ele>103.80000305176</ele>
        <time>2021-04-11T09:50:13.000Z</time>
      </trkpt>
      <trkpt lat="49.12719" lon="1.27724">
        <ele>105</ele>
        <time>2021-04-11T09:50:16.000Z</time>
      </trkpt>
      <trkpt lat="49.12723" lon="1.27725">
        <ele>105.19999694824</ele>
        <time>2021-04-11T09:50:17.000Z</time>
      </trkpt>
      <trkpt lat="49.12727" lon="1.27727">
        <ele>105.40000152588</ele>
        <time>2021-04-11T09:50:18.000Z</time>
      </trkpt>
      <trkpt lat="49.1273" lon="1.27734">
        <ele>105.80000305176</ele>
        <time>2021-04-11T09:50:20.000Z</time>
      </trkpt>
      <trkpt lat="49.12732" lon="1.27743">
        <ele>106.19999694824</ele>
        <time>2021-04-11T09:50:22.000Z</time>
      </trkpt>
      <trkpt lat="49.12731" lon="1.27751">
        <ele>106.59999847412</ele>
        <time>2021-04-11T09:50:24.000Z</time>
      </trkpt>
      <trkpt lat="49.1273" lon="1.27755">
        <ele>107</ele>
        <time>2021-04-11T09:50:25.000Z</time>
      </trkpt>
      <trkpt lat="49.12729" lon="1.2776">
        <ele>107.19999694824</ele>
        <time>2021-04-11T09:50:26.000Z</time>
      </trkpt>
      <trkpt lat="49.12725" lon="1.27776">
        <ele>108.40000152588</ele>
        <time>2021-04-11T09:50:30.000Z</time>
      </trkpt>
      <trkpt lat="49.12723" lon="1.27783">
        <ele>109.19999694824</ele>
        <time>2021-04-11T09:50:32.000Z</time>
      </trkpt>
      <trkpt lat="49.12722" lon="1.27787">
        <ele>109.40000152588</ele>
        <time>2021-04-11T09:50:33.000Z</time>
      </trkpt>
      <trkpt lat="49.12722" lon="1.27795">
        <ele>110</ele>
        <time>2021-04-11T09:50:35.000Z</time>
      </trkpt>
      <trkpt lat="49.12722" lon="1.27803">
        <ele>110.59999847412</ele>
        <time>2021-04-11T09:50:37.000Z</time>
      </trkpt>
      <trkpt lat="49.12723" lon="1.27814">
        <ele>111.19999694824</ele>
        <time>2021-04-11T09:50:40.000Z</time>
      </trkpt>
      <trkpt lat="49.12723" lon="1.27823">
        <ele>111.80000305176</ele>
        <time>2021-04-11T09:50:42.000Z</time>
      </trkpt>
      <trkpt lat="49.12728" lon="1.27845">
        <ele>112.80000305176</ele>
        <time>2021-04-11T09:50:47.000Z</time>
      </trkpt>
      <trkpt lat="49.12729" lon="1.2785">
        <ele>113</ele>
        <time>2021-04-11T09:50:48.000Z</time>
      </trkpt>
      <trkpt lat="49.12738" lon="1.27876">
        <ele>114</ele>
        <time>2021-04-11T09:50:54.000Z</time>
      </trkpt>
      <trkpt lat="49.1274" lon="1.2788">
        <ele>114.19999694824</ele>
        <time>2021-04-11T09:50:55.000Z</time>
      </trkpt>
      <trkpt lat="49.12749" lon="1.27898">
        <ele>115</ele>
        <time>2021-04-11T09:51:00.000Z</time>
      </trkpt>
      <trkpt lat="49.12753" lon="1.27906">
        <ele>115.19999694824</ele>
        <time>2021-04-11T09:51:02.000Z</time>
      </trkpt>
      <trkpt lat="49.12766" lon="1.27935">
        <ele>116</ele>
        <time>2021-04-11T09:51:09.000Z</time>
      </trkpt>
      <trkpt lat="49.12781" lon="1.27968">
        <ele>117</ele>
        <time>2021-04-11T09:51:17.000Z</time>
      </trkpt>
      <trkpt lat="49.12783" lon="1.27973">
        <ele>117</ele>
        <time>2021-04-11T09:51:18.000Z</time>
      </trkpt>
      <trkpt lat="49.12796" lon="1.28001">
        <ele>118</ele>
        <time>2021-04-11T09:51:24.000Z</time>
      </trkpt>
      <trkpt lat="49.12798" lon="1.28007">
        <ele>118.19999694824</ele>
        <time>2021-04-11T09:51:25.000Z</time>
      </trkpt>
      <trkpt lat="49.12811" lon="1.2805">
        <ele>118.59999847412</ele>
        <time>2021-04-11T09:51:33.000Z</time>
      </trkpt>
      <trkpt lat="49.1282" lon="1.28088">
        <ele>119.40000152588</ele>
        <time>2021-04-11T09:51:40.000Z</time>
      </trkpt>
      <trkpt lat="49.12825" lon="1.28116">
        <ele>120.40000152588</ele>
        <time>2021-04-11T09:51:45.000Z</time>
      </trkpt>
      <trkpt lat="49.12831" lon="1.28139">
        <ele>121.19999694824</ele>
        <time>2021-04-11T09:51:49.000Z</time>
      </trkpt>
      <trkpt lat="49.12832" lon="1.28145">
        <ele>121.40000152588</ele>
        <time>2021-04-11T09:51:50.000Z</time>
      </trkpt>
      <trkpt lat="49.12836" lon="1.28165">
        <ele>121.40000152588</ele>
        <time>2021-04-11T09:51:53.000Z</time>
      </trkpt>
      <trkpt lat="49.12841" lon="1.28192">
        <ele>121.59999847412</ele>
        <time>2021-04-11T09:51:57.000Z</time>
      </trkpt>
      <trkpt lat="49.12851" lon="1.28241">
        <ele>122.19999694824</ele>
        <time>2021-04-11T09:52:04.000Z</time>
      </trkpt>
      <trkpt lat="49.12856" lon="1.28287">
        <ele>122.19999694824</ele>
        <time>2021-04-11T09:52:10.000Z</time>
      </trkpt>
      <trkpt lat="49.12856" lon="1.28295">
        <ele>122.19999694824</ele>
        <time>2021-04-11T09:52:11.000Z</time>
      </trkpt>
      <trkpt lat="49.12857" lon="1.28357">
        <ele>122</ele>
        <time>2021-04-11T09:52:18.000Z</time>
      </trkpt>
      <trkpt lat="49.12859" lon="1.28393">
        <ele>121.80000305176</ele>
        <time>2021-04-11T09:52:22.000Z</time>
      </trkpt>
      <trkpt lat="49.12858" lon="1.28411">
        <ele>121.80000305176</ele>
        <time>2021-04-11T09:52:24.000Z</time>
      </trkpt>
      <trkpt lat="49.12856" lon="1.28485">
        <ele>121.40000152588</ele>
        <time>2021-04-11T09:52:32.000Z</time>
      </trkpt>
      <trkpt lat="49.12856" lon="1.28494">
        <ele>121.40000152588</ele>
        <time>2021-04-11T09:52:33.000Z</time>
      </trkpt>
      <trkpt lat="49.1286" lon="1.28511">
        <ele>121.19999694824</ele>
        <time>2021-04-11T09:52:35.000Z</time>
      </trkpt>
      <trkpt lat="49.12874" lon="1.28525">
        <ele>120.80000305176</ele>
        <time>2021-04-11T09:52:38.000Z</time>
      </trkpt>
      <trkpt lat="49.12889" lon="1.28535">
        <ele>120.40000152588</ele>
        <time>2021-04-11T09:52:41.000Z</time>
      </trkpt>
      <trkpt lat="49.12904" lon="1.28546">
        <ele>120</ele>
        <time>2021-04-11T09:52:44.000Z</time>
      </trkpt>
      <trkpt lat="49.12909" lon="1.2855">
        <ele>119.80000305176</ele>
        <time>2021-04-11T09:52:45.000Z</time>
      </trkpt>
      <trkpt lat="49.12914" lon="1.28554">
        <ele>119.59999847412</ele>
        <time>2021-04-11T09:52:46.000Z</time>
      </trkpt>
      <trkpt lat="49.12945" lon="1.2858">
        <ele>119.40000152588</ele>
        <time>2021-04-11T09:52:52.000Z</time>
      </trkpt>
      <trkpt lat="49.1295" lon="1.28584">
        <ele>119.40000152588</ele>
        <time>2021-04-11T09:52:53.000Z</time>
      </trkpt>
      <trkpt lat="49.12961" lon="1.2859">
        <ele>119.40000152588</ele>
        <time>2021-04-11T09:52:55.000Z</time>
      </trkpt>
      <trkpt lat="49.12978" lon="1.28597">
        <ele>119.40000152588</ele>
        <time>2021-04-11T09:52:58.000Z</time>
      </trkpt>
      <trkpt lat="49.13026" lon="1.28606">
        <ele>119.59999847412</ele>
        <time>2021-04-11T09:53:06.000Z</time>
      </trkpt>
      <trkpt lat="49.13067" lon="1.28612">
        <ele>119.59999847412</ele>
        <time>2021-04-11T09:53:13.000Z</time>
      </trkpt>
      <trkpt lat="49.13114" lon="1.28621">
        <ele>119.59999847412</ele>
        <time>2021-04-11T09:53:21.000Z</time>
      </trkpt>
      <trkpt lat="49.13158" lon="1.28633">
        <ele>119.40000152588</ele>
        <time>2021-04-11T09:53:28.000Z</time>
      </trkpt>
      <trkpt lat="49.13188" lon="1.28648">
        <ele>118.19999694824</ele>
        <time>2021-04-11T09:53:33.000Z</time>
      </trkpt>
      <trkpt lat="49.13193" lon="1.28651">
        <ele>118</ele>
        <time>2021-04-11T09:53:34.000Z</time>
      </trkpt>
      <trkpt lat="49.13241" lon="1.28679">
        <ele>117.40000152588</ele>
        <time>2021-04-11T09:53:43.000Z</time>
      </trkpt>
      <trkpt lat="49.13287" lon="1.28703">
        <ele>118.19999694824</ele>
        <time>2021-04-11T09:53:52.000Z</time>
      </trkpt>
      <trkpt lat="49.13333" lon="1.28724">
        <ele>118.80000305176</ele>
        <time>2021-04-11T09:54:01.000Z</time>
      </trkpt>
      <trkpt lat="49.13343" lon="1.28727">
        <ele>119.19999694824</ele>
        <time>2021-04-11T09:54:03.000Z</time>
      </trkpt>
      <trkpt lat="49.13374" lon="1.28735">
        <ele>119.80000305176</ele>
        <time>2021-04-11T09:54:09.000Z</time>
      </trkpt>
      <trkpt lat="49.13407" lon="1.28744">
        <ele>120</ele>
        <time>2021-04-11T09:54:16.000Z</time>
      </trkpt>
      <trkpt lat="49.13421" lon="1.28751">
        <ele>120.19999694824</ele>
        <time>2021-04-11T09:54:19.000Z</time>
      </trkpt>
      <trkpt lat="49.13439" lon="1.28764">
        <ele>120.59999847412</ele>
        <time>2021-04-11T09:54:23.000Z</time>
      </trkpt>
      <trkpt lat="49.13452" lon="1.28775">
        <ele>121.19999694824</ele>
        <time>2021-04-11T09:54:26.000Z</time>
      </trkpt>
      <trkpt lat="49.13466" lon="1.28786">
        <ele>121.40000152588</ele>
        <time>2021-04-11T09:54:29.000Z</time>
      </trkpt>
      <trkpt lat="49.1347" lon="1.28791">
        <ele>121.40000152588</ele>
        <time>2021-04-11T09:54:30.000Z</time>
      </trkpt>
      <trkpt lat="49.13481" lon="1.28818">
        <ele>121.40000152588</ele>
        <time>2021-04-11T09:54:34.000Z</time>
      </trkpt>
      <trkpt lat="49.13509" lon="1.28877">
        <ele>121</ele>
        <time>2021-04-11T09:54:43.000Z</time>
      </trkpt>
      <trkpt lat="49.13529" lon="1.28924">
        <ele>120.59999847412</ele>
        <time>2021-04-11T09:54:50.000Z</time>
      </trkpt>
      <trkpt lat="49.13539" lon="1.28947">
        <ele>120.19999694824</ele>
        <time>2021-04-11T09:54:53.000Z</time>
      </trkpt>
      <trkpt lat="49.13554" lon="1.28988">
        <ele>119.40000152588</ele>
        <time>2021-04-11T09:54:58.000Z</time>
      </trkpt>
      <trkpt lat="49.13564" lon="1.29021">
        <ele>119</ele>
        <time>2021-04-11T09:55:02.000Z</time>
      </trkpt>
      <trkpt lat="49.13572" lon="1.29046">
        <ele>118.80000305176</ele>
        <time>2021-04-11T09:55:05.000Z</time>
      </trkpt>
      <trkpt lat="49.13577" lon="1.29052">
        <ele>118.59999847412</ele>
        <time>2021-04-11T09:55:06.000Z</time>
      </trkpt>
      <trkpt lat="49.13592" lon="1.29051">
        <ele>118.59999847412</ele>
        <time>2021-04-11T09:55:09.000Z</time>
      </trkpt>
      <trkpt lat="49.13597" lon="1.29048">
        <ele>118.59999847412</ele>
        <time>2021-04-11T09:55:10.000Z</time>
      </trkpt>
      <trkpt lat="49.13625" lon="1.29031">
        <ele>118</ele>
        <time>2021-04-11T09:55:16.000Z</time>
      </trkpt>
      <trkpt lat="49.13635" lon="1.29025">
        <ele>117.80000305176</ele>
        <time>2021-04-11T09:55:18.000Z</time>
      </trkpt>
      <trkpt lat="49.13665" lon="1.29003">
        <ele>117.80000305176</ele>
        <time>2021-04-11T09:55:25.000Z</time>
      </trkpt>
      <trkpt lat="49.13677" lon="1.28993">
        <ele>118.19999694824</ele>
        <time>2021-04-11T09:55:28.000Z</time>
      </trkpt>
      <trkpt lat="49.1369" lon="1.28984">
        <ele>118.40000152588</ele>
        <time>2021-04-11T09:55:31.000Z</time>
      </trkpt>
      <trkpt lat="49.13706" lon="1.28971">
        <ele>119</ele>
        <time>2021-04-11T09:55:35.000Z</time>
      </trkpt>
      <trkpt lat="49.13726" lon="1.28955">
        <ele>119.59999847412</ele>
        <time>2021-04-11T09:55:40.000Z</time>
      </trkpt>
      <trkpt lat="49.1375" lon="1.28937">
        <ele>120.19999694824</ele>
        <time>2021-04-11T09:55:46.000Z</time>
      </trkpt>
      <trkpt lat="49.13753" lon="1.28935">
        <ele>120.40000152588</ele>
        <time>2021-04-11T09:55:47.000Z</time>
      </trkpt>
      <trkpt lat="49.13786" lon="1.28919">
        <ele>120.80000305176</ele>
        <time>2021-04-11T09:55:55.000Z</time>
      </trkpt>
      <trkpt lat="49.13794" lon="1.28917">
        <ele>121.40000152588</ele>
        <time>2021-04-11T09:55:57.000Z</time>
      </trkpt>
      <trkpt lat="49.13806" lon="1.28914">
        <ele>122</ele>
        <time>2021-04-11T09:56:00.000Z</time>
      </trkpt>
      <trkpt lat="49.13813" lon="1.28916">
        <ele>122.40000152588</ele>
        <time>2021-04-11T09:56:02.000Z</time>
      </trkpt>
      <trkpt lat="49.13818" lon="1.28926">
        <ele>122.40000152588</ele>
        <time>2021-04-11T09:56:04.000Z</time>
      </trkpt>
      <trkpt lat="49.13819" lon="1.28932">
        <ele>122.59999847412</ele>
        <time>2021-04-11T09:56:05.000Z</time>
      </trkpt>
      <trkpt lat="49.13825" lon="1.28958">
        <ele>123.59999847412</ele>
        <time>2021-04-11T09:56:09.000Z</time>
      </trkpt>
      <trkpt lat="49.13831" lon="1.28988">
        <ele>123.80000305176</ele>
        <time>2021-04-11T09:56:13.000Z</time>
      </trkpt>
      <trkpt lat="49.13837" lon="1.29042">
        <ele>124</ele>
        <time>2021-04-11T09:56:20.000Z</time>
      </trkpt>
      <trkpt lat="49.13841" lon="1.29064">
        <ele>124.19999694824</ele>
        <time>2021-04-11T09:56:23.000Z</time>
      </trkpt>
      <trkpt lat="49.13847" lon="1.29084">
        <ele>124.40000152588</ele>
        <time>2021-04-11T09:56:26.000Z</time>
      </trkpt>
      <trkpt lat="49.13854" lon="1.29122">
        <ele>124.40000152588</ele>
        <time>2021-04-11T09:56:31.000Z</time>
      </trkpt>
      <trkpt lat="49.13855" lon="1.2913">
        <ele>124.40000152588</ele>
        <time>2021-04-11T09:56:32.000Z</time>
      </trkpt>
      <trkpt lat="49.13855" lon="1.29148">
        <ele>124.19999694824</ele>
        <time>2021-04-11T09:56:34.000Z</time>
      </trkpt>
      <trkpt lat="49.13853" lon="1.29174">
        <ele>123.80000305176</ele>
        <time>2021-04-11T09:56:37.000Z</time>
      </trkpt>
      <trkpt lat="49.13846" lon="1.29218">
        <ele>122.59999847412</ele>
        <time>2021-04-11T09:56:42.000Z</time>
      </trkpt>
      <trkpt lat="49.13844" lon="1.29225">
        <ele>122.40000152588</ele>
        <time>2021-04-11T09:56:43.000Z</time>
      </trkpt>
      <trkpt lat="49.13843" lon="1.29232">
        <ele>122.40000152588</ele>
        <time>2021-04-11T09:56:44.000Z</time>
      </trkpt>
      <trkpt lat="49.13842" lon="1.29238">
        <ele>122.40000152588</ele>
        <time>2021-04-11T09:56:45.000Z</time>
      </trkpt>
      <trkpt lat="49.13846" lon="1.29244">
        <ele>122.19999694824</ele>
        <time>2021-04-11T09:56:47.000Z</time>
      </trkpt>
      <trkpt lat="49.13864" lon="1.29258">
        <ele>121.59999847412</ele>
        <time>2021-04-11T09:56:53.000Z</time>
      </trkpt>
      <trkpt lat="49.13868" lon="1.29259">
        <ele>121.59999847412</ele>
        <time>2021-04-11T09:56:54.000Z</time>
      </trkpt>
      <trkpt lat="49.13884" lon="1.29262">
        <ele>121.59999847412</ele>
        <time>2021-04-11T09:56:58.000Z</time>
      </trkpt>
      <trkpt lat="49.13888" lon="1.29261">
        <ele>121.59999847412</ele>
        <time>2021-04-11T09:57:00.000Z</time>
      </trkpt>
      <trkpt lat="49.13889" lon="1.2926">
        <ele>121.59999847412</ele>
        <time>2021-04-11T09:57:01.000Z</time>
      </trkpt>
      <trkpt lat="49.13895" lon="1.29255">
        <ele>121.59999847412</ele>
        <time>2021-04-11T09:57:04.000Z</time>
      </trkpt>
      <trkpt lat="49.13898" lon="1.29253">
        <ele>121.59999847412</ele>
        <time>2021-04-11T09:57:05.000Z</time>
      </trkpt>
      <trkpt lat="49.13923" lon="1.29231">
        <ele>122</ele>
        <time>2021-04-11T09:57:12.000Z</time>
      </trkpt>
      <trkpt lat="49.13926" lon="1.29227">
        <ele>122</ele>
        <time>2021-04-11T09:57:13.000Z</time>
      </trkpt>
      <trkpt lat="49.13934" lon="1.292">
        <ele>122</ele>
        <time>2021-04-11T09:57:17.000Z</time>
      </trkpt>
      <trkpt lat="49.13936" lon="1.29192">
        <ele>122.19999694824</ele>
        <time>2021-04-11T09:57:18.000Z</time>
      </trkpt>
      <trkpt lat="49.13938" lon="1.29185">
        <ele>122.19999694824</ele>
        <time>2021-04-11T09:57:19.000Z</time>
      </trkpt>
      <trkpt lat="49.13948" lon="1.29168">
        <ele>122.40000152588</ele>
        <time>2021-04-11T09:57:22.000Z</time>
      </trkpt>
      <trkpt lat="49.13957" lon="1.29159">
        <ele>122.59999847412</ele>
        <time>2021-04-11T09:57:24.000Z</time>
      </trkpt>
      <trkpt lat="49.1397" lon="1.29149">
        <ele>122.80000305176</ele>
        <time>2021-04-11T09:57:27.000Z</time>
      </trkpt>
      <trkpt lat="49.13981" lon="1.29155">
        <ele>123</ele>
        <time>2021-04-11T09:57:30.000Z</time>
      </trkpt>
      <trkpt lat="49.13986" lon="1.29168">
        <ele>123.19999694824</ele>
        <time>2021-04-11T09:57:32.000Z</time>
      </trkpt>
      <trkpt lat="49.13991" lon="1.29184">
        <ele>123.19999694824</ele>
        <time>2021-04-11T09:57:34.000Z</time>
      </trkpt>
      <trkpt lat="49.1401" lon="1.29243">
        <ele>123.19999694824</ele>
        <time>2021-04-11T09:57:41.000Z</time>
      </trkpt>
      <trkpt lat="49.14033" lon="1.29323">
        <ele>122.40000152588</ele>
        <time>2021-04-11T09:57:50.000Z</time>
      </trkpt>
      <trkpt lat="49.14044" lon="1.29366">
        <ele>121.19999694824</ele>
        <time>2021-04-11T09:57:55.000Z</time>
      </trkpt>
      <trkpt lat="49.14053" lon="1.294">
        <ele>120.59999847412</ele>
        <time>2021-04-11T09:57:59.000Z</time>
      </trkpt>
      <trkpt lat="49.14075" lon="1.29484">
        <ele>120.19999694824</ele>
        <time>2021-04-11T09:58:09.000Z</time>
      </trkpt>
      <trkpt lat="49.14077" lon="1.29492">
        <ele>120.19999694824</ele>
        <time>2021-04-11T09:58:10.000Z</time>
      </trkpt>
      <trkpt lat="49.14093" lon="1.29551">
        <ele>120.19999694824</ele>
        <time>2021-04-11T09:58:17.000Z</time>
      </trkpt>
      <trkpt lat="49.14098" lon="1.29569">
        <ele>119.80000305176</ele>
        <time>2021-04-11T09:58:19.000Z</time>
      </trkpt>
      <trkpt lat="49.14115" lon="1.29629">
        <ele>119.40000152588</ele>
        <time>2021-04-11T09:58:26.000Z</time>
      </trkpt>
      <trkpt lat="49.14128" lon="1.29674">
        <ele>119</ele>
        <time>2021-04-11T09:58:31.000Z</time>
      </trkpt>
      <trkpt lat="49.14133" lon="1.29692">
        <ele>119</ele>
        <time>2021-04-11T09:58:33.000Z</time>
      </trkpt>
      <trkpt lat="49.14154" lon="1.29767">
        <ele>118</ele>
        <time>2021-04-11T09:58:41.000Z</time>
      </trkpt>
      <trkpt lat="49.14165" lon="1.29798">
        <ele>117.40000152588</ele>
        <time>2021-04-11T09:58:45.000Z</time>
      </trkpt>
      <trkpt lat="49.14169" lon="1.29805">
        <ele>117.19999694824</ele>
        <time>2021-04-11T09:58:46.000Z</time>
      </trkpt>
      <trkpt lat="49.14186" lon="1.29827">
        <ele>117</ele>
        <time>2021-04-11T09:58:50.000Z</time>
      </trkpt>
      <trkpt lat="49.1419" lon="1.29831">
        <ele>117</ele>
        <time>2021-04-11T09:58:51.000Z</time>
      </trkpt>
      <trkpt lat="49.14194" lon="1.29834">
        <ele>117</ele>
        <time>2021-04-11T09:58:52.000Z</time>
      </trkpt>
      <trkpt lat="49.14215" lon="1.29846">
        <ele>117</ele>
        <time>2021-04-11T09:58:57.000Z</time>
      </trkpt>
      <trkpt lat="49.14244" lon="1.2986">
        <ele>117.80000305176</ele>
        <time>2021-04-11T09:59:04.000Z</time>
      </trkpt>
      <trkpt lat="49.14248" lon="1.29862">
        <ele>118.19999694824</ele>
        <time>2021-04-11T09:59:05.000Z</time>
      </trkpt>
      <trkpt lat="49.14261" lon="1.29868">
        <ele>119</ele>
        <time>2021-04-11T09:59:08.000Z</time>
      </trkpt>
      <trkpt lat="49.14282" lon="1.29877">
        <ele>120</ele>
        <time>2021-04-11T09:59:13.000Z</time>
      </trkpt>
      <trkpt lat="49.14325" lon="1.29898">
        <ele>120.80000305176</ele>
        <time>2021-04-11T09:59:23.000Z</time>
      </trkpt>
      <trkpt lat="49.14346" lon="1.29913">
        <ele>121.19999694824</ele>
        <time>2021-04-11T09:59:29.000Z</time>
      </trkpt>
      <trkpt lat="49.14349" lon="1.29915">
        <ele>121.40000152588</ele>
        <time>2021-04-11T09:59:30.000Z</time>
      </trkpt>
      <trkpt lat="49.14351" lon="1.29916">
        <ele>122.19999694824</ele>
        <time>2021-04-11T09:59:34.000Z</time>
      </trkpt>
      <trkpt lat="49.14354" lon="1.29916">
        <ele>124.19999694824</ele>
        <time>2021-04-11T09:59:42.000Z</time>
      </trkpt>
      <trkpt lat="49.14354" lon="1.29916">
        <ele>124.59999847412</ele>
        <time>2021-04-11T09:59:44.000Z</time>
      </trkpt>
      <trkpt lat="49.14358" lon="1.29913">
        <ele>124.80000305176</ele>
        <time>2021-04-11T09:59:54.000Z</time>
      </trkpt>
      <trkpt lat="49.1436" lon="1.29914">
        <ele>124.80000305176</ele>
        <time>2021-04-11T09:59:55.000Z</time>
      </trkpt>
      <trkpt lat="49.14373" lon="1.2992">
        <ele>124.80000305176</ele>
        <time>2021-04-11T10:00:00.000Z</time>
      </trkpt>
      <trkpt lat="49.14395" lon="1.29928">
        <ele>125.19999694824</ele>
        <time>2021-04-11T10:00:07.000Z</time>
      </trkpt>
      <trkpt lat="49.14418" lon="1.29936">
        <ele>125.59999847412</ele>
        <time>2021-04-11T10:00:14.000Z</time>
      </trkpt>
      <trkpt lat="49.14428" lon="1.29939">
        <ele>126.19999694824</ele>
        <time>2021-04-11T10:00:17.000Z</time>
      </trkpt>
      <trkpt lat="49.14435" lon="1.29942">
        <ele>126.59999847412</ele>
        <time>2021-04-11T10:00:19.000Z</time>
      </trkpt>
      <trkpt lat="49.14454" lon="1.2995">
        <ele>127.40000152588</ele>
        <time>2021-04-11T10:00:24.000Z</time>
      </trkpt>
      <trkpt lat="49.1447" lon="1.29955">
        <ele>127.80000305176</ele>
        <time>2021-04-11T10:00:28.000Z</time>
      </trkpt>
      <trkpt lat="49.14481" lon="1.29958">
        <ele>127.80000305176</ele>
        <time>2021-04-11T10:00:31.000Z</time>
      </trkpt>
      <trkpt lat="49.14499" lon="1.2996">
        <ele>128</ele>
        <time>2021-04-11T10:00:37.000Z</time>
      </trkpt>
      <trkpt lat="49.145" lon="1.2996">
        <ele>128.19999694824</ele>
        <time>2021-04-11T10:00:40.000Z</time>
      </trkpt>
      <trkpt lat="49.14501" lon="1.29959">
        <ele>128.60000610352</ele>
        <time>2021-04-11T10:00:55.000Z</time>
      </trkpt>
      <trkpt lat="49.14502" lon="1.2996">
        <ele>128.60000610352</ele>
        <time>2021-04-11T10:00:58.000Z</time>
      </trkpt>
      <trkpt lat="49.14502" lon="1.29962">
        <ele>128.60000610352</ele>
        <time>2021-04-11T10:01:07.000Z</time>
      </trkpt>
      <trkpt lat="49.14502" lon="1.29963">
        <ele>128.60000610352</ele>
        <time>2021-04-11T10:01:09.000Z</time>
      </trkpt>
      <trkpt lat="49.14503" lon="1.29965">
        <ele>128.39999389648</ele>
        <time>2021-04-11T10:01:39.000Z</time>
      </trkpt>
      <trkpt lat="49.14505" lon="1.29967">
        <ele>128.39999389648</ele>
        <time>2021-04-11T10:01:41.000Z</time>
      </trkpt>
      <trkpt lat="49.14517" lon="1.29971">
        <ele>128.39999389648</ele>
        <time>2021-04-11T10:01:45.000Z</time>
      </trkpt>
      <trkpt lat="49.1452" lon="1.29972">
        <ele>128.39999389648</ele>
        <time>2021-04-11T10:01:46.000Z</time>
      </trkpt>
      <trkpt lat="49.14544" lon="1.29981">
        <ele>128.19999694824</ele>
        <time>2021-04-11T10:01:52.000Z</time>
      </trkpt>
      <trkpt lat="49.14577" lon="1.29997">
        <ele>126.80000305176</ele>
        <time>2021-04-11T10:01:58.000Z</time>
      </trkpt>
      <trkpt lat="49.14603" lon="1.30014">
        <ele>125.40000152588</ele>
        <time>2021-04-11T10:02:02.000Z</time>
      </trkpt>
      <trkpt lat="49.14615" lon="1.30023">
        <ele>124.59999847412</ele>
        <time>2021-04-11T10:02:04.000Z</time>
      </trkpt>
      <trkpt lat="49.14621" lon="1.30029">
        <ele>124.40000152588</ele>
        <time>2021-04-11T10:02:05.000Z</time>
      </trkpt>
      <trkpt lat="49.14646" lon="1.30051">
        <ele>123</ele>
        <time>2021-04-11T10:02:09.000Z</time>
      </trkpt>
      <trkpt lat="49.14664" lon="1.30067">
        <ele>121.80000305176</ele>
        <time>2021-04-11T10:02:12.000Z</time>
      </trkpt>
      <trkpt lat="49.14703" lon="1.30104">
        <ele>120.40000152588</ele>
        <time>2021-04-11T10:02:19.000Z</time>
      </trkpt>
      <trkpt lat="49.14714" lon="1.30114">
        <ele>119.59999847412</ele>
        <time>2021-04-11T10:02:21.000Z</time>
      </trkpt>
      <trkpt lat="49.14725" lon="1.30125">
        <ele>119.40000152588</ele>
        <time>2021-04-11T10:02:23.000Z</time>
      </trkpt>
      <trkpt lat="49.14744" lon="1.30152">
        <ele>119.40000152588</ele>
        <time>2021-04-11T10:02:27.000Z</time>
      </trkpt>
      <trkpt lat="49.1477" lon="1.30211">
        <ele>119.19999694824</ele>
        <time>2021-04-11T10:02:34.000Z</time>
      </trkpt>
      <trkpt lat="49.14795" lon="1.30294">
        <ele>118.59999847412</ele>
        <time>2021-04-11T10:02:43.000Z</time>
      </trkpt>
      <trkpt lat="49.14806" lon="1.3033">
        <ele>118.40000152588</ele>
        <time>2021-04-11T10:02:47.000Z</time>
      </trkpt>
      <trkpt lat="49.14816" lon="1.30368">
        <ele>118.19999694824</ele>
        <time>2021-04-11T10:02:51.000Z</time>
      </trkpt>
      <trkpt lat="49.14838" lon="1.30444">
        <ele>117.59999847412</ele>
        <time>2021-04-11T10:02:59.000Z</time>
      </trkpt>
      <trkpt lat="49.14845" lon="1.30472">
        <ele>117.40000152588</ele>
        <time>2021-04-11T10:03:02.000Z</time>
      </trkpt>
      <trkpt lat="49.14848" lon="1.30481">
        <ele>117.40000152588</ele>
        <time>2021-04-11T10:03:03.000Z</time>
      </trkpt>
      <trkpt lat="49.14863" lon="1.30535">
        <ele>116.40000152588</ele>
        <time>2021-04-11T10:03:09.000Z</time>
      </trkpt>
      <trkpt lat="49.1487" lon="1.30564">
        <ele>116.40000152588</ele>
        <time>2021-04-11T10:03:12.000Z</time>
      </trkpt>
      <trkpt lat="49.14889" lon="1.30632">
        <ele>115.59999847412</ele>
        <time>2021-04-11T10:03:19.000Z</time>
      </trkpt>
      <trkpt lat="49.14904" lon="1.30686">
        <ele>115.19999694824</ele>
        <time>2021-04-11T10:03:25.000Z</time>
      </trkpt>
      <trkpt lat="49.14907" lon="1.30695">
        <ele>115.19999694824</ele>
        <time>2021-04-11T10:03:26.000Z</time>
      </trkpt>
      <trkpt lat="49.14925" lon="1.30759">
        <ele>114.19999694824</ele>
        <time>2021-04-11T10:03:33.000Z</time>
      </trkpt>
      <trkpt lat="49.14929" lon="1.30776">
        <ele>113.59999847412</ele>
        <time>2021-04-11T10:03:35.000Z</time>
      </trkpt>
      <trkpt lat="49.14924" lon="1.30802">
        <ele>113</ele>
        <time>2021-04-11T10:03:38.000Z</time>
      </trkpt>
      <trkpt lat="49.1492" lon="1.30808">
        <ele>112.80000305176</ele>
        <time>2021-04-11T10:03:39.000Z</time>
      </trkpt>
      <trkpt lat="49.1491" lon="1.30826">
        <ele>111.80000305176</ele>
        <time>2021-04-11T10:03:42.000Z</time>
      </trkpt>
      <trkpt lat="49.14907" lon="1.30832">
        <ele>111.59999847412</ele>
        <time>2021-04-11T10:03:43.000Z</time>
      </trkpt>
      <trkpt lat="49.14893" lon="1.30854">
        <ele>111.40000152588</ele>
        <time>2021-04-11T10:03:47.000Z</time>
      </trkpt>
      <trkpt lat="49.14887" lon="1.30865">
        <ele>111.40000152588</ele>
        <time>2021-04-11T10:03:49.000Z</time>
      </trkpt>
      <trkpt lat="49.14868" lon="1.30887">
        <ele>112.19999694824</ele>
        <time>2021-04-11T10:03:54.000Z</time>
      </trkpt>
      <trkpt lat="49.1486" lon="1.30894">
        <ele>112.59999847412</ele>
        <time>2021-04-11T10:03:56.000Z</time>
      </trkpt>
      <trkpt lat="49.14855" lon="1.30896">
        <ele>113</ele>
        <time>2021-04-11T10:03:57.000Z</time>
      </trkpt>
      <trkpt lat="49.14833" lon="1.3091">
        <ele>114</ele>
        <time>2021-04-11T10:04:02.000Z</time>
      </trkpt>
      <trkpt lat="49.14824" lon="1.30915">
        <ele>114.40000152588</ele>
        <time>2021-04-11T10:04:04.000Z</time>
      </trkpt>
      <trkpt lat="49.14807" lon="1.30926">
        <ele>114.80000305176</ele>
        <time>2021-04-11T10:04:08.000Z</time>
      </trkpt>
      <trkpt lat="49.14798" lon="1.30931">
        <ele>115</ele>
        <time>2021-04-11T10:04:10.000Z</time>
      </trkpt>
      <trkpt lat="49.14794" lon="1.30933">
        <ele>115</ele>
        <time>2021-04-11T10:04:11.000Z</time>
      </trkpt>
      <trkpt lat="49.14765" lon="1.30953">
        <ele>115.40000152588</ele>
        <time>2021-04-11T10:04:18.000Z</time>
      </trkpt>
      <trkpt lat="49.14748" lon="1.30966">
        <ele>115.40000152588</ele>
        <time>2021-04-11T10:04:22.000Z</time>
      </trkpt>
      <trkpt lat="49.14739" lon="1.30973">
        <ele>115.40000152588</ele>
        <time>2021-04-11T10:04:24.000Z</time>
      </trkpt>
      <trkpt lat="49.14728" lon="1.30986">
        <ele>115.40000152588</ele>
        <time>2021-04-11T10:04:27.000Z</time>
      </trkpt>
      <trkpt lat="49.14723" lon="1.30995">
        <ele>115.40000152588</ele>
        <time>2021-04-11T10:04:29.000Z</time>
      </trkpt>
      <trkpt lat="49.14722" lon="1.31015">
        <ele>115.59999847412</ele>
        <time>2021-04-11T10:04:32.000Z</time>
      </trkpt>
      <trkpt lat="49.14722" lon="1.31053">
        <ele>115.59999847412</ele>
        <time>2021-04-11T10:04:37.000Z</time>
      </trkpt>
      <trkpt lat="49.14721" lon="1.31061">
        <ele>115.59999847412</ele>
        <time>2021-04-11T10:04:38.000Z</time>
      </trkpt>
      <trkpt lat="49.14719" lon="1.31077">
        <ele>115.59999847412</ele>
        <time>2021-04-11T10:04:40.000Z</time>
      </trkpt>
      <trkpt lat="49.14717" lon="1.31091">
        <ele>115.59999847412</ele>
        <time>2021-04-11T10:04:42.000Z</time>
      </trkpt>
      <trkpt lat="49.14715" lon="1.31098">
        <ele>115.59999847412</ele>
        <time>2021-04-11T10:04:43.000Z</time>
      </trkpt>
      <trkpt lat="49.14709" lon="1.31122">
        <ele>115.40000152588</ele>
        <time>2021-04-11T10:04:47.000Z</time>
      </trkpt>
      <trkpt lat="49.14706" lon="1.31135">
        <ele>115.19999694824</ele>
        <time>2021-04-11T10:04:49.000Z</time>
      </trkpt>
      <trkpt lat="49.14701" lon="1.31157">
        <ele>114.80000305176</ele>
        <time>2021-04-11T10:04:52.000Z</time>
      </trkpt>
      <trkpt lat="49.14698" lon="1.31164">
        <ele>114.59999847412</ele>
        <time>2021-04-11T10:04:53.000Z</time>
      </trkpt>
      <trkpt lat="49.14687" lon="1.31189">
        <ele>114.19999694824</ele>
        <time>2021-04-11T10:04:57.000Z</time>
      </trkpt>
      <trkpt lat="49.14683" lon="1.31195">
        <ele>114.19999694824</ele>
        <time>2021-04-11T10:04:58.000Z</time>
      </trkpt>
      <trkpt lat="49.14669" lon="1.31221">
        <ele>113.80000305176</ele>
        <time>2021-04-11T10:05:02.000Z</time>
      </trkpt>
      <trkpt lat="49.14661" lon="1.31236">
        <ele>113.59999847412</ele>
        <time>2021-04-11T10:05:05.000Z</time>
      </trkpt>
      <trkpt lat="49.1466" lon="1.31241">
        <ele>113.59999847412</ele>
        <time>2021-04-11T10:05:06.000Z</time>
      </trkpt>
      <trkpt lat="49.14659" lon="1.31252">
        <ele>113.19999694824</ele>
        <time>2021-04-11T10:05:09.000Z</time>
      </trkpt>
      <trkpt lat="49.14661" lon="1.31257">
        <ele>112.40000152588</ele>
        <time>2021-04-11T10:05:11.000Z</time>
      </trkpt>
      <trkpt lat="49.14666" lon="1.31266">
        <ele>111.80000305176</ele>
        <time>2021-04-11T10:05:14.000Z</time>
      </trkpt>
      <trkpt lat="49.14679" lon="1.31281">
        <ele>111.59999847412</ele>
        <time>2021-04-11T10:05:19.000Z</time>
      </trkpt>
      <trkpt lat="49.14693" lon="1.31296">
        <ele>111.80000305176</ele>
        <time>2021-04-11T10:05:24.000Z</time>
      </trkpt>
      <trkpt lat="49.14708" lon="1.3131">
        <ele>112</ele>
        <time>2021-04-11T10:05:29.000Z</time>
      </trkpt>
      <trkpt lat="49.1473" lon="1.3133">
        <ele>112.40000152588</ele>
        <time>2021-04-11T10:05:35.000Z</time>
      </trkpt>
      <trkpt lat="49.14752" lon="1.31351">
        <ele>112.59999847412</ele>
        <time>2021-04-11T10:05:41.000Z</time>
      </trkpt>
      <trkpt lat="49.14763" lon="1.31361">
        <ele>112.80000305176</ele>
        <time>2021-04-11T10:05:44.000Z</time>
      </trkpt>
      <trkpt lat="49.14774" lon="1.3137">
        <ele>113</ele>
        <time>2021-04-11T10:05:47.000Z</time>
      </trkpt>
      <trkpt lat="49.14786" lon="1.31385">
        <ele>113</ele>
        <time>2021-04-11T10:05:51.000Z</time>
      </trkpt>
      <trkpt lat="49.14791" lon="1.31388">
        <ele>113</ele>
        <time>2021-04-11T10:05:52.000Z</time>
      </trkpt>
      <trkpt lat="49.14807" lon="1.31405">
        <ele>113.19999694824</ele>
        <time>2021-04-11T10:05:57.000Z</time>
      </trkpt>
      <trkpt lat="49.1483" lon="1.31427">
        <ele>113.59999847412</ele>
        <time>2021-04-11T10:06:04.000Z</time>
      </trkpt>
      <trkpt lat="49.14848" lon="1.31444">
        <ele>114</ele>
        <time>2021-04-11T10:06:10.000Z</time>
      </trkpt>
      <trkpt lat="49.14858" lon="1.31456">
        <ele>114.40000152588</ele>
        <time>2021-04-11T10:06:15.000Z</time>
      </trkpt>
      <trkpt lat="49.14873" lon="1.31471">
        <ele>114.40000152588</ele>
        <time>2021-04-11T10:06:20.000Z</time>
      </trkpt>
      <trkpt lat="49.14887" lon="1.31486">
        <ele>114.19999694824</ele>
        <time>2021-04-11T10:06:24.000Z</time>
      </trkpt>
      <trkpt lat="49.14891" lon="1.31489">
        <ele>114.19999694824</ele>
        <time>2021-04-11T10:06:25.000Z</time>
      </trkpt>
      <trkpt lat="49.14897" lon="1.31492">
        <ele>114</ele>
        <time>2021-04-11T10:06:27.000Z</time>
      </trkpt>
      <trkpt lat="49.1491" lon="1.31502">
        <ele>113.59999847412</ele>
        <time>2021-04-11T10:06:31.000Z</time>
      </trkpt>
      <trkpt lat="49.14925" lon="1.31518">
        <ele>113.19999694824</ele>
        <time>2021-04-11T10:06:36.000Z</time>
      </trkpt>
      <trkpt lat="49.14941" lon="1.31536">
        <ele>113.19999694824</ele>
        <time>2021-04-11T10:06:41.000Z</time>
      </trkpt>
      <trkpt lat="49.14943" lon="1.3154">
        <ele>112.80000305176</ele>
        <time>2021-04-11T10:06:42.000Z</time>
      </trkpt>
      <trkpt lat="49.14956" lon="1.31556">
        <ele>112.19999694824</ele>
        <time>2021-04-11T10:06:46.000Z</time>
      </trkpt>
      <trkpt lat="49.14971" lon="1.31571">
        <ele>111.80000305176</ele>
        <time>2021-04-11T10:06:50.000Z</time>
      </trkpt>
      <trkpt lat="49.14976" lon="1.31575">
        <ele>111.59999847412</ele>
        <time>2021-04-11T10:06:51.000Z</time>
      </trkpt>
      <trkpt lat="49.1499" lon="1.31588">
        <ele>111.19999694824</ele>
        <time>2021-04-11T10:06:54.000Z</time>
      </trkpt>
      <trkpt lat="49.14999" lon="1.31598">
        <ele>111</ele>
        <time>2021-04-11T10:06:56.000Z</time>
      </trkpt>
      <trkpt lat="49.15003" lon="1.31602">
        <ele>110.80000305176</ele>
        <time>2021-04-11T10:06:57.000Z</time>
      </trkpt>
      <trkpt lat="49.15007" lon="1.31607">
        <ele>110.59999847412</ele>
        <time>2021-04-11T10:06:58.000Z</time>
      </trkpt>
      <trkpt lat="49.15016" lon="1.31619">
        <ele>110</ele>
        <time>2021-04-11T10:07:01.000Z</time>
      </trkpt>
      <trkpt lat="49.1502" lon="1.31623">
        <ele>109.80000305176</ele>
        <time>2021-04-11T10:07:02.000Z</time>
      </trkpt>
      <trkpt lat="49.15024" lon="1.31627">
        <ele>109.40000152588</ele>
        <time>2021-04-11T10:07:03.000Z</time>
      </trkpt>
      <trkpt lat="49.15029" lon="1.31632">
        <ele>109.19999694824</ele>
        <time>2021-04-11T10:07:04.000Z</time>
      </trkpt>
      <trkpt lat="49.15033" lon="1.31637">
        <ele>109.19999694824</ele>
        <time>2021-04-11T10:07:05.000Z</time>
      </trkpt>
      <trkpt lat="49.15049" lon="1.31656">
        <ele>108.80000305176</ele>
        <time>2021-04-11T10:07:09.000Z</time>
      </trkpt>
      <trkpt lat="49.15059" lon="1.31669">
        <ele>108.40000152588</ele>
        <time>2021-04-11T10:07:11.000Z</time>
      </trkpt>
      <trkpt lat="49.1508" lon="1.31695">
        <ele>107</ele>
        <time>2021-04-11T10:07:15.000Z</time>
      </trkpt>
      <trkpt lat="49.15095" lon="1.31713">
        <ele>106</ele>
        <time>2021-04-11T10:07:18.000Z</time>
      </trkpt>
      <trkpt lat="49.15105" lon="1.31727">
        <ele>104.80000305176</ele>
        <time>2021-04-11T10:07:20.000Z</time>
      </trkpt>
      <trkpt lat="49.15111" lon="1.31734">
        <ele>104.40000152588</ele>
        <time>2021-04-11T10:07:21.000Z</time>
      </trkpt>
      <trkpt lat="49.15133" lon="1.31765">
        <ele>103.40000152588</ele>
        <time>2021-04-11T10:07:25.000Z</time>
      </trkpt>
      <trkpt lat="49.15136" lon="1.31773">
        <ele>103.19999694824</ele>
        <time>2021-04-11T10:07:26.000Z</time>
      </trkpt>
      <trkpt lat="49.15141" lon="1.31788">
        <ele>102.40000152588</ele>
        <time>2021-04-11T10:07:28.000Z</time>
      </trkpt>
      <trkpt lat="49.15143" lon="1.31796">
        <ele>102</ele>
        <time>2021-04-11T10:07:29.000Z</time>
      </trkpt>
      <trkpt lat="49.1515" lon="1.31813">
        <ele>101.19999694824</ele>
        <time>2021-04-11T10:07:31.000Z</time>
      </trkpt>
      <trkpt lat="49.15153" lon="1.31821">
        <ele>101</ele>
        <time>2021-04-11T10:07:32.000Z</time>
      </trkpt>
      <trkpt lat="49.15157" lon="1.31829">
        <ele>100.59999847412</ele>
        <time>2021-04-11T10:07:33.000Z</time>
      </trkpt>
      <trkpt lat="49.15165" lon="1.31841">
        <ele>100.19999694824</ele>
        <time>2021-04-11T10:07:35.000Z</time>
      </trkpt>
      <trkpt lat="49.15171" lon="1.31848">
        <ele>100</ele>
        <time>2021-04-11T10:07:37.000Z</time>
      </trkpt>
      <trkpt lat="49.15178" lon="1.31855">
        <ele>99.400001525879</ele>
        <time>2021-04-11T10:07:39.000Z</time>
      </trkpt>
      <trkpt lat="49.15182" lon="1.3186">
        <ele>99.199996948242</ele>
        <time>2021-04-11T10:07:40.000Z</time>
      </trkpt>
      <trkpt lat="49.15192" lon="1.31875">
        <ele>98.800003051758</ele>
        <time>2021-04-11T10:07:43.000Z</time>
      </trkpt>
      <trkpt lat="49.15196" lon="1.31879">
        <ele>98.800003051758</ele>
        <time>2021-04-11T10:07:44.000Z</time>
      </trkpt>
      <trkpt lat="49.15201" lon="1.31883">
        <ele>98.800003051758</ele>
        <time>2021-04-11T10:07:45.000Z</time>
      </trkpt>
      <trkpt lat="49.15212" lon="1.31893">
        <ele>98.599998474121</ele>
        <time>2021-04-11T10:07:47.000Z</time>
      </trkpt>
      <trkpt lat="49.15226" lon="1.31908">
        <ele>98.199996948242</ele>
        <time>2021-04-11T10:07:50.000Z</time>
      </trkpt>
      <trkpt lat="49.15248" lon="1.31931">
        <ele>97.800003051758</ele>
        <time>2021-04-11T10:07:55.000Z</time>
      </trkpt>
      <trkpt lat="49.15252" lon="1.31936">
        <ele>97.599998474121</ele>
        <time>2021-04-11T10:07:56.000Z</time>
      </trkpt>
      <trkpt lat="49.15263" lon="1.31952">
        <ele>97</ele>
        <time>2021-04-11T10:07:59.000Z</time>
      </trkpt>
      <trkpt lat="49.15266" lon="1.31959">
        <ele>96.800003051758</ele>
        <time>2021-04-11T10:08:00.000Z</time>
      </trkpt>
      <trkpt lat="49.15269" lon="1.31964">
        <ele>96.800003051758</ele>
        <time>2021-04-11T10:08:01.000Z</time>
      </trkpt>
      <trkpt lat="49.15278" lon="1.31979">
        <ele>96.599998474121</ele>
        <time>2021-04-11T10:08:04.000Z</time>
      </trkpt>
      <trkpt lat="49.15281" lon="1.31986">
        <ele>96.400001525879</ele>
        <time>2021-04-11T10:08:05.000Z</time>
      </trkpt>
      <trkpt lat="49.15297" lon="1.32014">
        <ele>95.599998474121</ele>
        <time>2021-04-11T10:08:09.000Z</time>
      </trkpt>
      <trkpt lat="49.15302" lon="1.32021">
        <ele>95.400001525879</ele>
        <time>2021-04-11T10:08:10.000Z</time>
      </trkpt>
      <trkpt lat="49.15323" lon="1.32057">
        <ele>94.400001525879</ele>
        <time>2021-04-11T10:08:15.000Z</time>
      </trkpt>
      <trkpt lat="49.15327" lon="1.32064">
        <ele>94.400001525879</ele>
        <time>2021-04-11T10:08:16.000Z</time>
      </trkpt>
      <trkpt lat="49.15351" lon="1.32107">
        <ele>93.800003051758</ele>
        <time>2021-04-11T10:08:22.000Z</time>
      </trkpt>
      <trkpt lat="49.15361" lon="1.32127">
        <ele>93</ele>
        <time>2021-04-11T10:08:25.000Z</time>
      </trkpt>
      <trkpt lat="49.15374" lon="1.32149">
        <ele>91.800003051758</ele>
        <time>2021-04-11T10:08:29.000Z</time>
      </trkpt>
      <trkpt lat="49.1539" lon="1.32183">
        <ele>90.400001525879</ele>
        <time>2021-04-11T10:08:35.000Z</time>
      </trkpt>
      <trkpt lat="49.15397" lon="1.32201">
        <ele>89.199996948242</ele>
        <time>2021-04-11T10:08:38.000Z</time>
      </trkpt>
      <trkpt lat="49.15402" lon="1.32215">
        <ele>88.599998474121</ele>
        <time>2021-04-11T10:08:40.000Z</time>
      </trkpt>
      <trkpt lat="49.15415" lon="1.3224">
        <ele>88</ele>
        <time>2021-04-11T10:08:44.000Z</time>
      </trkpt>
      <trkpt lat="49.15417" lon="1.32244">
        <ele>88</ele>
        <time>2021-04-11T10:08:45.000Z</time>
      </trkpt>
      <trkpt lat="49.15419" lon="1.3225">
        <ele>87</ele>
        <time>2021-04-11T10:08:49.000Z</time>
      </trkpt>
      <trkpt lat="49.15422" lon="1.32253">
        <ele>86</ele>
        <time>2021-04-11T10:08:52.000Z</time>
      </trkpt>
      <trkpt lat="49.15427" lon="1.32262">
        <ele>85.400001525879</ele>
        <time>2021-04-11T10:08:55.000Z</time>
      </trkpt>
      <trkpt lat="49.15433" lon="1.32272">
        <ele>85.400001525879</ele>
        <time>2021-04-11T10:08:57.000Z</time>
      </trkpt>
      <trkpt lat="49.15441" lon="1.32283">
        <ele>85.199996948242</ele>
        <time>2021-04-11T10:08:59.000Z</time>
      </trkpt>
      <trkpt lat="49.15462" lon="1.32311">
        <ele>84.800003051758</ele>
        <time>2021-04-11T10:09:03.000Z</time>
      </trkpt>
      <trkpt lat="49.15472" lon="1.32327">
        <ele>84.599998474121</ele>
        <time>2021-04-11T10:09:05.000Z</time>
      </trkpt>
      <trkpt lat="49.155" lon="1.32373">
        <ele>83.599998474121</ele>
        <time>2021-04-11T10:09:10.000Z</time>
      </trkpt>
      <trkpt lat="49.15506" lon="1.32382">
        <ele>83.199996948242</ele>
        <time>2021-04-11T10:09:11.000Z</time>
      </trkpt>
      <trkpt lat="49.15516" lon="1.32401">
        <ele>82.599998474121</ele>
        <time>2021-04-11T10:09:13.000Z</time>
      </trkpt>
      <trkpt lat="49.15521" lon="1.32411">
        <ele>82.400001525879</ele>
        <time>2021-04-11T10:09:14.000Z</time>
      </trkpt>
      <trkpt lat="49.15531" lon="1.32432">
        <ele>81.800003051758</ele>
        <time>2021-04-11T10:09:16.000Z</time>
      </trkpt>
      <trkpt lat="49.15541" lon="1.32453">
        <ele>81.400001525879</ele>
        <time>2021-04-11T10:09:18.000Z</time>
      </trkpt>
      <trkpt lat="49.1555" lon="1.32474">
        <ele>80.599998474121</ele>
        <time>2021-04-11T10:09:20.000Z</time>
      </trkpt>
      <trkpt lat="49.15553" lon="1.32486">
        <ele>80.199996948242</ele>
        <time>2021-04-11T10:09:21.000Z</time>
      </trkpt>
      <trkpt lat="49.1555" lon="1.32512">
        <ele>79.800003051758</ele>
        <time>2021-04-11T10:09:23.000Z</time>
      </trkpt>
      <trkpt lat="49.15546" lon="1.32524">
        <ele>79.599998474121</ele>
        <time>2021-04-11T10:09:24.000Z</time>
      </trkpt>
      <trkpt lat="49.15545" lon="1.32537">
        <ele>79.400001525879</ele>
        <time>2021-04-11T10:09:25.000Z</time>
      </trkpt>
      <trkpt lat="49.15546" lon="1.3255">
        <ele>79</ele>
        <time>2021-04-11T10:09:26.000Z</time>
      </trkpt>
      <trkpt lat="49.15556" lon="1.32573">
        <ele>78.400001525879</ele>
        <time>2021-04-11T10:09:28.000Z</time>
      </trkpt>
      <trkpt lat="49.15573" lon="1.32588">
        <ele>77.800003051758</ele>
        <time>2021-04-11T10:09:30.000Z</time>
      </trkpt>
      <trkpt lat="49.15582" lon="1.32594">
        <ele>77.400001525879</ele>
        <time>2021-04-11T10:09:31.000Z</time>
      </trkpt>
      <trkpt lat="49.15591" lon="1.326">
        <ele>76.599998474121</ele>
        <time>2021-04-11T10:09:32.000Z</time>
      </trkpt>
      <trkpt lat="49.15599" lon="1.32606">
        <ele>76.199996948242</ele>
        <time>2021-04-11T10:09:33.000Z</time>
      </trkpt>
      <trkpt lat="49.15613" lon="1.32626">
        <ele>75.400001525879</ele>
        <time>2021-04-11T10:09:35.000Z</time>
      </trkpt>
      <trkpt lat="49.15623" lon="1.32669">
        <ele>73.800003051758</ele>
        <time>2021-04-11T10:09:38.000Z</time>
      </trkpt>
      <trkpt lat="49.15628" lon="1.32699">
        <ele>72.199996948242</ele>
        <time>2021-04-11T10:09:40.000Z</time>
      </trkpt>
      <trkpt lat="49.15635" lon="1.32729">
        <ele>70.599998474121</ele>
        <time>2021-04-11T10:09:42.000Z</time>
      </trkpt>
      <trkpt lat="49.1564" lon="1.32741">
        <ele>69.800003051758</ele>
        <time>2021-04-11T10:09:43.000Z</time>
      </trkpt>
      <trkpt lat="49.15644" lon="1.32754">
        <ele>69.199996948242</ele>
        <time>2021-04-11T10:09:44.000Z</time>
      </trkpt>
      <trkpt lat="49.15646" lon="1.32768">
        <ele>68.800003051758</ele>
        <time>2021-04-11T10:09:45.000Z</time>
      </trkpt>
      <trkpt lat="49.15644" lon="1.32781">
        <ele>68.199996948242</ele>
        <time>2021-04-11T10:09:46.000Z</time>
      </trkpt>
      <trkpt lat="49.1564" lon="1.32793">
        <ele>67.199996948242</ele>
        <time>2021-04-11T10:09:47.000Z</time>
      </trkpt>
      <trkpt lat="49.15636" lon="1.32805">
        <ele>66.199996948242</ele>
        <time>2021-04-11T10:09:48.000Z</time>
      </trkpt>
      <trkpt lat="49.15632" lon="1.3283">
        <ele>64.400001525879</ele>
        <time>2021-04-11T10:09:50.000Z</time>
      </trkpt>
      <trkpt lat="49.1563" lon="1.32842">
        <ele>63.599998474121</ele>
        <time>2021-04-11T10:09:51.000Z</time>
      </trkpt>
      <trkpt lat="49.15629" lon="1.32854">
        <ele>63</ele>
        <time>2021-04-11T10:09:52.000Z</time>
      </trkpt>
      <trkpt lat="49.15626" lon="1.32878">
        <ele>61.200000762939</ele>
        <time>2021-04-11T10:09:54.000Z</time>
      </trkpt>
      <trkpt lat="49.15623" lon="1.329">
        <ele>60</ele>
        <time>2021-04-11T10:09:56.000Z</time>
      </trkpt>
      <trkpt lat="49.15613" lon="1.32965">
        <ele>59.599998474121</ele>
        <time>2021-04-11T10:10:02.000Z</time>
      </trkpt>
      <trkpt lat="49.1561" lon="1.32973">
        <ele>59.599998474121</ele>
        <time>2021-04-11T10:10:03.000Z</time>
      </trkpt>
      <trkpt lat="49.15607" lon="1.32997">
        <ele>60</ele>
        <time>2021-04-11T10:10:06.000Z</time>
      </trkpt>
      <trkpt lat="49.15616" lon="1.33001">
        <ele>60.200000762939</ele>
        <time>2021-04-11T10:10:08.000Z</time>
      </trkpt>
      <trkpt lat="49.15627" lon="1.33008">
        <ele>60.599998474121</ele>
        <time>2021-04-11T10:10:11.000Z</time>
      </trkpt>
      <trkpt lat="49.15632" lon="1.33014">
        <ele>60.599998474121</ele>
        <time>2021-04-11T10:10:12.000Z</time>
      </trkpt>
      <trkpt lat="49.15644" lon="1.33028">
        <ele>60.799999237061</ele>
        <time>2021-04-11T10:10:14.000Z</time>
      </trkpt>
      <trkpt lat="49.15669" lon="1.33062">
        <ele>60.799999237061</ele>
        <time>2021-04-11T10:10:18.000Z</time>
      </trkpt>
      <trkpt lat="49.15676" lon="1.33075">
        <ele>60.799999237061</ele>
        <time>2021-04-11T10:10:20.000Z</time>
      </trkpt>
      <trkpt lat="49.15677" lon="1.33081">
        <ele>60.799999237061</ele>
        <time>2021-04-11T10:10:21.000Z</time>
      </trkpt>
      <trkpt lat="49.15674" lon="1.33099">
        <ele>59.200000762939</ele>
        <time>2021-04-11T10:10:24.000Z</time>
      </trkpt>
      <trkpt lat="49.15673" lon="1.33104">
        <ele>58.400001525879</ele>
        <time>2021-04-11T10:10:25.000Z</time>
      </trkpt>
      <trkpt lat="49.15674" lon="1.33108">
        <ele>57.400001525879</ele>
        <time>2021-04-11T10:10:26.000Z</time>
      </trkpt>
      <trkpt lat="49.15676" lon="1.33111">
        <ele>56.200000762939</ele>
        <time>2021-04-11T10:10:27.000Z</time>
      </trkpt>
      <trkpt lat="49.15678" lon="1.33116">
        <ele>54.400001525879</ele>
        <time>2021-04-11T10:10:28.000Z</time>
      </trkpt>
      <trkpt lat="49.15682" lon="1.33125">
        <ele>53.200000762939</ele>
        <time>2021-04-11T10:10:30.000Z</time>
      </trkpt>
      <trkpt lat="49.15685" lon="1.33126">
        <ele>52.799999237061</ele>
        <time>2021-04-11T10:10:31.000Z</time>
      </trkpt>
      <trkpt lat="49.15695" lon="1.33112">
        <ele>52.400001525879</ele>
        <time>2021-04-11T10:10:34.000Z</time>
      </trkpt>
      <trkpt lat="49.157" lon="1.33105">
        <ele>52.200000762939</ele>
        <time>2021-04-11T10:10:35.000Z</time>
      </trkpt>
      <trkpt lat="49.15711" lon="1.33088">
        <ele>51.799999237061</ele>
        <time>2021-04-11T10:10:37.000Z</time>
      </trkpt>
      <trkpt lat="49.15717" lon="1.33077">
        <ele>51.400001525879</ele>
        <time>2021-04-11T10:10:38.000Z</time>
      </trkpt>
      <trkpt lat="49.15723" lon="1.33064">
        <ele>50.799999237061</ele>
        <time>2021-04-11T10:10:39.000Z</time>
      </trkpt>
      <trkpt lat="49.15732" lon="1.33035">
        <ele>49.200000762939</ele>
        <time>2021-04-11T10:10:41.000Z</time>
      </trkpt>
      <trkpt lat="49.15738" lon="1.33007">
        <ele>47.200000762939</ele>
        <time>2021-04-11T10:10:43.000Z</time>
      </trkpt>
      <trkpt lat="49.15741" lon="1.32993">
        <ele>46</ele>
        <time>2021-04-11T10:10:44.000Z</time>
      </trkpt>
      <trkpt lat="49.15744" lon="1.32979">
        <ele>44.599998474121</ele>
        <time>2021-04-11T10:10:45.000Z</time>
      </trkpt>
      <trkpt lat="49.15747" lon="1.32968">
        <ele>43</ele>
        <time>2021-04-11T10:10:46.000Z</time>
      </trkpt>
      <trkpt lat="49.1575" lon="1.32957">
        <ele>41.400001525879</ele>
        <time>2021-04-11T10:10:47.000Z</time>
      </trkpt>
      <trkpt lat="49.15753" lon="1.32948">
        <ele>39.400001525879</ele>
        <time>2021-04-11T10:10:48.000Z</time>
      </trkpt>
      <trkpt lat="49.15756" lon="1.32939">
        <ele>37.799999237061</ele>
        <time>2021-04-11T10:10:49.000Z</time>
      </trkpt>
      <trkpt lat="49.1576" lon="1.32935">
        <ele>36.200000762939</ele>
        <time>2021-04-11T10:10:50.000Z</time>
      </trkpt>
      <trkpt lat="49.15763" lon="1.32937">
        <ele>35.200000762939</ele>
        <time>2021-04-11T10:10:51.000Z</time>
      </trkpt>
      <trkpt lat="49.15766" lon="1.32946">
        <ele>34</ele>
        <time>2021-04-11T10:10:53.000Z</time>
      </trkpt>
      <trkpt lat="49.15767" lon="1.32952">
        <ele>33.799999237061</ele>
        <time>2021-04-11T10:10:54.000Z</time>
      </trkpt>
      <trkpt lat="49.15769" lon="1.32969">
        <ele>33.400001525879</ele>
        <time>2021-04-11T10:10:57.000Z</time>
      </trkpt>
      <trkpt lat="49.15773" lon="1.32997">
        <ele>33</ele>
        <time>2021-04-11T10:11:00.000Z</time>
      </trkpt>
      <trkpt lat="49.15783" lon="1.33021">
        <ele>31.60000038147</ele>
        <time>2021-04-11T10:11:03.000Z</time>
      </trkpt>
      <trkpt lat="49.15798" lon="1.33024">
        <ele>29.799999237061</ele>
        <time>2021-04-11T10:11:05.000Z</time>
      </trkpt>
      <trkpt lat="49.15814" lon="1.33011">
        <ele>27.799999237061</ele>
        <time>2021-04-11T10:11:07.000Z</time>
      </trkpt>
      <trkpt lat="49.15821" lon="1.33002">
        <ele>26.60000038147</ele>
        <time>2021-04-11T10:11:08.000Z</time>
      </trkpt>
      <trkpt lat="49.15828" lon="1.32992">
        <ele>25.39999961853</ele>
        <time>2021-04-11T10:11:09.000Z</time>
      </trkpt>
      <trkpt lat="49.15834" lon="1.32982">
        <ele>23.799999237061</ele>
        <time>2021-04-11T10:11:10.000Z</time>
      </trkpt>
      <trkpt lat="49.15839" lon="1.32971">
        <ele>22.60000038147</ele>
        <time>2021-04-11T10:11:11.000Z</time>
      </trkpt>
      <trkpt lat="49.15842" lon="1.32963">
        <ele>21.39999961853</ele>
        <time>2021-04-11T10:11:12.000Z</time>
      </trkpt>
      <trkpt lat="49.15845" lon="1.32956">
        <ele>20.39999961853</ele>
        <time>2021-04-11T10:11:13.000Z</time>
      </trkpt>
      <trkpt lat="49.15851" lon="1.32954">
        <ele>19.200000762939</ele>
        <time>2021-04-11T10:11:14.000Z</time>
      </trkpt>
      <trkpt lat="49.15856" lon="1.32955">
        <ele>18.200000762939</ele>
        <time>2021-04-11T10:11:15.000Z</time>
      </trkpt>
      <trkpt lat="49.15867" lon="1.32954">
        <ele>16.39999961853</ele>
        <time>2021-04-11T10:11:17.000Z</time>
      </trkpt>
      <trkpt lat="49.15871" lon="1.32952">
        <ele>15.39999961853</ele>
        <time>2021-04-11T10:11:18.000Z</time>
      </trkpt>
      <trkpt lat="49.15876" lon="1.32951">
        <ele>14.39999961853</ele>
        <time>2021-04-11T10:11:19.000Z</time>
      </trkpt>
      <trkpt lat="49.15881" lon="1.3295">
        <ele>13.39999961853</ele>
        <time>2021-04-11T10:11:20.000Z</time>
      </trkpt>
      <trkpt lat="49.15891" lon="1.32951">
        <ele>12.199999809265</ele>
        <time>2021-04-11T10:11:22.000Z</time>
      </trkpt>
      <trkpt lat="49.15896" lon="1.32953">
        <ele>11.800000190735</ele>
        <time>2021-04-11T10:11:23.000Z</time>
      </trkpt>
      <trkpt lat="49.15901" lon="1.32956">
        <ele>11</ele>
        <time>2021-04-11T10:11:24.000Z</time>
      </trkpt>
      <trkpt lat="49.15906" lon="1.32959">
        <ele>10.800000190735</ele>
        <time>2021-04-11T10:11:25.000Z</time>
      </trkpt>
      <trkpt lat="49.1591" lon="1.32964">
        <ele>10.39999961853</ele>
        <time>2021-04-11T10:11:26.000Z</time>
      </trkpt>
      <trkpt lat="49.15915" lon="1.3297">
        <ele>9.8000001907349</ele>
        <time>2021-04-11T10:11:28.000Z</time>
      </trkpt>
      <trkpt lat="49.15915" lon="1.32971">
        <ele>9.3999996185303</ele>
        <time>2021-04-11T10:11:29.000Z</time>
      </trkpt>
      <trkpt lat="49.15915" lon="1.32971">
        <ele>9</ele>
        <time>2021-04-11T10:11:30.000Z</time>
      </trkpt>
      <trkpt lat="49.15916" lon="1.32972">
        <ele>6</ele>
        <time>2021-04-11T10:11:39.000Z</time>
      </trkpt>
      <trkpt lat="49.15915" lon="1.32978">
        <ele>5.8000001907349</ele>
        <time>2021-04-11T10:11:41.000Z</time>
      </trkpt>
      <trkpt lat="49.15914" lon="1.32988">
        <ele>5.5999999046326</ele>
        <time>2021-04-11T10:11:43.000Z</time>
      </trkpt>
      <trkpt lat="49.1591" lon="1.33004">
        <ele>5.4000000953674</ele>
        <time>2021-04-11T10:11:46.000Z</time>
      </trkpt>
      <trkpt lat="49.15904" lon="1.3304">
        <ele>5.1999998092651</ele>
        <time>2021-04-11T10:11:51.000Z</time>
      </trkpt>
      <trkpt lat="49.159" lon="1.33062">
        <ele>4.8000001907349</ele>
        <time>2021-04-11T10:11:54.000Z</time>
      </trkpt>
      <trkpt lat="49.159" lon="1.33069">
        <ele>4.8000001907349</ele>
        <time>2021-04-11T10:11:55.000Z</time>
      </trkpt>
      <trkpt lat="49.15898" lon="1.33084">
        <ele>4.4000000953674</ele>
        <time>2021-04-11T10:11:57.000Z</time>
      </trkpt>
      <trkpt lat="49.15893" lon="1.33123">
        <ele>3.5999999046326</ele>
        <time>2021-04-11T10:12:02.000Z</time>
      </trkpt>
      <trkpt lat="49.15883" lon="1.33145">
        <ele>3</ele>
        <time>2021-04-11T10:12:06.000Z</time>
      </trkpt>
      <trkpt lat="49.15877" lon="1.33162">
        <ele>3</ele>
        <time>2021-04-11T10:12:09.000Z</time>
      </trkpt>
      <trkpt lat="49.15875" lon="1.33169">
        <ele>3</ele>
        <time>2021-04-11T10:12:10.000Z</time>
      </trkpt>
      <trkpt lat="49.15861" lon="1.33225">
        <ele>4</ele>
        <time>2021-04-11T10:12:18.000Z</time>
      </trkpt>
      <trkpt lat="49.15857" lon="1.33246">
        <ele>4.5999999046326</ele>
        <time>2021-04-11T10:12:21.000Z</time>
      </trkpt>
      <trkpt lat="49.15852" lon="1.3327">
        <ele>4.8000001907349</ele>
        <time>2021-04-11T10:12:24.000Z</time>
      </trkpt>
      <trkpt lat="49.15845" lon="1.33313">
        <ele>4.8000001907349</ele>
        <time>2021-04-11T10:12:30.000Z</time>
      </trkpt>
      <trkpt lat="49.15843" lon="1.3332">
        <ele>4.8000001907349</ele>
        <time>2021-04-11T10:12:33.000Z</time>
      </trkpt>
      <trkpt lat="49.1584" lon="1.33327">
        <ele>4.8000001907349</ele>
        <time>2021-04-11T10:12:39.000Z</time>
      </trkpt>
      <trkpt lat="49.15836" lon="1.33339">
        <ele>4.4000000953674</ele>
        <time>2021-04-11T10:12:43.000Z</time>
      </trkpt>
      <trkpt lat="49.15815" lon="1.33375">
        <ele>3.7999999523163</ele>
        <time>2021-04-11T10:12:49.000Z</time>
      </trkpt>
      <trkpt lat="49.15807" lon="1.33389">
        <ele>3.5999999046326</ele>
        <time>2021-04-11T10:12:51.000Z</time>
      </trkpt>
      <trkpt lat="49.15803" lon="1.33395">
        <ele>3.4000000953674</ele>
        <time>2021-04-11T10:12:52.000Z</time>
      </trkpt>
      <trkpt lat="49.15802" lon="1.33401">
        <ele>3</ele>
        <time>2021-04-11T10:12:53.000Z</time>
      </trkpt>
      <trkpt lat="49.15807" lon="1.33413">
        <ele>2.5999999046326</ele>
        <time>2021-04-11T10:12:55.000Z</time>
      </trkpt>
      <trkpt lat="49.15812" lon="1.33419">
        <ele>2.2000000476837</ele>
        <time>2021-04-11T10:12:56.000Z</time>
      </trkpt>
      <trkpt lat="49.15817" lon="1.33425">
        <ele>2.2000000476837</ele>
        <time>2021-04-11T10:12:57.000Z</time>
      </trkpt>
      <trkpt lat="49.15834" lon="1.33447">
        <ele>1.2000000476837</ele>
        <time>2021-04-11T10:13:00.000Z</time>
      </trkpt>
      <trkpt lat="49.15845" lon="1.33461">
        <ele>0.80000001192093</ele>
        <time>2021-04-11T10:13:02.000Z</time>
      </trkpt>
      <trkpt lat="49.15855" lon="1.33475">
        <ele>21.1</ele>
        <time>2021-04-11T10:13:04.000Z</time>
      </trkpt>
      <trkpt lat="49.15869" lon="1.33493">
        <ele>-1.3999999761581</ele>
        <time>2021-04-11T10:13:07.000Z</time>
      </trkpt>
      <trkpt lat="49.15876" lon="1.33504">
        <ele>-2.2000000476837</ele>
        <time>2021-04-11T10:13:09.000Z</time>
      </trkpt>
      <trkpt lat="49.15877" lon="1.3351">
        <ele>-2.5999999046326</ele>
        <time>2021-04-11T10:13:10.000Z</time>
      </trkpt>
      <trkpt lat="49.15874" lon="1.33525">
        <ele>-3.5999999046326</ele>
        <time>2021-04-11T10:13:12.000Z</time>
      </trkpt>
      <trkpt lat="49.15872" lon="1.33533">
        <ele>-4</ele>
        <time>2021-04-11T10:13:13.000Z</time>
      </trkpt>
      <trkpt lat="49.15868" lon="1.33549">
        <ele>-4.4000000953674</ele>
        <time>2021-04-11T10:13:15.000Z</time>
      </trkpt>
      <trkpt lat="49.15863" lon="1.33565">
        <ele>-4.8000001907349</ele>
        <time>2021-04-11T10:13:17.000Z</time>
      </trkpt>
      <trkpt lat="49.15861" lon="1.33573">
        <ele>-4.8000001907349</ele>
        <time>2021-04-11T10:13:18.000Z</time>
      </trkpt>
      <trkpt lat="49.15857" lon="1.3358">
        <ele>-4.8000001907349</ele>
        <time>2021-04-11T10:13:19.000Z</time>
      </trkpt>
      <trkpt lat="49.15833" lon="1.33627">
        <ele>-5.1999998092651</ele>
        <time>2021-04-11T10:13:25.000Z</time>
      </trkpt>
      <trkpt lat="49.15809" lon="1.33661">
        <ele>-5.4000000953674</ele>
        <time>2021-04-11T10:13:30.000Z</time>
      </trkpt>
      <trkpt lat="49.15791" lon="1.33686">
        <ele>-5.4000000953674</ele>
        <time>2021-04-11T10:13:34.000Z</time>
      </trkpt>
      <trkpt lat="49.15787" lon="1.3369">
        <ele>-5.4000000953674</ele>
        <time>2021-04-11T10:13:35.000Z</time>
      </trkpt>
      <trkpt lat="49.15766" lon="1.337">
        <ele>-5.4000000953674</ele>
        <time>2021-04-11T10:13:39.000Z</time>
      </trkpt>
      <trkpt lat="49.15718" lon="1.33717">
        <ele>-4.4000000953674</ele>
        <time>2021-04-11T10:13:48.000Z</time>
      </trkpt>
      <trkpt lat="49.15703" lon="1.33721">
        <ele>-3.5999999046326</ele>
        <time>2021-04-11T10:13:51.000Z</time>
      </trkpt>
      <trkpt lat="49.15679" lon="1.33727">
        <ele>-2.2000000476837</ele>
        <time>2021-04-11T10:13:56.000Z</time>
      </trkpt>
      <trkpt lat="49.15661" lon="1.3373">
        <ele>-1.2000000476837</ele>
        <time>2021-04-11T10:14:00.000Z</time>
      </trkpt>
      <trkpt lat="49.15652" lon="1.33732">
        <ele>-0.60000002384186</ele>
        <time>2021-04-11T10:14:02.000Z</time>
      </trkpt>
      <trkpt lat="49.15646" lon="1.33738">
        <ele>27.7</ele>
        <time>2021-04-11T10:14:04.000Z</time>
      </trkpt>
      <trkpt lat="49.15644" lon="1.33744">
        <ele>0.20000000298023</ele>
        <time>2021-04-11T10:14:05.000Z</time>
      </trkpt>
      <trkpt lat="49.15645" lon="1.33764">
        <ele>1.2000000476837</ele>
        <time>2021-04-11T10:14:08.000Z</time>
      </trkpt>
      <trkpt lat="49.15651" lon="1.33789">
        <ele>1.6000000238419</ele>
        <time>2021-04-11T10:14:11.000Z</time>
      </trkpt>
      <trkpt lat="49.15655" lon="1.33807">
        <ele>1.6000000238419</ele>
        <time>2021-04-11T10:14:13.000Z</time>
      </trkpt>
      <trkpt lat="49.15668" lon="1.33885">
        <ele>0.60000002384186</ele>
        <time>2021-04-11T10:14:21.000Z</time>
      </trkpt>
      <trkpt lat="49.1567" lon="1.33905">
        <ele>-0.20000000298023</ele>
        <time>2021-04-11T10:14:23.000Z</time>
      </trkpt>
      <trkpt lat="49.15677" lon="1.33945">
        <ele>-1</ele>
        <time>2021-04-11T10:14:27.000Z</time>
      </trkpt>
      <trkpt lat="49.15677" lon="1.33965">
        <ele>-1.2000000476837</ele>
        <time>2021-04-11T10:14:29.000Z</time>
      </trkpt>
      <trkpt lat="49.15675" lon="1.33974">
        <ele>-1.3999999761581</ele>
        <time>2021-04-11T10:14:30.000Z</time>
      </trkpt>
      <trkpt lat="49.15664" lon="1.34">
        <ele>-2.2000000476837</ele>
        <time>2021-04-11T10:14:33.000Z</time>
      </trkpt>
      <trkpt lat="49.15656" lon="1.34016">
        <ele>-2.4000000953674</ele>
        <time>2021-04-11T10:14:35.000Z</time>
      </trkpt>
      <trkpt lat="49.15646" lon="1.34031">
        <ele>-2.5999999046326</ele>
        <time>2021-04-11T10:14:37.000Z</time>
      </trkpt>
      <trkpt lat="49.15632" lon="1.34049">
        <ele>-2.7999999523163</ele>
        <time>2021-04-11T10:14:40.000Z</time>
      </trkpt>
      <trkpt lat="49.15604" lon="1.34089">
        <ele>-2.5999999046326</ele>
        <time>2021-04-11T10:14:46.000Z</time>
      </trkpt>
      <trkpt lat="49.15572" lon="1.34127">
        <ele>-3</ele>
        <time>2021-04-11T10:14:52.000Z</time>
      </trkpt>
      <trkpt lat="49.15548" lon="1.3415">
        <ele>-3</ele>
        <time>2021-04-11T10:14:56.000Z</time>
      </trkpt>
      <trkpt lat="49.15522" lon="1.34175">
        <ele>-3.5999999046326</ele>
        <time>2021-04-11T10:15:00.000Z</time>
      </trkpt>
      <trkpt lat="49.15503" lon="1.34195">
        <ele>-4</ele>
        <time>2021-04-11T10:15:03.000Z</time>
      </trkpt>
      <trkpt lat="49.15465" lon="1.34242">
        <ele>-4.4000000953674</ele>
        <time>2021-04-11T10:15:09.000Z</time>
      </trkpt>
      <trkpt lat="49.15438" lon="1.34287">
        <ele>-4.8000001907349</ele>
        <time>2021-04-11T10:15:14.000Z</time>
      </trkpt>
      <trkpt lat="49.15433" lon="1.34296">
        <ele>-4.8000001907349</ele>
        <time>2021-04-11T10:15:15.000Z</time>
      </trkpt>
      <trkpt lat="49.15419" lon="1.34325">
        <ele>-5</ele>
        <time>2021-04-11T10:15:18.000Z</time>
      </trkpt>
      <trkpt lat="49.15412" lon="1.34343">
        <ele>-5.1999998092651</ele>
        <time>2021-04-11T10:15:20.000Z</time>
      </trkpt>
      <trkpt lat="49.15408" lon="1.34347">
        <ele>-5.4000000953674</ele>
        <time>2021-04-11T10:15:21.000Z</time>
      </trkpt>
      <trkpt lat="49.15403" lon="1.34347">
        <ele>-5.4000000953674</ele>
        <time>2021-04-11T10:15:22.000Z</time>
      </trkpt>
      <trkpt lat="49.15385" lon="1.34333">
        <ele>-5.4000000953674</ele>
        <time>2021-04-11T10:15:26.000Z</time>
      </trkpt>
      <trkpt lat="49.15345" lon="1.34295">
        <ele>-5.1999998092651</ele>
        <time>2021-04-11T10:15:34.000Z</time>
      </trkpt>
      <trkpt lat="49.15326" lon="1.34276">
        <ele>-4.8000001907349</ele>
        <time>2021-04-11T10:15:38.000Z</time>
      </trkpt>
      <trkpt lat="49.15318" lon="1.34268">
        <ele>-4.8000001907349</ele>
        <time>2021-04-11T10:15:40.000Z</time>
      </trkpt>
      <trkpt lat="49.15311" lon="1.34274">
        <ele>-4.5999999046326</ele>
        <time>2021-04-11T10:15:42.000Z</time>
      </trkpt>
      <trkpt lat="49.15303" lon="1.34291">
        <ele>-4.1999998092651</ele>
        <time>2021-04-11T10:15:45.000Z</time>
      </trkpt>
      <trkpt lat="49.15293" lon="1.34309">
        <ele>-3.5999999046326</ele>
        <time>2021-04-11T10:15:48.000Z</time>
      </trkpt>
      <trkpt lat="49.15266" lon="1.34364">
        <ele>-3</ele>
        <time>2021-04-11T10:15:56.000Z</time>
      </trkpt>
      <trkpt lat="49.15254" lon="1.34388">
        <ele>-3</ele>
        <time>2021-04-11T10:16:00.000Z</time>
      </trkpt>
      <trkpt lat="49.15247" lon="1.344">
        <ele>-3</ele>
        <time>2021-04-11T10:16:02.000Z</time>
      </trkpt>
      <trkpt lat="49.15236" lon="1.34419">
        <ele>-3</ele>
        <time>2021-04-11T10:16:05.000Z</time>
      </trkpt>
      <trkpt lat="49.15229" lon="1.34431">
        <ele>-3</ele>
        <time>2021-04-11T10:16:07.000Z</time>
      </trkpt>
      <trkpt lat="49.15211" lon="1.34458">
        <ele>-3.5999999046326</ele>
        <time>2021-04-11T10:16:13.000Z</time>
      </trkpt>
      <trkpt lat="49.15194" lon="1.34503">
        <ele>-5.4000000953674</ele>
        <time>2021-04-11T10:16:21.000Z</time>
      </trkpt>
      <trkpt lat="49.15172" lon="1.34537">
        <ele>-5.5999999046326</ele>
        <time>2021-04-11T10:16:26.000Z</time>
      </trkpt>
      <trkpt lat="49.15155" lon="1.3456">
        <ele>-5.4000000953674</ele>
        <time>2021-04-11T10:16:32.000Z</time>
      </trkpt>
      <trkpt lat="49.15147" lon="1.34572">
        <ele>-4</ele>
        <time>2021-04-11T10:16:35.000Z</time>
      </trkpt>
      <trkpt lat="49.15138" lon="1.34583">
        <ele>-2.7999999523163</ele>
        <time>2021-04-11T10:16:38.000Z</time>
      </trkpt>
      <trkpt lat="49.15127" lon="1.34599">
        <ele>-1.7999999523163</ele>
        <time>2021-04-11T10:16:42.000Z</time>
      </trkpt>
      <trkpt lat="49.15107" lon="1.34625">
        <ele>-1.2000000476837</ele>
        <time>2021-04-11T10:16:49.000Z</time>
      </trkpt>
      <trkpt lat="49.15099" lon="1.34636">
        <ele>-0.80000001192093</ele>
        <time>2021-04-11T10:16:52.000Z</time>
      </trkpt>
      <trkpt lat="49.15085" lon="1.34654">
        <ele>-0.40000000596046</ele>
        <time>2021-04-11T10:16:57.000Z</time>
      </trkpt>
      <trkpt lat="49.15071" lon="1.34672">
        <ele>0.40000000596046</ele>
        <time>2021-04-11T10:17:02.000Z</time>
      </trkpt>
      <trkpt lat="49.1506" lon="1.34687">
        <ele>0.80000001192093</ele>
        <time>2021-04-11T10:17:06.000Z</time>
      </trkpt>
      <trkpt lat="49.15053" lon="1.34695">
        <ele>1.2000000476837</ele>
        <time>2021-04-11T10:17:08.000Z</time>
      </trkpt>
      <trkpt lat="49.1505" lon="1.34698">
        <ele>1.3999999761581</ele>
        <time>2021-04-11T10:17:09.000Z</time>
      </trkpt>
      <trkpt lat="49.15038" lon="1.34714">
        <ele>2</ele>
        <time>2021-04-11T10:17:13.000Z</time>
      </trkpt>
      <trkpt lat="49.15023" lon="1.34736">
        <ele>2.5999999046326</ele>
        <time>2021-04-11T10:17:18.000Z</time>
      </trkpt>
      <trkpt lat="49.1502" lon="1.3474">
        <ele>2.5999999046326</ele>
        <time>2021-04-11T10:17:19.000Z</time>
      </trkpt>
      <trkpt lat="49.14993" lon="1.34778">
        <ele>3</ele>
        <time>2021-04-11T10:17:27.000Z</time>
      </trkpt>
      <trkpt lat="49.14984" lon="1.34795">
        <ele>3.2000000476837</ele>
        <time>2021-04-11T10:17:30.000Z</time>
      </trkpt>
      <trkpt lat="49.1498" lon="1.34808">
        <ele>3.2000000476837</ele>
        <time>2021-04-11T10:17:32.000Z</time>
      </trkpt>
      <trkpt lat="49.14978" lon="1.34843">
        <ele>3.2000000476837</ele>
        <time>2021-04-11T10:17:36.000Z</time>
      </trkpt>
      <trkpt lat="49.14981" lon="1.34862">
        <ele>3.2000000476837</ele>
        <time>2021-04-11T10:17:38.000Z</time>
      </trkpt>
      <trkpt lat="49.14984" lon="1.34881">
        <ele>3.2000000476837</ele>
        <time>2021-04-11T10:17:40.000Z</time>
      </trkpt>
      <trkpt lat="49.14985" lon="1.34891">
        <ele>3.2000000476837</ele>
        <time>2021-04-11T10:17:41.000Z</time>
      </trkpt>
    </trkseg>
  </trk>
</gpx>